<?xml version='1.0' encoding='UTF-8'?><gpx version="1.1" creator="JPX - https://github.com/jenetics/jpx" xmlns="http://www.topografix.com/GPX/1/1"><trk><trkseg><trkpt lat="40.815993" lon="16.5496881"><ele>434.2</ele><time>2026-04-18T15:06:46.926Z</time></trkpt><trkpt lat="40.8159014" lon="16.549721"><ele>433.4</ele><time>2026-04-18T15:06:49.861Z</time></trkpt><trkpt lat="40.8158242" lon="16.5497507"><ele>432.6</ele><time>2026-04-18T15:06:51.958Z</time></trkpt><trkpt lat="40.8157375" lon="16.54974"><ele>431.8</ele><time>2026-04-18T15:06:53.971Z</time></trkpt><trkpt lat="40.8156454" lon="16.5497088"><ele>431.0</ele><time>2026-04-18T15:06:55.984Z</time></trkpt><trkpt lat="40.8155412" lon="16.5496832"><ele>431.0</ele><time>2026-04-18T15:06:57.996Z</time></trkpt><trkpt lat="40.8154483" lon="16.549674"><ele>431.0</ele><time>2026-04-18T15:06:58.919Z</time></trkpt><trkpt lat="40.815384" lon="16.549661"><ele>431.0</ele><time>2026-04-18T15:06:59.917Z</time></trkpt><trkpt lat="40.8152662" lon="16.5496127"><ele>431.0</ele><time>2026-04-18T15:07:01.919Z</time></trkpt><trkpt lat="40.8151798" lon="16.549588"><ele>431.0</ele><time>2026-04-18T15:07:02.918Z</time></trkpt><trkpt lat="40.8150768" lon="16.5495612"><ele>430.5</ele><time>2026-04-18T15:07:03.918Z</time></trkpt><trkpt lat="40.8149601" lon="16.5495429"><ele>430.0</ele><time>2026-04-18T15:07:04.918Z</time></trkpt><trkpt lat="40.8148324" lon="16.5495327"><ele>429.5</ele><time>2026-04-18T15:07:05.918Z</time></trkpt><trkpt lat="40.8146984" lon="16.5495258"><ele>429.0</ele><time>2026-04-18T15:07:06.918Z</time></trkpt><trkpt lat="40.814553" lon="16.5495321"><ele>429.0</ele><time>2026-04-18T15:07:07.919Z</time></trkpt><trkpt lat="40.8144104" lon="16.5495492"><ele>429.0</ele><time>2026-04-18T15:07:08.918Z</time></trkpt><trkpt lat="40.8142768" lon="16.5495716"><ele>429.0</ele><time>2026-04-18T15:07:09.917Z</time></trkpt><trkpt lat="40.8141443" lon="16.5495987"><ele>429.0</ele><time>2026-04-18T15:07:10.918Z</time></trkpt><trkpt lat="40.8140165" lon="16.5496378"><ele>427.75</ele><time>2026-04-18T15:07:11.918Z</time></trkpt><trkpt lat="40.8139035" lon="16.5497024"><ele>426.5</ele><time>2026-04-18T15:07:12.918Z</time></trkpt><trkpt lat="40.813802" lon="16.5497671"><ele>425.25</ele><time>2026-04-18T15:07:13.918Z</time></trkpt><trkpt lat="40.8137006" lon="16.5498211"><ele>424.0</ele><time>2026-04-18T15:07:14.916Z</time></trkpt><trkpt lat="40.8135926" lon="16.5498435"><ele>423.25</ele><time>2026-04-18T15:07:15.917Z</time></trkpt><trkpt lat="40.8134762" lon="16.5498376"><ele>422.5</ele><time>2026-04-18T15:07:16.916Z</time></trkpt><trkpt lat="40.8133528" lon="16.5498146"><ele>421.75</ele><time>2026-04-18T15:07:17.917Z</time></trkpt><trkpt lat="40.8132318" lon="16.5497899"><ele>421.0</ele><time>2026-04-18T15:07:18.918Z</time></trkpt><trkpt lat="40.8131071" lon="16.5497686"><ele>421.0</ele><time>2026-04-18T15:07:19.918Z</time></trkpt><trkpt lat="40.8129882" lon="16.54974"><ele>421.0</ele><time>2026-04-18T15:07:20.917Z</time></trkpt><trkpt lat="40.8128667" lon="16.5496953"><ele>421.0</ele><time>2026-04-18T15:07:21.918Z</time></trkpt><trkpt lat="40.8127449" lon="16.5496259"><ele>421.0</ele><time>2026-04-18T15:07:22.918Z</time></trkpt><trkpt lat="40.8126188" lon="16.5495335"><ele>419.5</ele><time>2026-04-18T15:07:23.92Z</time></trkpt><trkpt lat="40.8124901" lon="16.5494275"><ele>418.0</ele><time>2026-04-18T15:07:24.918Z</time></trkpt><trkpt lat="40.8123661" lon="16.5493232"><ele>416.5</ele><time>2026-04-18T15:07:25.919Z</time></trkpt><trkpt lat="40.8122495" lon="16.5492263"><ele>415.0</ele><time>2026-04-18T15:07:26.917Z</time></trkpt><trkpt lat="40.8121408" lon="16.5491304"><ele>415.0</ele><time>2026-04-18T15:07:27.918Z</time></trkpt><trkpt lat="40.8120422" lon="16.5490235"><ele>415.0</ele><time>2026-04-18T15:07:28.92Z</time></trkpt><trkpt lat="40.8119573" lon="16.5488894"><ele>415.0</ele><time>2026-04-18T15:07:29.918Z</time></trkpt><trkpt lat="40.8118717" lon="16.5487393"><ele>415.0</ele><time>2026-04-18T15:07:30.918Z</time></trkpt><trkpt lat="40.8117772" lon="16.54859"><ele>414.0</ele><time>2026-04-18T15:07:31.918Z</time></trkpt><trkpt lat="40.8116816" lon="16.5484512"><ele>413.0</ele><time>2026-04-18T15:07:32.917Z</time></trkpt><trkpt lat="40.8115819" lon="16.5483272"><ele>412.0</ele><time>2026-04-18T15:07:33.918Z</time></trkpt><trkpt lat="40.8114785" lon="16.5482162"><ele>411.0</ele><time>2026-04-18T15:07:34.918Z</time></trkpt><trkpt lat="40.8113766" lon="16.5481101"><ele>411.0</ele><time>2026-04-18T15:07:35.918Z</time></trkpt><trkpt lat="40.8112814" lon="16.5480018"><ele>411.0</ele><time>2026-04-18T15:07:36.918Z</time></trkpt><trkpt lat="40.8111944" lon="16.5478916"><ele>411.0</ele><time>2026-04-18T15:07:37.919Z</time></trkpt><trkpt lat="40.811116" lon="16.5477771"><ele>411.0</ele><time>2026-04-18T15:07:38.917Z</time></trkpt><trkpt lat="40.8110417" lon="16.5476628"><ele>410.4</ele><time>2026-04-18T15:07:39.918Z</time></trkpt><trkpt lat="40.8109635" lon="16.5475617"><ele>409.8</ele><time>2026-04-18T15:07:40.918Z</time></trkpt><trkpt lat="40.8108759" lon="16.5474794"><ele>409.2</ele><time>2026-04-18T15:07:41.918Z</time></trkpt><trkpt lat="40.8107819" lon="16.5474154"><ele>408.59999999999997</ele><time>2026-04-18T15:07:42.918Z</time></trkpt><trkpt lat="40.8106835" lon="16.5473578"><ele>408.0</ele><time>2026-04-18T15:07:43.918Z</time></trkpt><trkpt lat="40.8105852" lon="16.5473001"><ele>408.0</ele><time>2026-04-18T15:07:44.917Z</time></trkpt><trkpt lat="40.8104883" lon="16.5472483"><ele>408.0</ele><time>2026-04-18T15:07:45.918Z</time></trkpt><trkpt lat="40.810392" lon="16.547195"><ele>408.0</ele><time>2026-04-18T15:07:46.918Z</time></trkpt><trkpt lat="40.8101974" lon="16.5470883"><ele>408.0</ele><time>2026-04-18T15:07:48.919Z</time></trkpt><trkpt lat="40.8100966" lon="16.5470349"><ele>407.2</ele><time>2026-04-18T15:07:49.918Z</time></trkpt><trkpt lat="40.8100012" lon="16.5469781"><ele>406.4</ele><time>2026-04-18T15:07:50.918Z</time></trkpt><trkpt lat="40.8099065" lon="16.5469231"><ele>405.59999999999997</ele><time>2026-04-18T15:07:51.92Z</time></trkpt><trkpt lat="40.8098164" lon="16.5468699"><ele>404.79999999999995</ele><time>2026-04-18T15:07:52.918Z</time></trkpt><trkpt lat="40.80973" lon="16.5468183"><ele>404.0</ele><time>2026-04-18T15:07:53.918Z</time></trkpt><trkpt lat="40.8096467" lon="16.54677"><ele>403.99999999999994</ele><time>2026-04-18T15:07:54.918Z</time></trkpt><trkpt lat="40.8095683" lon="16.5467117"><ele>404.0</ele><time>2026-04-18T15:07:55.918Z</time></trkpt><trkpt lat="40.8095017" lon="16.5466367"><ele>404.0</ele><time>2026-04-18T15:07:56.918Z</time></trkpt><trkpt lat="40.80946" lon="16.546545"><ele>404.0</ele><time>2026-04-18T15:07:57.918Z</time></trkpt><trkpt lat="40.8094333" lon="16.5464467"><ele>403.99999999999994</ele><time>2026-04-18T15:07:58.918Z</time></trkpt><trkpt lat="40.8094167" lon="16.546355"><ele>404.0</ele><time>2026-04-18T15:07:59.918Z</time></trkpt><trkpt lat="40.8093933" lon="16.5462633"><ele>403.6</ele><time>2026-04-18T15:08:00.918Z</time></trkpt><trkpt lat="40.809355" lon="16.5461733"><ele>403.2</ele><time>2026-04-18T15:08:01.918Z</time></trkpt><trkpt lat="40.8092917" lon="16.5460983"><ele>402.8</ele><time>2026-04-18T15:08:02.918Z</time></trkpt><trkpt lat="40.8092083" lon="16.5460283"><ele>402.40000000000003</ele><time>2026-04-18T15:08:03.918Z</time></trkpt><trkpt lat="40.8091133" lon="16.545955"><ele>402.0</ele><time>2026-04-18T15:08:04.918Z</time></trkpt><trkpt lat="40.80901" lon="16.5458733"><ele>402.0</ele><time>2026-04-18T15:08:05.918Z</time></trkpt><trkpt lat="40.8089017" lon="16.5457833"><ele>402.0</ele><time>2026-04-18T15:08:06.918Z</time></trkpt><trkpt lat="40.8087933" lon="16.5456917"><ele>402.0</ele><time>2026-04-18T15:08:07.918Z</time></trkpt><trkpt lat="40.8086783" lon="16.5456067"><ele>402.0</ele><time>2026-04-18T15:08:08.917Z</time></trkpt><trkpt lat="40.808535" lon="16.5455317"><ele>400.33333333333337</ele><time>2026-04-18T15:08:09.918Z</time></trkpt><trkpt lat="40.8083683" lon="16.5454617"><ele>398.6666666666667</ele><time>2026-04-18T15:08:10.919Z</time></trkpt><trkpt lat="40.8081833" lon="16.5453817"><ele>397.0</ele><time>2026-04-18T15:08:11.918Z</time></trkpt><trkpt lat="40.8079917" lon="16.5452983"><ele>397.0</ele><time>2026-04-18T15:08:12.918Z</time></trkpt><trkpt lat="40.8078083" lon="16.5452217"><ele>397.0</ele><time>2026-04-18T15:08:13.918Z</time></trkpt><trkpt lat="40.8076383" lon="16.5451517"><ele>397.0</ele><time>2026-04-18T15:08:14.918Z</time></trkpt><trkpt lat="40.807475" lon="16.545085"><ele>396.0</ele><time>2026-04-18T15:08:15.919Z</time></trkpt><trkpt lat="40.8073233" lon="16.5450217"><ele>395.0</ele><time>2026-04-18T15:08:16.918Z</time></trkpt><trkpt lat="40.8071783" lon="16.544965"><ele>394.0</ele><time>2026-04-18T15:08:17.918Z</time></trkpt><trkpt lat="40.8070433" lon="16.544915"><ele>394.0</ele><time>2026-04-18T15:08:18.918Z</time></trkpt><trkpt lat="40.8069183" lon="16.5448667"><ele>394.0</ele><time>2026-04-18T15:08:19.919Z</time></trkpt><trkpt lat="40.8068033" lon="16.5448133"><ele>394.0</ele><time>2026-04-18T15:08:20.918Z</time></trkpt><trkpt lat="40.8066967" lon="16.5447483"><ele>394.0</ele><time>2026-04-18T15:08:21.918Z</time></trkpt><trkpt lat="40.8066" lon="16.5446567"><ele>393.25</ele><time>2026-04-18T15:08:22.919Z</time></trkpt><trkpt lat="40.8065133" lon="16.544535"><ele>392.5</ele><time>2026-04-18T15:08:23.919Z</time></trkpt><trkpt lat="40.8064317" lon="16.5444067"><ele>391.75</ele><time>2026-04-18T15:08:24.919Z</time></trkpt><trkpt lat="40.806355" lon="16.5442833"><ele>391.0</ele><time>2026-04-18T15:08:25.918Z</time></trkpt><trkpt lat="40.8062783" lon="16.544185"><ele>391.0</ele><time>2026-04-18T15:08:26.918Z</time></trkpt><trkpt lat="40.8061933" lon="16.5441183"><ele>391.0</ele><time>2026-04-18T15:08:27.918Z</time></trkpt><trkpt lat="40.8060967" lon="16.544065"><ele>391.0</ele><time>2026-04-18T15:08:28.918Z</time></trkpt><trkpt lat="40.8059933" lon="16.544025"><ele>391.0</ele><time>2026-04-18T15:08:29.918Z</time></trkpt><trkpt lat="40.805875" lon="16.5439867"><ele>391.0</ele><time>2026-04-18T15:08:30.917Z</time></trkpt><trkpt lat="40.8057433" lon="16.5439433"><ele>390.5</ele><time>2026-04-18T15:08:31.918Z</time></trkpt><trkpt lat="40.805605" lon="16.5438933"><ele>390.0</ele><time>2026-04-18T15:08:32.916Z</time></trkpt><trkpt lat="40.8054717" lon="16.5438433"><ele>389.5</ele><time>2026-04-18T15:08:33.916Z</time></trkpt><trkpt lat="40.8053617" lon="16.5438017"><ele>389.0</ele><time>2026-04-18T15:08:34.922Z</time></trkpt><trkpt lat="40.8052617" lon="16.5437617"><ele>389.0</ele><time>2026-04-18T15:08:35.918Z</time></trkpt><trkpt lat="40.80517" lon="16.543715"><ele>389.0</ele><time>2026-04-18T15:08:36.918Z</time></trkpt><trkpt lat="40.80508" lon="16.543645"><ele>389.0</ele><time>2026-04-18T15:08:37.919Z</time></trkpt><trkpt lat="40.8049817" lon="16.5435533"><ele>389.0</ele><time>2026-04-18T15:08:38.919Z</time></trkpt><trkpt lat="40.8048617" lon="16.54344"><ele>388.0</ele><time>2026-04-18T15:08:39.918Z</time></trkpt><trkpt lat="40.8047217" lon="16.5433133"><ele>387.0</ele><time>2026-04-18T15:08:40.919Z</time></trkpt><trkpt lat="40.8045667" lon="16.5431783"><ele>386.0</ele><time>2026-04-18T15:08:41.918Z</time></trkpt><trkpt lat="40.8044" lon="16.5430333"><ele>385.0</ele><time>2026-04-18T15:08:42.919Z</time></trkpt><trkpt lat="40.8042283" lon="16.54288"><ele>384.0</ele><time>2026-04-18T15:08:43.919Z</time></trkpt><trkpt lat="40.804055" lon="16.542725"><ele>383.0</ele><time>2026-04-18T15:08:44.918Z</time></trkpt><trkpt lat="40.8038867" lon="16.5425767"><ele>383.0</ele><time>2026-04-18T15:08:45.918Z</time></trkpt><trkpt lat="40.8037183" lon="16.5424367"><ele>383.0</ele><time>2026-04-18T15:08:46.919Z</time></trkpt><trkpt lat="40.8035483" lon="16.5422967"><ele>383.0</ele><time>2026-04-18T15:08:47.919Z</time></trkpt><trkpt lat="40.80338" lon="16.542155"><ele>382.0</ele><time>2026-04-18T15:08:48.918Z</time></trkpt><trkpt lat="40.8032167" lon="16.54201"><ele>381.0</ele><time>2026-04-18T15:08:49.919Z</time></trkpt><trkpt lat="40.8030583" lon="16.541865"><ele>380.0</ele><time>2026-04-18T15:08:50.918Z</time></trkpt><trkpt lat="40.8029017" lon="16.5417167"><ele>380.0</ele><time>2026-04-18T15:08:51.918Z</time></trkpt><trkpt lat="40.80275" lon="16.5415717"><ele>380.0</ele><time>2026-04-18T15:08:52.919Z</time></trkpt><trkpt lat="40.8026083" lon="16.5414283"><ele>380.0</ele><time>2026-04-18T15:08:53.918Z</time></trkpt><trkpt lat="40.8024633" lon="16.54128"><ele>380.33333333333337</ele><time>2026-04-18T15:08:54.919Z</time></trkpt><trkpt lat="40.8023183" lon="16.5411367"><ele>380.6666666666667</ele><time>2026-04-18T15:08:55.92Z</time></trkpt><trkpt lat="40.8021783" lon="16.5409933"><ele>381.0</ele><time>2026-04-18T15:08:56.917Z</time></trkpt><trkpt lat="40.802045" lon="16.54084"><ele>381.0</ele><time>2026-04-18T15:08:57.918Z</time></trkpt><trkpt lat="40.8019083" lon="16.5406783"><ele>381.0</ele><time>2026-04-18T15:08:58.919Z</time></trkpt><trkpt lat="40.8017683" lon="16.540515"><ele>381.0</ele><time>2026-04-18T15:08:59.918Z</time></trkpt><trkpt lat="40.8016317" lon="16.540355"><ele>381.0</ele><time>2026-04-18T15:09:00.918Z</time></trkpt><trkpt lat="40.8014983" lon="16.5401983"><ele>381.0</ele><time>2026-04-18T15:09:01.917Z</time></trkpt><trkpt lat="40.801365" lon="16.5400399"><ele>381.0</ele><time>2026-04-18T15:09:02.917Z</time></trkpt><trkpt lat="40.8012287" lon="16.5398724"><ele>381.0</ele><time>2026-04-18T15:09:03.918Z</time></trkpt><trkpt lat="40.8010953" lon="16.5396935"><ele>381.0</ele><time>2026-04-18T15:09:04.919Z</time></trkpt><trkpt lat="40.8009635" lon="16.5395166"><ele>381.0</ele><time>2026-04-18T15:09:05.918Z</time></trkpt><trkpt lat="40.8008294" lon="16.5393465"><ele>380.3333333333333</ele><time>2026-04-18T15:09:06.919Z</time></trkpt><trkpt lat="40.800699" lon="16.5391816"><ele>379.66666666666663</ele><time>2026-04-18T15:09:07.919Z</time></trkpt><trkpt lat="40.8005678" lon="16.5390184"><ele>379.0</ele><time>2026-04-18T15:09:08.918Z</time></trkpt><trkpt lat="40.8004367" lon="16.5388593"><ele>378.75</ele><time>2026-04-18T15:09:09.918Z</time></trkpt><trkpt lat="40.8003134" lon="16.5387143"><ele>378.5</ele><time>2026-04-18T15:09:10.918Z</time></trkpt><trkpt lat="40.8002011" lon="16.5385844"><ele>378.25</ele><time>2026-04-18T15:09:11.918Z</time></trkpt><trkpt lat="40.800102" lon="16.5384714"><ele>378.0</ele><time>2026-04-18T15:09:12.919Z</time></trkpt><trkpt lat="40.8000168" lon="16.5383775"><ele>377.79999999999995</ele><time>2026-04-18T15:09:13.917Z</time></trkpt><trkpt lat="40.799949" lon="16.5382976"><ele>377.6</ele><time>2026-04-18T15:09:14.917Z</time></trkpt><trkpt lat="40.7998981" lon="16.5382325"><ele>377.4</ele><time>2026-04-18T15:09:15.917Z</time></trkpt><trkpt lat="40.7998328" lon="16.5381388"><ele>377.20000000000005</ele><time>2026-04-18T15:09:17.918Z</time></trkpt><trkpt lat="40.7998033" lon="16.5380317"><ele>377.0</ele><time>2026-04-18T15:09:50.916Z</time></trkpt><trkpt lat="40.79986" lon="16.5378767"><ele>376.5</ele><time>2026-04-18T15:09:52.919Z</time></trkpt><trkpt lat="40.7999033" lon="16.5377717"><ele>376.0</ele><time>2026-04-18T15:09:53.918Z</time></trkpt><trkpt lat="40.7999533" lon="16.53764"><ele>375.5</ele><time>2026-04-18T15:09:54.92Z</time></trkpt><trkpt lat="40.8000133" lon="16.5374817"><ele>375.0</ele><time>2026-04-18T15:09:55.918Z</time></trkpt><trkpt lat="40.8000817" lon="16.5373033"><ele>375.0</ele><time>2026-04-18T15:09:56.916Z</time></trkpt><trkpt lat="40.8001583" lon="16.537115"><ele>375.0</ele><time>2026-04-18T15:09:57.916Z</time></trkpt><trkpt lat="40.8002417" lon="16.5369067"><ele>375.0</ele><time>2026-04-18T15:09:58.917Z</time></trkpt><trkpt lat="40.8003383" lon="16.5366683"><ele>375.0</ele><time>2026-04-18T15:09:59.915Z</time></trkpt><trkpt lat="40.800435" lon="16.53642"><ele>375.0</ele><time>2026-04-18T15:10:00.917Z</time></trkpt><trkpt lat="40.800525" lon="16.5361867"><ele>375.0</ele><time>2026-04-18T15:10:01.919Z</time></trkpt><trkpt lat="40.8006067" lon="16.5359683"><ele>375.0</ele><time>2026-04-18T15:10:02.918Z</time></trkpt><trkpt lat="40.80068" lon="16.5357617"><ele>375.0</ele><time>2026-04-18T15:10:03.918Z</time></trkpt><trkpt lat="40.8007417" lon="16.5355683"><ele>375.0</ele><time>2026-04-18T15:10:04.917Z</time></trkpt><trkpt lat="40.8007933" lon="16.5353833"><ele>374.8</ele><time>2026-04-18T15:10:05.918Z</time></trkpt><trkpt lat="40.800835" lon="16.5352133"><ele>374.6</ele><time>2026-04-18T15:10:06.919Z</time></trkpt><trkpt lat="40.800875" lon="16.535065"><ele>374.4</ele><time>2026-04-18T15:10:07.919Z</time></trkpt><trkpt lat="40.8009067" lon="16.5349367"><ele>374.2</ele><time>2026-04-18T15:10:08.918Z</time></trkpt><trkpt lat="40.8009333" lon="16.5348217"><ele>374.0</ele><time>2026-04-18T15:10:09.919Z</time></trkpt><trkpt lat="40.8009517" lon="16.5347233"><ele>374.0</ele><time>2026-04-18T15:10:10.916Z</time></trkpt><trkpt lat="40.8009467" lon="16.5346317"><ele>374.0</ele><time>2026-04-18T15:10:11.916Z</time></trkpt><trkpt lat="40.8009183" lon="16.534555"><ele>374.0</ele><time>2026-04-18T15:10:12.917Z</time></trkpt><trkpt lat="40.8008633" lon="16.5344983"><ele>374.0</ele><time>2026-04-18T15:10:13.918Z</time></trkpt><trkpt lat="40.8007817" lon="16.5344717"><ele>374.0</ele><time>2026-04-18T15:10:14.917Z</time></trkpt><trkpt lat="40.8006817" lon="16.5344517"><ele>374.0</ele><time>2026-04-18T15:10:15.919Z</time></trkpt><trkpt lat="40.80056" lon="16.5344333"><ele>373.75</ele><time>2026-04-18T15:10:16.919Z</time></trkpt><trkpt lat="40.8004233" lon="16.5344083"><ele>373.5</ele><time>2026-04-18T15:10:17.919Z</time></trkpt><trkpt lat="40.800275" lon="16.5343733"><ele>373.25</ele><time>2026-04-18T15:10:18.918Z</time></trkpt><trkpt lat="40.8001233" lon="16.5343333"><ele>373.0</ele><time>2026-04-18T15:10:19.918Z</time></trkpt><trkpt lat="40.7999633" lon="16.5342967"><ele>372.66666666666663</ele><time>2026-04-18T15:10:20.918Z</time></trkpt><trkpt lat="40.7998067" lon="16.53426"><ele>372.3333333333333</ele><time>2026-04-18T15:10:21.918Z</time></trkpt><trkpt lat="40.7996533" lon="16.5342233"><ele>372.0</ele><time>2026-04-18T15:10:22.919Z</time></trkpt><trkpt lat="40.7995083" lon="16.5341883"><ele>372.0</ele><time>2026-04-18T15:10:23.918Z</time></trkpt><trkpt lat="40.7993633" lon="16.5341567"><ele>372.0</ele><time>2026-04-18T15:10:24.918Z</time></trkpt><trkpt lat="40.7992183" lon="16.5341367"><ele>372.0</ele><time>2026-04-18T15:10:25.917Z</time></trkpt><trkpt lat="40.7990667" lon="16.5341383"><ele>372.0</ele><time>2026-04-18T15:10:26.918Z</time></trkpt><trkpt lat="40.7989117" lon="16.53416"><ele>371.3333333333333</ele><time>2026-04-18T15:10:27.918Z</time></trkpt><trkpt lat="40.7987567" lon="16.5341917"><ele>370.66666666666663</ele><time>2026-04-18T15:10:28.919Z</time></trkpt><trkpt lat="40.7986017" lon="16.5342317"><ele>370.0</ele><time>2026-04-18T15:10:29.916Z</time></trkpt><trkpt lat="40.7984467" lon="16.5342733"><ele>369.3333333333333</ele><time>2026-04-18T15:10:30.917Z</time></trkpt><trkpt lat="40.798295" lon="16.5343167"><ele>368.6666666666667</ele><time>2026-04-18T15:10:31.918Z</time></trkpt><trkpt lat="40.798145" lon="16.534355"><ele>368.0</ele><time>2026-04-18T15:10:32.917Z</time></trkpt><trkpt lat="40.7980017" lon="16.53439"><ele>368.0</ele><time>2026-04-18T15:10:33.917Z</time></trkpt><trkpt lat="40.79786" lon="16.5344217"><ele>368.0</ele><time>2026-04-18T15:10:34.918Z</time></trkpt><trkpt lat="40.7977233" lon="16.5344467"><ele>368.0</ele><time>2026-04-18T15:10:35.917Z</time></trkpt><trkpt lat="40.7975867" lon="16.5344683"><ele>368.0</ele><time>2026-04-18T15:10:36.918Z</time></trkpt><trkpt lat="40.7974517" lon="16.53449"><ele>368.0</ele><time>2026-04-18T15:10:37.918Z</time></trkpt><trkpt lat="40.79732" lon="16.53451"><ele>368.0</ele><time>2026-04-18T15:10:38.919Z</time></trkpt><trkpt lat="40.79719" lon="16.53453"><ele>368.0</ele><time>2026-04-18T15:10:39.918Z</time></trkpt><trkpt lat="40.7970617" lon="16.53456"><ele>368.0</ele><time>2026-04-18T15:10:40.917Z</time></trkpt><trkpt lat="40.7969383" lon="16.5345983"><ele>367.75</ele><time>2026-04-18T15:10:41.918Z</time></trkpt><trkpt lat="40.7968133" lon="16.534635"><ele>367.5</ele><time>2026-04-18T15:10:42.919Z</time></trkpt><trkpt lat="40.7966883" lon="16.5346583"><ele>367.25</ele><time>2026-04-18T15:10:43.919Z</time></trkpt><trkpt lat="40.7965633" lon="16.53467"><ele>367.0</ele><time>2026-04-18T15:10:44.918Z</time></trkpt><trkpt lat="40.7964383" lon="16.53467"><ele>367.0</ele><time>2026-04-18T15:10:45.918Z</time></trkpt><trkpt lat="40.7963133" lon="16.53466"><ele>367.0</ele><time>2026-04-18T15:10:46.919Z</time></trkpt><trkpt lat="40.79619" lon="16.5346467"><ele>367.0</ele><time>2026-04-18T15:10:47.919Z</time></trkpt><trkpt lat="40.796065" lon="16.534635"><ele>367.0</ele><time>2026-04-18T15:10:48.918Z</time></trkpt><trkpt lat="40.7959367" lon="16.53463"><ele>367.0</ele><time>2026-04-18T15:10:49.919Z</time></trkpt><trkpt lat="40.795805" lon="16.5346333"><ele>367.0</ele><time>2026-04-18T15:10:50.919Z</time></trkpt><trkpt lat="40.7956717" lon="16.5346383"><ele>367.0</ele><time>2026-04-18T15:10:51.918Z</time></trkpt><trkpt lat="40.7955417" lon="16.53465"><ele>367.0</ele><time>2026-04-18T15:10:52.919Z</time></trkpt><trkpt lat="40.7954183" lon="16.53467"><ele>367.0</ele><time>2026-04-18T15:10:53.919Z</time></trkpt><trkpt lat="40.7953" lon="16.5346967"><ele>367.0</ele><time>2026-04-18T15:10:54.919Z</time></trkpt><trkpt lat="40.79518" lon="16.5347183"><ele>367.0</ele><time>2026-04-18T15:10:55.919Z</time></trkpt><trkpt lat="40.79506" lon="16.534735"><ele>367.0</ele><time>2026-04-18T15:10:56.918Z</time></trkpt><trkpt lat="40.794935" lon="16.534735"><ele>366.5</ele><time>2026-04-18T15:10:57.918Z</time></trkpt><trkpt lat="40.7948067" lon="16.534715"><ele>366.0</ele><time>2026-04-18T15:10:58.918Z</time></trkpt><trkpt lat="40.7946767" lon="16.53468"><ele>365.5</ele><time>2026-04-18T15:10:59.918Z</time></trkpt><trkpt lat="40.794545" lon="16.53463"><ele>365.0</ele><time>2026-04-18T15:11:00.918Z</time></trkpt><trkpt lat="40.7944067" lon="16.5345767"><ele>365.25</ele><time>2026-04-18T15:11:01.917Z</time></trkpt><trkpt lat="40.79427" lon="16.53452"><ele>365.5</ele><time>2026-04-18T15:11:02.918Z</time></trkpt><trkpt lat="40.7941283" lon="16.5344583"><ele>365.75</ele><time>2026-04-18T15:11:03.918Z</time></trkpt><trkpt lat="40.7939817" lon="16.5343967"><ele>366.0</ele><time>2026-04-18T15:11:04.918Z</time></trkpt><trkpt lat="40.7938367" lon="16.534335"><ele>366.0</ele><time>2026-04-18T15:11:05.918Z</time></trkpt><trkpt lat="40.79369" lon="16.5342717"><ele>366.0</ele><time>2026-04-18T15:11:06.919Z</time></trkpt><trkpt lat="40.7935367" lon="16.5342067"><ele>366.0</ele><time>2026-04-18T15:11:07.92Z</time></trkpt><trkpt lat="40.7933683" lon="16.5341283"><ele>365.6666666666667</ele><time>2026-04-18T15:11:08.918Z</time></trkpt><trkpt lat="40.793185" lon="16.5340433"><ele>365.33333333333337</ele><time>2026-04-18T15:11:09.919Z</time></trkpt><trkpt lat="40.7930017" lon="16.5339583"><ele>365.0</ele><time>2026-04-18T15:11:10.916Z</time></trkpt><trkpt lat="40.7928233" lon="16.5338717"><ele>364.6666666666667</ele><time>2026-04-18T15:11:11.916Z</time></trkpt><trkpt lat="40.792645" lon="16.5337733"><ele>364.3333333333333</ele><time>2026-04-18T15:11:12.918Z</time></trkpt><trkpt lat="40.7924633" lon="16.5336483"><ele>364.0</ele><time>2026-04-18T15:11:13.918Z</time></trkpt><trkpt lat="40.792275" lon="16.5335"><ele>364.0</ele><time>2026-04-18T15:11:14.917Z</time></trkpt><trkpt lat="40.7920817" lon="16.5333417"><ele>364.0</ele><time>2026-04-18T15:11:15.917Z</time></trkpt><trkpt lat="40.791895" lon="16.53319"><ele>364.0</ele><time>2026-04-18T15:11:16.916Z</time></trkpt><trkpt lat="40.7917167" lon="16.5330467"><ele>363.66666666666663</ele><time>2026-04-18T15:11:17.916Z</time></trkpt><trkpt lat="40.7915417" lon="16.5329067"><ele>363.3333333333333</ele><time>2026-04-18T15:11:18.917Z</time></trkpt><trkpt lat="40.7913733" lon="16.5327667"><ele>363.0</ele><time>2026-04-18T15:11:19.918Z</time></trkpt><trkpt lat="40.7912083" lon="16.53262"><ele>363.0</ele><time>2026-04-18T15:11:20.917Z</time></trkpt><trkpt lat="40.7910483" lon="16.53246"><ele>363.0</ele><time>2026-04-18T15:11:21.918Z</time></trkpt><trkpt lat="40.790885" lon="16.5322833"><ele>363.0</ele><time>2026-04-18T15:11:22.918Z</time></trkpt><trkpt lat="40.7907183" lon="16.5320983"><ele>362.5</ele><time>2026-04-18T15:11:23.918Z</time></trkpt><trkpt lat="40.7905517" lon="16.5319033"><ele>362.0</ele><time>2026-04-18T15:11:24.918Z</time></trkpt><trkpt lat="40.7903833" lon="16.5317017"><ele>362.0</ele><time>2026-04-18T15:11:25.918Z</time></trkpt><trkpt lat="40.7902167" lon="16.5314967"><ele>362.0</ele><time>2026-04-18T15:11:26.919Z</time></trkpt><trkpt lat="40.79005" lon="16.5312933"><ele>362.0</ele><time>2026-04-18T15:11:27.918Z</time></trkpt><trkpt lat="40.7898817" lon="16.53109"><ele>362.0</ele><time>2026-04-18T15:11:28.919Z</time></trkpt><trkpt lat="40.78971" lon="16.5308917"><ele>362.0</ele><time>2026-04-18T15:11:29.918Z</time></trkpt><trkpt lat="40.7895367" lon="16.5307"><ele>362.0</ele><time>2026-04-18T15:11:30.919Z</time></trkpt><trkpt lat="40.78936" lon="16.5305133"><ele>361.0</ele><time>2026-04-18T15:11:31.92Z</time></trkpt><trkpt lat="40.78918" lon="16.5303267"><ele>360.0</ele><time>2026-04-18T15:11:32.918Z</time></trkpt><trkpt lat="40.7890017" lon="16.53014"><ele>360.0</ele><time>2026-04-18T15:11:33.917Z</time></trkpt><trkpt lat="40.7888233" lon="16.5299517"><ele>360.0</ele><time>2026-04-18T15:11:34.918Z</time></trkpt><trkpt lat="40.7886467" lon="16.52976"><ele>360.0</ele><time>2026-04-18T15:11:35.918Z</time></trkpt><trkpt lat="40.78847" lon="16.5295717"><ele>360.0</ele><time>2026-04-18T15:11:36.919Z</time></trkpt><trkpt lat="40.7883017" lon="16.5293917"><ele>360.0</ele><time>2026-04-18T15:11:37.919Z</time></trkpt><trkpt lat="40.7881367" lon="16.5292167"><ele>360.0</ele><time>2026-04-18T15:11:38.918Z</time></trkpt><trkpt lat="40.7879733" lon="16.5290433"><ele>360.0</ele><time>2026-04-18T15:11:39.918Z</time></trkpt><trkpt lat="40.78781" lon="16.528865"><ele>360.0</ele><time>2026-04-18T15:11:40.919Z</time></trkpt><trkpt lat="40.787645" lon="16.5286817"><ele>359.3333333333333</ele><time>2026-04-18T15:11:41.918Z</time></trkpt><trkpt lat="40.7874767" lon="16.52849"><ele>358.66666666666663</ele><time>2026-04-18T15:11:42.917Z</time></trkpt><trkpt lat="40.7873067" lon="16.5282933"><ele>358.0</ele><time>2026-04-18T15:11:43.917Z</time></trkpt><trkpt lat="40.78713" lon="16.5280933"><ele>358.0</ele><time>2026-04-18T15:11:44.917Z</time></trkpt><trkpt lat="40.7869483" lon="16.5278883"><ele>358.0</ele><time>2026-04-18T15:11:45.916Z</time></trkpt><trkpt lat="40.7867633" lon="16.5276767"><ele>356.5</ele><time>2026-04-18T15:11:46.917Z</time></trkpt><trkpt lat="40.78658" lon="16.5274683"><ele>355.0</ele><time>2026-04-18T15:11:47.917Z</time></trkpt><trkpt lat="40.7864033" lon="16.5272717"><ele>355.0</ele><time>2026-04-18T15:11:48.917Z</time></trkpt><trkpt lat="40.7862383" lon="16.527085"><ele>355.0</ele><time>2026-04-18T15:11:49.918Z</time></trkpt><trkpt lat="40.7860767" lon="16.526905"><ele>355.0</ele><time>2026-04-18T15:11:50.917Z</time></trkpt><trkpt lat="40.7859183" lon="16.5267283"><ele>353.0</ele><time>2026-04-18T15:11:51.917Z</time></trkpt><trkpt lat="40.7857683" lon="16.526555"><ele>351.0</ele><time>2026-04-18T15:11:52.918Z</time></trkpt><trkpt lat="40.78562" lon="16.5263933"><ele>349.0</ele><time>2026-04-18T15:11:53.916Z</time></trkpt><trkpt lat="40.785465" lon="16.52625"><ele>349.0</ele><time>2026-04-18T15:11:54.918Z</time></trkpt><trkpt lat="40.7852967" lon="16.5261283"><ele>349.0</ele><time>2026-04-18T15:11:55.917Z</time></trkpt><trkpt lat="40.78511" lon="16.5260317"><ele>349.0</ele><time>2026-04-18T15:11:56.917Z</time></trkpt><trkpt lat="40.7849133" lon="16.5259483"><ele>349.0</ele><time>2026-04-18T15:11:57.917Z</time></trkpt><trkpt lat="40.7847067" lon="16.52587"><ele>349.0</ele><time>2026-04-18T15:11:58.918Z</time></trkpt><trkpt lat="40.7844883" lon="16.5257917"><ele>349.0</ele><time>2026-04-18T15:11:59.918Z</time></trkpt><trkpt lat="40.7842583" lon="16.5257067"><ele>350.0</ele><time>2026-04-18T15:12:00.918Z</time></trkpt><trkpt lat="40.7840183" lon="16.525615"><ele>351.0</ele><time>2026-04-18T15:12:01.918Z</time></trkpt><trkpt lat="40.7837817" lon="16.5255267"><ele>351.0</ele><time>2026-04-18T15:12:02.918Z</time></trkpt><trkpt lat="40.7835517" lon="16.52544"><ele>351.0</ele><time>2026-04-18T15:12:03.919Z</time></trkpt><trkpt lat="40.7833233" lon="16.5253533"><ele>352.5</ele><time>2026-04-18T15:12:04.919Z</time></trkpt><trkpt lat="40.783095" lon="16.5252667"><ele>354.0</ele><time>2026-04-18T15:12:05.918Z</time></trkpt><trkpt lat="40.782865" lon="16.52519"><ele>354.5</ele><time>2026-04-18T15:12:06.918Z</time></trkpt><trkpt lat="40.7826283" lon="16.5251333"><ele>355.0</ele><time>2026-04-18T15:12:07.921Z</time></trkpt><trkpt lat="40.782385" lon="16.5250917"><ele>355.0</ele><time>2026-04-18T15:12:08.918Z</time></trkpt><trkpt lat="40.782135" lon="16.5250583"><ele>355.0</ele><time>2026-04-18T15:12:09.918Z</time></trkpt><trkpt lat="40.7818883" lon="16.5250233"><ele>356.5</ele><time>2026-04-18T15:12:10.919Z</time></trkpt><trkpt lat="40.78165" lon="16.52498"><ele>358.0</ele><time>2026-04-18T15:12:11.917Z</time></trkpt><trkpt lat="40.781415" lon="16.5249217"><ele>358.0</ele><time>2026-04-18T15:12:12.919Z</time></trkpt><trkpt lat="40.7811817" lon="16.5248533"><ele>358.0</ele><time>2026-04-18T15:12:13.919Z</time></trkpt><trkpt lat="40.7809517" lon="16.5247767"><ele>359.0</ele><time>2026-04-18T15:12:14.917Z</time></trkpt><trkpt lat="40.7807217" lon="16.5246883"><ele>360.0</ele><time>2026-04-18T15:12:15.918Z</time></trkpt><trkpt lat="40.7804917" lon="16.5245933"><ele>360.0</ele><time>2026-04-18T15:12:16.917Z</time></trkpt><trkpt lat="40.78026" lon="16.5244917"><ele>360.0</ele><time>2026-04-18T15:12:17.918Z</time></trkpt><trkpt lat="40.7800283" lon="16.52439"><ele>359.5</ele><time>2026-04-18T15:12:18.918Z</time></trkpt><trkpt lat="40.7797967" lon="16.52428"><ele>359.0</ele><time>2026-04-18T15:12:19.919Z</time></trkpt><trkpt lat="40.7795667" lon="16.5241567"><ele>357.5</ele><time>2026-04-18T15:12:20.918Z</time></trkpt><trkpt lat="40.77934" lon="16.524025"><ele>356.0</ele><time>2026-04-18T15:12:21.918Z</time></trkpt><trkpt lat="40.7791123" lon="16.5238908"><ele>356.0</ele><time>2026-04-18T15:12:22.919Z</time></trkpt><trkpt lat="40.7788845" lon="16.5237595"><ele>356.0</ele><time>2026-04-18T15:12:23.918Z</time></trkpt><trkpt lat="40.7786552" lon="16.5236305"><ele>354.5</ele><time>2026-04-18T15:12:24.919Z</time></trkpt><trkpt lat="40.7784263" lon="16.5235046"><ele>353.0</ele><time>2026-04-18T15:12:25.919Z</time></trkpt><trkpt lat="40.7781998" lon="16.523377"><ele>353.0</ele><time>2026-04-18T15:12:26.918Z</time></trkpt><trkpt lat="40.7779763" lon="16.5232526"><ele>353.0</ele><time>2026-04-18T15:12:27.918Z</time></trkpt><trkpt lat="40.7777545" lon="16.5231293"><ele>354.5</ele><time>2026-04-18T15:12:28.918Z</time></trkpt><trkpt lat="40.7775358" lon="16.5230052"><ele>356.0</ele><time>2026-04-18T15:12:29.918Z</time></trkpt><trkpt lat="40.7773181" lon="16.5228821"><ele>357.0</ele><time>2026-04-18T15:12:30.916Z</time></trkpt><trkpt lat="40.7771025" lon="16.5227612"><ele>358.0</ele><time>2026-04-18T15:12:31.918Z</time></trkpt><trkpt lat="40.7768895" lon="16.5226393"><ele>360.5</ele><time>2026-04-18T15:12:32.918Z</time></trkpt><trkpt lat="40.7766788" lon="16.5225152"><ele>363.0</ele><time>2026-04-18T15:12:33.917Z</time></trkpt><trkpt lat="40.7764695" lon="16.5223883"><ele>363.0</ele><time>2026-04-18T15:12:34.918Z</time></trkpt><trkpt lat="40.7762587" lon="16.5222628"><ele>363.0</ele><time>2026-04-18T15:12:35.917Z</time></trkpt><trkpt lat="40.7760448" lon="16.5221396"><ele>366.0</ele><time>2026-04-18T15:12:36.918Z</time></trkpt><trkpt lat="40.7758302" lon="16.5220141"><ele>369.0</ele><time>2026-04-18T15:12:37.917Z</time></trkpt><trkpt lat="40.7756125" lon="16.5218835"><ele>369.0</ele><time>2026-04-18T15:12:38.917Z</time></trkpt><trkpt lat="40.7753946" lon="16.5217515"><ele>369.0</ele><time>2026-04-18T15:12:39.917Z</time></trkpt><trkpt lat="40.7751766" lon="16.5216223"><ele>370.5</ele><time>2026-04-18T15:12:40.918Z</time></trkpt><trkpt lat="40.7749605" lon="16.5214951"><ele>372.0</ele><time>2026-04-18T15:12:41.919Z</time></trkpt><trkpt lat="40.7747463" lon="16.5213628"><ele>372.5</ele><time>2026-04-18T15:12:42.918Z</time></trkpt><trkpt lat="40.7745341" lon="16.521227"><ele>373.0</ele><time>2026-04-18T15:12:43.917Z</time></trkpt><trkpt lat="40.7743199" lon="16.5210916"><ele>373.0</ele><time>2026-04-18T15:12:44.917Z</time></trkpt><trkpt lat="40.7741061" lon="16.5209563"><ele>373.0</ele><time>2026-04-18T15:12:45.916Z</time></trkpt><trkpt lat="40.7738926" lon="16.5208224"><ele>373.0</ele><time>2026-04-18T15:12:46.917Z</time></trkpt><trkpt lat="40.7736795" lon="16.5206879"><ele>373.0</ele><time>2026-04-18T15:12:47.917Z</time></trkpt><trkpt lat="40.7734673" lon="16.5205506"><ele>373.0</ele><time>2026-04-18T15:12:48.918Z</time></trkpt><trkpt lat="40.7732586" lon="16.520409"><ele>373.0</ele><time>2026-04-18T15:12:49.917Z</time></trkpt><trkpt lat="40.7730564" lon="16.5202566"><ele>374.5</ele><time>2026-04-18T15:12:50.917Z</time></trkpt><trkpt lat="40.7728629" lon="16.5200881"><ele>376.0</ele><time>2026-04-18T15:12:51.917Z</time></trkpt><trkpt lat="40.772677" lon="16.5199018"><ele>377.0</ele><time>2026-04-18T15:12:52.917Z</time></trkpt><trkpt lat="40.772493" lon="16.5197123"><ele>378.0</ele><time>2026-04-18T15:12:53.917Z</time></trkpt><trkpt lat="40.7723096" lon="16.5195309"><ele>378.6666666666667</ele><time>2026-04-18T15:12:54.917Z</time></trkpt><trkpt lat="40.7721262" lon="16.5193647"><ele>379.33333333333337</ele><time>2026-04-18T15:12:55.918Z</time></trkpt><trkpt lat="40.771933" lon="16.5192154"><ele>380.0</ele><time>2026-04-18T15:12:56.917Z</time></trkpt><trkpt lat="40.7717271" lon="16.5190821"><ele>382.5</ele><time>2026-04-18T15:12:57.917Z</time></trkpt><trkpt lat="40.7715109" lon="16.5189636"><ele>385.0</ele><time>2026-04-18T15:12:58.918Z</time></trkpt><trkpt lat="40.7713016" lon="16.5188549"><ele>385.0</ele><time>2026-04-18T15:12:59.918Z</time></trkpt><trkpt lat="40.7711037" lon="16.5187449"><ele>385.0</ele><time>2026-04-18T15:13:00.919Z</time></trkpt><trkpt lat="40.7709162" lon="16.5186293"><ele>385.0</ele><time>2026-04-18T15:13:01.92Z</time></trkpt><trkpt lat="40.7707324" lon="16.5185122"><ele>386.6666666666667</ele><time>2026-04-18T15:13:02.918Z</time></trkpt><trkpt lat="40.7705508" lon="16.518397"><ele>388.33333333333337</ele><time>2026-04-18T15:13:03.919Z</time></trkpt><trkpt lat="40.7703696" lon="16.518279"><ele>390.0</ele><time>2026-04-18T15:13:04.92Z</time></trkpt><trkpt lat="40.770191" lon="16.5181553"><ele>390.0</ele><time>2026-04-18T15:13:05.918Z</time></trkpt><trkpt lat="40.7700156" lon="16.5180179"><ele>390.0</ele><time>2026-04-18T15:13:06.92Z</time></trkpt><trkpt lat="40.7698437" lon="16.5178641"><ele>390.0</ele><time>2026-04-18T15:13:07.919Z</time></trkpt><trkpt lat="40.7696725" lon="16.51769"><ele>389.66666666666663</ele><time>2026-04-18T15:13:08.918Z</time></trkpt><trkpt lat="40.7695038" lon="16.5175011"><ele>389.3333333333333</ele><time>2026-04-18T15:13:09.918Z</time></trkpt><trkpt lat="40.7693384" lon="16.5173038"><ele>389.0</ele><time>2026-04-18T15:13:10.919Z</time></trkpt><trkpt lat="40.7691765" lon="16.5170968"><ele>390.5</ele><time>2026-04-18T15:13:11.919Z</time></trkpt><trkpt lat="40.7690185" lon="16.5168793"><ele>392.0</ele><time>2026-04-18T15:13:12.919Z</time></trkpt><trkpt lat="40.768865" lon="16.5166538"><ele>392.0</ele><time>2026-04-18T15:13:13.92Z</time></trkpt><trkpt lat="40.7687191" lon="16.5164292"><ele>392.0</ele><time>2026-04-18T15:13:14.919Z</time></trkpt><trkpt lat="40.7685779" lon="16.5162112"><ele>392.0</ele><time>2026-04-18T15:13:15.917Z</time></trkpt><trkpt lat="40.7684285" lon="16.5160016"><ele>390.66666666666663</ele><time>2026-04-18T15:13:16.92Z</time></trkpt><trkpt lat="40.7682654" lon="16.5158089"><ele>389.33333333333337</ele><time>2026-04-18T15:13:17.918Z</time></trkpt><trkpt lat="40.7680877" lon="16.5156367"><ele>388.0</ele><time>2026-04-18T15:13:18.919Z</time></trkpt><trkpt lat="40.7679007" lon="16.5154762"><ele>389.5</ele><time>2026-04-18T15:13:19.92Z</time></trkpt><trkpt lat="40.7677144" lon="16.5153066"><ele>391.0</ele><time>2026-04-18T15:13:20.919Z</time></trkpt><trkpt lat="40.7675344" lon="16.5151156"><ele>391.0</ele><time>2026-04-18T15:13:21.919Z</time></trkpt><trkpt lat="40.7673562" lon="16.5149078"><ele>391.0</ele><time>2026-04-18T15:13:22.919Z</time></trkpt><trkpt lat="40.767175" lon="16.5146961"><ele>391.5</ele><time>2026-04-18T15:13:23.918Z</time></trkpt><trkpt lat="40.7669917" lon="16.5144864"><ele>392.0</ele><time>2026-04-18T15:13:24.919Z</time></trkpt><trkpt lat="40.7668077" lon="16.5142837"><ele>392.0</ele><time>2026-04-18T15:13:25.919Z</time></trkpt><trkpt lat="40.7666214" lon="16.5140836"><ele>392.0</ele><time>2026-04-18T15:13:26.918Z</time></trkpt><trkpt lat="40.7664343" lon="16.5138855"><ele>393.5</ele><time>2026-04-18T15:13:27.917Z</time></trkpt><trkpt lat="40.766246" lon="16.5136873"><ele>395.0</ele><time>2026-04-18T15:13:28.918Z</time></trkpt><trkpt lat="40.7660577" lon="16.5134927"><ele>395.0</ele><time>2026-04-18T15:13:29.916Z</time></trkpt><trkpt lat="40.7658713" lon="16.5133021"><ele>395.0</ele><time>2026-04-18T15:13:30.917Z</time></trkpt><trkpt lat="40.7656861" lon="16.513116"><ele>395.0</ele><time>2026-04-18T15:13:31.918Z</time></trkpt><trkpt lat="40.7655" lon="16.512944"><ele>395.0</ele><time>2026-04-18T15:13:32.917Z</time></trkpt><trkpt lat="40.7653157" lon="16.51279"><ele>395.0</ele><time>2026-04-18T15:13:33.917Z</time></trkpt><trkpt lat="40.765143" lon="16.5126516"><ele>396.3333333333333</ele><time>2026-04-18T15:13:34.918Z</time></trkpt><trkpt lat="40.7649821" lon="16.512506"><ele>397.66666666666663</ele><time>2026-04-18T15:13:35.917Z</time></trkpt><trkpt lat="40.7648322" lon="16.5123359"><ele>399.0</ele><time>2026-04-18T15:13:36.919Z</time></trkpt><trkpt lat="40.7646895" lon="16.5121362"><ele>402.0</ele><time>2026-04-18T15:13:37.918Z</time></trkpt><trkpt lat="40.7645461" lon="16.5119129"><ele>405.0</ele><time>2026-04-18T15:13:38.917Z</time></trkpt><trkpt lat="40.7643969" lon="16.5116768"><ele>405.0</ele><time>2026-04-18T15:13:39.918Z</time></trkpt><trkpt lat="40.7642449" lon="16.511447"><ele>405.0</ele><time>2026-04-18T15:13:40.919Z</time></trkpt><trkpt lat="40.7640832" lon="16.5112276"><ele>405.0</ele><time>2026-04-18T15:13:41.916Z</time></trkpt><trkpt lat="40.7639011" lon="16.5110191"><ele>405.0</ele><time>2026-04-18T15:13:42.918Z</time></trkpt><trkpt lat="40.7636987" lon="16.5108125"><ele>406.5</ele><time>2026-04-18T15:13:43.918Z</time></trkpt><trkpt lat="40.7634887" lon="16.5106079"><ele>408.0</ele><time>2026-04-18T15:13:44.917Z</time></trkpt><trkpt lat="40.7632805" lon="16.5104072"><ele>408.0</ele><time>2026-04-18T15:13:45.917Z</time></trkpt><trkpt lat="40.7630746" lon="16.5102074"><ele>408.0</ele><time>2026-04-18T15:13:46.918Z</time></trkpt><trkpt lat="40.7628665" lon="16.5100057"><ele>409.5</ele><time>2026-04-18T15:13:47.917Z</time></trkpt><trkpt lat="40.7626567" lon="16.5098026"><ele>411.0</ele><time>2026-04-18T15:13:48.917Z</time></trkpt><trkpt lat="40.7624486" lon="16.5095988"><ele>411.5</ele><time>2026-04-18T15:13:49.918Z</time></trkpt><trkpt lat="40.7622479" lon="16.5093969"><ele>412.0</ele><time>2026-04-18T15:13:50.918Z</time></trkpt><trkpt lat="40.762054" lon="16.5091833"><ele>412.0</ele><time>2026-04-18T15:13:51.917Z</time></trkpt><trkpt lat="40.7618714" lon="16.5089556"><ele>412.0</ele><time>2026-04-18T15:13:52.917Z</time></trkpt><trkpt lat="40.7617015" lon="16.5087127"><ele>413.0</ele><time>2026-04-18T15:13:53.916Z</time></trkpt><trkpt lat="40.7615365" lon="16.5084649"><ele>414.0</ele><time>2026-04-18T15:13:54.917Z</time></trkpt><trkpt lat="40.7613757" lon="16.5082189"><ele>414.0</ele><time>2026-04-18T15:13:55.918Z</time></trkpt><trkpt lat="40.7612214" lon="16.5079809"><ele>414.0</ele><time>2026-04-18T15:13:56.917Z</time></trkpt><trkpt lat="40.7610729" lon="16.507751"><ele>415.0</ele><time>2026-04-18T15:13:57.917Z</time></trkpt><trkpt lat="40.760921" lon="16.5075277"><ele>416.0</ele><time>2026-04-18T15:13:58.919Z</time></trkpt><trkpt lat="40.760758" lon="16.5073111"><ele>416.0</ele><time>2026-04-18T15:13:59.917Z</time></trkpt><trkpt lat="40.7605759" lon="16.5071026"><ele>416.0</ele><time>2026-04-18T15:14:00.918Z</time></trkpt><trkpt lat="40.7603803" lon="16.506892"><ele>416.5</ele><time>2026-04-18T15:14:01.918Z</time></trkpt><trkpt lat="40.7601786" lon="16.5066767"><ele>417.0</ele><time>2026-04-18T15:14:02.917Z</time></trkpt><trkpt lat="40.7599844" lon="16.5064719"><ele>417.0</ele><time>2026-04-18T15:14:03.917Z</time></trkpt><trkpt lat="40.7598001" lon="16.5062812"><ele>417.0</ele><time>2026-04-18T15:14:04.919Z</time></trkpt><trkpt lat="40.7596205" lon="16.5060956"><ele>418.0</ele><time>2026-04-18T15:14:05.919Z</time></trkpt><trkpt lat="40.759441" lon="16.5059072"><ele>419.0</ele><time>2026-04-18T15:14:06.92Z</time></trkpt><trkpt lat="40.7592567" lon="16.5057159"><ele>419.0</ele><time>2026-04-18T15:14:07.919Z</time></trkpt><trkpt lat="40.7590654" lon="16.505527"><ele>419.0</ele><time>2026-04-18T15:14:08.919Z</time></trkpt><trkpt lat="40.758866" lon="16.5053502"><ele>418.5</ele><time>2026-04-18T15:14:09.919Z</time></trkpt><trkpt lat="40.7586582" lon="16.5051912"><ele>418.0</ele><time>2026-04-18T15:14:10.92Z</time></trkpt><trkpt lat="40.7584433" lon="16.5050451"><ele>418.0</ele><time>2026-04-18T15:14:11.919Z</time></trkpt><trkpt lat="40.7582303" lon="16.5049047"><ele>418.0</ele><time>2026-04-18T15:14:12.917Z</time></trkpt><trkpt lat="40.7580301" lon="16.504772"><ele>418.0</ele><time>2026-04-18T15:14:13.917Z</time></trkpt><trkpt lat="40.7578427" lon="16.5046489"><ele>418.0</ele><time>2026-04-18T15:14:14.916Z</time></trkpt><trkpt lat="40.7576613" lon="16.5045224"><ele>418.0</ele><time>2026-04-18T15:14:15.917Z</time></trkpt><trkpt lat="40.757479" lon="16.5043829"><ele>419.5</ele><time>2026-04-18T15:14:16.918Z</time></trkpt><trkpt lat="40.7572975" lon="16.5042172"><ele>421.0</ele><time>2026-04-18T15:14:17.917Z</time></trkpt><trkpt lat="40.7571188" lon="16.5040192"><ele>421.0</ele><time>2026-04-18T15:14:18.917Z</time></trkpt><trkpt lat="40.7569449" lon="16.5037965"><ele>421.0</ele><time>2026-04-18T15:14:19.917Z</time></trkpt><trkpt lat="40.7567749" lon="16.5035586"><ele>419.5</ele><time>2026-04-18T15:14:20.917Z</time></trkpt><trkpt lat="40.7566084" lon="16.503314"><ele>418.0</ele><time>2026-04-18T15:14:21.917Z</time></trkpt><trkpt lat="40.7564464" lon="16.503069"><ele>417.5</ele><time>2026-04-18T15:14:22.918Z</time></trkpt><trkpt lat="40.7562866" lon="16.5028262"><ele>417.0</ele><time>2026-04-18T15:14:23.918Z</time></trkpt><trkpt lat="40.7561229" lon="16.5025871"><ele>418.0</ele><time>2026-04-18T15:14:24.917Z</time></trkpt><trkpt lat="40.7559578" lon="16.5023441"><ele>419.0</ele><time>2026-04-18T15:14:25.918Z</time></trkpt><trkpt lat="40.7557914" lon="16.5020992"><ele>419.0</ele><time>2026-04-18T15:14:26.918Z</time></trkpt><trkpt lat="40.7556233" lon="16.5018527"><ele>419.0</ele><time>2026-04-18T15:14:27.917Z</time></trkpt><trkpt lat="40.7554572" lon="16.5016004"><ele>419.0</ele><time>2026-04-18T15:14:28.917Z</time></trkpt><trkpt lat="40.7552918" lon="16.501347"><ele>419.0</ele><time>2026-04-18T15:14:29.917Z</time></trkpt><trkpt lat="40.7551284" lon="16.5010992"><ele>420.0</ele><time>2026-04-18T15:14:30.918Z</time></trkpt><trkpt lat="40.7549714" lon="16.5008628"><ele>421.0</ele><time>2026-04-18T15:14:31.918Z</time></trkpt><trkpt lat="40.7548181" lon="16.5006302"><ele>422.0</ele><time>2026-04-18T15:14:32.917Z</time></trkpt><trkpt lat="40.7546625" lon="16.5004001"><ele>423.0</ele><time>2026-04-18T15:14:33.918Z</time></trkpt><trkpt lat="40.7545016" lon="16.5001734"><ele>422.0</ele><time>2026-04-18T15:14:34.918Z</time></trkpt><trkpt lat="40.7543299" lon="16.4999527"><ele>421.0</ele><time>2026-04-18T15:14:35.918Z</time></trkpt><trkpt lat="40.7541487" lon="16.4997388"><ele>420.0</ele><time>2026-04-18T15:14:36.918Z</time></trkpt><trkpt lat="40.7539557" lon="16.4995327"><ele>419.0</ele><time>2026-04-18T15:14:37.918Z</time></trkpt><trkpt lat="40.7537509" lon="16.4993355"><ele>418.5</ele><time>2026-04-18T15:14:38.917Z</time></trkpt><trkpt lat="40.7535385" lon="16.4991429"><ele>418.0</ele><time>2026-04-18T15:14:39.917Z</time></trkpt><trkpt lat="40.7533215" lon="16.4989506"><ele>418.0</ele><time>2026-04-18T15:14:40.918Z</time></trkpt><trkpt lat="40.7531051" lon="16.4987581"><ele>418.0</ele><time>2026-04-18T15:14:41.916Z</time></trkpt><trkpt lat="40.7528986" lon="16.4985727"><ele>418.0</ele><time>2026-04-18T15:14:42.917Z</time></trkpt><trkpt lat="40.7526974" lon="16.4983931"><ele>418.0</ele><time>2026-04-18T15:14:43.919Z</time></trkpt><trkpt lat="40.7524948" lon="16.498215"><ele>418.0</ele><time>2026-04-18T15:14:44.917Z</time></trkpt><trkpt lat="40.7522921" lon="16.4980302"><ele>418.0</ele><time>2026-04-18T15:14:45.917Z</time></trkpt><trkpt lat="40.7520881" lon="16.4978365"><ele>418.0</ele><time>2026-04-18T15:14:46.918Z</time></trkpt><trkpt lat="40.7518856" lon="16.4976471"><ele>418.0</ele><time>2026-04-18T15:14:47.917Z</time></trkpt><trkpt lat="40.751698" lon="16.4974774"><ele>418.6666666666667</ele><time>2026-04-18T15:14:48.921Z</time></trkpt><trkpt lat="40.7515255" lon="16.4973244"><ele>419.33333333333337</ele><time>2026-04-18T15:14:49.918Z</time></trkpt><trkpt lat="40.7513624" lon="16.497183"><ele>420.0</ele><time>2026-04-18T15:14:50.918Z</time></trkpt><trkpt lat="40.7512132" lon="16.4970502"><ele>420.0</ele><time>2026-04-18T15:14:51.917Z</time></trkpt><trkpt lat="40.7510795" lon="16.4969328"><ele>420.0</ele><time>2026-04-18T15:14:52.918Z</time></trkpt><trkpt lat="40.7509585" lon="16.4968353"><ele>420.0</ele><time>2026-04-18T15:14:53.918Z</time></trkpt><trkpt lat="40.7508441" lon="16.4967642"><ele>420.0</ele><time>2026-04-18T15:14:54.917Z</time></trkpt><trkpt lat="40.7507294" lon="16.4967166"><ele>419.75</ele><time>2026-04-18T15:14:55.918Z</time></trkpt><trkpt lat="40.7506066" lon="16.4966873"><ele>419.5</ele><time>2026-04-18T15:14:56.916Z</time></trkpt><trkpt lat="40.7504717" lon="16.4966768"><ele>419.25</ele><time>2026-04-18T15:14:57.917Z</time></trkpt><trkpt lat="40.7503231" lon="16.4966977"><ele>419.0</ele><time>2026-04-18T15:14:58.917Z</time></trkpt><trkpt lat="40.7501619" lon="16.4967548"><ele>419.0</ele><time>2026-04-18T15:14:59.917Z</time></trkpt><trkpt lat="40.7499928" lon="16.4968409"><ele>419.0</ele><time>2026-04-18T15:15:00.917Z</time></trkpt><trkpt lat="40.7498129" lon="16.496948"><ele>419.0</ele><time>2026-04-18T15:15:01.917Z</time></trkpt><trkpt lat="40.7496226" lon="16.4970565"><ele>419.3333333333333</ele><time>2026-04-18T15:15:02.916Z</time></trkpt><trkpt lat="40.749427" lon="16.4971601"><ele>419.66666666666663</ele><time>2026-04-18T15:15:03.918Z</time></trkpt><trkpt lat="40.7492327" lon="16.4972727"><ele>420.0</ele><time>2026-04-18T15:15:04.917Z</time></trkpt><trkpt lat="40.7490333" lon="16.4973904"><ele>420.33333333333337</ele><time>2026-04-18T15:15:05.918Z</time></trkpt><trkpt lat="40.7488315" lon="16.4975031"><ele>420.6666666666667</ele><time>2026-04-18T15:15:06.918Z</time></trkpt><trkpt lat="40.7486264" lon="16.4976119"><ele>421.0</ele><time>2026-04-18T15:15:07.918Z</time></trkpt><trkpt lat="40.7484098" lon="16.497724"><ele>421.0</ele><time>2026-04-18T15:15:08.917Z</time></trkpt><trkpt lat="40.748186" lon="16.4978419"><ele>421.0</ele><time>2026-04-18T15:15:09.918Z</time></trkpt><trkpt lat="40.7479566" lon="16.4979643"><ele>421.0</ele><time>2026-04-18T15:15:10.916Z</time></trkpt><trkpt lat="40.7477167" lon="16.49809"><ele>421.0</ele><time>2026-04-18T15:15:11.917Z</time></trkpt><trkpt lat="40.74747" lon="16.4982217"><ele>422.0</ele><time>2026-04-18T15:15:12.917Z</time></trkpt><trkpt lat="40.747215" lon="16.4983583"><ele>423.0</ele><time>2026-04-18T15:15:13.918Z</time></trkpt><trkpt lat="40.74696" lon="16.4984967"><ele>423.5</ele><time>2026-04-18T15:15:14.917Z</time></trkpt><trkpt lat="40.7467067" lon="16.4986333"><ele>424.0</ele><time>2026-04-18T15:15:15.916Z</time></trkpt><trkpt lat="40.7464517" lon="16.498775"><ele>423.5</ele><time>2026-04-18T15:15:16.917Z</time></trkpt><trkpt lat="40.7461967" lon="16.498915"><ele>423.0</ele><time>2026-04-18T15:15:17.917Z</time></trkpt><trkpt lat="40.7459383" lon="16.499055"><ele>423.0</ele><time>2026-04-18T15:15:18.917Z</time></trkpt><trkpt lat="40.7456817" lon="16.49919"><ele>423.0</ele><time>2026-04-18T15:15:19.918Z</time></trkpt><trkpt lat="40.7454267" lon="16.4993283"><ele>423.0</ele><time>2026-04-18T15:15:20.919Z</time></trkpt><trkpt lat="40.7451733" lon="16.499465"><ele>423.0</ele><time>2026-04-18T15:15:21.917Z</time></trkpt><trkpt lat="40.744925" lon="16.4995983"><ele>422.0</ele><time>2026-04-18T15:15:22.919Z</time></trkpt><trkpt lat="40.744685" lon="16.499725"><ele>421.0</ele><time>2026-04-18T15:15:23.916Z</time></trkpt><trkpt lat="40.7444483" lon="16.4998517"><ele>420.5</ele><time>2026-04-18T15:15:24.918Z</time></trkpt><trkpt lat="40.7442133" lon="16.4999783"><ele>420.0</ele><time>2026-04-18T15:15:25.917Z</time></trkpt><trkpt lat="40.7439783" lon="16.5001117"><ele>420.0</ele><time>2026-04-18T15:15:26.917Z</time></trkpt><trkpt lat="40.7437483" lon="16.5002533"><ele>420.0</ele><time>2026-04-18T15:15:27.916Z</time></trkpt><trkpt lat="40.74352" lon="16.5004067"><ele>420.5</ele><time>2026-04-18T15:15:28.916Z</time></trkpt><trkpt lat="40.7432917" lon="16.50057"><ele>421.0</ele><time>2026-04-18T15:15:29.916Z</time></trkpt><trkpt lat="40.7430633" lon="16.50074"><ele>421.0</ele><time>2026-04-18T15:15:30.916Z</time></trkpt><trkpt lat="40.7428367" lon="16.500915"><ele>421.0</ele><time>2026-04-18T15:15:31.917Z</time></trkpt><trkpt lat="40.7426133" lon="16.5010883"><ele>421.5</ele><time>2026-04-18T15:15:32.917Z</time></trkpt><trkpt lat="40.7423883" lon="16.5012617"><ele>422.0</ele><time>2026-04-18T15:15:33.916Z</time></trkpt><trkpt lat="40.7421617" lon="16.5014333"><ele>422.0</ele><time>2026-04-18T15:15:34.916Z</time></trkpt><trkpt lat="40.741935" lon="16.501605"><ele>422.0</ele><time>2026-04-18T15:15:35.916Z</time></trkpt><trkpt lat="40.7417067" lon="16.50178"><ele>422.0</ele><time>2026-04-18T15:15:36.918Z</time></trkpt><trkpt lat="40.7414767" lon="16.5019567"><ele>422.0</ele><time>2026-04-18T15:15:37.916Z</time></trkpt><trkpt lat="40.7412467" lon="16.5021333"><ele>421.5</ele><time>2026-04-18T15:15:38.919Z</time></trkpt><trkpt lat="40.7410167" lon="16.5023117"><ele>421.0</ele><time>2026-04-18T15:15:39.917Z</time></trkpt><trkpt lat="40.7407883" lon="16.5024917"><ele>421.0</ele><time>2026-04-18T15:15:40.918Z</time></trkpt><trkpt lat="40.7405583" lon="16.5026717"><ele>421.0</ele><time>2026-04-18T15:15:41.916Z</time></trkpt><trkpt lat="40.7403267" lon="16.5028483"><ele>420.5</ele><time>2026-04-18T15:15:42.916Z</time></trkpt><trkpt lat="40.7400933" lon="16.5030283"><ele>420.0</ele><time>2026-04-18T15:15:43.919Z</time></trkpt><trkpt lat="40.73986" lon="16.5032067"><ele>420.0</ele><time>2026-04-18T15:15:44.916Z</time></trkpt><trkpt lat="40.73963" lon="16.5033833"><ele>420.0</ele><time>2026-04-18T15:15:45.916Z</time></trkpt><trkpt lat="40.7394033" lon="16.5035583"><ele>420.0</ele><time>2026-04-18T15:15:46.917Z</time></trkpt><trkpt lat="40.7391767" lon="16.5037333"><ele>420.0</ele><time>2026-04-18T15:15:47.917Z</time></trkpt><trkpt lat="40.73895" lon="16.5039067"><ele>420.0</ele><time>2026-04-18T15:15:48.917Z</time></trkpt><trkpt lat="40.7387233" lon="16.50408"><ele>420.0</ele><time>2026-04-18T15:15:49.917Z</time></trkpt><trkpt lat="40.7384983" lon="16.5042533"><ele>420.0</ele><time>2026-04-18T15:15:50.916Z</time></trkpt><trkpt lat="40.7382717" lon="16.50443"><ele>420.0</ele><time>2026-04-18T15:15:51.917Z</time></trkpt><trkpt lat="40.7380433" lon="16.504605"><ele>420.0</ele><time>2026-04-18T15:15:52.916Z</time></trkpt><trkpt lat="40.7378117" lon="16.5047817"><ele>420.0</ele><time>2026-04-18T15:15:53.916Z</time></trkpt><trkpt lat="40.73758" lon="16.5049583"><ele>419.5</ele><time>2026-04-18T15:15:54.916Z</time></trkpt><trkpt lat="40.73735" lon="16.5051367"><ele>419.0</ele><time>2026-04-18T15:15:55.917Z</time></trkpt><trkpt lat="40.73712" lon="16.505315"><ele>419.0</ele><time>2026-04-18T15:15:56.916Z</time></trkpt><trkpt lat="40.7368917" lon="16.50549"><ele>419.0</ele><time>2026-04-18T15:15:57.916Z</time></trkpt><trkpt lat="40.7366617" lon="16.5056683"><ele>419.0</ele><time>2026-04-18T15:15:58.916Z</time></trkpt><trkpt lat="40.7364317" lon="16.505845"><ele>419.0</ele><time>2026-04-18T15:15:59.916Z</time></trkpt><trkpt lat="40.7362017" lon="16.5060233"><ele>419.5</ele><time>2026-04-18T15:16:00.916Z</time></trkpt><trkpt lat="40.7359717" lon="16.5062"><ele>420.0</ele><time>2026-04-18T15:16:01.917Z</time></trkpt><trkpt lat="40.7357417" lon="16.5063767"><ele>420.0</ele><time>2026-04-18T15:16:02.916Z</time></trkpt><trkpt lat="40.7355083" lon="16.50656"><ele>420.0</ele><time>2026-04-18T15:16:03.916Z</time></trkpt><trkpt lat="40.7352733" lon="16.5067517"><ele>420.5</ele><time>2026-04-18T15:16:04.916Z</time></trkpt><trkpt lat="40.73504" lon="16.5069467"><ele>421.0</ele><time>2026-04-18T15:16:05.916Z</time></trkpt><trkpt lat="40.7348067" lon="16.5071467"><ele>421.0</ele><time>2026-04-18T15:16:06.918Z</time></trkpt><trkpt lat="40.7345783" lon="16.5073417"><ele>421.0</ele><time>2026-04-18T15:16:07.916Z</time></trkpt><trkpt lat="40.7343533" lon="16.5075333"><ele>421.0</ele><time>2026-04-18T15:16:08.916Z</time></trkpt><trkpt lat="40.734125" lon="16.5077233"><ele>421.0</ele><time>2026-04-18T15:16:09.916Z</time></trkpt><trkpt lat="40.7339033" lon="16.5079133"><ele>421.0</ele><time>2026-04-18T15:16:10.917Z</time></trkpt><trkpt lat="40.733685" lon="16.5081"><ele>421.0</ele><time>2026-04-18T15:16:11.916Z</time></trkpt><trkpt lat="40.7334683" lon="16.5082833"><ele>420.0</ele><time>2026-04-18T15:16:12.917Z</time></trkpt><trkpt lat="40.7332567" lon="16.5084633"><ele>419.0</ele><time>2026-04-18T15:16:13.916Z</time></trkpt><trkpt lat="40.733045" lon="16.508645"><ele>419.0</ele><time>2026-04-18T15:16:14.918Z</time></trkpt><trkpt lat="40.7328333" lon="16.5088267"><ele>419.0</ele><time>2026-04-18T15:16:15.916Z</time></trkpt><trkpt lat="40.7326233" lon="16.5090133"><ele>417.5</ele><time>2026-04-18T15:16:16.917Z</time></trkpt><trkpt lat="40.7324133" lon="16.5092117"><ele>416.0</ele><time>2026-04-18T15:16:17.916Z</time></trkpt><trkpt lat="40.7322067" lon="16.5094217"><ele>416.0</ele><time>2026-04-18T15:16:18.917Z</time></trkpt><trkpt lat="40.732005" lon="16.509635"><ele>416.0</ele><time>2026-04-18T15:16:19.917Z</time></trkpt><trkpt lat="40.7318083" lon="16.5098433"><ele>416.0</ele><time>2026-04-18T15:16:20.916Z</time></trkpt><trkpt lat="40.731615" lon="16.510045"><ele>416.0</ele><time>2026-04-18T15:16:21.915Z</time></trkpt><trkpt lat="40.7314317" lon="16.51024"><ele>415.66666666666663</ele><time>2026-04-18T15:16:22.916Z</time></trkpt><trkpt lat="40.7312617" lon="16.5104167"><ele>415.33333333333337</ele><time>2026-04-18T15:16:23.916Z</time></trkpt><trkpt lat="40.7311017" lon="16.510585"><ele>415.0</ele><time>2026-04-18T15:16:24.917Z</time></trkpt><trkpt lat="40.7309467" lon="16.5107483"><ele>414.6666666666667</ele><time>2026-04-18T15:16:25.917Z</time></trkpt><trkpt lat="40.73079" lon="16.51091"><ele>414.33333333333337</ele><time>2026-04-18T15:16:26.916Z</time></trkpt><trkpt lat="40.7306317" lon="16.5110733"><ele>414.0</ele><time>2026-04-18T15:16:27.917Z</time></trkpt><trkpt lat="40.7304783" lon="16.5112333"><ele>414.0</ele><time>2026-04-18T15:16:28.917Z</time></trkpt><trkpt lat="40.730325" lon="16.51138"><ele>414.0</ele><time>2026-04-18T15:16:29.916Z</time></trkpt><trkpt lat="40.7301617" lon="16.5115117"><ele>414.0</ele><time>2026-04-18T15:16:30.916Z</time></trkpt><trkpt lat="40.7299767" lon="16.5116317"><ele>416.0</ele><time>2026-04-18T15:16:31.918Z</time></trkpt><trkpt lat="40.7297817" lon="16.51175"><ele>418.0</ele><time>2026-04-18T15:16:32.916Z</time></trkpt><trkpt lat="40.72959" lon="16.5118667"><ele>420.0</ele><time>2026-04-18T15:16:33.915Z</time></trkpt><trkpt lat="40.7294167" lon="16.5119717"><ele>420.33333333333337</ele><time>2026-04-18T15:16:34.916Z</time></trkpt><trkpt lat="40.7292583" lon="16.5120667"><ele>420.6666666666667</ele><time>2026-04-18T15:16:35.916Z</time></trkpt><trkpt lat="40.7291167" lon="16.5121517"><ele>421.0</ele><time>2026-04-18T15:16:36.917Z</time></trkpt><trkpt lat="40.72899" lon="16.51223"><ele>421.0</ele><time>2026-04-18T15:16:37.918Z</time></trkpt><trkpt lat="40.7288733" lon="16.5123017"><ele>421.0</ele><time>2026-04-18T15:16:38.916Z</time></trkpt><trkpt lat="40.72877" lon="16.512365"><ele>421.0</ele><time>2026-04-18T15:16:39.917Z</time></trkpt><trkpt lat="40.7286833" lon="16.5124133"><ele>421.0</ele><time>2026-04-18T15:16:40.917Z</time></trkpt><trkpt lat="40.728615" lon="16.5124383"><ele>421.0</ele><time>2026-04-18T15:16:41.916Z</time></trkpt><trkpt lat="40.7285283" lon="16.5124317"><ele>420.6</ele><time>2026-04-18T15:16:43.918Z</time></trkpt><trkpt lat="40.7284517" lon="16.5123683"><ele>420.20000000000005</ele><time>2026-04-18T15:16:46.917Z</time></trkpt><trkpt lat="40.7284067" lon="16.5122883"><ele>419.79999999999995</ele><time>2026-04-18T15:16:49.922Z</time></trkpt><trkpt lat="40.7283383" lon="16.5121733"><ele>419.4</ele><time>2026-04-18T15:18:01.916Z</time></trkpt><trkpt lat="40.7282783" lon="16.5121"><ele>419.0</ele><time>2026-04-18T15:18:02.917Z</time></trkpt><trkpt lat="40.7282" lon="16.511995"><ele>418.66666666666663</ele><time>2026-04-18T15:18:03.917Z</time></trkpt><trkpt lat="40.728105" lon="16.511865"><ele>418.33333333333337</ele><time>2026-04-18T15:18:04.916Z</time></trkpt><trkpt lat="40.7279917" lon="16.5117083"><ele>418.0</ele><time>2026-04-18T15:18:05.918Z</time></trkpt><trkpt lat="40.7278667" lon="16.5115333"><ele>418.0</ele><time>2026-04-18T15:18:06.919Z</time></trkpt><trkpt lat="40.7277317" lon="16.5113483"><ele>418.0</ele><time>2026-04-18T15:18:07.919Z</time></trkpt><trkpt lat="40.7275933" lon="16.511155"><ele>418.0</ele><time>2026-04-18T15:18:08.917Z</time></trkpt><trkpt lat="40.72745" lon="16.510955"><ele>418.0</ele><time>2026-04-18T15:18:09.918Z</time></trkpt><trkpt lat="40.727305" lon="16.5107483"><ele>418.0</ele><time>2026-04-18T15:18:10.919Z</time></trkpt><trkpt lat="40.7271567" lon="16.510535"><ele>418.0</ele><time>2026-04-18T15:18:11.918Z</time></trkpt><trkpt lat="40.7270033" lon="16.5103183"><ele>417.0</ele><time>2026-04-18T15:18:12.916Z</time></trkpt><trkpt lat="40.726845" lon="16.5100917"><ele>416.0</ele><time>2026-04-18T15:18:13.916Z</time></trkpt><trkpt lat="40.72668" lon="16.5098533"><ele>416.0</ele><time>2026-04-18T15:18:14.916Z</time></trkpt><trkpt lat="40.7265083" lon="16.5096083"><ele>416.0</ele><time>2026-04-18T15:18:15.917Z</time></trkpt><trkpt lat="40.7263433" lon="16.5093733"><ele>416.0</ele><time>2026-04-18T15:18:16.916Z</time></trkpt><trkpt lat="40.7261917" lon="16.5091567"><ele>416.0</ele><time>2026-04-18T15:18:17.916Z</time></trkpt><trkpt lat="40.7260533" lon="16.508955"><ele>416.0</ele><time>2026-04-18T15:18:18.916Z</time></trkpt><trkpt lat="40.7258" lon="16.5086"><ele>418.0</ele><time>2026-04-18T15:18:20.916Z</time></trkpt><trkpt lat="40.7256817" lon="16.5084517"><ele>420.0</ele><time>2026-04-18T15:18:21.917Z</time></trkpt><trkpt lat="40.72555" lon="16.5083233"><ele>422.0</ele><time>2026-04-18T15:18:22.916Z</time></trkpt><trkpt lat="40.7253983" lon="16.5082267"><ele>422.3333333333333</ele><time>2026-04-18T15:18:23.917Z</time></trkpt><trkpt lat="40.725225" lon="16.5081683"><ele>422.66666666666663</ele><time>2026-04-18T15:18:24.916Z</time></trkpt><trkpt lat="40.7250317" lon="16.50814"><ele>423.0</ele><time>2026-04-18T15:18:25.917Z</time></trkpt><trkpt lat="40.7248317" lon="16.5081317"><ele>423.0</ele><time>2026-04-18T15:18:26.917Z</time></trkpt><trkpt lat="40.7246433" lon="16.5081233"><ele>423.0</ele><time>2026-04-18T15:18:27.916Z</time></trkpt><trkpt lat="40.7244733" lon="16.5080917"><ele>423.0</ele><time>2026-04-18T15:18:28.917Z</time></trkpt><trkpt lat="40.7243167" lon="16.50803"><ele>423.33333333333337</ele><time>2026-04-18T15:18:29.917Z</time></trkpt><trkpt lat="40.72417" lon="16.5079367"><ele>423.6666666666667</ele><time>2026-04-18T15:18:30.915Z</time></trkpt><trkpt lat="40.72404" lon="16.507815"><ele>424.0</ele><time>2026-04-18T15:18:31.916Z</time></trkpt><trkpt lat="40.72392" lon="16.5076617"><ele>423.33333333333337</ele><time>2026-04-18T15:18:32.916Z</time></trkpt><trkpt lat="40.7238033" lon="16.5074867"><ele>422.66666666666663</ele><time>2026-04-18T15:18:33.917Z</time></trkpt><trkpt lat="40.7236883" lon="16.50731"><ele>422.0</ele><time>2026-04-18T15:18:34.917Z</time></trkpt><trkpt lat="40.7235783" lon="16.50714"><ele>419.5</ele><time>2026-04-18T15:18:35.917Z</time></trkpt><trkpt lat="40.723475" lon="16.5069783"><ele>417.0</ele><time>2026-04-18T15:18:36.916Z</time></trkpt><trkpt lat="40.72338" lon="16.5068367"><ele>414.5</ele><time>2026-04-18T15:18:37.916Z</time></trkpt><trkpt lat="40.72329" lon="16.506725"><ele>412.0</ele><time>2026-04-18T15:18:38.916Z</time></trkpt><trkpt lat="40.7231933" lon="16.5066367"><ele>412.0</ele><time>2026-04-18T15:18:39.917Z</time></trkpt><trkpt lat="40.7230917" lon="16.5065667"><ele>412.0</ele><time>2026-04-18T15:18:40.917Z</time></trkpt><trkpt lat="40.7229867" lon="16.5065183"><ele>412.0</ele><time>2026-04-18T15:18:41.917Z</time></trkpt><trkpt lat="40.722885" lon="16.506485"><ele>412.0</ele><time>2026-04-18T15:18:42.918Z</time></trkpt><trkpt lat="40.7227867" lon="16.5064683"><ele>412.0</ele><time>2026-04-18T15:18:43.917Z</time></trkpt><trkpt lat="40.7226883" lon="16.5064683"><ele>411.6</ele><time>2026-04-18T15:18:44.917Z</time></trkpt><trkpt lat="40.7225883" lon="16.5064817"><ele>411.20000000000005</ele><time>2026-04-18T15:18:45.917Z</time></trkpt><trkpt lat="40.72249" lon="16.5064933"><ele>410.8</ele><time>2026-04-18T15:18:46.915Z</time></trkpt><trkpt lat="40.7223817" lon="16.5064933"><ele>410.4</ele><time>2026-04-18T15:18:47.917Z</time></trkpt><trkpt lat="40.7222667" lon="16.5064983"><ele>410.0</ele><time>2026-04-18T15:18:48.916Z</time></trkpt><trkpt lat="40.7221467" lon="16.5065083"><ele>410.0</ele><time>2026-04-18T15:18:49.917Z</time></trkpt><trkpt lat="40.7220167" lon="16.50652"><ele>410.0</ele><time>2026-04-18T15:18:50.915Z</time></trkpt><trkpt lat="40.7218783" lon="16.5065317"><ele>410.0</ele><time>2026-04-18T15:18:51.916Z</time></trkpt><trkpt lat="40.721725" lon="16.50654"><ele>410.0</ele><time>2026-04-18T15:18:52.918Z</time></trkpt><trkpt lat="40.7215567" lon="16.5065483"><ele>407.66666666666663</ele><time>2026-04-18T15:18:53.916Z</time></trkpt><trkpt lat="40.7213717" lon="16.5065617"><ele>405.33333333333337</ele><time>2026-04-18T15:18:54.917Z</time></trkpt><trkpt lat="40.7211733" lon="16.5065733"><ele>403.0</ele><time>2026-04-18T15:18:55.917Z</time></trkpt><trkpt lat="40.720955" lon="16.5065883"><ele>399.0</ele><time>2026-04-18T15:18:56.916Z</time></trkpt><trkpt lat="40.7207233" lon="16.5066017"><ele>395.0</ele><time>2026-04-18T15:18:57.917Z</time></trkpt><trkpt lat="40.720495" lon="16.5066167"><ele>395.0</ele><time>2026-04-18T15:18:58.918Z</time></trkpt><trkpt lat="40.720275" lon="16.50663"><ele>395.0</ele><time>2026-04-18T15:18:59.917Z</time></trkpt><trkpt lat="40.7200633" lon="16.5066467"><ele>395.0</ele><time>2026-04-18T15:19:00.916Z</time></trkpt><trkpt lat="40.71986" lon="16.5066617"><ele>394.3333333333333</ele><time>2026-04-18T15:19:01.918Z</time></trkpt><trkpt lat="40.7196683" lon="16.506675"><ele>393.66666666666663</ele><time>2026-04-18T15:19:02.918Z</time></trkpt><trkpt lat="40.719485" lon="16.5066867"><ele>393.0</ele><time>2026-04-18T15:19:03.917Z</time></trkpt><trkpt lat="40.7193083" lon="16.506695"><ele>390.0</ele><time>2026-04-18T15:19:04.919Z</time></trkpt><trkpt lat="40.719135" lon="16.5067033"><ele>387.0</ele><time>2026-04-18T15:19:05.917Z</time></trkpt><trkpt lat="40.71897" lon="16.5067133"><ele>384.0</ele><time>2026-04-18T15:19:06.917Z</time></trkpt><trkpt lat="40.718805" lon="16.5067333"><ele>384.0</ele><time>2026-04-18T15:19:07.918Z</time></trkpt><trkpt lat="40.7186333" lon="16.50676"><ele>384.0</ele><time>2026-04-18T15:19:08.918Z</time></trkpt><trkpt lat="40.71846" lon="16.5067933"><ele>384.0</ele><time>2026-04-18T15:19:09.918Z</time></trkpt><trkpt lat="40.7182917" lon="16.5068283"><ele>381.6666666666667</ele><time>2026-04-18T15:19:10.917Z</time></trkpt><trkpt lat="40.7181317" lon="16.506865"><ele>379.33333333333337</ele><time>2026-04-18T15:19:11.917Z</time></trkpt><trkpt lat="40.7179783" lon="16.5069083"><ele>377.0</ele><time>2026-04-18T15:19:12.917Z</time></trkpt><trkpt lat="40.7178267" lon="16.5069683"><ele>376.6666666666667</ele><time>2026-04-18T15:19:13.916Z</time></trkpt><trkpt lat="40.717675" lon="16.507055"><ele>376.3333333333333</ele><time>2026-04-18T15:19:14.916Z</time></trkpt><trkpt lat="40.7175217" lon="16.5071667"><ele>376.0</ele><time>2026-04-18T15:19:15.917Z</time></trkpt><trkpt lat="40.7173717" lon="16.5073067"><ele>376.0</ele><time>2026-04-18T15:19:16.917Z</time></trkpt><trkpt lat="40.7172317" lon="16.50746"><ele>376.0</ele><time>2026-04-18T15:19:17.916Z</time></trkpt><trkpt lat="40.7171067" lon="16.5076017"><ele>376.0</ele><time>2026-04-18T15:19:18.916Z</time></trkpt><trkpt lat="40.7169933" lon="16.507725"><ele>374.75</ele><time>2026-04-18T15:19:19.917Z</time></trkpt><trkpt lat="40.7168817" lon="16.5078367"><ele>373.5</ele><time>2026-04-18T15:19:20.916Z</time></trkpt><trkpt lat="40.7167617" lon="16.50793"><ele>372.25</ele><time>2026-04-18T15:19:21.916Z</time></trkpt><trkpt lat="40.71663" lon="16.508005"><ele>371.0</ele><time>2026-04-18T15:19:22.917Z</time></trkpt><trkpt lat="40.716485" lon="16.5080483"><ele>371.0</ele><time>2026-04-18T15:19:23.916Z</time></trkpt><trkpt lat="40.7163333" lon="16.5080667"><ele>371.0</ele><time>2026-04-18T15:19:24.916Z</time></trkpt><trkpt lat="40.71618" lon="16.5080533"><ele>371.0</ele><time>2026-04-18T15:19:25.917Z</time></trkpt><trkpt lat="40.7160283" lon="16.5080083"><ele>368.6666666666667</ele><time>2026-04-18T15:19:26.916Z</time></trkpt><trkpt lat="40.71588" lon="16.507945"><ele>366.3333333333333</ele><time>2026-04-18T15:19:27.92Z</time></trkpt><trkpt lat="40.7157367" lon="16.5078733"><ele>364.0</ele><time>2026-04-18T15:19:28.917Z</time></trkpt><trkpt lat="40.7155933" lon="16.5077983"><ele>362.0</ele><time>2026-04-18T15:19:29.917Z</time></trkpt><trkpt lat="40.7154467" lon="16.507715"><ele>360.0</ele><time>2026-04-18T15:19:30.917Z</time></trkpt><trkpt lat="40.715305" lon="16.5076183"><ele>358.0</ele><time>2026-04-18T15:19:31.917Z</time></trkpt><trkpt lat="40.71517" lon="16.5074983"><ele>357.66666666666663</ele><time>2026-04-18T15:19:32.917Z</time></trkpt><trkpt lat="40.7150367" lon="16.5073567"><ele>357.3333333333333</ele><time>2026-04-18T15:19:33.917Z</time></trkpt><trkpt lat="40.7149033" lon="16.5071983"><ele>357.0</ele><time>2026-04-18T15:19:34.917Z</time></trkpt><trkpt lat="40.7147733" lon="16.5070383"><ele>355.3333333333333</ele><time>2026-04-18T15:19:35.916Z</time></trkpt><trkpt lat="40.7146467" lon="16.5068867"><ele>353.66666666666663</ele><time>2026-04-18T15:19:36.917Z</time></trkpt><trkpt lat="40.7145317" lon="16.5067483"><ele>352.0</ele><time>2026-04-18T15:19:37.918Z</time></trkpt><trkpt lat="40.7144183" lon="16.506625"><ele>351.25</ele><time>2026-04-18T15:19:38.917Z</time></trkpt><trkpt lat="40.7142917" lon="16.50652"><ele>350.5</ele><time>2026-04-18T15:19:39.915Z</time></trkpt><trkpt lat="40.7141567" lon="16.506445"><ele>349.75</ele><time>2026-04-18T15:19:40.916Z</time></trkpt><trkpt lat="40.7140267" lon="16.5064"><ele>349.0</ele><time>2026-04-18T15:19:41.916Z</time></trkpt><trkpt lat="40.7139117" lon="16.5063783"><ele>349.0</ele><time>2026-04-18T15:19:42.917Z</time></trkpt><trkpt lat="40.713815" lon="16.506385"><ele>349.0</ele><time>2026-04-18T15:19:43.915Z</time></trkpt><trkpt lat="40.7137383" lon="16.5064167"><ele>349.0</ele><time>2026-04-18T15:19:44.916Z</time></trkpt><trkpt lat="40.7136833" lon="16.5064733"><ele>349.0</ele><time>2026-04-18T15:19:45.916Z</time></trkpt><trkpt lat="40.7136483" lon="16.5065433"><ele>349.0</ele><time>2026-04-18T15:19:46.916Z</time></trkpt><trkpt lat="40.7136217" lon="16.50662"><ele>349.0</ele><time>2026-04-18T15:19:47.916Z</time></trkpt><trkpt lat="40.7135883" lon="16.50674"><ele>349.0</ele><time>2026-04-18T15:19:49.916Z</time></trkpt><trkpt lat="40.713575" lon="16.50685"><ele>349.0</ele><time>2026-04-18T15:19:51.916Z</time></trkpt><trkpt lat="40.7135667" lon="16.5069633"><ele>349.0</ele><time>2026-04-18T15:19:53.917Z</time></trkpt><trkpt lat="40.7136017" lon="16.5068817"><ele>349.0</ele><time>2026-04-18T15:19:59.917Z</time></trkpt><trkpt lat="40.7136017" lon="16.5067817"><ele>349.0</ele><time>2026-04-18T15:20:00.917Z</time></trkpt><trkpt lat="40.7136167" lon="16.5066783"><ele>349.0</ele><time>2026-04-18T15:20:01.916Z</time></trkpt><trkpt lat="40.713645" lon="16.5065933"><ele>349.0</ele><time>2026-04-18T15:20:02.916Z</time></trkpt><trkpt lat="40.7136567" lon="16.506455"><ele>349.0</ele><time>2026-04-18T15:20:04.917Z</time></trkpt><trkpt lat="40.713575" lon="16.506325"><ele>349.0</ele><time>2026-04-18T15:20:06.917Z</time></trkpt><trkpt lat="40.7135183" lon="16.506235"><ele>349.0</ele><time>2026-04-18T15:20:07.917Z</time></trkpt><trkpt lat="40.7134617" lon="16.5061333"><ele>349.0</ele><time>2026-04-18T15:20:08.916Z</time></trkpt><trkpt lat="40.7134083" lon="16.5060217"><ele>347.0</ele><time>2026-04-18T15:20:09.916Z</time></trkpt><trkpt lat="40.7133617" lon="16.5059067"><ele>345.0</ele><time>2026-04-18T15:20:10.917Z</time></trkpt><trkpt lat="40.7133117" lon="16.505795"><ele>343.0</ele><time>2026-04-18T15:20:11.916Z</time></trkpt><trkpt lat="40.7132633" lon="16.5056867"><ele>341.0</ele><time>2026-04-18T15:20:12.917Z</time></trkpt><trkpt lat="40.71322" lon="16.50558"><ele>339.0</ele><time>2026-04-18T15:20:13.918Z</time></trkpt><trkpt lat="40.7131817" lon="16.5054783"><ele>339.0</ele><time>2026-04-18T15:20:14.916Z</time></trkpt><trkpt lat="40.7131483" lon="16.5053833"><ele>339.0</ele><time>2026-04-18T15:20:15.915Z</time></trkpt><trkpt lat="40.7131167" lon="16.505305"><ele>339.0</ele><time>2026-04-18T15:20:16.916Z</time></trkpt><trkpt lat="40.71307" lon="16.5052267"><ele>339.0</ele><time>2026-04-18T15:20:18.916Z</time></trkpt><trkpt lat="40.7129567" lon="16.5053983"><ele>339.0</ele><time>2026-04-18T15:20:35.917Z</time></trkpt><trkpt lat="40.7129083" lon="16.5055183"><ele>339.0</ele><time>2026-04-18T15:20:36.916Z</time></trkpt><trkpt lat="40.7128617" lon="16.5056383"><ele>339.0</ele><time>2026-04-18T15:20:37.917Z</time></trkpt><trkpt lat="40.7128117" lon="16.5057467"><ele>339.0</ele><time>2026-04-18T15:20:38.915Z</time></trkpt><trkpt lat="40.7127583" lon="16.5058367"><ele>339.0</ele><time>2026-04-18T15:20:39.916Z</time></trkpt><trkpt lat="40.7127067" lon="16.505905"><ele>339.0</ele><time>2026-04-18T15:20:40.918Z</time></trkpt><trkpt lat="40.7126267" lon="16.5059783"><ele>337.4</ele><time>2026-04-18T15:20:42.917Z</time></trkpt><trkpt lat="40.71253" lon="16.50601"><ele>335.79999999999995</ele><time>2026-04-18T15:20:44.916Z</time></trkpt><trkpt lat="40.712445" lon="16.5060417"><ele>334.20000000000005</ele><time>2026-04-18T15:20:46.916Z</time></trkpt><trkpt lat="40.7123567" lon="16.5060817"><ele>332.6</ele><time>2026-04-18T15:20:48.917Z</time></trkpt><trkpt lat="40.7122533" lon="16.5061267"><ele>331.0</ele><time>2026-04-18T15:20:50.917Z</time></trkpt><trkpt lat="40.7121333" lon="16.5061767"><ele>331.0</ele><time>2026-04-18T15:20:52.916Z</time></trkpt><trkpt lat="40.7120733" lon="16.506205"><ele>331.0</ele><time>2026-04-18T15:20:53.917Z</time></trkpt><trkpt lat="40.7120117" lon="16.5062317"><ele>331.0</ele><time>2026-04-18T15:20:54.916Z</time></trkpt><trkpt lat="40.7118883" lon="16.5062833"><ele>331.0</ele><time>2026-04-18T15:20:56.916Z</time></trkpt><trkpt lat="40.7118183" lon="16.5063133"><ele>331.0</ele><time>2026-04-18T15:20:57.916Z</time></trkpt><trkpt lat="40.7117383" lon="16.5063433"><ele>331.0</ele><time>2026-04-18T15:20:58.916Z</time></trkpt><trkpt lat="40.711655" lon="16.5063783"><ele>329.16666666666663</ele><time>2026-04-18T15:20:59.917Z</time></trkpt><trkpt lat="40.7115717" lon="16.506415"><ele>327.3333333333333</ele><time>2026-04-18T15:21:00.916Z</time></trkpt><trkpt lat="40.7114883" lon="16.506445"><ele>325.5</ele><time>2026-04-18T15:21:01.917Z</time></trkpt><trkpt lat="40.7114133" lon="16.5064667"><ele>323.6666666666667</ele><time>2026-04-18T15:21:02.917Z</time></trkpt><trkpt lat="40.7113433" lon="16.5064833"><ele>321.83333333333337</ele><time>2026-04-18T15:21:03.917Z</time></trkpt><trkpt lat="40.71127" lon="16.5065017"><ele>320.0</ele><time>2026-04-18T15:21:04.917Z</time></trkpt><trkpt lat="40.7111933" lon="16.5065267"><ele>320.0</ele><time>2026-04-18T15:21:05.915Z</time></trkpt><trkpt lat="40.71112" lon="16.5065533"><ele>320.0</ele><time>2026-04-18T15:21:06.917Z</time></trkpt><trkpt lat="40.711055" lon="16.5065767"><ele>320.0</ele><time>2026-04-18T15:21:07.918Z</time></trkpt><trkpt lat="40.71095" lon="16.5066167"><ele>320.0</ele><time>2026-04-18T15:21:09.917Z</time></trkpt><trkpt lat="40.7108767" lon="16.50665"><ele>320.0</ele><time>2026-04-18T15:21:11.916Z</time></trkpt><trkpt lat="40.7108183" lon="16.5066933"><ele>320.0</ele><time>2026-04-18T15:21:13.917Z</time></trkpt><trkpt lat="40.7107283" lon="16.5067317"><ele>320.0</ele><time>2026-04-18T15:21:15.916Z</time></trkpt><trkpt lat="40.7106317" lon="16.506775"><ele>320.0</ele><time>2026-04-18T15:21:17.917Z</time></trkpt><trkpt lat="40.7105483" lon="16.506815"><ele>320.0</ele><time>2026-04-18T15:21:19.917Z</time></trkpt><trkpt lat="40.7104733" lon="16.5068483"><ele>320.0</ele><time>2026-04-18T15:21:21.918Z</time></trkpt><trkpt lat="40.7104" lon="16.5068817"><ele>320.0</ele><time>2026-04-18T15:21:23.916Z</time></trkpt><trkpt lat="40.710325" lon="16.5069133"><ele>320.0</ele><time>2026-04-18T15:21:25.917Z</time></trkpt><trkpt lat="40.7102417" lon="16.506945"><ele>319.2</ele><time>2026-04-18T15:21:27.916Z</time></trkpt><trkpt lat="40.7101517" lon="16.5069817"><ele>318.4</ele><time>2026-04-18T15:21:29.916Z</time></trkpt><trkpt lat="40.7100433" lon="16.5070217"><ele>317.6</ele><time>2026-04-18T15:21:31.917Z</time></trkpt><trkpt lat="40.7099367" lon="16.50706"><ele>316.8</ele><time>2026-04-18T15:21:33.917Z</time></trkpt><trkpt lat="40.7098417" lon="16.5070917"><ele>316.0</ele><time>2026-04-18T15:21:35.916Z</time></trkpt><trkpt lat="40.7097667" lon="16.5071167"><ele>314.5</ele><time>2026-04-18T15:21:37.917Z</time></trkpt><trkpt lat="40.709675" lon="16.5071367"><ele>313.0</ele><time>2026-04-18T15:21:40.917Z</time></trkpt><trkpt lat="40.7096017" lon="16.50715"><ele>311.5</ele><time>2026-04-18T15:21:42.917Z</time></trkpt><trkpt lat="40.7095167" lon="16.5071617"><ele>310.0</ele><time>2026-04-18T15:21:45.917Z</time></trkpt><trkpt lat="40.70943" lon="16.5071567"><ele>308.5</ele><time>2026-04-18T15:21:48.916Z</time></trkpt><trkpt lat="40.7093717" lon="16.5071133"><ele>307.0</ele><time>2026-04-18T15:21:51.917Z</time></trkpt><trkpt lat="40.7093117" lon="16.50703"><ele>305.85714285714283</ele><time>2026-04-18T15:21:54.916Z</time></trkpt><trkpt lat="40.7092633" lon="16.5069333"><ele>304.7142857142857</ele><time>2026-04-18T15:21:57.916Z</time></trkpt><trkpt lat="40.7092217" lon="16.5068483"><ele>303.57142857142856</ele><time>2026-04-18T15:22:01.918Z</time></trkpt><trkpt lat="40.7091783" lon="16.50678"><ele>302.42857142857144</ele><time>2026-04-18T15:22:04.918Z</time></trkpt><trkpt lat="40.7091333" lon="16.5066967"><ele>301.2857142857143</ele><time>2026-04-18T15:22:07.917Z</time></trkpt><trkpt lat="40.7090967" lon="16.50662"><ele>300.1428571428571</ele><time>2026-04-18T15:22:10.918Z</time></trkpt><trkpt lat="40.7090633" lon="16.5065417"><ele>299.0</ele><time>2026-04-18T15:22:13.917Z</time></trkpt><trkpt lat="40.7090367" lon="16.5064483"><ele>299.0</ele><time>2026-04-18T15:22:22.918Z</time></trkpt><trkpt lat="40.70901" lon="16.5063717"><ele>299.0</ele><time>2026-04-18T15:22:24.915Z</time></trkpt><trkpt lat="40.70896" lon="16.506275"><ele>299.0</ele><time>2026-04-18T15:22:26.917Z</time></trkpt><trkpt lat="40.7089017" lon="16.5061733"><ele>299.0</ele><time>2026-04-18T15:22:28.916Z</time></trkpt><trkpt lat="40.708845" lon="16.50607"><ele>299.0</ele><time>2026-04-18T15:22:30.915Z</time></trkpt><trkpt lat="40.708785" lon="16.5059567"><ele>299.6666666666667</ele><time>2026-04-18T15:22:32.916Z</time></trkpt><trkpt lat="40.7087333" lon="16.505865"><ele>300.33333333333337</ele><time>2026-04-18T15:22:34.917Z</time></trkpt><trkpt lat="40.7086867" lon="16.5057817"><ele>301.0</ele><time>2026-04-18T15:22:36.918Z</time></trkpt><trkpt lat="40.7086317" lon="16.5056833"><ele>301.6666666666667</ele><time>2026-04-18T15:22:38.916Z</time></trkpt><trkpt lat="40.7085767" lon="16.5056033"><ele>302.3333333333333</ele><time>2026-04-18T15:22:40.917Z</time></trkpt><trkpt lat="40.7085" lon="16.505595"><ele>303.0</ele><time>2026-04-18T15:22:43.917Z</time></trkpt><trkpt lat="40.7084483" lon="16.505675"><ele>303.0</ele><time>2026-04-18T15:22:45.917Z</time></trkpt><trkpt lat="40.7083933" lon="16.5057917"><ele>303.0</ele><time>2026-04-18T15:22:47.916Z</time></trkpt><trkpt lat="40.708325" lon="16.5059117"><ele>303.0</ele><time>2026-04-18T15:22:49.917Z</time></trkpt><trkpt lat="40.7082517" lon="16.5060383"><ele>303.0</ele><time>2026-04-18T15:22:51.917Z</time></trkpt><trkpt lat="40.7081783" lon="16.506165"><ele>301.0</ele><time>2026-04-18T15:22:53.916Z</time></trkpt><trkpt lat="40.7081017" lon="16.50629"><ele>299.0</ele><time>2026-04-18T15:22:55.917Z</time></trkpt><trkpt lat="40.70803" lon="16.5064167"><ele>297.0</ele><time>2026-04-18T15:22:57.916Z</time></trkpt><trkpt lat="40.7079933" lon="16.506485"><ele>295.0</ele><time>2026-04-18T15:22:58.917Z</time></trkpt><trkpt lat="40.7079317" lon="16.506595"><ele>293.0</ele><time>2026-04-18T15:23:00.916Z</time></trkpt><trkpt lat="40.7078483" lon="16.5067383"><ele>293.0</ele><time>2026-04-18T15:23:02.917Z</time></trkpt><trkpt lat="40.707795" lon="16.5068333"><ele>293.0</ele><time>2026-04-18T15:23:03.915Z</time></trkpt><trkpt lat="40.7077383" lon="16.5069283"><ele>293.0</ele><time>2026-04-18T15:23:04.917Z</time></trkpt><trkpt lat="40.7076817" lon="16.5070233"><ele>293.0</ele><time>2026-04-18T15:23:05.916Z</time></trkpt><trkpt lat="40.7076267" lon="16.50712"><ele>293.0</ele><time>2026-04-18T15:23:06.916Z</time></trkpt><trkpt lat="40.7075667" lon="16.5072283"><ele>290.0</ele><time>2026-04-18T15:23:07.916Z</time></trkpt><trkpt lat="40.7074967" lon="16.50735"><ele>287.0</ele><time>2026-04-18T15:23:08.915Z</time></trkpt><trkpt lat="40.707425" lon="16.5074767"><ele>284.0</ele><time>2026-04-18T15:23:09.914Z</time></trkpt><trkpt lat="40.7073533" lon="16.5075967"><ele>281.0</ele><time>2026-04-18T15:23:10.917Z</time></trkpt><trkpt lat="40.7072867" lon="16.507715"><ele>281.0</ele><time>2026-04-18T15:23:11.918Z</time></trkpt><trkpt lat="40.707225" lon="16.5078317"><ele>281.0</ele><time>2026-04-18T15:23:12.917Z</time></trkpt><trkpt lat="40.7071683" lon="16.507945"><ele>281.0</ele><time>2026-04-18T15:23:13.916Z</time></trkpt><trkpt lat="40.7071117" lon="16.5080517"><ele>281.0</ele><time>2026-04-18T15:23:14.916Z</time></trkpt><trkpt lat="40.7070583" lon="16.5081533"><ele>281.0</ele><time>2026-04-18T15:23:15.916Z</time></trkpt><trkpt lat="40.7070067" lon="16.5082467"><ele>279.83333333333337</ele><time>2026-04-18T15:23:16.917Z</time></trkpt><trkpt lat="40.70695" lon="16.5083233"><ele>278.6666666666667</ele><time>2026-04-18T15:23:17.916Z</time></trkpt><trkpt lat="40.706885" lon="16.508385"><ele>277.5</ele><time>2026-04-18T15:23:18.917Z</time></trkpt><trkpt lat="40.7068133" lon="16.5084233"><ele>276.3333333333333</ele><time>2026-04-18T15:23:19.918Z</time></trkpt><trkpt lat="40.7067267" lon="16.50846"><ele>275.16666666666663</ele><time>2026-04-18T15:23:20.916Z</time></trkpt><trkpt lat="40.7066183" lon="16.508505"><ele>274.0</ele><time>2026-04-18T15:23:21.917Z</time></trkpt><trkpt lat="40.70649" lon="16.50856"><ele>272.75</ele><time>2026-04-18T15:23:22.917Z</time></trkpt><trkpt lat="40.7063567" lon="16.508615"><ele>271.5</ele><time>2026-04-18T15:23:23.916Z</time></trkpt><trkpt lat="40.7062383" lon="16.5086667"><ele>270.25</ele><time>2026-04-18T15:23:24.917Z</time></trkpt><trkpt lat="40.7061217" lon="16.5087167"><ele>269.0</ele><time>2026-04-18T15:23:25.918Z</time></trkpt><trkpt lat="40.7059917" lon="16.5087783"><ele>267.0</ele><time>2026-04-18T15:23:26.916Z</time></trkpt><trkpt lat="40.7058517" lon="16.5088433"><ele>265.0</ele><time>2026-04-18T15:23:27.916Z</time></trkpt><trkpt lat="40.7057117" lon="16.5089"><ele>263.0</ele><time>2026-04-18T15:23:28.917Z</time></trkpt><trkpt lat="40.70558" lon="16.5089483"><ele>261.0</ele><time>2026-04-18T15:23:29.916Z</time></trkpt><trkpt lat="40.7054467" lon="16.509"><ele>261.0</ele><time>2026-04-18T15:23:30.916Z</time></trkpt><trkpt lat="40.70531" lon="16.50906"><ele>261.0</ele><time>2026-04-18T15:23:31.918Z</time></trkpt><trkpt lat="40.705175" lon="16.5091183"><ele>261.0</ele><time>2026-04-18T15:23:32.917Z</time></trkpt><trkpt lat="40.7050417" lon="16.509175"><ele>261.0</ele><time>2026-04-18T15:23:33.917Z</time></trkpt><trkpt lat="40.704915" lon="16.5092317"><ele>260.2</ele><time>2026-04-18T15:23:34.917Z</time></trkpt><trkpt lat="40.7047983" lon="16.509285"><ele>259.40000000000003</ele><time>2026-04-18T15:23:35.916Z</time></trkpt><trkpt lat="40.7046883" lon="16.5093317"><ele>258.6</ele><time>2026-04-18T15:23:36.917Z</time></trkpt><trkpt lat="40.7045917" lon="16.509375"><ele>257.8</ele><time>2026-04-18T15:23:37.917Z</time></trkpt><trkpt lat="40.7045083" lon="16.5094117"><ele>257.0</ele><time>2026-04-18T15:23:38.916Z</time></trkpt><trkpt lat="40.7044383" lon="16.5094433"><ele>256.0</ele><time>2026-04-18T15:23:39.917Z</time></trkpt><trkpt lat="40.7043383" lon="16.5094767"><ele>255.0</ele><time>2026-04-18T15:23:41.916Z</time></trkpt><trkpt lat="40.7042617" lon="16.5094617"><ele>254.0</ele><time>2026-04-18T15:23:43.917Z</time></trkpt><trkpt lat="40.7041467" lon="16.5093567"><ele>253.0</ele><time>2026-04-18T15:23:45.916Z</time></trkpt><trkpt lat="40.7040683" lon="16.5092817"><ele>252.0</ele><time>2026-04-18T15:23:46.918Z</time></trkpt><trkpt lat="40.70398" lon="16.5091983"><ele>252.0</ele><time>2026-04-18T15:23:47.917Z</time></trkpt><trkpt lat="40.7038833" lon="16.50911"><ele>252.0</ele><time>2026-04-18T15:23:48.917Z</time></trkpt><trkpt lat="40.70378" lon="16.50901"><ele>252.0</ele><time>2026-04-18T15:23:49.918Z</time></trkpt><trkpt lat="40.7036783" lon="16.5089067"><ele>252.0</ele><time>2026-04-18T15:23:50.916Z</time></trkpt><trkpt lat="40.7035733" lon="16.5088033"><ele>252.25</ele><time>2026-04-18T15:23:51.916Z</time></trkpt><trkpt lat="40.7034583" lon="16.5086967"><ele>252.5</ele><time>2026-04-18T15:23:52.918Z</time></trkpt><trkpt lat="40.7033383" lon="16.5085833"><ele>252.75</ele><time>2026-04-18T15:23:53.917Z</time></trkpt><trkpt lat="40.703225" lon="16.5084717"><ele>253.0</ele><time>2026-04-18T15:23:54.917Z</time></trkpt><trkpt lat="40.7031167" lon="16.50837"><ele>253.0</ele><time>2026-04-18T15:23:55.918Z</time></trkpt><trkpt lat="40.7030117" lon="16.50828"><ele>253.0</ele><time>2026-04-18T15:23:56.917Z</time></trkpt><trkpt lat="40.702905" lon="16.508195"><ele>253.0</ele><time>2026-04-18T15:23:57.916Z</time></trkpt><trkpt lat="40.702795" lon="16.5081083"><ele>253.0</ele><time>2026-04-18T15:23:58.917Z</time></trkpt><trkpt lat="40.7026783" lon="16.5080333"><ele>252.5</ele><time>2026-04-18T15:23:59.916Z</time></trkpt><trkpt lat="40.702555" lon="16.5079767"><ele>252.0</ele><time>2026-04-18T15:24:00.918Z</time></trkpt><trkpt lat="40.7024233" lon="16.5079383"><ele>251.5</ele><time>2026-04-18T15:24:01.917Z</time></trkpt><trkpt lat="40.7022817" lon="16.5079083"><ele>251.0</ele><time>2026-04-18T15:24:02.917Z</time></trkpt><trkpt lat="40.70213" lon="16.5078833"><ele>251.0</ele><time>2026-04-18T15:24:03.917Z</time></trkpt><trkpt lat="40.70197" lon="16.5078617"><ele>251.0</ele><time>2026-04-18T15:24:04.917Z</time></trkpt><trkpt lat="40.701805" lon="16.5078417"><ele>251.0</ele><time>2026-04-18T15:24:05.917Z</time></trkpt><trkpt lat="40.7016417" lon="16.50782"><ele>250.33333333333334</ele><time>2026-04-18T15:24:06.917Z</time></trkpt><trkpt lat="40.7014867" lon="16.5078"><ele>249.66666666666669</ele><time>2026-04-18T15:24:07.918Z</time></trkpt><trkpt lat="40.7013233" lon="16.50778"><ele>249.0</ele><time>2026-04-18T15:24:08.917Z</time></trkpt><trkpt lat="40.7011467" lon="16.5077583"><ele>248.66666666666669</ele><time>2026-04-18T15:24:09.917Z</time></trkpt><trkpt lat="40.7009667" lon="16.507735"><ele>248.33333333333334</ele><time>2026-04-18T15:24:10.919Z</time></trkpt><trkpt lat="40.7007917" lon="16.5077133"><ele>248.0</ele><time>2026-04-18T15:24:11.917Z</time></trkpt><trkpt lat="40.700615" lon="16.50769"><ele>248.0</ele><time>2026-04-18T15:24:12.918Z</time></trkpt><trkpt lat="40.700435" lon="16.5076683"><ele>248.0</ele><time>2026-04-18T15:24:13.918Z</time></trkpt><trkpt lat="40.700255" lon="16.5076467"><ele>248.0</ele><time>2026-04-18T15:24:14.916Z</time></trkpt><trkpt lat="40.7000755" lon="16.5076244"><ele>246.33333333333334</ele><time>2026-04-18T15:24:15.917Z</time></trkpt><trkpt lat="40.6998978" lon="16.5076013"><ele>244.66666666666669</ele><time>2026-04-18T15:24:16.917Z</time></trkpt><trkpt lat="40.6997253" lon="16.5075815"><ele>243.0</ele><time>2026-04-18T15:24:17.916Z</time></trkpt><trkpt lat="40.6995628" lon="16.5075607"><ele>241.66666666666669</ele><time>2026-04-18T15:24:18.917Z</time></trkpt><trkpt lat="40.6994066" lon="16.5075395"><ele>240.33333333333334</ele><time>2026-04-18T15:24:19.917Z</time></trkpt><trkpt lat="40.6992579" lon="16.5075161"><ele>239.0</ele><time>2026-04-18T15:24:20.917Z</time></trkpt><trkpt lat="40.6991161" lon="16.5074873"><ele>239.0</ele><time>2026-04-18T15:24:21.918Z</time></trkpt><trkpt lat="40.6989777" lon="16.5074447"><ele>239.0</ele><time>2026-04-18T15:24:22.917Z</time></trkpt><trkpt lat="40.6988381" lon="16.5073792"><ele>239.0</ele><time>2026-04-18T15:24:23.917Z</time></trkpt><trkpt lat="40.698699" lon="16.5072884"><ele>239.0</ele><time>2026-04-18T15:24:24.917Z</time></trkpt><trkpt lat="40.698558" lon="16.5071704"><ele>237.33333333333334</ele><time>2026-04-18T15:24:25.917Z</time></trkpt><trkpt lat="40.69842" lon="16.5070284"><ele>235.66666666666669</ele><time>2026-04-18T15:24:26.917Z</time></trkpt><trkpt lat="40.6982929" lon="16.5068768"><ele>234.0</ele><time>2026-04-18T15:24:27.917Z</time></trkpt><trkpt lat="40.6981763" lon="16.506735"><ele>234.0</ele><time>2026-04-18T15:24:28.916Z</time></trkpt><trkpt lat="40.6980676" lon="16.5066083"><ele>233.99999999999997</ele><time>2026-04-18T15:24:29.916Z</time></trkpt><trkpt lat="40.6979725" lon="16.5064987"><ele>233.99999999999997</ele><time>2026-04-18T15:24:30.917Z</time></trkpt><trkpt lat="40.6978984" lon="16.506414"><ele>234.0</ele><time>2026-04-18T15:24:31.917Z</time></trkpt><trkpt lat="40.6978451" lon="16.5063528"><ele>234.0</ele><time>2026-04-18T15:24:32.917Z</time></trkpt><trkpt lat="40.6977966" lon="16.5062892"><ele>232.5</ele><time>2026-04-18T15:24:34.915Z</time></trkpt><trkpt lat="40.6977316" lon="16.5062113"><ele>231.0</ele><time>2026-04-18T15:24:38.917Z</time></trkpt><trkpt lat="40.6976095" lon="16.5060814"><ele>229.5</ele><time>2026-04-18T15:24:40.917Z</time></trkpt><trkpt lat="40.6975186" lon="16.5059831"><ele>228.0</ele><time>2026-04-18T15:24:41.916Z</time></trkpt><trkpt lat="40.6974264" lon="16.5058804"><ele>228.0</ele><time>2026-04-18T15:24:42.918Z</time></trkpt><trkpt lat="40.6973349" lon="16.5057774"><ele>228.0</ele><time>2026-04-18T15:24:43.917Z</time></trkpt><trkpt lat="40.6972423" lon="16.505672"><ele>228.0</ele><time>2026-04-18T15:24:44.915Z</time></trkpt><trkpt lat="40.6971478" lon="16.5055632"><ele>228.0</ele><time>2026-04-18T15:24:45.917Z</time></trkpt><trkpt lat="40.6970497" lon="16.5054502"><ele>228.0</ele><time>2026-04-18T15:24:46.917Z</time></trkpt><trkpt lat="40.6969465" lon="16.5053343"><ele>228.0</ele><time>2026-04-18T15:24:47.916Z</time></trkpt><trkpt lat="40.69684" lon="16.5052167"><ele>228.0</ele><time>2026-04-18T15:24:48.918Z</time></trkpt><trkpt lat="40.6967333" lon="16.505095"><ele>228.0</ele><time>2026-04-18T15:24:49.917Z</time></trkpt><trkpt lat="40.6966283" lon="16.5049683"><ele>227.5</ele><time>2026-04-18T15:24:50.916Z</time></trkpt><trkpt lat="40.69652" lon="16.5048417"><ele>227.0</ele><time>2026-04-18T15:24:51.917Z</time></trkpt><trkpt lat="40.6964117" lon="16.5047133"><ele>226.5</ele><time>2026-04-18T15:24:52.918Z</time></trkpt><trkpt lat="40.6963017" lon="16.504585"><ele>226.0</ele><time>2026-04-18T15:24:53.917Z</time></trkpt><trkpt lat="40.696185" lon="16.5044483"><ele>225.66666666666666</ele><time>2026-04-18T15:24:54.917Z</time></trkpt><trkpt lat="40.6960583" lon="16.5043017"><ele>225.33333333333331</ele><time>2026-04-18T15:24:55.916Z</time></trkpt><trkpt lat="40.6959133" lon="16.5041367"><ele>225.0</ele><time>2026-04-18T15:24:56.917Z</time></trkpt><trkpt lat="40.6957483" lon="16.5039483"><ele>225.0</ele><time>2026-04-18T15:24:57.917Z</time></trkpt><trkpt lat="40.6955867" lon="16.50376"><ele>225.0</ele><time>2026-04-18T15:24:58.917Z</time></trkpt><trkpt lat="40.695435" lon="16.503585"><ele>225.0</ele><time>2026-04-18T15:24:59.916Z</time></trkpt><trkpt lat="40.695295" lon="16.5034217"><ele>226.0</ele><time>2026-04-18T15:25:00.917Z</time></trkpt><trkpt lat="40.6951617" lon="16.5032683"><ele>227.0</ele><time>2026-04-18T15:25:01.918Z</time></trkpt><trkpt lat="40.6950367" lon="16.5031233"><ele>228.0</ele><time>2026-04-18T15:25:02.917Z</time></trkpt><trkpt lat="40.6949183" lon="16.502985"><ele>226.0</ele><time>2026-04-18T15:25:03.917Z</time></trkpt><trkpt lat="40.6948067" lon="16.5028533"><ele>224.0</ele><time>2026-04-18T15:25:04.917Z</time></trkpt><trkpt lat="40.6946983" lon="16.5027317"><ele>222.0</ele><time>2026-04-18T15:25:05.917Z</time></trkpt><trkpt lat="40.6945933" lon="16.502615"><ele>220.0</ele><time>2026-04-18T15:25:06.916Z</time></trkpt><trkpt lat="40.6944967" lon="16.502505"><ele>220.0</ele><time>2026-04-18T15:25:07.917Z</time></trkpt><trkpt lat="40.6944067" lon="16.5024033"><ele>220.0</ele><time>2026-04-18T15:25:08.918Z</time></trkpt><trkpt lat="40.69432" lon="16.5023017"><ele>220.0</ele><time>2026-04-18T15:25:09.917Z</time></trkpt><trkpt lat="40.6942383" lon="16.5022083"><ele>220.0</ele><time>2026-04-18T15:25:10.916Z</time></trkpt><trkpt lat="40.6941633" lon="16.50212"><ele>220.0</ele><time>2026-04-18T15:25:11.916Z</time></trkpt><trkpt lat="40.6941" lon="16.5020383"><ele>219.16666666666666</ele><time>2026-04-18T15:25:12.916Z</time></trkpt><trkpt lat="40.694045" lon="16.5019717"><ele>218.33333333333331</ele><time>2026-04-18T15:25:13.917Z</time></trkpt><trkpt lat="40.6939617" lon="16.50187"><ele>217.5</ele><time>2026-04-18T15:25:15.917Z</time></trkpt><trkpt lat="40.6939017" lon="16.5018"><ele>216.66666666666669</ele><time>2026-04-18T15:25:17.917Z</time></trkpt><trkpt lat="40.693835" lon="16.501745"><ele>215.83333333333334</ele><time>2026-04-18T15:25:20.917Z</time></trkpt><trkpt lat="40.6938833" lon="16.5018433"><ele>215.0</ele><time>2026-04-18T15:25:25.918Z</time></trkpt><trkpt lat="40.6939767" lon="16.5019417"><ele>215.00000000000003</ele><time>2026-04-18T15:25:27.916Z</time></trkpt><trkpt lat="40.6940333" lon="16.5020033"><ele>215.0</ele><time>2026-04-18T15:25:28.917Z</time></trkpt><trkpt lat="40.6940933" lon="16.502075"><ele>215.0</ele><time>2026-04-18T15:25:29.916Z</time></trkpt><trkpt lat="40.6941567" lon="16.502145"><ele>215.0</ele><time>2026-04-18T15:25:30.917Z</time></trkpt><trkpt lat="40.6942183" lon="16.5022167"><ele>215.00000000000003</ele><time>2026-04-18T15:25:31.917Z</time></trkpt><trkpt lat="40.6942817" lon="16.5022867"><ele>215.0</ele><time>2026-04-18T15:25:32.916Z</time></trkpt><trkpt lat="40.6943433" lon="16.5023533"><ele>215.7142857142857</ele><time>2026-04-18T15:25:33.916Z</time></trkpt><trkpt lat="40.6944017" lon="16.5024183"><ele>216.42857142857144</ele><time>2026-04-18T15:25:34.917Z</time></trkpt><trkpt lat="40.6944583" lon="16.5024833"><ele>217.14285714285714</ele><time>2026-04-18T15:25:35.917Z</time></trkpt><trkpt lat="40.694515" lon="16.5025467"><ele>217.85714285714283</ele><time>2026-04-18T15:25:36.916Z</time></trkpt><trkpt lat="40.6945683" lon="16.5026117"><ele>218.57142857142856</ele><time>2026-04-18T15:25:37.917Z</time></trkpt><trkpt lat="40.6946233" lon="16.502675"><ele>219.28571428571428</ele><time>2026-04-18T15:25:38.917Z</time></trkpt><trkpt lat="40.6946783" lon="16.5027383"><ele>220.0</ele><time>2026-04-18T15:25:39.916Z</time></trkpt><trkpt lat="40.6947333" lon="16.5028017"><ele>220.0</ele><time>2026-04-18T15:25:40.917Z</time></trkpt><trkpt lat="40.6947883" lon="16.5028617"><ele>220.0</ele><time>2026-04-18T15:25:41.918Z</time></trkpt><trkpt lat="40.6948433" lon="16.5029267"><ele>220.0</ele><time>2026-04-18T15:25:42.916Z</time></trkpt><trkpt lat="40.6949567" lon="16.503065"><ele>220.0</ele><time>2026-04-18T15:25:44.916Z</time></trkpt><trkpt lat="40.6950183" lon="16.50314"><ele>220.0</ele><time>2026-04-18T15:25:45.916Z</time></trkpt><trkpt lat="40.6950833" lon="16.50322"><ele>221.5</ele><time>2026-04-18T15:25:46.916Z</time></trkpt><trkpt lat="40.695165" lon="16.503315"><ele>223.0</ele><time>2026-04-18T15:25:47.917Z</time></trkpt><trkpt lat="40.6952667" lon="16.50343"><ele>224.5</ele><time>2026-04-18T15:25:48.914Z</time></trkpt><trkpt lat="40.6953783" lon="16.5035567"><ele>226.0</ele><time>2026-04-18T15:25:49.916Z</time></trkpt><trkpt lat="40.6954917" lon="16.503685"><ele>225.75</ele><time>2026-04-18T15:25:50.915Z</time></trkpt><trkpt lat="40.6955967" lon="16.503805"><ele>225.5</ele><time>2026-04-18T15:25:51.916Z</time></trkpt><trkpt lat="40.6956967" lon="16.50392"><ele>225.25</ele><time>2026-04-18T15:25:52.917Z</time></trkpt><trkpt lat="40.695795" lon="16.50403"><ele>225.0</ele><time>2026-04-18T15:25:53.916Z</time></trkpt><trkpt lat="40.69589" lon="16.5041367"><ele>225.0</ele><time>2026-04-18T15:25:54.917Z</time></trkpt><trkpt lat="40.695985" lon="16.5042433"><ele>225.0</ele><time>2026-04-18T15:25:55.918Z</time></trkpt><trkpt lat="40.69608" lon="16.5043533"><ele>225.0</ele><time>2026-04-18T15:25:56.917Z</time></trkpt><trkpt lat="40.69617" lon="16.5044583"><ele>225.0</ele><time>2026-04-18T15:25:57.917Z</time></trkpt><trkpt lat="40.69626" lon="16.5045617"><ele>225.25</ele><time>2026-04-18T15:25:58.916Z</time></trkpt><trkpt lat="40.6963533" lon="16.5046667"><ele>225.5</ele><time>2026-04-18T15:25:59.916Z</time></trkpt><trkpt lat="40.6964467" lon="16.5047717"><ele>225.75</ele><time>2026-04-18T15:26:00.917Z</time></trkpt><trkpt lat="40.6965417" lon="16.5048817"><ele>226.0</ele><time>2026-04-18T15:26:01.916Z</time></trkpt><trkpt lat="40.696635" lon="16.50499"><ele>226.0</ele><time>2026-04-18T15:26:02.916Z</time></trkpt><trkpt lat="40.6967333" lon="16.5051"><ele>226.0</ele><time>2026-04-18T15:26:03.916Z</time></trkpt><trkpt lat="40.6968367" lon="16.5052233"><ele>226.0</ele><time>2026-04-18T15:26:04.917Z</time></trkpt><trkpt lat="40.696955" lon="16.5053633"><ele>226.0</ele><time>2026-04-18T15:26:05.917Z</time></trkpt><trkpt lat="40.697075" lon="16.5055"><ele>226.5</ele><time>2026-04-18T15:26:06.917Z</time></trkpt><trkpt lat="40.6971817" lon="16.505625"><ele>227.0</ele><time>2026-04-18T15:26:07.917Z</time></trkpt><trkpt lat="40.6972783" lon="16.5057367"><ele>227.5</ele><time>2026-04-18T15:26:08.916Z</time></trkpt><trkpt lat="40.6973667" lon="16.5058417"><ele>228.0</ele><time>2026-04-18T15:26:09.917Z</time></trkpt><trkpt lat="40.697445" lon="16.5059333"><ele>228.0</ele><time>2026-04-18T15:26:10.917Z</time></trkpt><trkpt lat="40.6975117" lon="16.50601"><ele>228.0</ele><time>2026-04-18T15:26:11.918Z</time></trkpt><trkpt lat="40.6975633" lon="16.5060733"><ele>228.0</ele><time>2026-04-18T15:26:12.916Z</time></trkpt><trkpt lat="40.6976367" lon="16.506165"><ele>228.0</ele><time>2026-04-18T15:26:14.917Z</time></trkpt><trkpt lat="40.6976717" lon="16.5062583"><ele>228.0</ele><time>2026-04-18T15:26:17.917Z</time></trkpt><trkpt lat="40.6976383" lon="16.50639"><ele>228.0</ele><time>2026-04-18T15:26:19.917Z</time></trkpt><trkpt lat="40.6975983" lon="16.5064917"><ele>228.25</ele><time>2026-04-18T15:26:20.917Z</time></trkpt><trkpt lat="40.697545" lon="16.5066167"><ele>228.5</ele><time>2026-04-18T15:26:21.916Z</time></trkpt><trkpt lat="40.6974817" lon="16.5067583"><ele>228.75</ele><time>2026-04-18T15:26:22.917Z</time></trkpt><trkpt lat="40.69741" lon="16.5069133"><ele>229.0</ele><time>2026-04-18T15:26:23.917Z</time></trkpt><trkpt lat="40.6973333" lon="16.507085"><ele>229.0</ele><time>2026-04-18T15:26:24.917Z</time></trkpt><trkpt lat="40.6972433" lon="16.5072817"><ele>229.0</ele><time>2026-04-18T15:26:25.917Z</time></trkpt><trkpt lat="40.6971417" lon="16.5075033"><ele>229.0</ele><time>2026-04-18T15:26:26.917Z</time></trkpt><trkpt lat="40.69703" lon="16.507745"><ele>228.0</ele><time>2026-04-18T15:26:27.917Z</time></trkpt><trkpt lat="40.6969117" lon="16.5080033"><ele>227.0</ele><time>2026-04-18T15:26:28.917Z</time></trkpt><trkpt lat="40.6967917" lon="16.5082717"><ele>227.0</ele><time>2026-04-18T15:26:29.916Z</time></trkpt><trkpt lat="40.696675" lon="16.50855"><ele>227.0</ele><time>2026-04-18T15:26:30.917Z</time></trkpt><trkpt lat="40.6965617" lon="16.5088383"><ele>227.0</ele><time>2026-04-18T15:26:31.917Z</time></trkpt><trkpt lat="40.696455" lon="16.5091283"><ele>227.0</ele><time>2026-04-18T15:26:32.917Z</time></trkpt><trkpt lat="40.696355" lon="16.50942"><ele>226.5</ele><time>2026-04-18T15:26:33.917Z</time></trkpt><trkpt lat="40.6962617" lon="16.50971"><ele>226.0</ele><time>2026-04-18T15:26:34.918Z</time></trkpt><trkpt lat="40.6961733" lon="16.509995"><ele>226.0</ele><time>2026-04-18T15:26:35.916Z</time></trkpt><trkpt lat="40.6960883" lon="16.5102717"><ele>226.0</ele><time>2026-04-18T15:26:36.918Z</time></trkpt><trkpt lat="40.696005" lon="16.5105417"><ele>226.0</ele><time>2026-04-18T15:26:37.917Z</time></trkpt><trkpt lat="40.6959183" lon="16.5108117"><ele>224.66666666666666</ele><time>2026-04-18T15:26:38.917Z</time></trkpt><trkpt lat="40.6958317" lon="16.5110817"><ele>223.33333333333331</ele><time>2026-04-18T15:26:39.918Z</time></trkpt><trkpt lat="40.6957433" lon="16.51135"><ele>222.0</ele><time>2026-04-18T15:26:40.916Z</time></trkpt><trkpt lat="40.695655" lon="16.5116167"><ele>222.0</ele><time>2026-04-18T15:26:41.915Z</time></trkpt><trkpt lat="40.6955667" lon="16.5118867"><ele>222.0</ele><time>2026-04-18T15:26:42.916Z</time></trkpt><trkpt lat="40.6953917" lon="16.51243"><ele>222.0</ele><time>2026-04-18T15:26:44.916Z</time></trkpt><trkpt lat="40.6953017" lon="16.512705"><ele>222.0</ele><time>2026-04-18T15:26:45.917Z</time></trkpt><trkpt lat="40.6952067" lon="16.5129867"><ele>222.0</ele><time>2026-04-18T15:26:46.918Z</time></trkpt><trkpt lat="40.69511" lon="16.5132717"><ele>222.0</ele><time>2026-04-18T15:26:47.916Z</time></trkpt><trkpt lat="40.695015" lon="16.513565"><ele>222.0</ele><time>2026-04-18T15:26:48.917Z</time></trkpt><trkpt lat="40.69492" lon="16.5138567"><ele>222.0</ele><time>2026-04-18T15:26:49.917Z</time></trkpt><trkpt lat="40.694825" lon="16.5141433"><ele>222.0</ele><time>2026-04-18T15:26:50.917Z</time></trkpt><trkpt lat="40.6947317" lon="16.5144317"><ele>222.0</ele><time>2026-04-18T15:26:51.916Z</time></trkpt><trkpt lat="40.6946383" lon="16.5147183"><ele>223.0</ele><time>2026-04-18T15:26:52.917Z</time></trkpt><trkpt lat="40.6945433" lon="16.5150033"><ele>224.0</ele><time>2026-04-18T15:26:53.916Z</time></trkpt><trkpt lat="40.6944517" lon="16.515285"><ele>225.5</ele><time>2026-04-18T15:26:54.916Z</time></trkpt><trkpt lat="40.69436" lon="16.5155633"><ele>227.0</ele><time>2026-04-18T15:26:55.918Z</time></trkpt><trkpt lat="40.6942667" lon="16.5158483"><ele>227.0</ele><time>2026-04-18T15:26:56.917Z</time></trkpt><trkpt lat="40.6941717" lon="16.51614"><ele>227.0</ele><time>2026-04-18T15:26:57.916Z</time></trkpt><trkpt lat="40.6940767" lon="16.5164367"><ele>227.5</ele><time>2026-04-18T15:26:58.917Z</time></trkpt><trkpt lat="40.6939833" lon="16.5167333"><ele>228.0</ele><time>2026-04-18T15:26:59.917Z</time></trkpt><trkpt lat="40.6938917" lon="16.5170333"><ele>226.0</ele><time>2026-04-18T15:27:00.917Z</time></trkpt><trkpt lat="40.6938017" lon="16.517335"><ele>224.0</ele><time>2026-04-18T15:27:01.917Z</time></trkpt><trkpt lat="40.6937117" lon="16.51764"><ele>224.0</ele><time>2026-04-18T15:27:02.916Z</time></trkpt><trkpt lat="40.6936217" lon="16.5179433"><ele>224.0</ele><time>2026-04-18T15:27:03.916Z</time></trkpt><trkpt lat="40.6935367" lon="16.5182483"><ele>221.0</ele><time>2026-04-18T15:27:04.917Z</time></trkpt><trkpt lat="40.69345" lon="16.5185517"><ele>218.0</ele><time>2026-04-18T15:27:05.916Z</time></trkpt><trkpt lat="40.693365" lon="16.518855"><ele>218.0</ele><time>2026-04-18T15:27:06.917Z</time></trkpt><trkpt lat="40.6932783" lon="16.519155"><ele>218.0</ele><time>2026-04-18T15:27:07.916Z</time></trkpt><trkpt lat="40.6931917" lon="16.5194567"><ele>218.0</ele><time>2026-04-18T15:27:08.916Z</time></trkpt><trkpt lat="40.6931033" lon="16.5197617"><ele>218.0</ele><time>2026-04-18T15:27:09.916Z</time></trkpt><trkpt lat="40.6930184" lon="16.5200674"><ele>218.0</ele><time>2026-04-18T15:27:10.917Z</time></trkpt><trkpt lat="40.6929322" lon="16.5203754"><ele>218.0</ele><time>2026-04-18T15:27:11.916Z</time></trkpt><trkpt lat="40.6928441" lon="16.5206871"><ele>215.5</ele><time>2026-04-18T15:27:12.917Z</time></trkpt><trkpt lat="40.6927545" lon="16.5210019"><ele>213.0</ele><time>2026-04-18T15:27:13.918Z</time></trkpt><trkpt lat="40.6926646" lon="16.5213133"><ele>212.5</ele><time>2026-04-18T15:27:14.917Z</time></trkpt><trkpt lat="40.6925775" lon="16.521621"><ele>212.0</ele><time>2026-04-18T15:27:15.916Z</time></trkpt><trkpt lat="40.6924907" lon="16.5219279"><ele>210.5</ele><time>2026-04-18T15:27:16.916Z</time></trkpt><trkpt lat="40.6924064" lon="16.5222374"><ele>209.0</ele><time>2026-04-18T15:27:17.916Z</time></trkpt><trkpt lat="40.6923237" lon="16.5225492"><ele>209.0</ele><time>2026-04-18T15:27:18.918Z</time></trkpt><trkpt lat="40.6922453" lon="16.5228636"><ele>209.0</ele><time>2026-04-18T15:27:19.918Z</time></trkpt><trkpt lat="40.6921657" lon="16.5231789"><ele>209.0</ele><time>2026-04-18T15:27:20.917Z</time></trkpt><trkpt lat="40.692087" lon="16.5234942"><ele>209.0</ele><time>2026-04-18T15:27:21.918Z</time></trkpt><trkpt lat="40.6920074" lon="16.5238105"><ele>209.5</ele><time>2026-04-18T15:27:22.917Z</time></trkpt><trkpt lat="40.6919274" lon="16.5241296"><ele>210.0</ele><time>2026-04-18T15:27:23.917Z</time></trkpt><trkpt lat="40.6918472" lon="16.5244478"><ele>208.5</ele><time>2026-04-18T15:27:24.919Z</time></trkpt><trkpt lat="40.6917664" lon="16.5247611"><ele>207.0</ele><time>2026-04-18T15:27:25.917Z</time></trkpt><trkpt lat="40.6916875" lon="16.5250713"><ele>207.0</ele><time>2026-04-18T15:27:26.917Z</time></trkpt><trkpt lat="40.6916093" lon="16.5253767"><ele>207.0</ele><time>2026-04-18T15:27:27.918Z</time></trkpt><trkpt lat="40.6915311" lon="16.52568"><ele>207.0</ele><time>2026-04-18T15:27:28.918Z</time></trkpt><trkpt lat="40.6914581" lon="16.5259728"><ele>207.0</ele><time>2026-04-18T15:27:29.917Z</time></trkpt><trkpt lat="40.6913929" lon="16.5262516"><ele>207.0</ele><time>2026-04-18T15:27:30.916Z</time></trkpt><trkpt lat="40.6913331" lon="16.526524"><ele>207.0</ele><time>2026-04-18T15:27:31.918Z</time></trkpt><trkpt lat="40.6912733" lon="16.5267988"><ele>207.0</ele><time>2026-04-18T15:27:32.917Z</time></trkpt><trkpt lat="40.6912142" lon="16.5270775"><ele>207.0</ele><time>2026-04-18T15:27:33.917Z</time></trkpt><trkpt lat="40.6911556" lon="16.5273652"><ele>207.0</ele><time>2026-04-18T15:27:34.917Z</time></trkpt><trkpt lat="40.6910961" lon="16.5276687"><ele>207.5</ele><time>2026-04-18T15:27:35.917Z</time></trkpt><trkpt lat="40.6910357" lon="16.5279783"><ele>208.0</ele><time>2026-04-18T15:27:36.917Z</time></trkpt><trkpt lat="40.6909746" lon="16.5282843"><ele>208.0</ele><time>2026-04-18T15:27:37.918Z</time></trkpt><trkpt lat="40.6909119" lon="16.5285918"><ele>208.0</ele><time>2026-04-18T15:27:38.917Z</time></trkpt><trkpt lat="40.6908532" lon="16.5288957"><ele>208.66666666666666</ele><time>2026-04-18T15:27:39.916Z</time></trkpt><trkpt lat="40.6907969" lon="16.5291793"><ele>209.33333333333331</ele><time>2026-04-18T15:27:40.917Z</time></trkpt><trkpt lat="40.690743" lon="16.5294423"><ele>210.0</ele><time>2026-04-18T15:27:41.917Z</time></trkpt><trkpt lat="40.6906948" lon="16.5296881"><ele>210.0</ele><time>2026-04-18T15:27:42.918Z</time></trkpt><trkpt lat="40.6906513" lon="16.5299068"><ele>210.0</ele><time>2026-04-18T15:27:43.918Z</time></trkpt><trkpt lat="40.6906169" lon="16.5300869"><ele>210.0</ele><time>2026-04-18T15:27:44.917Z</time></trkpt><trkpt lat="40.6905903" lon="16.5302269"><ele>210.0</ele><time>2026-04-18T15:27:45.917Z</time></trkpt><trkpt lat="40.690569" lon="16.5303318"><ele>210.4</ele><time>2026-04-18T15:27:46.916Z</time></trkpt><trkpt lat="40.6905182" lon="16.5304549"><ele>210.8</ele><time>2026-04-18T15:27:48.918Z</time></trkpt><trkpt lat="40.6904151" lon="16.5304593"><ele>211.2</ele><time>2026-04-18T15:27:50.919Z</time></trkpt><trkpt lat="40.6903343" lon="16.5304231"><ele>211.6</ele><time>2026-04-18T15:27:51.918Z</time></trkpt><trkpt lat="40.6902283" lon="16.5303732"><ele>212.0</ele><time>2026-04-18T15:27:52.919Z</time></trkpt><trkpt lat="40.6900966" lon="16.5303126"><ele>210.33333333333334</ele><time>2026-04-18T15:27:53.917Z</time></trkpt><trkpt lat="40.6899443" lon="16.5302362"><ele>208.66666666666669</ele><time>2026-04-18T15:27:54.918Z</time></trkpt><trkpt lat="40.6897672" lon="16.5301477"><ele>207.0</ele><time>2026-04-18T15:27:55.917Z</time></trkpt><trkpt lat="40.6895718" lon="16.5300544"><ele>206.5</ele><time>2026-04-18T15:27:56.918Z</time></trkpt><trkpt lat="40.68935" lon="16.5299483"><ele>206.0</ele><time>2026-04-18T15:27:57.918Z</time></trkpt><trkpt lat="40.6891217" lon="16.5298383"><ele>206.0</ele><time>2026-04-18T15:27:58.918Z</time></trkpt><trkpt lat="40.6888833" lon="16.529725"><ele>206.0</ele><time>2026-04-18T15:27:59.917Z</time></trkpt><trkpt lat="40.6886317" lon="16.5296083"><ele>204.5</ele><time>2026-04-18T15:28:00.918Z</time></trkpt><trkpt lat="40.6883867" lon="16.529495"><ele>203.0</ele><time>2026-04-18T15:28:01.918Z</time></trkpt><trkpt lat="40.688145" lon="16.52938"><ele>203.0</ele><time>2026-04-18T15:28:02.918Z</time></trkpt><trkpt lat="40.6879083" lon="16.5292683"><ele>203.0</ele><time>2026-04-18T15:28:03.918Z</time></trkpt><trkpt lat="40.68768" lon="16.5291617"><ele>202.5</ele><time>2026-04-18T15:28:04.919Z</time></trkpt><trkpt lat="40.68746" lon="16.52906"><ele>202.0</ele><time>2026-04-18T15:28:05.917Z</time></trkpt><trkpt lat="40.6872383" lon="16.5289583"><ele>202.0</ele><time>2026-04-18T15:28:06.919Z</time></trkpt><trkpt lat="40.6870167" lon="16.5288567"><ele>202.0</ele><time>2026-04-18T15:28:07.918Z</time></trkpt><trkpt lat="40.6868" lon="16.5287567"><ele>200.66666666666666</ele><time>2026-04-18T15:28:08.918Z</time></trkpt><trkpt lat="40.6865933" lon="16.5286567"><ele>199.33333333333331</ele><time>2026-04-18T15:28:09.918Z</time></trkpt><trkpt lat="40.6863883" lon="16.52856"><ele>198.0</ele><time>2026-04-18T15:28:10.918Z</time></trkpt><trkpt lat="40.6861817" lon="16.52846"><ele>198.5</ele><time>2026-04-18T15:28:11.918Z</time></trkpt><trkpt lat="40.68597" lon="16.5283583"><ele>199.0</ele><time>2026-04-18T15:28:12.919Z</time></trkpt><trkpt lat="40.685755" lon="16.5282583"><ele>199.0</ele><time>2026-04-18T15:28:13.918Z</time></trkpt><trkpt lat="40.6855417" lon="16.5281583"><ele>199.0</ele><time>2026-04-18T15:28:14.918Z</time></trkpt><trkpt lat="40.6853383" lon="16.52806"><ele>199.0</ele><time>2026-04-18T15:28:15.918Z</time></trkpt><trkpt lat="40.6851467" lon="16.5279667"><ele>198.33333333333331</ele><time>2026-04-18T15:28:16.918Z</time></trkpt><trkpt lat="40.6849617" lon="16.52788"><ele>197.66666666666669</ele><time>2026-04-18T15:28:17.918Z</time></trkpt><trkpt lat="40.6847867" lon="16.527795"><ele>197.0</ele><time>2026-04-18T15:28:18.919Z</time></trkpt><trkpt lat="40.684625" lon="16.527715"><ele>197.0</ele><time>2026-04-18T15:28:19.918Z</time></trkpt><trkpt lat="40.6844783" lon="16.52764"><ele>197.0</ele><time>2026-04-18T15:28:20.917Z</time></trkpt><trkpt lat="40.68435" lon="16.5275733"><ele>197.0</ele><time>2026-04-18T15:28:21.918Z</time></trkpt><trkpt lat="40.6842367" lon="16.5275233"><ele>197.0</ele><time>2026-04-18T15:28:22.919Z</time></trkpt><trkpt lat="40.6841317" lon="16.5274933"><ele>196.5</ele><time>2026-04-18T15:28:23.918Z</time></trkpt><trkpt lat="40.6840267" lon="16.5274917"><ele>196.0</ele><time>2026-04-18T15:28:24.918Z</time></trkpt><trkpt lat="40.683915" lon="16.527525"><ele>195.5</ele><time>2026-04-18T15:28:25.919Z</time></trkpt><trkpt lat="40.6838" lon="16.527585"><ele>195.0</ele><time>2026-04-18T15:28:26.919Z</time></trkpt><trkpt lat="40.6836867" lon="16.527675"><ele>194.33333333333331</ele><time>2026-04-18T15:28:27.918Z</time></trkpt><trkpt lat="40.6835717" lon="16.52779"><ele>193.66666666666666</ele><time>2026-04-18T15:28:28.919Z</time></trkpt><trkpt lat="40.68345" lon="16.527915"><ele>193.0</ele><time>2026-04-18T15:28:29.916Z</time></trkpt><trkpt lat="40.6833183" lon="16.52805"><ele>193.0</ele><time>2026-04-18T15:28:30.916Z</time></trkpt><trkpt lat="40.6831783" lon="16.5281917"><ele>193.0</ele><time>2026-04-18T15:28:31.918Z</time></trkpt><trkpt lat="40.6830233" lon="16.528345"><ele>193.0</ele><time>2026-04-18T15:28:32.917Z</time></trkpt><trkpt lat="40.6828567" lon="16.5285133"><ele>193.0</ele><time>2026-04-18T15:28:33.917Z</time></trkpt><trkpt lat="40.6826867" lon="16.5286833"><ele>193.0</ele><time>2026-04-18T15:28:34.917Z</time></trkpt><trkpt lat="40.6825217" lon="16.5288483"><ele>193.0</ele><time>2026-04-18T15:28:35.917Z</time></trkpt><trkpt lat="40.682365" lon="16.5290067"><ele>193.0</ele><time>2026-04-18T15:28:36.918Z</time></trkpt><trkpt lat="40.68221" lon="16.5291583"><ele>193.0</ele><time>2026-04-18T15:28:37.918Z</time></trkpt><trkpt lat="40.6820567" lon="16.5293033"><ele>193.0</ele><time>2026-04-18T15:28:38.918Z</time></trkpt><trkpt lat="40.6818983" lon="16.5294417"><ele>193.66666666666666</ele><time>2026-04-18T15:28:39.917Z</time></trkpt><trkpt lat="40.681735" lon="16.5295667"><ele>194.33333333333331</ele><time>2026-04-18T15:28:40.918Z</time></trkpt><trkpt lat="40.68157" lon="16.5296817"><ele>195.0</ele><time>2026-04-18T15:28:41.917Z</time></trkpt><trkpt lat="40.6813983" lon="16.52979"><ele>195.0</ele><time>2026-04-18T15:28:42.917Z</time></trkpt><trkpt lat="40.6812183" lon="16.5298983"><ele>195.0</ele><time>2026-04-18T15:28:43.919Z</time></trkpt><trkpt lat="40.68103" lon="16.5300133"><ele>195.0</ele><time>2026-04-18T15:28:44.917Z</time></trkpt><trkpt lat="40.6808367" lon="16.530135"><ele>195.5</ele><time>2026-04-18T15:28:45.917Z</time></trkpt><trkpt lat="40.680635" lon="16.5302617"><ele>196.0</ele><time>2026-04-18T15:28:46.917Z</time></trkpt><trkpt lat="40.6804267" lon="16.53039"><ele>197.5</ele><time>2026-04-18T15:28:47.92Z</time></trkpt><trkpt lat="40.680215" lon="16.5305217"><ele>199.0</ele><time>2026-04-18T15:28:48.918Z</time></trkpt><trkpt lat="40.6800017" lon="16.530655"><ele>199.0</ele><time>2026-04-18T15:28:49.919Z</time></trkpt><trkpt lat="40.67979" lon="16.5307883"><ele>199.0</ele><time>2026-04-18T15:28:50.918Z</time></trkpt><trkpt lat="40.6795767" lon="16.5309217"><ele>199.5</ele><time>2026-04-18T15:28:51.916Z</time></trkpt><trkpt lat="40.6793617" lon="16.531055"><ele>200.0</ele><time>2026-04-18T15:28:52.919Z</time></trkpt><trkpt lat="40.6791483" lon="16.5311883"><ele>201.0</ele><time>2026-04-18T15:28:53.918Z</time></trkpt><trkpt lat="40.6789367" lon="16.5313217"><ele>202.0</ele><time>2026-04-18T15:28:54.919Z</time></trkpt><trkpt lat="40.6787233" lon="16.5314533"><ele>202.0</ele><time>2026-04-18T15:28:55.918Z</time></trkpt><trkpt lat="40.6785083" lon="16.531585"><ele>202.0</ele><time>2026-04-18T15:28:56.918Z</time></trkpt><trkpt lat="40.6782983" lon="16.53171"><ele>202.0</ele><time>2026-04-18T15:28:57.918Z</time></trkpt><trkpt lat="40.6780983" lon="16.5318317"><ele>202.0</ele><time>2026-04-18T15:28:58.919Z</time></trkpt><trkpt lat="40.6778983" lon="16.5319533"><ele>202.0</ele><time>2026-04-18T15:28:59.917Z</time></trkpt><trkpt lat="40.6776967" lon="16.53208"><ele>202.66666666666666</ele><time>2026-04-18T15:29:00.917Z</time></trkpt><trkpt lat="40.6774933" lon="16.5322083"><ele>203.33333333333331</ele><time>2026-04-18T15:29:01.918Z</time></trkpt><trkpt lat="40.6772967" lon="16.5323283"><ele>204.0</ele><time>2026-04-18T15:29:02.916Z</time></trkpt><trkpt lat="40.67711" lon="16.532445"><ele>204.33333333333331</ele><time>2026-04-18T15:29:03.917Z</time></trkpt><trkpt lat="40.6769267" lon="16.53256"><ele>204.66666666666666</ele><time>2026-04-18T15:29:04.918Z</time></trkpt><trkpt lat="40.6767467" lon="16.5326733"><ele>205.0</ele><time>2026-04-18T15:29:05.917Z</time></trkpt><trkpt lat="40.676575" lon="16.5327733"><ele>205.0</ele><time>2026-04-18T15:29:06.918Z</time></trkpt><trkpt lat="40.67641" lon="16.5328667"><ele>205.0</ele><time>2026-04-18T15:29:07.918Z</time></trkpt><trkpt lat="40.67625" lon="16.532955"><ele>205.0</ele><time>2026-04-18T15:29:08.917Z</time></trkpt><trkpt lat="40.6760983" lon="16.5330433"><ele>205.5</ele><time>2026-04-18T15:29:09.917Z</time></trkpt><trkpt lat="40.6759583" lon="16.5331283"><ele>206.0</ele><time>2026-04-18T15:29:10.918Z</time></trkpt><trkpt lat="40.6758317" lon="16.5332067"><ele>206.5</ele><time>2026-04-18T15:29:11.918Z</time></trkpt><trkpt lat="40.6757167" lon="16.53328"><ele>207.0</ele><time>2026-04-18T15:29:12.918Z</time></trkpt><trkpt lat="40.675605" lon="16.5333467"><ele>207.0</ele><time>2026-04-18T15:29:13.918Z</time></trkpt><trkpt lat="40.6754917" lon="16.533415"><ele>207.0</ele><time>2026-04-18T15:29:14.917Z</time></trkpt><trkpt lat="40.6753733" lon="16.533485"><ele>207.0</ele><time>2026-04-18T15:29:15.917Z</time></trkpt><trkpt lat="40.675255" lon="16.533555"><ele>207.0</ele><time>2026-04-18T15:29:16.918Z</time></trkpt><trkpt lat="40.6751383" lon="16.5336233"><ele>207.75</ele><time>2026-04-18T15:29:17.917Z</time></trkpt><trkpt lat="40.6750133" lon="16.5336933"><ele>208.5</ele><time>2026-04-18T15:29:18.919Z</time></trkpt><trkpt lat="40.67488" lon="16.533765"><ele>209.25</ele><time>2026-04-18T15:29:19.919Z</time></trkpt><trkpt lat="40.6747383" lon="16.5338367"><ele>210.0</ele><time>2026-04-18T15:29:20.917Z</time></trkpt><trkpt lat="40.674585" lon="16.53391"><ele>211.0</ele><time>2026-04-18T15:29:21.918Z</time></trkpt><trkpt lat="40.6744283" lon="16.5339783"><ele>212.0</ele><time>2026-04-18T15:29:22.919Z</time></trkpt><trkpt lat="40.67427" lon="16.5340383"><ele>213.0</ele><time>2026-04-18T15:29:23.919Z</time></trkpt><trkpt lat="40.6741083" lon="16.534095"><ele>213.0</ele><time>2026-04-18T15:29:24.92Z</time></trkpt><trkpt lat="40.6739417" lon="16.5341483"><ele>213.0</ele><time>2026-04-18T15:29:25.918Z</time></trkpt><trkpt lat="40.673765" lon="16.5341983"><ele>213.0</ele><time>2026-04-18T15:29:26.919Z</time></trkpt><trkpt lat="40.6735767" lon="16.534245"><ele>212.33333333333331</ele><time>2026-04-18T15:29:27.917Z</time></trkpt><trkpt lat="40.673375" lon="16.5342917"><ele>211.66666666666666</ele><time>2026-04-18T15:29:28.92Z</time></trkpt><trkpt lat="40.673155" lon="16.5343367"><ele>211.0</ele><time>2026-04-18T15:29:29.921Z</time></trkpt><trkpt lat="40.6729217" lon="16.5343783"><ele>209.0</ele><time>2026-04-18T15:29:30.919Z</time></trkpt><trkpt lat="40.6726833" lon="16.5344183"><ele>207.0</ele><time>2026-04-18T15:29:31.919Z</time></trkpt><trkpt lat="40.6724367" lon="16.5344567"><ele>207.0</ele><time>2026-04-18T15:29:32.919Z</time></trkpt><trkpt lat="40.6721867" lon="16.5344967"><ele>207.0</ele><time>2026-04-18T15:29:33.918Z</time></trkpt><trkpt lat="40.6719317" lon="16.5345317"><ele>205.0</ele><time>2026-04-18T15:29:34.917Z</time></trkpt><trkpt lat="40.6716667" lon="16.5345717"><ele>203.0</ele><time>2026-04-18T15:29:35.917Z</time></trkpt><trkpt lat="40.6713833" lon="16.5346167"><ele>202.0</ele><time>2026-04-18T15:29:36.916Z</time></trkpt><trkpt lat="40.6710983" lon="16.53466"><ele>201.0</ele><time>2026-04-18T15:29:37.918Z</time></trkpt><trkpt lat="40.6708217" lon="16.5347017"><ele>201.0</ele><time>2026-04-18T15:29:38.917Z</time></trkpt><trkpt lat="40.6705457" lon="16.5347444"><ele>201.0</ele><time>2026-04-18T15:29:39.916Z</time></trkpt><trkpt lat="40.6702706" lon="16.5347851"><ele>199.5</ele><time>2026-04-18T15:29:40.917Z</time></trkpt><trkpt lat="40.6699966" lon="16.5348253"><ele>198.0</ele><time>2026-04-18T15:29:41.916Z</time></trkpt><trkpt lat="40.669725" lon="16.5348641"><ele>198.0</ele><time>2026-04-18T15:29:42.918Z</time></trkpt><trkpt lat="40.6694577" lon="16.5349047"><ele>198.0</ele><time>2026-04-18T15:29:43.918Z</time></trkpt><trkpt lat="40.6691979" lon="16.5349479"><ele>197.0</ele><time>2026-04-18T15:29:44.917Z</time></trkpt><trkpt lat="40.6689398" lon="16.5350005"><ele>196.0</ele><time>2026-04-18T15:29:45.917Z</time></trkpt><trkpt lat="40.6686842" lon="16.5350567"><ele>194.5</ele><time>2026-04-18T15:29:46.918Z</time></trkpt><trkpt lat="40.6684358" lon="16.5351103"><ele>193.0</ele><time>2026-04-18T15:29:47.917Z</time></trkpt><trkpt lat="40.6681928" lon="16.5351582"><ele>193.0</ele><time>2026-04-18T15:29:48.918Z</time></trkpt><trkpt lat="40.6679503" lon="16.5352074"><ele>193.0</ele><time>2026-04-18T15:29:49.918Z</time></trkpt><trkpt lat="40.667706" lon="16.5352599"><ele>192.0</ele><time>2026-04-18T15:29:50.917Z</time></trkpt><trkpt lat="40.6674638" lon="16.535311"><ele>191.0</ele><time>2026-04-18T15:29:51.917Z</time></trkpt><trkpt lat="40.6672344" lon="16.5353567"><ele>191.66666666666666</ele><time>2026-04-18T15:29:52.918Z</time></trkpt><trkpt lat="40.6670127" lon="16.5354038"><ele>192.33333333333331</ele><time>2026-04-18T15:29:53.917Z</time></trkpt><trkpt lat="40.6667955" lon="16.5354465"><ele>193.0</ele><time>2026-04-18T15:29:54.918Z</time></trkpt><trkpt lat="40.6665822" lon="16.5354883"><ele>193.0</ele><time>2026-04-18T15:29:55.918Z</time></trkpt><trkpt lat="40.6663826" lon="16.535527"><ele>193.0</ele><time>2026-04-18T15:29:56.917Z</time></trkpt><trkpt lat="40.6661959" lon="16.5355644"><ele>193.0</ele><time>2026-04-18T15:29:57.917Z</time></trkpt><trkpt lat="40.6660228" lon="16.5355997"><ele>193.25</ele><time>2026-04-18T15:29:58.917Z</time></trkpt><trkpt lat="40.6658663" lon="16.5356372"><ele>193.5</ele><time>2026-04-18T15:29:59.917Z</time></trkpt><trkpt lat="40.6657234" lon="16.5356867"><ele>193.75</ele><time>2026-04-18T15:30:00.917Z</time></trkpt><trkpt lat="40.665592" lon="16.5357486"><ele>194.0</ele><time>2026-04-18T15:30:01.918Z</time></trkpt><trkpt lat="40.665471" lon="16.5358206"><ele>194.0</ele><time>2026-04-18T15:30:02.917Z</time></trkpt><trkpt lat="40.6653579" lon="16.5358938"><ele>194.0</ele><time>2026-04-18T15:30:03.917Z</time></trkpt><trkpt lat="40.6652482" lon="16.5359631"><ele>194.0</ele><time>2026-04-18T15:30:04.918Z</time></trkpt><trkpt lat="40.6651381" lon="16.5360208"><ele>194.0</ele><time>2026-04-18T15:30:05.918Z</time></trkpt><trkpt lat="40.6650182" lon="16.53606"><ele>194.5</ele><time>2026-04-18T15:30:06.918Z</time></trkpt><trkpt lat="40.6648863" lon="16.5360765"><ele>195.0</ele><time>2026-04-18T15:30:07.918Z</time></trkpt><trkpt lat="40.6647526" lon="16.5360765"><ele>195.5</ele><time>2026-04-18T15:30:08.917Z</time></trkpt><trkpt lat="40.6646268" lon="16.5360753"><ele>196.0</ele><time>2026-04-18T15:30:09.918Z</time></trkpt><trkpt lat="40.664511" lon="16.536071"><ele>196.0</ele><time>2026-04-18T15:30:10.917Z</time></trkpt><trkpt lat="40.6644059" lon="16.5360691"><ele>196.0</ele><time>2026-04-18T15:30:11.917Z</time></trkpt><trkpt lat="40.6643133" lon="16.536065"><ele>196.0</ele><time>2026-04-18T15:30:12.916Z</time></trkpt><trkpt lat="40.6642267" lon="16.5360617"><ele>196.0</ele><time>2026-04-18T15:30:13.917Z</time></trkpt><trkpt lat="40.664135" lon="16.536055"><ele>196.0</ele><time>2026-04-18T15:30:14.916Z</time></trkpt><trkpt lat="40.6640333" lon="16.5360483"><ele>196.0</ele><time>2026-04-18T15:30:15.918Z</time></trkpt><trkpt lat="40.663925" lon="16.5360433"><ele>196.0</ele><time>2026-04-18T15:30:16.923Z</time></trkpt><trkpt lat="40.6638233" lon="16.53604"><ele>196.0</ele><time>2026-04-18T15:30:17.917Z</time></trkpt><trkpt lat="40.6637467" lon="16.5360367"><ele>196.0</ele><time>2026-04-18T15:30:18.917Z</time></trkpt><trkpt lat="40.6636533" lon="16.536045"><ele>196.0</ele><time>2026-04-18T15:30:20.917Z</time></trkpt><trkpt lat="40.6635883" lon="16.5360817"><ele>195.5</ele><time>2026-04-18T15:30:22.917Z</time></trkpt><trkpt lat="40.66348" lon="16.5361533"><ele>195.0</ele><time>2026-04-18T15:30:24.918Z</time></trkpt><trkpt lat="40.6633983" lon="16.5362167"><ele>194.5</ele><time>2026-04-18T15:30:25.918Z</time></trkpt><trkpt lat="40.663305" lon="16.5363033"><ele>194.0</ele><time>2026-04-18T15:30:26.918Z</time></trkpt><trkpt lat="40.6632083" lon="16.5364067"><ele>194.0</ele><time>2026-04-18T15:30:27.918Z</time></trkpt><trkpt lat="40.6631183" lon="16.5365117"><ele>194.0</ele><time>2026-04-18T15:30:28.917Z</time></trkpt><trkpt lat="40.6630317" lon="16.536615"><ele>194.0</ele><time>2026-04-18T15:30:29.917Z</time></trkpt><trkpt lat="40.6629483" lon="16.5367117"><ele>194.0</ele><time>2026-04-18T15:30:30.918Z</time></trkpt><trkpt lat="40.6628617" lon="16.5368017"><ele>194.25</ele><time>2026-04-18T15:30:31.918Z</time></trkpt><trkpt lat="40.662765" lon="16.5368867"><ele>194.5</ele><time>2026-04-18T15:30:32.917Z</time></trkpt><trkpt lat="40.6626633" lon="16.5369667"><ele>194.75</ele><time>2026-04-18T15:30:33.917Z</time></trkpt><trkpt lat="40.66255" lon="16.5370383"><ele>195.0</ele><time>2026-04-18T15:30:34.918Z</time></trkpt><trkpt lat="40.6624233" lon="16.5371033"><ele>194.5</ele><time>2026-04-18T15:30:35.917Z</time></trkpt><trkpt lat="40.6622983" lon="16.537165"><ele>194.0</ele><time>2026-04-18T15:30:36.917Z</time></trkpt><trkpt lat="40.6621883" lon="16.53722"><ele>193.5</ele><time>2026-04-18T15:30:37.919Z</time></trkpt><trkpt lat="40.6620917" lon="16.53727"><ele>193.0</ele><time>2026-04-18T15:30:38.917Z</time></trkpt><trkpt lat="40.661995" lon="16.53732"><ele>192.5</ele><time>2026-04-18T15:30:39.918Z</time></trkpt><trkpt lat="40.6618933" lon="16.5373717"><ele>192.0</ele><time>2026-04-18T15:30:40.917Z</time></trkpt><trkpt lat="40.66178" lon="16.5374267"><ele>191.5</ele><time>2026-04-18T15:30:41.917Z</time></trkpt><trkpt lat="40.6616567" lon="16.537485"><ele>191.0</ele><time>2026-04-18T15:30:42.918Z</time></trkpt><trkpt lat="40.6615267" lon="16.5375467"><ele>191.0</ele><time>2026-04-18T15:30:43.92Z</time></trkpt><trkpt lat="40.6614017" lon="16.537605"><ele>191.0</ele><time>2026-04-18T15:30:44.917Z</time></trkpt><trkpt lat="40.66128" lon="16.5376633"><ele>191.0</ele><time>2026-04-18T15:30:45.917Z</time></trkpt><trkpt lat="40.661165" lon="16.537715"><ele>191.0</ele><time>2026-04-18T15:30:46.916Z</time></trkpt><trkpt lat="40.6610633" lon="16.5377617"><ele>190.4</ele><time>2026-04-18T15:30:47.917Z</time></trkpt><trkpt lat="40.66098" lon="16.537805"><ele>189.8</ele><time>2026-04-18T15:30:48.917Z</time></trkpt><trkpt lat="40.660895" lon="16.5378567"><ele>189.20000000000002</ele><time>2026-04-18T15:30:49.917Z</time></trkpt><trkpt lat="40.6608117" lon="16.5379283"><ele>188.60000000000002</ele><time>2026-04-18T15:30:50.917Z</time></trkpt><trkpt lat="40.6607233" lon="16.5380233"><ele>188.0</ele><time>2026-04-18T15:30:51.918Z</time></trkpt><trkpt lat="40.6606317" lon="16.5381433"><ele>187.33333333333331</ele><time>2026-04-18T15:30:52.917Z</time></trkpt><trkpt lat="40.6605333" lon="16.5382917"><ele>186.66666666666666</ele><time>2026-04-18T15:30:53.917Z</time></trkpt><trkpt lat="40.66043" lon="16.5384667"><ele>186.0</ele><time>2026-04-18T15:30:54.918Z</time></trkpt><trkpt lat="40.6603133" lon="16.5386783"><ele>184.66666666666666</ele><time>2026-04-18T15:30:55.917Z</time></trkpt><trkpt lat="40.6601883" lon="16.5389017"><ele>183.33333333333331</ele><time>2026-04-18T15:30:56.918Z</time></trkpt><trkpt lat="40.66007" lon="16.5391167"><ele>182.0</ele><time>2026-04-18T15:30:57.917Z</time></trkpt><trkpt lat="40.6599617" lon="16.5393117"><ele>182.0</ele><time>2026-04-18T15:30:58.92Z</time></trkpt><trkpt lat="40.6598667" lon="16.5394867"><ele>182.0</ele><time>2026-04-18T15:30:59.918Z</time></trkpt><trkpt lat="40.65978" lon="16.5396467"><ele>182.0</ele><time>2026-04-18T15:31:00.92Z</time></trkpt><trkpt lat="40.659695" lon="16.5398017"><ele>182.0</ele><time>2026-04-18T15:31:01.919Z</time></trkpt><trkpt lat="40.6596067" lon="16.539955"><ele>182.0</ele><time>2026-04-18T15:31:02.918Z</time></trkpt><trkpt lat="40.6595183" lon="16.54011"><ele>182.0</ele><time>2026-04-18T15:31:03.919Z</time></trkpt><trkpt lat="40.6594367" lon="16.5402567"><ele>182.0</ele><time>2026-04-18T15:31:04.919Z</time></trkpt><trkpt lat="40.6593667" lon="16.5403867"><ele>181.2</ele><time>2026-04-18T15:31:05.919Z</time></trkpt><trkpt lat="40.6593083" lon="16.540495"><ele>180.39999999999998</ele><time>2026-04-18T15:31:06.918Z</time></trkpt><trkpt lat="40.6592567" lon="16.540585"><ele>179.60000000000002</ele><time>2026-04-18T15:31:07.919Z</time></trkpt><trkpt lat="40.6592133" lon="16.5406617"><ele>178.8</ele><time>2026-04-18T15:31:08.917Z</time></trkpt><trkpt lat="40.659135" lon="16.5407517"><ele>178.0</ele><time>2026-04-18T15:31:10.919Z</time></trkpt><trkpt lat="40.659045" lon="16.5407083"><ele>178.0</ele><time>2026-04-18T15:31:12.917Z</time></trkpt><trkpt lat="40.6589633" lon="16.5405533"><ele>178.0</ele><time>2026-04-18T15:31:14.917Z</time></trkpt><trkpt lat="40.6589383" lon="16.5404233"><ele>178.0</ele><time>2026-04-18T15:31:15.918Z</time></trkpt><trkpt lat="40.65892" lon="16.5402583"><ele>178.0</ele><time>2026-04-18T15:31:16.917Z</time></trkpt><trkpt lat="40.6589033" lon="16.5400767"><ele>178.33333333333334</ele><time>2026-04-18T15:31:17.916Z</time></trkpt><trkpt lat="40.6588867" lon="16.5398817"><ele>178.66666666666666</ele><time>2026-04-18T15:31:18.917Z</time></trkpt><trkpt lat="40.6588667" lon="16.5396633"><ele>179.0</ele><time>2026-04-18T15:31:19.918Z</time></trkpt><trkpt lat="40.658845" lon="16.5394283"><ele>179.0</ele><time>2026-04-18T15:31:20.92Z</time></trkpt><trkpt lat="40.6588217" lon="16.5391867"><ele>179.0</ele><time>2026-04-18T15:31:21.918Z</time></trkpt><trkpt lat="40.6587983" lon="16.53894"><ele>179.0</ele><time>2026-04-18T15:31:22.918Z</time></trkpt><trkpt lat="40.6587733" lon="16.5386933"><ele>178.66666666666666</ele><time>2026-04-18T15:31:23.918Z</time></trkpt><trkpt lat="40.6587483" lon="16.5384467"><ele>178.33333333333334</ele><time>2026-04-18T15:31:24.918Z</time></trkpt><trkpt lat="40.658725" lon="16.5381983"><ele>178.0</ele><time>2026-04-18T15:31:25.918Z</time></trkpt><trkpt lat="40.6587" lon="16.53795"><ele>178.33333333333334</ele><time>2026-04-18T15:31:26.918Z</time></trkpt><trkpt lat="40.658675" lon="16.5376967"><ele>178.66666666666666</ele><time>2026-04-18T15:31:27.918Z</time></trkpt><trkpt lat="40.6586517" lon="16.537435"><ele>179.0</ele><time>2026-04-18T15:31:28.918Z</time></trkpt><trkpt lat="40.6586283" lon="16.5371733"><ele>179.33333333333331</ele><time>2026-04-18T15:31:29.917Z</time></trkpt><trkpt lat="40.6586083" lon="16.536915"><ele>179.66666666666666</ele><time>2026-04-18T15:31:30.916Z</time></trkpt><trkpt lat="40.6585917" lon="16.53666"><ele>180.0</ele><time>2026-04-18T15:31:31.918Z</time></trkpt><trkpt lat="40.6585767" lon="16.5364083"><ele>180.33333333333334</ele><time>2026-04-18T15:31:32.916Z</time></trkpt><trkpt lat="40.658565" lon="16.5361617"><ele>180.66666666666669</ele><time>2026-04-18T15:31:33.916Z</time></trkpt><trkpt lat="40.6585517" lon="16.5359183"><ele>181.0</ele><time>2026-04-18T15:31:34.917Z</time></trkpt><trkpt lat="40.65854" lon="16.5356767"><ele>181.0</ele><time>2026-04-18T15:31:35.917Z</time></trkpt><trkpt lat="40.65853" lon="16.5354367"><ele>181.0</ele><time>2026-04-18T15:31:36.919Z</time></trkpt><trkpt lat="40.6585217" lon="16.5352"><ele>181.0</ele><time>2026-04-18T15:31:37.917Z</time></trkpt><trkpt lat="40.658515" lon="16.5349633"><ele>181.33333333333334</ele><time>2026-04-18T15:31:38.917Z</time></trkpt><trkpt lat="40.6585083" lon="16.5347267"><ele>181.66666666666666</ele><time>2026-04-18T15:31:39.917Z</time></trkpt><trkpt lat="40.6584967" lon="16.5344867"><ele>182.0</ele><time>2026-04-18T15:31:40.918Z</time></trkpt><trkpt lat="40.6584867" lon="16.5342433"><ele>182.0</ele><time>2026-04-18T15:31:41.916Z</time></trkpt><trkpt lat="40.6584783" lon="16.53399"><ele>182.0</ele><time>2026-04-18T15:31:42.917Z</time></trkpt><trkpt lat="40.6584667" lon="16.5337333"><ele>182.0</ele><time>2026-04-18T15:31:43.918Z</time></trkpt><trkpt lat="40.6584567" lon="16.533475"><ele>182.0</ele><time>2026-04-18T15:31:44.919Z</time></trkpt><trkpt lat="40.658445" lon="16.5332133"><ele>182.0</ele><time>2026-04-18T15:31:45.917Z</time></trkpt><trkpt lat="40.6584333" lon="16.53295"><ele>182.0</ele><time>2026-04-18T15:31:46.916Z</time></trkpt><trkpt lat="40.65842" lon="16.5326833"><ele>181.66666666666666</ele><time>2026-04-18T15:31:47.916Z</time></trkpt><trkpt lat="40.65841" lon="16.5324133"><ele>181.33333333333334</ele><time>2026-04-18T15:31:48.919Z</time></trkpt><trkpt lat="40.6584" lon="16.532145"><ele>181.0</ele><time>2026-04-18T15:31:49.916Z</time></trkpt><trkpt lat="40.6583883" lon="16.5318783"><ele>181.0</ele><time>2026-04-18T15:31:50.916Z</time></trkpt><trkpt lat="40.6583783" lon="16.53161"><ele>181.0</ele><time>2026-04-18T15:31:51.916Z</time></trkpt><trkpt lat="40.6583667" lon="16.53134"><ele>181.0</ele><time>2026-04-18T15:31:52.915Z</time></trkpt><trkpt lat="40.6583567" lon="16.53107"><ele>180.33333333333334</ele><time>2026-04-18T15:31:53.916Z</time></trkpt><trkpt lat="40.6583474" lon="16.5308009"><ele>179.66666666666666</ele><time>2026-04-18T15:31:54.915Z</time></trkpt><trkpt lat="40.6583423" lon="16.5305296"><ele>179.0</ele><time>2026-04-18T15:31:55.917Z</time></trkpt><trkpt lat="40.6583407" lon="16.530255"><ele>178.33333333333331</ele><time>2026-04-18T15:31:56.916Z</time></trkpt><trkpt lat="40.6583367" lon="16.5299753"><ele>177.66666666666666</ele><time>2026-04-18T15:31:57.916Z</time></trkpt><trkpt lat="40.6583275" lon="16.5296966"><ele>177.0</ele><time>2026-04-18T15:31:58.916Z</time></trkpt><trkpt lat="40.6583201" lon="16.5294195"><ele>177.0</ele><time>2026-04-18T15:31:59.916Z</time></trkpt><trkpt lat="40.6583154" lon="16.5291429"><ele>177.0</ele><time>2026-04-18T15:32:00.914Z</time></trkpt><trkpt lat="40.6583094" lon="16.5288647"><ele>177.0</ele><time>2026-04-18T15:32:01.917Z</time></trkpt><trkpt lat="40.6583029" lon="16.5285861"><ele>176.66666666666666</ele><time>2026-04-18T15:32:02.915Z</time></trkpt><trkpt lat="40.6582963" lon="16.5283066"><ele>176.33333333333331</ele><time>2026-04-18T15:32:03.916Z</time></trkpt><trkpt lat="40.6582908" lon="16.5280225"><ele>176.0</ele><time>2026-04-18T15:32:04.917Z</time></trkpt><trkpt lat="40.6582856" lon="16.5277446"><ele>176.0</ele><time>2026-04-18T15:32:05.915Z</time></trkpt><trkpt lat="40.6582818" lon="16.5274847"><ele>176.0</ele><time>2026-04-18T15:32:06.916Z</time></trkpt><trkpt lat="40.6582773" lon="16.5272379"><ele>176.0</ele><time>2026-04-18T15:32:07.916Z</time></trkpt><trkpt lat="40.6582725" lon="16.5270004"><ele>175.66666666666666</ele><time>2026-04-18T15:32:08.916Z</time></trkpt><trkpt lat="40.65827" lon="16.5267715"><ele>175.33333333333334</ele><time>2026-04-18T15:32:09.916Z</time></trkpt><trkpt lat="40.6582681" lon="16.5265569"><ele>175.0</ele><time>2026-04-18T15:32:10.916Z</time></trkpt><trkpt lat="40.6582642" lon="16.5263552"><ele>175.0</ele><time>2026-04-18T15:32:11.915Z</time></trkpt><trkpt lat="40.6582577" lon="16.5261665"><ele>175.0</ele><time>2026-04-18T15:32:12.916Z</time></trkpt><trkpt lat="40.6582513" lon="16.5259836"><ele>175.0</ele><time>2026-04-18T15:32:13.916Z</time></trkpt><trkpt lat="40.6582447" lon="16.525795"><ele>175.0</ele><time>2026-04-18T15:32:14.916Z</time></trkpt><trkpt lat="40.658241" lon="16.5255964"><ele>175.0</ele><time>2026-04-18T15:32:15.916Z</time></trkpt><trkpt lat="40.6582363" lon="16.5253867"><ele>175.0</ele><time>2026-04-18T15:32:16.916Z</time></trkpt><trkpt lat="40.6582336" lon="16.5251688"><ele>175.0</ele><time>2026-04-18T15:32:17.916Z</time></trkpt><trkpt lat="40.6582336" lon="16.5249465"><ele>175.0</ele><time>2026-04-18T15:32:18.917Z</time></trkpt><trkpt lat="40.6582337" lon="16.5247224"><ele>175.0</ele><time>2026-04-18T15:32:19.917Z</time></trkpt><trkpt lat="40.6582357" lon="16.5244995"><ele>175.0</ele><time>2026-04-18T15:32:20.916Z</time></trkpt><trkpt lat="40.6582407" lon="16.5242765"><ele>174.66666666666669</ele><time>2026-04-18T15:32:21.916Z</time></trkpt><trkpt lat="40.6582469" lon="16.524054"><ele>174.33333333333334</ele><time>2026-04-18T15:32:22.916Z</time></trkpt><trkpt lat="40.6582574" lon="16.5238381"><ele>174.0</ele><time>2026-04-18T15:32:23.916Z</time></trkpt><trkpt lat="40.6582643" lon="16.5236387"><ele>173.25</ele><time>2026-04-18T15:32:24.916Z</time></trkpt><trkpt lat="40.658271" lon="16.5234537"><ele>172.5</ele><time>2026-04-18T15:32:25.916Z</time></trkpt><trkpt lat="40.6582817" lon="16.5232783"><ele>171.75</ele><time>2026-04-18T15:32:26.917Z</time></trkpt><trkpt lat="40.65829" lon="16.5231017"><ele>171.0</ele><time>2026-04-18T15:32:27.916Z</time></trkpt><trkpt lat="40.6582967" lon="16.5229267"><ele>170.8</ele><time>2026-04-18T15:32:28.916Z</time></trkpt><trkpt lat="40.6583033" lon="16.5227667"><ele>170.60000000000002</ele><time>2026-04-18T15:32:29.917Z</time></trkpt><trkpt lat="40.6583083" lon="16.5226267"><ele>170.4</ele><time>2026-04-18T15:32:30.916Z</time></trkpt><trkpt lat="40.658315" lon="16.522505"><ele>170.2</ele><time>2026-04-18T15:32:31.916Z</time></trkpt><trkpt lat="40.6583183" lon="16.5223933"><ele>170.0</ele><time>2026-04-18T15:32:32.916Z</time></trkpt><trkpt lat="40.6583233" lon="16.5222917"><ele>170.0</ele><time>2026-04-18T15:32:33.916Z</time></trkpt><trkpt lat="40.6583267" lon="16.5222017"><ele>170.0</ele><time>2026-04-18T15:32:34.916Z</time></trkpt><trkpt lat="40.6583133" lon="16.5220683"><ele>170.0</ele><time>2026-04-18T15:32:36.916Z</time></trkpt><trkpt lat="40.6582083" lon="16.521975"><ele>170.0</ele><time>2026-04-18T15:32:38.916Z</time></trkpt><trkpt lat="40.65811" lon="16.5219333"><ele>170.0</ele><time>2026-04-18T15:32:39.916Z</time></trkpt><trkpt lat="40.6579883" lon="16.521885"><ele>169.75</ele><time>2026-04-18T15:32:40.917Z</time></trkpt><trkpt lat="40.6578567" lon="16.5218333"><ele>169.5</ele><time>2026-04-18T15:32:41.916Z</time></trkpt><trkpt lat="40.657725" lon="16.5217733"><ele>169.25</ele><time>2026-04-18T15:32:42.916Z</time></trkpt><trkpt lat="40.657595" lon="16.5216967"><ele>169.0</ele><time>2026-04-18T15:32:43.917Z</time></trkpt><trkpt lat="40.6574733" lon="16.5216017"><ele>169.0</ele><time>2026-04-18T15:32:44.916Z</time></trkpt><trkpt lat="40.6573533" lon="16.521495"><ele>169.0</ele><time>2026-04-18T15:32:45.916Z</time></trkpt><trkpt lat="40.6572333" lon="16.52138"><ele>169.0</ele><time>2026-04-18T15:32:46.916Z</time></trkpt><trkpt lat="40.6571083" lon="16.52126"><ele>169.0</ele><time>2026-04-18T15:32:47.915Z</time></trkpt><trkpt lat="40.656855" lon="16.5210183"><ele>168.66666666666669</ele><time>2026-04-18T15:32:49.917Z</time></trkpt><trkpt lat="40.6567333" lon="16.5208983"><ele>168.33333333333334</ele><time>2026-04-18T15:32:50.916Z</time></trkpt><trkpt lat="40.6566133" lon="16.52078"><ele>168.0</ele><time>2026-04-18T15:32:51.916Z</time></trkpt><trkpt lat="40.656495" lon="16.52066"><ele>168.0</ele><time>2026-04-18T15:32:52.916Z</time></trkpt><trkpt lat="40.6563717" lon="16.5205383"><ele>168.0</ele><time>2026-04-18T15:32:53.916Z</time></trkpt><trkpt lat="40.6562317" lon="16.5204167"><ele>168.0</ele><time>2026-04-18T15:32:54.916Z</time></trkpt><trkpt lat="40.6560683" lon="16.5203067"><ele>169.0</ele><time>2026-04-18T15:32:55.917Z</time></trkpt><trkpt lat="40.6558933" lon="16.52021"><ele>170.0</ele><time>2026-04-18T15:32:56.917Z</time></trkpt><trkpt lat="40.65572" lon="16.5201267"><ele>171.0</ele><time>2026-04-18T15:32:57.917Z</time></trkpt><trkpt lat="40.6555517" lon="16.5200417"><ele>171.0</ele><time>2026-04-18T15:32:58.916Z</time></trkpt><trkpt lat="40.6553933" lon="16.5199517"><ele>171.0</ele><time>2026-04-18T15:32:59.915Z</time></trkpt><trkpt lat="40.6552383" lon="16.519855"><ele>171.0</ele><time>2026-04-18T15:33:00.917Z</time></trkpt><trkpt lat="40.6550833" lon="16.5197483"><ele>170.66666666666666</ele><time>2026-04-18T15:33:01.917Z</time></trkpt><trkpt lat="40.65493" lon="16.5196333"><ele>170.33333333333331</ele><time>2026-04-18T15:33:02.915Z</time></trkpt><trkpt lat="40.654785" lon="16.51952"><ele>170.0</ele><time>2026-04-18T15:33:03.916Z</time></trkpt><trkpt lat="40.654645" lon="16.519405"><ele>169.66666666666666</ele><time>2026-04-18T15:33:04.917Z</time></trkpt><trkpt lat="40.6545167" lon="16.5192883"><ele>169.33333333333334</ele><time>2026-04-18T15:33:05.916Z</time></trkpt><trkpt lat="40.654395" lon="16.5191683"><ele>169.0</ele><time>2026-04-18T15:33:06.916Z</time></trkpt><trkpt lat="40.6542767" lon="16.5190367"><ele>169.0</ele><time>2026-04-18T15:33:07.917Z</time></trkpt><trkpt lat="40.6541617" lon="16.5188917"><ele>169.0</ele><time>2026-04-18T15:33:08.916Z</time></trkpt><trkpt lat="40.6540483" lon="16.51874"><ele>169.0</ele><time>2026-04-18T15:33:09.916Z</time></trkpt><trkpt lat="40.6539417" lon="16.518585"><ele>170.66666666666669</ele><time>2026-04-18T15:33:10.916Z</time></trkpt><trkpt lat="40.6538333" lon="16.5184267"><ele>172.33333333333334</ele><time>2026-04-18T15:33:11.916Z</time></trkpt><trkpt lat="40.6537267" lon="16.5182717"><ele>174.0</ele><time>2026-04-18T15:33:12.916Z</time></trkpt><trkpt lat="40.6536283" lon="16.5181317"><ele>173.75</ele><time>2026-04-18T15:33:13.916Z</time></trkpt><trkpt lat="40.6535383" lon="16.5179883"><ele>173.5</ele><time>2026-04-18T15:33:14.915Z</time></trkpt><trkpt lat="40.653455" lon="16.5178367"><ele>173.25</ele><time>2026-04-18T15:33:15.917Z</time></trkpt><trkpt lat="40.6533783" lon="16.5176733"><ele>173.0</ele><time>2026-04-18T15:33:16.917Z</time></trkpt><trkpt lat="40.653305" lon="16.5174967"><ele>173.0</ele><time>2026-04-18T15:33:17.916Z</time></trkpt><trkpt lat="40.6532317" lon="16.5173"><ele>173.0</ele><time>2026-04-18T15:33:18.916Z</time></trkpt><trkpt lat="40.6531583" lon="16.5171017"><ele>173.0</ele><time>2026-04-18T15:33:19.917Z</time></trkpt><trkpt lat="40.6530833" lon="16.5169083"><ele>173.66666666666666</ele><time>2026-04-18T15:33:20.916Z</time></trkpt><trkpt lat="40.653005" lon="16.5167133"><ele>174.33333333333334</ele><time>2026-04-18T15:33:21.917Z</time></trkpt><trkpt lat="40.652925" lon="16.51651"><ele>175.0</ele><time>2026-04-18T15:33:22.916Z</time></trkpt><trkpt lat="40.652845" lon="16.5163133"><ele>175.66666666666669</ele><time>2026-04-18T15:33:23.916Z</time></trkpt><trkpt lat="40.6527633" lon="16.516125"><ele>176.33333333333334</ele><time>2026-04-18T15:33:24.916Z</time></trkpt><trkpt lat="40.6526733" lon="16.515945"><ele>177.0</ele><time>2026-04-18T15:33:25.915Z</time></trkpt><trkpt lat="40.65258" lon="16.515775"><ele>177.0</ele><time>2026-04-18T15:33:26.917Z</time></trkpt><trkpt lat="40.6524867" lon="16.5156083"><ele>177.0</ele><time>2026-04-18T15:33:27.916Z</time></trkpt><trkpt lat="40.65239" lon="16.515445"><ele>177.0</ele><time>2026-04-18T15:33:28.916Z</time></trkpt><trkpt lat="40.6523" lon="16.5152933"><ele>177.75</ele><time>2026-04-18T15:33:29.916Z</time></trkpt><trkpt lat="40.6522217" lon="16.5151667"><ele>178.5</ele><time>2026-04-18T15:33:30.916Z</time></trkpt><trkpt lat="40.6521567" lon="16.515055"><ele>179.25</ele><time>2026-04-18T15:33:31.916Z</time></trkpt><trkpt lat="40.652095" lon="16.51493"><ele>180.0</ele><time>2026-04-18T15:33:32.916Z</time></trkpt><trkpt lat="40.6520317" lon="16.5147783"><ele>180.0</ele><time>2026-04-18T15:33:33.916Z</time></trkpt><trkpt lat="40.6519633" lon="16.514595"><ele>180.0</ele><time>2026-04-18T15:33:34.916Z</time></trkpt><trkpt lat="40.6518917" lon="16.514395"><ele>180.0</ele><time>2026-04-18T15:33:35.916Z</time></trkpt><trkpt lat="40.6518217" lon="16.5141883"><ele>180.33333333333334</ele><time>2026-04-18T15:33:36.915Z</time></trkpt><trkpt lat="40.65175" lon="16.5139917"><ele>180.66666666666669</ele><time>2026-04-18T15:33:37.917Z</time></trkpt><trkpt lat="40.65168" lon="16.5137983"><ele>181.0</ele><time>2026-04-18T15:33:38.916Z</time></trkpt><trkpt lat="40.651615" lon="16.513615"><ele>181.25</ele><time>2026-04-18T15:33:39.915Z</time></trkpt><trkpt lat="40.6515583" lon="16.5134433"><ele>181.5</ele><time>2026-04-18T15:33:40.915Z</time></trkpt><trkpt lat="40.6515117" lon="16.51328"><ele>181.75</ele><time>2026-04-18T15:33:41.916Z</time></trkpt><trkpt lat="40.651475" lon="16.5131117"><ele>182.0</ele><time>2026-04-18T15:33:42.916Z</time></trkpt><trkpt lat="40.6514417" lon="16.5129283"><ele>182.75</ele><time>2026-04-18T15:33:43.916Z</time></trkpt><trkpt lat="40.65141" lon="16.5127383"><ele>183.5</ele><time>2026-04-18T15:33:44.917Z</time></trkpt><trkpt lat="40.6513817" lon="16.5125433"><ele>184.25</ele><time>2026-04-18T15:33:45.918Z</time></trkpt><trkpt lat="40.651355" lon="16.5123483"><ele>185.0</ele><time>2026-04-18T15:33:46.916Z</time></trkpt><trkpt lat="40.6513317" lon="16.512175"><ele>185.4</ele><time>2026-04-18T15:33:47.916Z</time></trkpt><trkpt lat="40.65131" lon="16.5120233"><ele>185.8</ele><time>2026-04-18T15:33:48.916Z</time></trkpt><trkpt lat="40.6512833" lon="16.5118833"><ele>186.2</ele><time>2026-04-18T15:33:49.917Z</time></trkpt><trkpt lat="40.65125" lon="16.5117483"><ele>186.6</ele><time>2026-04-18T15:33:50.915Z</time></trkpt><trkpt lat="40.6512133" lon="16.5116167"><ele>187.0</ele><time>2026-04-18T15:33:51.916Z</time></trkpt><trkpt lat="40.651175" lon="16.5114967"><ele>187.0</ele><time>2026-04-18T15:33:52.917Z</time></trkpt><trkpt lat="40.6511333" lon="16.5113833"><ele>187.0</ele><time>2026-04-18T15:33:53.916Z</time></trkpt><trkpt lat="40.6510833" lon="16.511265"><ele>187.0</ele><time>2026-04-18T15:33:54.916Z</time></trkpt><trkpt lat="40.651015" lon="16.5111283"><ele>187.0</ele><time>2026-04-18T15:33:55.917Z</time></trkpt><trkpt lat="40.6509317" lon="16.5109667"><ele>186.75</ele><time>2026-04-18T15:33:56.916Z</time></trkpt><trkpt lat="40.65084" lon="16.5107983"><ele>186.5</ele><time>2026-04-18T15:33:57.916Z</time></trkpt><trkpt lat="40.650755" lon="16.5106417"><ele>186.25</ele><time>2026-04-18T15:33:58.916Z</time></trkpt><trkpt lat="40.6506717" lon="16.5104983"><ele>186.0</ele><time>2026-04-18T15:33:59.916Z</time></trkpt><trkpt lat="40.6505867" lon="16.51037"><ele>187.25</ele><time>2026-04-18T15:34:00.915Z</time></trkpt><trkpt lat="40.6504967" lon="16.5102567"><ele>188.5</ele><time>2026-04-18T15:34:01.917Z</time></trkpt><trkpt lat="40.650395" lon="16.5101533"><ele>189.75</ele><time>2026-04-18T15:34:02.916Z</time></trkpt><trkpt lat="40.6502833" lon="16.5100633"><ele>191.0</ele><time>2026-04-18T15:34:03.916Z</time></trkpt><trkpt lat="40.6501567" lon="16.509985"><ele>191.0</ele><time>2026-04-18T15:34:04.916Z</time></trkpt><trkpt lat="40.6500283" lon="16.5099167"><ele>191.0</ele><time>2026-04-18T15:34:05.916Z</time></trkpt><trkpt lat="40.64991" lon="16.5098583"><ele>191.0</ele><time>2026-04-18T15:34:06.917Z</time></trkpt><trkpt lat="40.649795" lon="16.5098083"><ele>191.0</ele><time>2026-04-18T15:34:07.916Z</time></trkpt><trkpt lat="40.64968" lon="16.5097583"><ele>191.0</ele><time>2026-04-18T15:34:08.916Z</time></trkpt><trkpt lat="40.6495583" lon="16.5097083"><ele>191.0</ele><time>2026-04-18T15:34:09.916Z</time></trkpt><trkpt lat="40.6494317" lon="16.5096583"><ele>191.0</ele><time>2026-04-18T15:34:10.917Z</time></trkpt><trkpt lat="40.64931" lon="16.5096133"><ele>191.0</ele><time>2026-04-18T15:34:11.916Z</time></trkpt><trkpt lat="40.6492017" lon="16.5095667"><ele>191.4</ele><time>2026-04-18T15:34:12.917Z</time></trkpt><trkpt lat="40.6491" lon="16.5095167"><ele>191.8</ele><time>2026-04-18T15:34:13.917Z</time></trkpt><trkpt lat="40.6490067" lon="16.5094667"><ele>192.20000000000002</ele><time>2026-04-18T15:34:14.916Z</time></trkpt><trkpt lat="40.6489233" lon="16.509415"><ele>192.60000000000002</ele><time>2026-04-18T15:34:15.917Z</time></trkpt><trkpt lat="40.6488467" lon="16.5093683"><ele>193.0</ele><time>2026-04-18T15:34:16.917Z</time></trkpt><trkpt lat="40.6487783" lon="16.5093283"><ele>193.0</ele><time>2026-04-18T15:34:17.917Z</time></trkpt><trkpt lat="40.6487167" lon="16.5092883"><ele>193.0</ele><time>2026-04-18T15:34:18.918Z</time></trkpt><trkpt lat="40.648615" lon="16.509225"><ele>193.0</ele><time>2026-04-18T15:34:20.916Z</time></trkpt><trkpt lat="40.6485333" lon="16.5091767"><ele>193.0</ele><time>2026-04-18T15:34:22.917Z</time></trkpt><trkpt lat="40.648425" lon="16.5091217"><ele>193.0</ele><time>2026-04-18T15:34:24.917Z</time></trkpt><trkpt lat="40.648365" lon="16.509095"><ele>193.33333333333331</ele><time>2026-04-18T15:34:25.917Z</time></trkpt><trkpt lat="40.64825" lon="16.5090533"><ele>193.66666666666666</ele><time>2026-04-18T15:34:27.916Z</time></trkpt><trkpt lat="40.6481817" lon="16.5090283"><ele>194.0</ele><time>2026-04-18T15:34:28.918Z</time></trkpt><trkpt lat="40.6481117" lon="16.508995"><ele>194.33333333333331</ele><time>2026-04-18T15:34:29.916Z</time></trkpt><trkpt lat="40.64804" lon="16.5089517"><ele>194.66666666666666</ele><time>2026-04-18T15:34:30.917Z</time></trkpt><trkpt lat="40.6479633" lon="16.5089033"><ele>195.0</ele><time>2026-04-18T15:34:31.918Z</time></trkpt><trkpt lat="40.6478833" lon="16.508855"><ele>195.0</ele><time>2026-04-18T15:34:32.917Z</time></trkpt><trkpt lat="40.6478067" lon="16.508805"><ele>195.0</ele><time>2026-04-18T15:34:33.917Z</time></trkpt><trkpt lat="40.6477317" lon="16.5087567"><ele>195.0</ele><time>2026-04-18T15:34:34.918Z</time></trkpt><trkpt lat="40.6476583" lon="16.50871"><ele>195.0</ele><time>2026-04-18T15:34:35.917Z</time></trkpt><trkpt lat="40.647585" lon="16.508665"><ele>195.0</ele><time>2026-04-18T15:34:36.916Z</time></trkpt><trkpt lat="40.64751" lon="16.5086217"><ele>195.0</ele><time>2026-04-18T15:34:37.917Z</time></trkpt><trkpt lat="40.6474417" lon="16.5085733"><ele>195.66666666666666</ele><time>2026-04-18T15:34:38.916Z</time></trkpt><trkpt lat="40.6473767" lon="16.5085233"><ele>196.33333333333331</ele><time>2026-04-18T15:34:39.916Z</time></trkpt><trkpt lat="40.64731" lon="16.5084717"><ele>197.0</ele><time>2026-04-18T15:34:40.917Z</time></trkpt><trkpt lat="40.6472383" lon="16.50842"><ele>197.66666666666666</ele><time>2026-04-18T15:34:41.916Z</time></trkpt><trkpt lat="40.6471667" lon="16.50837"><ele>198.33333333333331</ele><time>2026-04-18T15:34:42.918Z</time></trkpt><trkpt lat="40.6470959" lon="16.5083206"><ele>199.0</ele><time>2026-04-18T15:34:43.918Z</time></trkpt><trkpt lat="40.6470239" lon="16.5082768"><ele>200.39999999999998</ele><time>2026-04-18T15:34:44.917Z</time></trkpt><trkpt lat="40.6469447" lon="16.5082476"><ele>201.8</ele><time>2026-04-18T15:34:45.916Z</time></trkpt><trkpt lat="40.6468538" lon="16.5082296"><ele>203.2</ele><time>2026-04-18T15:34:46.917Z</time></trkpt><trkpt lat="40.6467542" lon="16.5082159"><ele>204.60000000000002</ele><time>2026-04-18T15:34:47.915Z</time></trkpt><trkpt lat="40.6466411" lon="16.5081992"><ele>206.0</ele><time>2026-04-18T15:34:48.917Z</time></trkpt><trkpt lat="40.6465097" lon="16.5081776"><ele>206.0</ele><time>2026-04-18T15:34:49.918Z</time></trkpt><trkpt lat="40.6463587" lon="16.5081561"><ele>206.0</ele><time>2026-04-18T15:34:50.915Z</time></trkpt><trkpt lat="40.6461979" lon="16.5081462"><ele>206.0</ele><time>2026-04-18T15:34:51.916Z</time></trkpt><trkpt lat="40.6460262" lon="16.5081348"><ele>207.33333333333334</ele><time>2026-04-18T15:34:52.918Z</time></trkpt><trkpt lat="40.6458542" lon="16.5081164"><ele>208.66666666666669</ele><time>2026-04-18T15:34:53.916Z</time></trkpt><trkpt lat="40.6456876" lon="16.5080991"><ele>210.0</ele><time>2026-04-18T15:34:54.918Z</time></trkpt><trkpt lat="40.6455372" lon="16.5080883"><ele>210.0</ele><time>2026-04-18T15:34:55.917Z</time></trkpt><trkpt lat="40.6453975" lon="16.5080804"><ele>210.0</ele><time>2026-04-18T15:34:56.917Z</time></trkpt><trkpt lat="40.6452461" lon="16.5080587"><ele>210.0</ele><time>2026-04-18T15:34:57.916Z</time></trkpt><trkpt lat="40.6450834" lon="16.5080182"><ele>211.0</ele><time>2026-04-18T15:34:58.917Z</time></trkpt><trkpt lat="40.644916" lon="16.5079595"><ele>212.0</ele><time>2026-04-18T15:34:59.916Z</time></trkpt><trkpt lat="40.6447427" lon="16.5078787"><ele>213.0</ele><time>2026-04-18T15:35:00.918Z</time></trkpt><trkpt lat="40.644578" lon="16.5077898"><ele>213.5</ele><time>2026-04-18T15:35:01.918Z</time></trkpt><trkpt lat="40.6444373" lon="16.5077066"><ele>214.0</ele><time>2026-04-18T15:35:02.917Z</time></trkpt><trkpt lat="40.644316" lon="16.507636"><ele>214.5</ele><time>2026-04-18T15:35:03.917Z</time></trkpt><trkpt lat="40.6442102" lon="16.5075736"><ele>215.0</ele><time>2026-04-18T15:35:04.917Z</time></trkpt><trkpt lat="40.6441253" lon="16.507521"><ele>215.00000000000003</ele><time>2026-04-18T15:35:05.916Z</time></trkpt><trkpt lat="40.6440591" lon="16.5074835"><ele>215.0</ele><time>2026-04-18T15:35:06.918Z</time></trkpt><trkpt lat="40.6439784" lon="16.5073961"><ele>215.0</ele><time>2026-04-18T15:35:08.916Z</time></trkpt><trkpt lat="40.6439527" lon="16.5073195"><ele>215.0</ele><time>2026-04-18T15:35:09.916Z</time></trkpt><trkpt lat="40.6439349" lon="16.5072128"><ele>215.00000000000003</ele><time>2026-04-18T15:35:10.915Z</time></trkpt><trkpt lat="40.6439303" lon="16.5070631"><ele>215.0</ele><time>2026-04-18T15:35:11.916Z</time></trkpt><trkpt lat="40.6439353" lon="16.5068848"><ele>216.5</ele><time>2026-04-18T15:35:12.916Z</time></trkpt><trkpt lat="40.6439423" lon="16.5067056"><ele>218.0</ele><time>2026-04-18T15:35:13.916Z</time></trkpt><trkpt lat="40.643944" lon="16.5065405"><ele>219.5</ele><time>2026-04-18T15:35:14.916Z</time></trkpt><trkpt lat="40.6439394" lon="16.5063923"><ele>221.0</ele><time>2026-04-18T15:35:15.916Z</time></trkpt><trkpt lat="40.6439317" lon="16.50626"><ele>221.66666666666669</ele><time>2026-04-18T15:35:16.917Z</time></trkpt><trkpt lat="40.6439233" lon="16.506135"><ele>222.33333333333334</ele><time>2026-04-18T15:35:17.916Z</time></trkpt><trkpt lat="40.6439167" lon="16.506025"><ele>223.0</ele><time>2026-04-18T15:35:18.917Z</time></trkpt><trkpt lat="40.6439133" lon="16.5059233"><ele>223.66666666666669</ele><time>2026-04-18T15:35:19.918Z</time></trkpt><trkpt lat="40.6439083" lon="16.5058333"><ele>224.33333333333334</ele><time>2026-04-18T15:35:20.916Z</time></trkpt><trkpt lat="40.6439017" lon="16.5056917"><ele>225.0</ele><time>2026-04-18T15:35:22.916Z</time></trkpt><trkpt lat="40.6438667" lon="16.505575"><ele>225.0</ele><time>2026-04-18T15:35:24.915Z</time></trkpt><trkpt lat="40.6438" lon="16.5054367"><ele>225.0</ele><time>2026-04-18T15:35:26.916Z</time></trkpt><trkpt lat="40.643755" lon="16.50537"><ele>225.0</ele><time>2026-04-18T15:35:27.915Z</time></trkpt><trkpt lat="40.6437017" lon="16.5053083"><ele>225.0</ele><time>2026-04-18T15:35:28.917Z</time></trkpt><trkpt lat="40.64364" lon="16.5052533"><ele>225.0</ele><time>2026-04-18T15:35:29.916Z</time></trkpt><trkpt lat="40.6435667" lon="16.5052083"><ele>225.0</ele><time>2026-04-18T15:35:30.917Z</time></trkpt><trkpt lat="40.643485" lon="16.5051717"><ele>223.83333333333334</ele><time>2026-04-18T15:35:31.917Z</time></trkpt><trkpt lat="40.6433933" lon="16.5051383"><ele>222.66666666666669</ele><time>2026-04-18T15:35:32.917Z</time></trkpt><trkpt lat="40.6433017" lon="16.5051083"><ele>221.5</ele><time>2026-04-18T15:35:33.916Z</time></trkpt><trkpt lat="40.6432133" lon="16.5050867"><ele>220.33333333333334</ele><time>2026-04-18T15:35:34.916Z</time></trkpt><trkpt lat="40.6431283" lon="16.5050667"><ele>219.16666666666669</ele><time>2026-04-18T15:35:35.917Z</time></trkpt><trkpt lat="40.6430483" lon="16.5050433"><ele>218.0</ele><time>2026-04-18T15:35:36.915Z</time></trkpt><trkpt lat="40.6429717" lon="16.5050183"><ele>218.00000000000003</ele><time>2026-04-18T15:35:37.917Z</time></trkpt><trkpt lat="40.6429" lon="16.504985"><ele>218.0</ele><time>2026-04-18T15:35:38.916Z</time></trkpt><trkpt lat="40.642835" lon="16.5049533"><ele>218.0</ele><time>2026-04-18T15:35:39.916Z</time></trkpt><trkpt lat="40.6427633" lon="16.5049233"><ele>218.0</ele><time>2026-04-18T15:35:40.917Z</time></trkpt><trkpt lat="40.6426867" lon="16.5048983"><ele>218.00000000000003</ele><time>2026-04-18T15:35:41.916Z</time></trkpt><trkpt lat="40.64261" lon="16.5048783"><ele>218.0</ele><time>2026-04-18T15:35:42.917Z</time></trkpt><trkpt lat="40.6425367" lon="16.50486"><ele>216.66666666666669</ele><time>2026-04-18T15:35:43.917Z</time></trkpt><trkpt lat="40.64246" lon="16.5048467"><ele>215.33333333333334</ele><time>2026-04-18T15:35:44.917Z</time></trkpt><trkpt lat="40.642385" lon="16.5048317"><ele>214.0</ele><time>2026-04-18T15:35:45.916Z</time></trkpt><trkpt lat="40.6423083" lon="16.504805"><ele>212.66666666666669</ele><time>2026-04-18T15:35:46.917Z</time></trkpt><trkpt lat="40.6422333" lon="16.5047667"><ele>211.33333333333334</ele><time>2026-04-18T15:35:47.916Z</time></trkpt><trkpt lat="40.6421617" lon="16.504715"><ele>210.0</ele><time>2026-04-18T15:35:48.917Z</time></trkpt><trkpt lat="40.6420933" lon="16.504655"><ele>210.0</ele><time>2026-04-18T15:35:49.916Z</time></trkpt><trkpt lat="40.6420202" lon="16.504584"><ele>210.0</ele><time>2026-04-18T15:35:50.916Z</time></trkpt><trkpt lat="40.6419426" lon="16.504504"><ele>210.0</ele><time>2026-04-18T15:35:51.917Z</time></trkpt><trkpt lat="40.641867" lon="16.5044278"><ele>210.0</ele><time>2026-04-18T15:35:52.918Z</time></trkpt><trkpt lat="40.6417936" lon="16.5043609"><ele>210.0</ele><time>2026-04-18T15:35:53.917Z</time></trkpt><trkpt lat="40.6417223" lon="16.5042999"><ele>207.0</ele><time>2026-04-18T15:35:54.916Z</time></trkpt><trkpt lat="40.6416516" lon="16.5042299"><ele>204.0</ele><time>2026-04-18T15:35:55.916Z</time></trkpt><trkpt lat="40.641572" lon="16.5041434"><ele>201.0</ele><time>2026-04-18T15:35:56.916Z</time></trkpt><trkpt lat="40.641482" lon="16.5040486"><ele>198.0</ele><time>2026-04-18T15:35:57.916Z</time></trkpt><trkpt lat="40.6413874" lon="16.5039613"><ele>195.0</ele><time>2026-04-18T15:35:58.916Z</time></trkpt><trkpt lat="40.6412961" lon="16.5038817"><ele>195.0</ele><time>2026-04-18T15:35:59.916Z</time></trkpt><trkpt lat="40.6412051" lon="16.5038087"><ele>195.0</ele><time>2026-04-18T15:36:00.917Z</time></trkpt><trkpt lat="40.6411178" lon="16.5037344"><ele>195.0</ele><time>2026-04-18T15:36:01.916Z</time></trkpt><trkpt lat="40.6410375" lon="16.5036643"><ele>195.0</ele><time>2026-04-18T15:36:02.917Z</time></trkpt><trkpt lat="40.6409606" lon="16.5036042"><ele>195.0</ele><time>2026-04-18T15:36:03.916Z</time></trkpt><trkpt lat="40.6408808" lon="16.5035522"><ele>193.25</ele><time>2026-04-18T15:36:04.916Z</time></trkpt><trkpt lat="40.6407899" lon="16.5035132"><ele>191.5</ele><time>2026-04-18T15:36:05.916Z</time></trkpt><trkpt lat="40.6406856" lon="16.5034839"><ele>189.75</ele><time>2026-04-18T15:36:06.918Z</time></trkpt><trkpt lat="40.6405585" lon="16.5034613"><ele>188.0</ele><time>2026-04-18T15:36:07.917Z</time></trkpt><trkpt lat="40.6404046" lon="16.503439"><ele>188.0</ele><time>2026-04-18T15:36:08.92Z</time></trkpt><trkpt lat="40.6402397" lon="16.503413"><ele>188.0</ele><time>2026-04-18T15:36:09.916Z</time></trkpt><trkpt lat="40.640085" lon="16.5033847"><ele>188.0</ele><time>2026-04-18T15:36:10.916Z</time></trkpt><trkpt lat="40.6399463" lon="16.5033584"><ele>188.0</ele><time>2026-04-18T15:36:11.916Z</time></trkpt><trkpt lat="40.6398183" lon="16.5033324"><ele>188.0</ele><time>2026-04-18T15:36:12.916Z</time></trkpt><trkpt lat="40.6396988" lon="16.5033076"><ele>188.0</ele><time>2026-04-18T15:36:13.917Z</time></trkpt><trkpt lat="40.6395865" lon="16.5032803"><ele>188.0</ele><time>2026-04-18T15:36:14.916Z</time></trkpt><trkpt lat="40.6394819" lon="16.5032558"><ele>185.8</ele><time>2026-04-18T15:36:15.916Z</time></trkpt><trkpt lat="40.6393767" lon="16.5032299"><ele>183.60000000000002</ele><time>2026-04-18T15:36:16.916Z</time></trkpt><trkpt lat="40.6392684" lon="16.5032068"><ele>181.39999999999998</ele><time>2026-04-18T15:36:17.916Z</time></trkpt><trkpt lat="40.6391641" lon="16.5031878"><ele>179.2</ele><time>2026-04-18T15:36:18.917Z</time></trkpt><trkpt lat="40.6390673" lon="16.5031722"><ele>177.0</ele><time>2026-04-18T15:36:19.917Z</time></trkpt><trkpt lat="40.6389765" lon="16.5031583"><ele>177.0</ele><time>2026-04-18T15:36:20.916Z</time></trkpt><trkpt lat="40.6388979" lon="16.5031414"><ele>177.0</ele><time>2026-04-18T15:36:21.917Z</time></trkpt><trkpt lat="40.6388188" lon="16.5031167"><ele>177.0</ele><time>2026-04-18T15:36:22.918Z</time></trkpt><trkpt lat="40.6387383" lon="16.5030783"><ele>177.0</ele><time>2026-04-18T15:36:23.916Z</time></trkpt><trkpt lat="40.63866" lon="16.5030367"><ele>177.0</ele><time>2026-04-18T15:36:24.916Z</time></trkpt><trkpt lat="40.6385917" lon="16.502995"><ele>177.0</ele><time>2026-04-18T15:36:25.917Z</time></trkpt><trkpt lat="40.6385217" lon="16.50295"><ele>175.66666666666666</ele><time>2026-04-18T15:36:26.916Z</time></trkpt><trkpt lat="40.63846" lon="16.502915"><ele>174.33333333333334</ele><time>2026-04-18T15:36:27.916Z</time></trkpt><trkpt lat="40.6384033" lon="16.5028783"><ele>173.0</ele><time>2026-04-18T15:36:28.915Z</time></trkpt><trkpt lat="40.6383317" lon="16.5028083"><ele>171.66666666666669</ele><time>2026-04-18T15:36:30.915Z</time></trkpt><trkpt lat="40.6383233" lon="16.502725"><ele>170.33333333333334</ele><time>2026-04-18T15:36:32.916Z</time></trkpt><trkpt lat="40.6383767" lon="16.5026233"><ele>169.0</ele><time>2026-04-18T15:36:34.917Z</time></trkpt><trkpt lat="40.6384567" lon="16.502545"><ele>168.39999999999998</ele><time>2026-04-18T15:36:36.917Z</time></trkpt><trkpt lat="40.6384667" lon="16.5024517"><ele>167.8</ele><time>2026-04-18T15:36:38.916Z</time></trkpt><trkpt lat="40.6383967" lon="16.5023767"><ele>167.2</ele><time>2026-04-18T15:36:40.915Z</time></trkpt><trkpt lat="40.6382783" lon="16.5023467"><ele>166.60000000000002</ele><time>2026-04-18T15:36:42.916Z</time></trkpt><trkpt lat="40.6381717" lon="16.5023217"><ele>166.0</ele><time>2026-04-18T15:36:44.916Z</time></trkpt><trkpt lat="40.638095" lon="16.5023017"><ele>166.0</ele><time>2026-04-18T15:37:13.917Z</time></trkpt><trkpt lat="40.637995" lon="16.5022433"><ele>166.0</ele><time>2026-04-18T15:37:15.916Z</time></trkpt><trkpt lat="40.6379283" lon="16.5022067"><ele>166.0</ele><time>2026-04-18T15:37:16.917Z</time></trkpt><trkpt lat="40.6378583" lon="16.5021667"><ele>166.0</ele><time>2026-04-18T15:37:17.916Z</time></trkpt><trkpt lat="40.6377833" lon="16.5021283"><ele>166.0</ele><time>2026-04-18T15:37:18.918Z</time></trkpt><trkpt lat="40.6377083" lon="16.5020883"><ele>166.0</ele><time>2026-04-18T15:37:19.918Z</time></trkpt><trkpt lat="40.6376367" lon="16.50205"><ele>163.7142857142857</ele><time>2026-04-18T15:37:20.918Z</time></trkpt><trkpt lat="40.6375683" lon="16.502015"><ele>161.42857142857144</ele><time>2026-04-18T15:37:21.917Z</time></trkpt><trkpt lat="40.637505" lon="16.5019833"><ele>159.14285714285714</ele><time>2026-04-18T15:37:22.918Z</time></trkpt><trkpt lat="40.6374433" lon="16.5019483"><ele>156.85714285714283</ele><time>2026-04-18T15:37:23.916Z</time></trkpt><trkpt lat="40.6373817" lon="16.5019133"><ele>154.57142857142856</ele><time>2026-04-18T15:37:24.916Z</time></trkpt><trkpt lat="40.637315" lon="16.501885"><ele>152.28571428571428</ele><time>2026-04-18T15:37:25.917Z</time></trkpt><trkpt lat="40.63724" lon="16.50186"><ele>150.0</ele><time>2026-04-18T15:37:26.917Z</time></trkpt><trkpt lat="40.637165" lon="16.5018417"><ele>150.0</ele><time>2026-04-18T15:37:27.916Z</time></trkpt><trkpt lat="40.6370883" lon="16.5018317"><ele>150.0</ele><time>2026-04-18T15:37:28.916Z</time></trkpt><trkpt lat="40.637015" lon="16.5018183"><ele>150.0</ele><time>2026-04-18T15:37:29.918Z</time></trkpt><trkpt lat="40.6369433" lon="16.501805"><ele>150.0</ele><time>2026-04-18T15:37:30.917Z</time></trkpt><trkpt lat="40.63688" lon="16.5017917"><ele>150.0</ele><time>2026-04-18T15:37:31.916Z</time></trkpt><trkpt lat="40.63679" lon="16.5017633"><ele>150.0</ele><time>2026-04-18T15:37:33.917Z</time></trkpt><trkpt lat="40.636715" lon="16.5017317"><ele>149.16666666666666</ele><time>2026-04-18T15:37:35.916Z</time></trkpt><trkpt lat="40.6366233" lon="16.5016817"><ele>148.33333333333334</ele><time>2026-04-18T15:37:37.917Z</time></trkpt><trkpt lat="40.6365567" lon="16.5016567"><ele>147.5</ele><time>2026-04-18T15:37:38.917Z</time></trkpt><trkpt lat="40.6364817" lon="16.5016433"><ele>146.66666666666669</ele><time>2026-04-18T15:37:39.916Z</time></trkpt><trkpt lat="40.6364083" lon="16.5016367"><ele>145.83333333333334</ele><time>2026-04-18T15:37:40.915Z</time></trkpt><trkpt lat="40.6363167" lon="16.50164"><ele>145.0</ele><time>2026-04-18T15:37:42.915Z</time></trkpt><trkpt lat="40.6362483" lon="16.5016433"><ele>145.33333333333334</ele><time>2026-04-18T15:37:52.916Z</time></trkpt><trkpt lat="40.636125" lon="16.5016383"><ele>145.66666666666669</ele><time>2026-04-18T15:37:54.916Z</time></trkpt><trkpt lat="40.636045" lon="16.50163"><ele>146.0</ele><time>2026-04-18T15:37:55.917Z</time></trkpt><trkpt lat="40.6359733" lon="16.5016167"><ele>146.33333333333334</ele><time>2026-04-18T15:37:56.916Z</time></trkpt><trkpt lat="40.6359067" lon="16.5016083"><ele>146.66666666666666</ele><time>2026-04-18T15:37:57.917Z</time></trkpt><trkpt lat="40.63584" lon="16.5016033"><ele>147.0</ele><time>2026-04-18T15:37:58.917Z</time></trkpt><trkpt lat="40.635765" lon="16.5015967"><ele>147.0</ele><time>2026-04-18T15:37:59.915Z</time></trkpt><trkpt lat="40.6356783" lon="16.5015883"><ele>147.0</ele><time>2026-04-18T15:38:00.917Z</time></trkpt><trkpt lat="40.6355783" lon="16.5015733"><ele>147.0</ele><time>2026-04-18T15:38:01.916Z</time></trkpt><trkpt lat="40.6354767" lon="16.50155"><ele>147.0</ele><time>2026-04-18T15:38:02.916Z</time></trkpt><trkpt lat="40.6353767" lon="16.5015183"><ele>147.0</ele><time>2026-04-18T15:38:03.915Z</time></trkpt><trkpt lat="40.6352783" lon="16.5014883"><ele>146.0</ele><time>2026-04-18T15:38:04.917Z</time></trkpt><trkpt lat="40.63517" lon="16.501445"><ele>145.0</ele><time>2026-04-18T15:38:05.917Z</time></trkpt><trkpt lat="40.6350667" lon="16.5014"><ele>144.0</ele><time>2026-04-18T15:38:06.916Z</time></trkpt><trkpt lat="40.63496" lon="16.501345"><ele>143.0</ele><time>2026-04-18T15:38:07.917Z</time></trkpt><trkpt lat="40.634855" lon="16.5012783"><ele>143.0</ele><time>2026-04-18T15:38:08.916Z</time></trkpt><trkpt lat="40.634755" lon="16.5012117"><ele>143.0</ele><time>2026-04-18T15:38:09.917Z</time></trkpt><trkpt lat="40.634665" lon="16.5011283"><ele>143.0</ele><time>2026-04-18T15:38:10.916Z</time></trkpt><trkpt lat="40.63458" lon="16.5010417"><ele>143.0</ele><time>2026-04-18T15:38:11.916Z</time></trkpt><trkpt lat="40.6344933" lon="16.5009467"><ele>143.0</ele><time>2026-04-18T15:38:12.916Z</time></trkpt><trkpt lat="40.634405" lon="16.50086"><ele>142.4</ele><time>2026-04-18T15:38:13.917Z</time></trkpt><trkpt lat="40.63432" lon="16.50077"><ele>141.8</ele><time>2026-04-18T15:38:14.916Z</time></trkpt><trkpt lat="40.6342433" lon="16.5006817"><ele>141.2</ele><time>2026-04-18T15:38:15.917Z</time></trkpt><trkpt lat="40.63417" lon="16.500605"><ele>140.6</ele><time>2026-04-18T15:38:16.918Z</time></trkpt><trkpt lat="40.634095" lon="16.5005317"><ele>140.0</ele><time>2026-04-18T15:38:17.917Z</time></trkpt><trkpt lat="40.634025" lon="16.5004683"><ele>139.83333333333331</ele><time>2026-04-18T15:38:18.916Z</time></trkpt><trkpt lat="40.6339583" lon="16.50041"><ele>139.66666666666666</ele><time>2026-04-18T15:38:19.916Z</time></trkpt><trkpt lat="40.63389" lon="16.5003533"><ele>139.5</ele><time>2026-04-18T15:38:20.916Z</time></trkpt><trkpt lat="40.633825" lon="16.5002983"><ele>139.33333333333334</ele><time>2026-04-18T15:38:21.916Z</time></trkpt><trkpt lat="40.6337617" lon="16.5002433"><ele>139.16666666666669</ele><time>2026-04-18T15:38:22.916Z</time></trkpt><trkpt lat="40.633705" lon="16.5001933"><ele>139.0</ele><time>2026-04-18T15:38:23.917Z</time></trkpt><trkpt lat="40.6336283" lon="16.5000683"><ele>139.25</ele><time>2026-04-18T15:38:25.919Z</time></trkpt><trkpt lat="40.6336033" lon="16.4998883"><ele>139.5</ele><time>2026-04-18T15:38:27.916Z</time></trkpt><trkpt lat="40.6336067" lon="16.4997483"><ele>139.75</ele><time>2026-04-18T15:38:28.916Z</time></trkpt><trkpt lat="40.63362" lon="16.4995717"><ele>140.0</ele><time>2026-04-18T15:38:29.917Z</time></trkpt><trkpt lat="40.6336267" lon="16.49937"><ele>140.0</ele><time>2026-04-18T15:38:30.915Z</time></trkpt><trkpt lat="40.6336283" lon="16.49917"><ele>140.0</ele><time>2026-04-18T15:38:31.92Z</time></trkpt><trkpt lat="40.6336267" lon="16.4989917"><ele>140.0</ele><time>2026-04-18T15:38:32.916Z</time></trkpt><trkpt lat="40.6336233" lon="16.4988283"><ele>140.0</ele><time>2026-04-18T15:38:33.917Z</time></trkpt><trkpt lat="40.63361" lon="16.4986717"><ele>140.0</ele><time>2026-04-18T15:38:34.916Z</time></trkpt><trkpt lat="40.6335967" lon="16.49853"><ele>140.0</ele><time>2026-04-18T15:38:35.916Z</time></trkpt><trkpt lat="40.6335933" lon="16.4983983"><ele>140.0</ele><time>2026-04-18T15:38:36.917Z</time></trkpt><trkpt lat="40.633595" lon="16.49829"><ele>140.0</ele><time>2026-04-18T15:38:37.917Z</time></trkpt><trkpt lat="40.6336083" lon="16.4981883"><ele>140.0</ele><time>2026-04-18T15:38:39.916Z</time></trkpt><trkpt lat="40.6336483" lon="16.4980533"><ele>139.16666666666666</ele><time>2026-04-18T15:38:50.916Z</time></trkpt><trkpt lat="40.63367" lon="16.497885"><ele>138.33333333333331</ele><time>2026-04-18T15:38:52.916Z</time></trkpt><trkpt lat="40.6336717" lon="16.49779"><ele>137.5</ele><time>2026-04-18T15:38:53.916Z</time></trkpt><trkpt lat="40.6336767" lon="16.4976883"><ele>136.66666666666666</ele><time>2026-04-18T15:38:54.917Z</time></trkpt><trkpt lat="40.6336933" lon="16.4975817"><ele>135.83333333333334</ele><time>2026-04-18T15:38:55.917Z</time></trkpt><trkpt lat="40.63372" lon="16.4974733"><ele>135.0</ele><time>2026-04-18T15:38:56.916Z</time></trkpt><trkpt lat="40.6337583" lon="16.4973717"><ele>135.0</ele><time>2026-04-18T15:38:57.916Z</time></trkpt><trkpt lat="40.63379" lon="16.4972767"><ele>135.0</ele><time>2026-04-18T15:38:58.917Z</time></trkpt><trkpt lat="40.633815" lon="16.4971817"><ele>135.0</ele><time>2026-04-18T15:38:59.917Z</time></trkpt><trkpt lat="40.6338217" lon="16.497085"><ele>135.0</ele><time>2026-04-18T15:39:00.917Z</time></trkpt><trkpt lat="40.633815" lon="16.496995"><ele>135.0</ele><time>2026-04-18T15:39:01.919Z</time></trkpt><trkpt lat="40.633805" lon="16.4969117"><ele>135.0</ele><time>2026-04-18T15:39:02.917Z</time></trkpt><trkpt lat="40.6338017" lon="16.4968233"><ele>135.0</ele><time>2026-04-18T15:39:03.916Z</time></trkpt><trkpt lat="40.633815" lon="16.4967367"><ele>134.83333333333334</ele><time>2026-04-18T15:39:04.918Z</time></trkpt><trkpt lat="40.633835" lon="16.4966267"><ele>134.66666666666666</ele><time>2026-04-18T15:39:05.918Z</time></trkpt><trkpt lat="40.6338633" lon="16.4965133"><ele>134.5</ele><time>2026-04-18T15:39:06.918Z</time></trkpt><trkpt lat="40.6338967" lon="16.496395"><ele>134.33333333333331</ele><time>2026-04-18T15:39:07.917Z</time></trkpt><trkpt lat="40.63393" lon="16.4962983"><ele>134.16666666666666</ele><time>2026-04-18T15:39:08.916Z</time></trkpt><trkpt lat="40.6339633" lon="16.4962083"><ele>134.0</ele><time>2026-04-18T15:39:09.917Z</time></trkpt><trkpt lat="40.634" lon="16.4961217"><ele>134.0</ele><time>2026-04-18T15:39:10.917Z</time></trkpt><trkpt lat="40.6341233" lon="16.4960833"><ele>134.0</ele><time>2026-04-18T15:39:12.918Z</time></trkpt><trkpt lat="40.6342167" lon="16.4961267"><ele>134.0</ele><time>2026-04-18T15:39:13.918Z</time></trkpt><trkpt lat="40.6343067" lon="16.4961817"><ele>134.0</ele><time>2026-04-18T15:39:14.918Z</time></trkpt><trkpt lat="40.6343883" lon="16.496245"><ele>134.0</ele><time>2026-04-18T15:39:15.917Z</time></trkpt><trkpt lat="40.6344617" lon="16.4963"><ele>134.28571428571428</ele><time>2026-04-18T15:39:16.918Z</time></trkpt><trkpt lat="40.6345283" lon="16.4963317"><ele>134.57142857142856</ele><time>2026-04-18T15:39:17.919Z</time></trkpt><trkpt lat="40.634595" lon="16.4963383"><ele>134.85714285714283</ele><time>2026-04-18T15:39:18.918Z</time></trkpt><trkpt lat="40.6346583" lon="16.4963317"><ele>135.14285714285714</ele><time>2026-04-18T15:39:19.918Z</time></trkpt><trkpt lat="40.63471" lon="16.496275"><ele>135.42857142857142</ele><time>2026-04-18T15:39:20.918Z</time></trkpt><trkpt lat="40.6347583" lon="16.496205"><ele>135.7142857142857</ele><time>2026-04-18T15:39:21.918Z</time></trkpt><trkpt lat="40.6347967" lon="16.49611"><ele>136.0</ele><time>2026-04-18T15:39:22.919Z</time></trkpt><trkpt lat="40.63482" lon="16.4959817"><ele>138.25</ele><time>2026-04-18T15:39:23.918Z</time></trkpt><trkpt lat="40.6348217" lon="16.4958133"><ele>140.5</ele><time>2026-04-18T15:39:24.916Z</time></trkpt><trkpt lat="40.6348167" lon="16.4956567"><ele>142.75</ele><time>2026-04-18T15:39:25.918Z</time></trkpt><trkpt lat="40.6348117" lon="16.4955133"><ele>145.0</ele><time>2026-04-18T15:39:26.918Z</time></trkpt><trkpt lat="40.6348017" lon="16.4953867"><ele>146.5</ele><time>2026-04-18T15:39:27.917Z</time></trkpt><trkpt lat="40.6347883" lon="16.4952567"><ele>148.0</ele><time>2026-04-18T15:39:28.918Z</time></trkpt><trkpt lat="40.6347683" lon="16.4951333"><ele>149.5</ele><time>2026-04-18T15:39:29.917Z</time></trkpt><trkpt lat="40.6347417" lon="16.49502"><ele>151.0</ele><time>2026-04-18T15:39:30.917Z</time></trkpt><trkpt lat="40.6347283" lon="16.4949217"><ele>152.5</ele><time>2026-04-18T15:39:31.917Z</time></trkpt><trkpt lat="40.6347217" lon="16.4948267"><ele>154.0</ele><time>2026-04-18T15:39:32.917Z</time></trkpt><trkpt lat="40.6347217" lon="16.49474"><ele>154.0</ele><time>2026-04-18T15:39:33.917Z</time></trkpt><trkpt lat="40.6347167" lon="16.4946517"><ele>154.0</ele><time>2026-04-18T15:39:34.916Z</time></trkpt><trkpt lat="40.634695" lon="16.4945683"><ele>154.0</ele><time>2026-04-18T15:39:35.916Z</time></trkpt><trkpt lat="40.6346633" lon="16.49449"><ele>154.0</ele><time>2026-04-18T15:39:36.917Z</time></trkpt><trkpt lat="40.6346217" lon="16.4944233"><ele>154.0</ele><time>2026-04-18T15:39:37.917Z</time></trkpt><trkpt lat="40.6345883" lon="16.494345"><ele>154.0</ele><time>2026-04-18T15:39:38.916Z</time></trkpt><trkpt lat="40.634555" lon="16.4942633"><ele>154.0</ele><time>2026-04-18T15:39:39.917Z</time></trkpt><trkpt lat="40.634535" lon="16.4941683"><ele>155.83333333333334</ele><time>2026-04-18T15:39:40.918Z</time></trkpt><trkpt lat="40.6345217" lon="16.49407"><ele>157.66666666666669</ele><time>2026-04-18T15:39:41.917Z</time></trkpt><trkpt lat="40.6345117" lon="16.4939817"><ele>159.5</ele><time>2026-04-18T15:39:42.918Z</time></trkpt><trkpt lat="40.634545" lon="16.4938667"><ele>161.33333333333334</ele><time>2026-04-18T15:39:44.917Z</time></trkpt><trkpt lat="40.6346117" lon="16.4938567"><ele>163.16666666666666</ele><time>2026-04-18T15:39:46.917Z</time></trkpt><trkpt lat="40.6346983" lon="16.493945"><ele>165.0</ele><time>2026-04-18T15:39:48.916Z</time></trkpt><trkpt lat="40.634805" lon="16.49405"><ele>165.0</ele><time>2026-04-18T15:39:50.917Z</time></trkpt><trkpt lat="40.63487" lon="16.4941167"><ele>165.0</ele><time>2026-04-18T15:39:51.917Z</time></trkpt><trkpt lat="40.6349383" lon="16.4941817"><ele>165.0</ele><time>2026-04-18T15:39:52.936Z</time></trkpt><trkpt lat="40.635" lon="16.4942533"><ele>165.0</ele><time>2026-04-18T15:39:53.917Z</time></trkpt><trkpt lat="40.6350483" lon="16.4943233"><ele>165.0</ele><time>2026-04-18T15:39:54.918Z</time></trkpt><trkpt lat="40.6350917" lon="16.4944033"><ele>165.0</ele><time>2026-04-18T15:39:55.92Z</time></trkpt><trkpt lat="40.6351433" lon="16.4944733"><ele>165.0</ele><time>2026-04-18T15:39:56.918Z</time></trkpt><trkpt lat="40.635205" lon="16.4945267"><ele>165.0</ele><time>2026-04-18T15:39:57.918Z</time></trkpt><trkpt lat="40.6352683" lon="16.4945567"><ele>165.0</ele><time>2026-04-18T15:39:58.916Z</time></trkpt><trkpt lat="40.6353633" lon="16.49456"><ele>165.0</ele><time>2026-04-18T15:40:00.916Z</time></trkpt><trkpt lat="40.6354333" lon="16.4945417"><ele>165.0</ele><time>2026-04-18T15:40:02.917Z</time></trkpt><trkpt lat="40.635355" lon="16.4945683"><ele>165.0</ele><time>2026-04-18T15:40:38.918Z</time></trkpt><trkpt lat="40.6352833" lon="16.4945567"><ele>165.0</ele><time>2026-04-18T15:40:40.915Z</time></trkpt><trkpt lat="40.6352183" lon="16.4945217"><ele>165.0</ele><time>2026-04-18T15:40:42.917Z</time></trkpt><trkpt lat="40.63516" lon="16.4944767"><ele>165.0</ele><time>2026-04-18T15:40:44.917Z</time></trkpt><trkpt lat="40.6351083" lon="16.4943967"><ele>165.0</ele><time>2026-04-18T15:40:47.915Z</time></trkpt><trkpt lat="40.63506" lon="16.49432"><ele>165.0</ele><time>2026-04-18T15:40:50.916Z</time></trkpt><trkpt lat="40.635005" lon="16.494255"><ele>165.0</ele><time>2026-04-18T15:40:52.921Z</time></trkpt><trkpt lat="40.6349283" lon="16.4941933"><ele>165.0</ele><time>2026-04-18T15:40:54.919Z</time></trkpt><trkpt lat="40.63485" lon="16.4941233"><ele>165.0</ele><time>2026-04-18T15:40:56.917Z</time></trkpt><trkpt lat="40.6347833" lon="16.49406"><ele>165.0</ele><time>2026-04-18T15:40:58.917Z</time></trkpt><trkpt lat="40.6347117" lon="16.4939967"><ele>165.0</ele><time>2026-04-18T15:41:00.916Z</time></trkpt><trkpt lat="40.6346583" lon="16.4939417"><ele>165.0</ele><time>2026-04-18T15:41:02.916Z</time></trkpt><trkpt lat="40.6346033" lon="16.4938817"><ele>165.0</ele><time>2026-04-18T15:41:04.916Z</time></trkpt><trkpt lat="40.63452" lon="16.4939083"><ele>165.0</ele><time>2026-04-18T15:41:38.915Z</time></trkpt><trkpt lat="40.6345083" lon="16.4939917"><ele>165.0</ele><time>2026-04-18T15:41:40.917Z</time></trkpt><trkpt lat="40.6345117" lon="16.4940983"><ele>165.0</ele><time>2026-04-18T15:41:42.915Z</time></trkpt><trkpt lat="40.6345217" lon="16.4942467"><ele>165.0</ele><time>2026-04-18T15:41:44.915Z</time></trkpt><trkpt lat="40.6345467" lon="16.49434"><ele>165.0</ele><time>2026-04-18T15:41:45.916Z</time></trkpt><trkpt lat="40.6345817" lon="16.4944267"><ele>165.0</ele><time>2026-04-18T15:41:46.918Z</time></trkpt><trkpt lat="40.6346233" lon="16.4944983"><ele>165.0</ele><time>2026-04-18T15:41:47.916Z</time></trkpt><trkpt lat="40.6346633" lon="16.4945683"><ele>165.0</ele><time>2026-04-18T15:41:48.916Z</time></trkpt><trkpt lat="40.6347183" lon="16.4947183"><ele>165.0</ele><time>2026-04-18T15:41:50.916Z</time></trkpt><trkpt lat="40.634735" lon="16.4948167"><ele>165.0</ele><time>2026-04-18T15:41:51.919Z</time></trkpt><trkpt lat="40.6347433" lon="16.49491"><ele>165.0</ele><time>2026-04-18T15:41:52.919Z</time></trkpt><trkpt lat="40.6347467" lon="16.494995"><ele>165.0</ele><time>2026-04-18T15:41:53.919Z</time></trkpt><trkpt lat="40.6347617" lon="16.4950783"><ele>163.42857142857144</ele><time>2026-04-18T15:41:54.917Z</time></trkpt><trkpt lat="40.6347733" lon="16.4952333"><ele>161.85714285714286</ele><time>2026-04-18T15:41:56.916Z</time></trkpt><trkpt lat="40.634775" lon="16.49532"><ele>160.28571428571428</ele><time>2026-04-18T15:41:57.916Z</time></trkpt><trkpt lat="40.6347733" lon="16.4954067"><ele>158.71428571428572</ele><time>2026-04-18T15:41:58.917Z</time></trkpt><trkpt lat="40.6347633" lon="16.4954933"><ele>157.14285714285714</ele><time>2026-04-18T15:41:59.916Z</time></trkpt><trkpt lat="40.6347633" lon="16.4955817"><ele>155.57142857142858</ele><time>2026-04-18T15:42:00.916Z</time></trkpt><trkpt lat="40.6347567" lon="16.495665"><ele>154.0</ele><time>2026-04-18T15:42:01.917Z</time></trkpt><trkpt lat="40.6347583" lon="16.4957533"><ele>152.5</ele><time>2026-04-18T15:42:02.917Z</time></trkpt><trkpt lat="40.63475" lon="16.4958483"><ele>151.0</ele><time>2026-04-18T15:42:03.917Z</time></trkpt><trkpt lat="40.6347467" lon="16.4959417"><ele>149.5</ele><time>2026-04-18T15:42:04.917Z</time></trkpt><trkpt lat="40.6347333" lon="16.4960283"><ele>148.0</ele><time>2026-04-18T15:42:05.917Z</time></trkpt><trkpt lat="40.6347183" lon="16.4961167"><ele>146.5</ele><time>2026-04-18T15:42:06.916Z</time></trkpt><trkpt lat="40.6346833" lon="16.49625"><ele>145.0</ele><time>2026-04-18T15:42:08.917Z</time></trkpt><trkpt lat="40.6345983" lon="16.496345"><ele>143.5</ele><time>2026-04-18T15:42:10.917Z</time></trkpt><trkpt lat="40.6344917" lon="16.4963717"><ele>142.0</ele><time>2026-04-18T15:42:12.918Z</time></trkpt><trkpt lat="40.6344" lon="16.4963117"><ele>140.5</ele><time>2026-04-18T15:42:14.916Z</time></trkpt><trkpt lat="40.6343483" lon="16.4962617"><ele>139.0</ele><time>2026-04-18T15:42:15.916Z</time></trkpt><trkpt lat="40.6342933" lon="16.49621"><ele>137.5</ele><time>2026-04-18T15:42:16.917Z</time></trkpt><trkpt lat="40.634235" lon="16.4961683"><ele>136.0</ele><time>2026-04-18T15:42:17.917Z</time></trkpt><trkpt lat="40.63413" lon="16.49612"><ele>135.6</ele><time>2026-04-18T15:42:19.917Z</time></trkpt><trkpt lat="40.63403" lon="16.496135"><ele>135.2</ele><time>2026-04-18T15:42:21.916Z</time></trkpt><trkpt lat="40.6339417" lon="16.4962267"><ele>134.8</ele><time>2026-04-18T15:42:23.918Z</time></trkpt><trkpt lat="40.63389" lon="16.49635"><ele>134.4</ele><time>2026-04-18T15:42:25.917Z</time></trkpt><trkpt lat="40.6338467" lon="16.496485"><ele>134.0</ele><time>2026-04-18T15:42:27.915Z</time></trkpt><trkpt lat="40.6338017" lon="16.49664"><ele>134.16666666666666</ele><time>2026-04-18T15:42:29.917Z</time></trkpt><trkpt lat="40.6337783" lon="16.4967867"><ele>134.33333333333331</ele><time>2026-04-18T15:42:31.917Z</time></trkpt><trkpt lat="40.6337733" lon="16.49688"><ele>134.5</ele><time>2026-04-18T15:42:32.917Z</time></trkpt><trkpt lat="40.6337783" lon="16.4969867"><ele>134.66666666666666</ele><time>2026-04-18T15:42:33.917Z</time></trkpt><trkpt lat="40.6337833" lon="16.497095"><ele>134.83333333333334</ele><time>2026-04-18T15:42:34.917Z</time></trkpt><trkpt lat="40.6337817" lon="16.4971833"><ele>135.0</ele><time>2026-04-18T15:42:35.916Z</time></trkpt><trkpt lat="40.63375" lon="16.4973233"><ele>135.0</ele><time>2026-04-18T15:42:37.917Z</time></trkpt><trkpt lat="40.6337183" lon="16.497395"><ele>135.0</ele><time>2026-04-18T15:42:38.917Z</time></trkpt><trkpt lat="40.6336867" lon="16.49748"><ele>135.0</ele><time>2026-04-18T15:42:39.917Z</time></trkpt><trkpt lat="40.6336567" lon="16.49758"><ele>135.0</ele><time>2026-04-18T15:42:40.918Z</time></trkpt><trkpt lat="40.6336467" lon="16.49771"><ele>135.0</ele><time>2026-04-18T15:42:41.917Z</time></trkpt><trkpt lat="40.633635" lon="16.4978233"><ele>135.0</ele><time>2026-04-18T15:42:42.917Z</time></trkpt><trkpt lat="40.6336267" lon="16.4979317"><ele>136.0</ele><time>2026-04-18T15:42:43.917Z</time></trkpt><trkpt lat="40.6336083" lon="16.4980567"><ele>137.0</ele><time>2026-04-18T15:42:45.916Z</time></trkpt><trkpt lat="40.63356" lon="16.498"><ele>138.0</ele><time>2026-04-18T15:42:49.917Z</time></trkpt><trkpt lat="40.633555" lon="16.4978417"><ele>139.0</ele><time>2026-04-18T15:42:51.916Z</time></trkpt><trkpt lat="40.633545" lon="16.4977317"><ele>140.0</ele><time>2026-04-18T15:42:52.917Z</time></trkpt><trkpt lat="40.6335283" lon="16.49762"><ele>140.2</ele><time>2026-04-18T15:42:53.917Z</time></trkpt><trkpt lat="40.6335117" lon="16.497505"><ele>140.4</ele><time>2026-04-18T15:42:54.916Z</time></trkpt><trkpt lat="40.6334933" lon="16.49738"><ele>140.6</ele><time>2026-04-18T15:42:55.916Z</time></trkpt><trkpt lat="40.6334783" lon="16.4972367"><ele>140.8</ele><time>2026-04-18T15:42:56.916Z</time></trkpt><trkpt lat="40.63347" lon="16.4970883"><ele>141.0</ele><time>2026-04-18T15:42:57.916Z</time></trkpt><trkpt lat="40.6334667" lon="16.4969467"><ele>140.2</ele><time>2026-04-18T15:42:58.917Z</time></trkpt><trkpt lat="40.6334567" lon="16.4968083"><ele>139.39999999999998</ele><time>2026-04-18T15:42:59.916Z</time></trkpt><trkpt lat="40.6334483" lon="16.496675"><ele>138.6</ele><time>2026-04-18T15:43:00.917Z</time></trkpt><trkpt lat="40.6334367" lon="16.4965617"><ele>137.79999999999998</ele><time>2026-04-18T15:43:01.917Z</time></trkpt><trkpt lat="40.6334233" lon="16.4964783"><ele>137.0</ele><time>2026-04-18T15:43:02.917Z</time></trkpt><trkpt lat="40.6333783" lon="16.496355"><ele>137.0</ele><time>2026-04-18T15:43:04.917Z</time></trkpt><trkpt lat="40.6333167" lon="16.4962683"><ele>137.0</ele><time>2026-04-18T15:43:06.917Z</time></trkpt><trkpt lat="40.6332533" lon="16.4962"><ele>137.0</ele><time>2026-04-18T15:43:09.917Z</time></trkpt><trkpt lat="40.6332117" lon="16.4961117"><ele>137.0</ele><time>2026-04-18T15:43:35.916Z</time></trkpt><trkpt lat="40.63322" lon="16.4960267"><ele>137.0</ele><time>2026-04-18T15:43:40.917Z</time></trkpt><trkpt lat="40.6332517" lon="16.4959317"><ele>137.0</ele><time>2026-04-18T15:43:42.917Z</time></trkpt><trkpt lat="40.6333033" lon="16.495845"><ele>136.4</ele><time>2026-04-18T15:43:44.916Z</time></trkpt><trkpt lat="40.6333567" lon="16.4957283"><ele>135.79999999999998</ele><time>2026-04-18T15:43:46.917Z</time></trkpt><trkpt lat="40.633385" lon="16.495595"><ele>135.2</ele><time>2026-04-18T15:43:48.917Z</time></trkpt><trkpt lat="40.6333867" lon="16.4954517"><ele>134.6</ele><time>2026-04-18T15:43:50.917Z</time></trkpt><trkpt lat="40.6333833" lon="16.495365"><ele>134.0</ele><time>2026-04-18T15:43:51.918Z</time></trkpt><trkpt lat="40.63337" lon="16.495265"><ele>133.4</ele><time>2026-04-18T15:43:52.918Z</time></trkpt><trkpt lat="40.6333433" lon="16.495145"><ele>132.8</ele><time>2026-04-18T15:43:53.917Z</time></trkpt><trkpt lat="40.6333067" lon="16.4950233"><ele>132.2</ele><time>2026-04-18T15:43:54.917Z</time></trkpt><trkpt lat="40.6332617" lon="16.494905"><ele>131.6</ele><time>2026-04-18T15:43:55.917Z</time></trkpt><trkpt lat="40.63321" lon="16.4947967"><ele>131.0</ele><time>2026-04-18T15:43:56.917Z</time></trkpt><trkpt lat="40.6331567" lon="16.4946983"><ele>131.0</ele><time>2026-04-18T15:43:57.917Z</time></trkpt><trkpt lat="40.633105" lon="16.494615"><ele>131.0</ele><time>2026-04-18T15:43:58.917Z</time></trkpt><trkpt lat="40.633055" lon="16.4945383"><ele>131.0</ele><time>2026-04-18T15:43:59.916Z</time></trkpt><trkpt lat="40.633005" lon="16.4944183"><ele>131.0</ele><time>2026-04-18T15:44:01.919Z</time></trkpt><trkpt lat="40.6329533" lon="16.4942833"><ele>131.0</ele><time>2026-04-18T15:44:03.916Z</time></trkpt><trkpt lat="40.6328917" lon="16.4941867"><ele>130.66666666666666</ele><time>2026-04-18T15:44:05.916Z</time></trkpt><trkpt lat="40.63282" lon="16.4941283"><ele>130.33333333333331</ele><time>2026-04-18T15:44:08.917Z</time></trkpt><trkpt lat="40.6327583" lon="16.4940717"><ele>130.0</ele><time>2026-04-18T15:44:11.918Z</time></trkpt><trkpt lat="40.63269" lon="16.494005"><ele>129.66666666666666</ele><time>2026-04-18T15:44:14.918Z</time></trkpt><trkpt lat="40.6326367" lon="16.4939533"><ele>129.33333333333334</ele><time>2026-04-18T15:44:17.919Z</time></trkpt><trkpt lat="40.6327067" lon="16.4939033"><ele>129.0</ele><time>2026-04-18T15:44:43.916Z</time></trkpt><trkpt lat="40.6327767" lon="16.4938583"><ele>128.4</ele><time>2026-04-18T15:44:46.917Z</time></trkpt><trkpt lat="40.63274" lon="16.4937283"><ele>127.80000000000001</ele><time>2026-04-18T15:44:49.917Z</time></trkpt><trkpt lat="40.6327" lon="16.4936083"><ele>127.19999999999999</ele><time>2026-04-18T15:44:51.917Z</time></trkpt><trkpt lat="40.632655" lon="16.4934517"><ele>126.6</ele><time>2026-04-18T15:44:53.916Z</time></trkpt><trkpt lat="40.6326333" lon="16.4933567"><ele>126.0</ele><time>2026-04-18T15:44:54.917Z</time></trkpt><trkpt lat="40.6326167" lon="16.4932483"><ele>126.0</ele><time>2026-04-18T15:44:55.918Z</time></trkpt><trkpt lat="40.6326067" lon="16.4931333"><ele>126.0</ele><time>2026-04-18T15:44:56.916Z</time></trkpt><trkpt lat="40.6326117" lon="16.49303"><ele>126.0</ele><time>2026-04-18T15:44:57.917Z</time></trkpt><trkpt lat="40.6326233" lon="16.492935"><ele>126.0</ele><time>2026-04-18T15:44:58.917Z</time></trkpt><trkpt lat="40.632635" lon="16.4928333"><ele>126.0</ele><time>2026-04-18T15:44:59.917Z</time></trkpt><trkpt lat="40.6326533" lon="16.492705"><ele>126.0</ele><time>2026-04-18T15:45:00.916Z</time></trkpt><trkpt lat="40.6326683" lon="16.4925667"><ele>127.0</ele><time>2026-04-18T15:45:01.917Z</time></trkpt><trkpt lat="40.63268" lon="16.4924333"><ele>128.0</ele><time>2026-04-18T15:45:02.917Z</time></trkpt><trkpt lat="40.6326967" lon="16.49231"><ele>129.0</ele><time>2026-04-18T15:45:03.917Z</time></trkpt><trkpt lat="40.632715" lon="16.492205"><ele>130.0</ele><time>2026-04-18T15:45:04.918Z</time></trkpt><trkpt lat="40.6327383" lon="16.4921217"><ele>131.0</ele><time>2026-04-18T15:45:05.918Z</time></trkpt><trkpt lat="40.6327683" lon="16.492045"><ele>132.0</ele><time>2026-04-18T15:45:06.917Z</time></trkpt><trkpt lat="40.6328033" lon="16.491965"><ele>134.16666666666666</ele><time>2026-04-18T15:45:07.92Z</time></trkpt><trkpt lat="40.632835" lon="16.4918917"><ele>136.33333333333334</ele><time>2026-04-18T15:45:08.917Z</time></trkpt><trkpt lat="40.6328817" lon="16.4918067"><ele>138.5</ele><time>2026-04-18T15:45:10.917Z</time></trkpt><trkpt lat="40.6329333" lon="16.4917333"><ele>140.66666666666669</ele><time>2026-04-18T15:45:13.919Z</time></trkpt><trkpt lat="40.6329783" lon="16.4916717"><ele>142.83333333333334</ele><time>2026-04-18T15:45:16.917Z</time></trkpt><trkpt lat="40.6330433" lon="16.4916017"><ele>145.0</ele><time>2026-04-18T15:45:19.921Z</time></trkpt><trkpt lat="40.6331633" lon="16.4915283"><ele>145.0</ele><time>2026-04-18T15:45:37.916Z</time></trkpt><trkpt lat="40.6332583" lon="16.49148"><ele>145.0</ele><time>2026-04-18T15:45:41.916Z</time></trkpt><trkpt lat="40.6333283" lon="16.49144"><ele>145.0</ele><time>2026-04-18T15:45:43.916Z</time></trkpt><trkpt lat="40.6334017" lon="16.4914133"><ele>145.0</ele><time>2026-04-18T15:45:45.917Z</time></trkpt><trkpt lat="40.6334767" lon="16.491375"><ele>145.0</ele><time>2026-04-18T15:45:47.915Z</time></trkpt><trkpt lat="40.6335617" lon="16.49131"><ele>145.0</ele><time>2026-04-18T15:45:50.917Z</time></trkpt><trkpt lat="40.6336267" lon="16.4912517"><ele>145.33333333333334</ele><time>2026-04-18T15:45:52.917Z</time></trkpt><trkpt lat="40.6336983" lon="16.4912133"><ele>145.66666666666669</ele><time>2026-04-18T15:45:54.916Z</time></trkpt><trkpt lat="40.6337583" lon="16.4911717"><ele>146.0</ele><time>2026-04-18T15:45:57.919Z</time></trkpt><trkpt lat="40.63373" lon="16.4910717"><ele>146.33333333333334</ele><time>2026-04-18T15:50:21.916Z</time></trkpt><trkpt lat="40.633785" lon="16.4909983"><ele>146.66666666666666</ele><time>2026-04-18T15:51:06.916Z</time></trkpt><trkpt lat="40.633865" lon="16.4909817"><ele>147.0</ele><time>2026-04-18T15:51:09.918Z</time></trkpt><trkpt lat="40.6339567" lon="16.4910267"><ele>147.0</ele><time>2026-04-18T15:51:25.917Z</time></trkpt><trkpt lat="40.6340167" lon="16.4909783"><ele>147.0</ele><time>2026-04-18T15:51:28.918Z</time></trkpt><trkpt lat="40.63408" lon="16.490925"><ele>147.0</ele><time>2026-04-18T15:51:31.917Z</time></trkpt><trkpt lat="40.6341467" lon="16.4908783"><ele>147.0</ele><time>2026-04-18T15:51:35.916Z</time></trkpt><trkpt lat="40.6342283" lon="16.490875"><ele>147.0</ele><time>2026-04-18T15:51:46.916Z</time></trkpt><trkpt lat="40.6343117" lon="16.4908683"><ele>147.0</ele><time>2026-04-18T15:51:48.918Z</time></trkpt><trkpt lat="40.6344083" lon="16.4908867"><ele>146.75</ele><time>2026-04-18T15:51:50.917Z</time></trkpt><trkpt lat="40.6345117" lon="16.490925"><ele>146.5</ele><time>2026-04-18T15:51:52.918Z</time></trkpt><trkpt lat="40.6346167" lon="16.4909833"><ele>146.25</ele><time>2026-04-18T15:51:54.918Z</time></trkpt><trkpt lat="40.6347117" lon="16.4910767"><ele>146.0</ele><time>2026-04-18T15:51:56.917Z</time></trkpt><trkpt lat="40.6348117" lon="16.4911467"><ele>146.0</ele><time>2026-04-18T15:51:58.917Z</time></trkpt><trkpt lat="40.63487" lon="16.4911883"><ele>146.0</ele><time>2026-04-18T15:51:59.917Z</time></trkpt><trkpt lat="40.63493" lon="16.4912333"><ele>146.0</ele><time>2026-04-18T15:52:00.917Z</time></trkpt><trkpt lat="40.6349933" lon="16.49128"><ele>146.0</ele><time>2026-04-18T15:52:01.917Z</time></trkpt><trkpt lat="40.6350583" lon="16.4913333"><ele>146.0</ele><time>2026-04-18T15:52:02.916Z</time></trkpt><trkpt lat="40.6351217" lon="16.4913833"><ele>146.0</ele><time>2026-04-18T15:52:03.917Z</time></trkpt><trkpt lat="40.6352267" lon="16.491465"><ele>148.2</ele><time>2026-04-18T15:52:05.916Z</time></trkpt><trkpt lat="40.6353333" lon="16.4915383"><ele>150.39999999999998</ele><time>2026-04-18T15:52:07.917Z</time></trkpt><trkpt lat="40.6353917" lon="16.49157"><ele>152.6</ele><time>2026-04-18T15:52:08.916Z</time></trkpt><trkpt lat="40.6355" lon="16.4916417"><ele>154.79999999999998</ele><time>2026-04-18T15:52:10.916Z</time></trkpt><trkpt lat="40.6355567" lon="16.49168"><ele>157.0</ele><time>2026-04-18T15:52:11.916Z</time></trkpt><trkpt lat="40.6356433" lon="16.4917483"><ele>157.0</ele><time>2026-04-18T15:52:13.917Z</time></trkpt><trkpt lat="40.6357433" lon="16.4918367"><ele>157.0</ele><time>2026-04-18T15:52:47.917Z</time></trkpt><trkpt lat="40.6357917" lon="16.49191"><ele>157.0</ele><time>2026-04-18T15:53:39.917Z</time></trkpt><trkpt lat="40.635855" lon="16.4919067"><ele>157.0</ele><time>2026-04-18T15:53:45.917Z</time></trkpt><trkpt lat="40.635785" lon="16.4918433"><ele>157.0</ele><time>2026-04-18T15:53:50.917Z</time></trkpt><trkpt lat="40.6357233" lon="16.4917967"><ele>157.0</ele><time>2026-04-18T15:53:53.916Z</time></trkpt><trkpt lat="40.6356717" lon="16.4917283"><ele>157.0</ele><time>2026-04-18T15:53:56.917Z</time></trkpt><trkpt lat="40.635605" lon="16.4916783"><ele>157.0</ele><time>2026-04-18T15:53:59.917Z</time></trkpt><trkpt lat="40.6355067" lon="16.49163"><ele>157.0</ele><time>2026-04-18T15:54:19.917Z</time></trkpt><trkpt lat="40.6354483" lon="16.4915867"><ele>157.0</ele><time>2026-04-18T15:54:21.918Z</time></trkpt><trkpt lat="40.6353667" lon="16.4915383"><ele>157.0</ele><time>2026-04-18T15:54:24.917Z</time></trkpt><trkpt lat="40.63528" lon="16.4914833"><ele>157.0</ele><time>2026-04-18T15:54:27.915Z</time></trkpt><trkpt lat="40.6352167" lon="16.4914283"><ele>158.0</ele><time>2026-04-18T15:54:29.917Z</time></trkpt><trkpt lat="40.6351267" lon="16.491365"><ele>159.0</ele><time>2026-04-18T15:54:31.917Z</time></trkpt><trkpt lat="40.6350233" lon="16.4912933"><ele>160.0</ele><time>2026-04-18T15:54:33.917Z</time></trkpt><trkpt lat="40.6349233" lon="16.491225"><ele>161.0</ele><time>2026-04-18T15:54:35.917Z</time></trkpt><trkpt lat="40.6348217" lon="16.49115"><ele>162.0</ele><time>2026-04-18T15:54:37.918Z</time></trkpt><trkpt lat="40.634735" lon="16.491085"><ele>159.85714285714286</ele><time>2026-04-18T15:54:39.917Z</time></trkpt><trkpt lat="40.6346583" lon="16.4910333"><ele>157.71428571428572</ele><time>2026-04-18T15:54:41.917Z</time></trkpt><trkpt lat="40.6345933" lon="16.49099"><ele>155.57142857142856</ele><time>2026-04-18T15:54:43.917Z</time></trkpt><trkpt lat="40.6345333" lon="16.4909533"><ele>153.42857142857144</ele><time>2026-04-18T15:54:45.917Z</time></trkpt><trkpt lat="40.6344733" lon="16.49092"><ele>151.28571428571428</ele><time>2026-04-18T15:54:47.915Z</time></trkpt><trkpt lat="40.6343983" lon="16.4909083"><ele>149.14285714285714</ele><time>2026-04-18T15:54:49.917Z</time></trkpt><trkpt lat="40.6343183" lon="16.4908967"><ele>147.0</ele><time>2026-04-18T15:54:52.917Z</time></trkpt><trkpt lat="40.6342433" lon="16.4908917"><ele>147.0</ele><time>2026-04-18T15:54:55.917Z</time></trkpt><trkpt lat="40.634135" lon="16.4908967"><ele>147.0</ele><time>2026-04-18T15:55:33.917Z</time></trkpt><trkpt lat="40.6340767" lon="16.4909467"><ele>147.0</ele><time>2026-04-18T15:55:35.916Z</time></trkpt><trkpt lat="40.6340133" lon="16.4909967"><ele>147.0</ele><time>2026-04-18T15:55:37.918Z</time></trkpt><trkpt lat="40.633945" lon="16.4910333"><ele>147.0</ele><time>2026-04-18T15:55:40.917Z</time></trkpt><trkpt lat="40.6339267" lon="16.4911317"><ele>147.0</ele><time>2026-04-18T15:55:53.916Z</time></trkpt><trkpt lat="40.6339033" lon="16.4909667"><ele>147.0</ele><time>2026-04-18T15:56:58.916Z</time></trkpt><trkpt lat="40.6337983" lon="16.4910133"><ele>147.0</ele><time>2026-04-18T15:57:06.919Z</time></trkpt><trkpt lat="40.6337583" lon="16.4910833"><ele>147.0</ele><time>2026-04-18T15:57:09.915Z</time></trkpt><trkpt lat="40.63371" lon="16.4911967"><ele>147.0</ele><time>2026-04-18T15:57:59.916Z</time></trkpt><trkpt lat="40.633655" lon="16.4912517"><ele>147.0</ele><time>2026-04-18T15:58:02.915Z</time></trkpt><trkpt lat="40.6336" lon="16.4913067"><ele>147.0</ele><time>2026-04-18T15:58:04.916Z</time></trkpt><trkpt lat="40.6335317" lon="16.4913467"><ele>146.66666666666666</ele><time>2026-04-18T15:58:06.916Z</time></trkpt><trkpt lat="40.6334667" lon="16.4913833"><ele>146.33333333333334</ele><time>2026-04-18T15:58:08.916Z</time></trkpt><trkpt lat="40.6334067" lon="16.4914217"><ele>146.0</ele><time>2026-04-18T15:58:10.916Z</time></trkpt><trkpt lat="40.6333467" lon="16.49145"><ele>145.66666666666669</ele><time>2026-04-18T15:58:12.916Z</time></trkpt><trkpt lat="40.63327" lon="16.4914933"><ele>145.33333333333334</ele><time>2026-04-18T15:58:15.916Z</time></trkpt><trkpt lat="40.63321" lon="16.4915483"><ele>145.0</ele><time>2026-04-18T15:58:18.917Z</time></trkpt><trkpt lat="40.6330667" lon="16.4916383"><ele>145.0</ele><time>2026-04-18T15:58:37.915Z</time></trkpt><trkpt lat="40.633" lon="16.4916983"><ele>145.0</ele><time>2026-04-18T15:58:40.916Z</time></trkpt><trkpt lat="40.6329367" lon="16.4917667"><ele>145.0</ele><time>2026-04-18T15:58:43.917Z</time></trkpt><trkpt lat="40.6328883" lon="16.4918367"><ele>145.0</ele><time>2026-04-18T15:58:45.917Z</time></trkpt><trkpt lat="40.6328467" lon="16.4919217"><ele>145.0</ele><time>2026-04-18T15:58:47.917Z</time></trkpt><trkpt lat="40.6328033" lon="16.4920217"><ele>145.0</ele><time>2026-04-18T15:58:49.918Z</time></trkpt><trkpt lat="40.6327383" lon="16.4921717"><ele>143.14285714285714</ele><time>2026-04-18T15:58:51.918Z</time></trkpt><trkpt lat="40.6327067" lon="16.4922583"><ele>141.2857142857143</ele><time>2026-04-18T15:58:52.917Z</time></trkpt><trkpt lat="40.6326817" lon="16.492345"><ele>139.42857142857144</ele><time>2026-04-18T15:58:53.917Z</time></trkpt><trkpt lat="40.632665" lon="16.492425"><ele>137.57142857142858</ele><time>2026-04-18T15:58:54.918Z</time></trkpt><trkpt lat="40.6326567" lon="16.4925117"><ele>135.71428571428572</ele><time>2026-04-18T15:58:55.918Z</time></trkpt><trkpt lat="40.6326517" lon="16.4926033"><ele>133.85714285714286</ele><time>2026-04-18T15:58:56.918Z</time></trkpt><trkpt lat="40.6326417" lon="16.492695"><ele>132.0</ele><time>2026-04-18T15:58:57.916Z</time></trkpt><trkpt lat="40.63263" lon="16.492785"><ele>132.0</ele><time>2026-04-18T15:58:58.916Z</time></trkpt><trkpt lat="40.632605" lon="16.4929067"><ele>132.0</ele><time>2026-04-18T15:59:00.953Z</time></trkpt><trkpt lat="40.632585" lon="16.4930167"><ele>132.0</ele><time>2026-04-18T15:59:02.917Z</time></trkpt><trkpt lat="40.6325883" lon="16.4931383"><ele>132.0</ele><time>2026-04-18T15:59:04.917Z</time></trkpt><trkpt lat="40.632605" lon="16.4932917"><ele>132.0</ele><time>2026-04-18T15:59:06.917Z</time></trkpt><trkpt lat="40.6326517" lon="16.4934317"><ele>131.4</ele><time>2026-04-18T15:59:08.916Z</time></trkpt><trkpt lat="40.6326867" lon="16.493575"><ele>130.79999999999998</ele><time>2026-04-18T15:59:10.917Z</time></trkpt><trkpt lat="40.6327333" lon="16.4937067"><ele>130.2</ele><time>2026-04-18T15:59:12.916Z</time></trkpt><trkpt lat="40.632755" lon="16.4937917"><ele>129.6</ele><time>2026-04-18T15:59:14.916Z</time></trkpt><trkpt lat="40.6326917" lon="16.49387"><ele>129.0</ele><time>2026-04-18T15:59:17.916Z</time></trkpt><trkpt lat="40.63261" lon="16.4938533"><ele>129.0</ele><time>2026-04-18T15:59:19.918Z</time></trkpt><trkpt lat="40.6324833" lon="16.493805"><ele>129.0</ele><time>2026-04-18T15:59:21.917Z</time></trkpt><trkpt lat="40.6323933" lon="16.493745"><ele>129.0</ele><time>2026-04-18T15:59:22.917Z</time></trkpt><trkpt lat="40.6322917" lon="16.4936733"><ele>129.0</ele><time>2026-04-18T15:59:23.916Z</time></trkpt><trkpt lat="40.6321933" lon="16.4936017"><ele>128.25</ele><time>2026-04-18T15:59:24.917Z</time></trkpt><trkpt lat="40.6320917" lon="16.49353"><ele>127.5</ele><time>2026-04-18T15:59:25.916Z</time></trkpt><trkpt lat="40.6319933" lon="16.49346"><ele>126.75</ele><time>2026-04-18T15:59:26.916Z</time></trkpt><trkpt lat="40.6318883" lon="16.49339"><ele>126.0</ele><time>2026-04-18T15:59:27.917Z</time></trkpt><trkpt lat="40.6317867" lon="16.493325"><ele>125.6</ele><time>2026-04-18T15:59:28.917Z</time></trkpt><trkpt lat="40.6316933" lon="16.4932633"><ele>125.19999999999999</ele><time>2026-04-18T15:59:29.916Z</time></trkpt><trkpt lat="40.6316" lon="16.493205"><ele>124.80000000000001</ele><time>2026-04-18T15:59:30.917Z</time></trkpt><trkpt lat="40.6315" lon="16.49316"><ele>124.4</ele><time>2026-04-18T15:59:31.917Z</time></trkpt><trkpt lat="40.6313817" lon="16.4931233"><ele>124.0</ele><time>2026-04-18T15:59:32.916Z</time></trkpt><trkpt lat="40.6312567" lon="16.4930867"><ele>124.0</ele><time>2026-04-18T15:59:33.916Z</time></trkpt><trkpt lat="40.6311417" lon="16.49305"><ele>124.0</ele><time>2026-04-18T15:59:34.917Z</time></trkpt><trkpt lat="40.6310417" lon="16.493025"><ele>124.0</ele><time>2026-04-18T15:59:35.916Z</time></trkpt><trkpt lat="40.6309567" lon="16.493"><ele>124.0</ele><time>2026-04-18T15:59:36.917Z</time></trkpt><trkpt lat="40.6308817" lon="16.492975"><ele>124.0</ele><time>2026-04-18T15:59:37.916Z</time></trkpt><trkpt lat="40.6308083" lon="16.4929483"><ele>123.66666666666667</ele><time>2026-04-18T15:59:38.917Z</time></trkpt><trkpt lat="40.6307267" lon="16.4929217"><ele>123.33333333333334</ele><time>2026-04-18T15:59:39.917Z</time></trkpt><trkpt lat="40.6306417" lon="16.4929"><ele>123.0</ele><time>2026-04-18T15:59:40.917Z</time></trkpt><trkpt lat="40.6305583" lon="16.4928767"><ele>122.66666666666666</ele><time>2026-04-18T15:59:41.917Z</time></trkpt><trkpt lat="40.6304783" lon="16.4928383"><ele>122.33333333333333</ele><time>2026-04-18T15:59:42.918Z</time></trkpt><trkpt lat="40.6304017" lon="16.492795"><ele>122.0</ele><time>2026-04-18T15:59:43.917Z</time></trkpt><trkpt lat="40.630325" lon="16.492755"><ele>121.33333333333333</ele><time>2026-04-18T15:59:44.916Z</time></trkpt><trkpt lat="40.6302583" lon="16.492725"><ele>120.66666666666666</ele><time>2026-04-18T15:59:45.917Z</time></trkpt><trkpt lat="40.6301533" lon="16.4927317"><ele>120.0</ele><time>2026-04-18T15:59:47.917Z</time></trkpt><trkpt lat="40.63005" lon="16.4928133"><ele>119.33333333333334</ele><time>2026-04-18T15:59:49.918Z</time></trkpt><trkpt lat="40.6299917" lon="16.4928483"><ele>118.66666666666667</ele><time>2026-04-18T15:59:50.917Z</time></trkpt><trkpt lat="40.62993" lon="16.4928667"><ele>118.0</ele><time>2026-04-18T15:59:51.918Z</time></trkpt><trkpt lat="40.629855" lon="16.4928667"><ele>118.0</ele><time>2026-04-18T15:59:52.918Z</time></trkpt><trkpt lat="40.62977" lon="16.4928533"><ele>118.00000000000001</ele><time>2026-04-18T15:59:53.915Z</time></trkpt><trkpt lat="40.6296667" lon="16.4928183"><ele>118.00000000000001</ele><time>2026-04-18T15:59:54.917Z</time></trkpt><trkpt lat="40.6295567" lon="16.492775"><ele>118.0</ele><time>2026-04-18T15:59:55.917Z</time></trkpt><trkpt lat="40.6294567" lon="16.4927283"><ele>118.0</ele><time>2026-04-18T15:59:56.915Z</time></trkpt><trkpt lat="40.6293633" lon="16.492695"><ele>118.60000000000001</ele><time>2026-04-18T15:59:57.916Z</time></trkpt><trkpt lat="40.629275" lon="16.4926633"><ele>119.20000000000002</ele><time>2026-04-18T15:59:58.917Z</time></trkpt><trkpt lat="40.6292017" lon="16.4926267"><ele>119.8</ele><time>2026-04-18T15:59:59.917Z</time></trkpt><trkpt lat="40.6291133" lon="16.4925217"><ele>120.4</ele><time>2026-04-18T16:00:01.917Z</time></trkpt><trkpt lat="40.629035" lon="16.4923867"><ele>121.0</ele><time>2026-04-18T16:00:03.916Z</time></trkpt><trkpt lat="40.6289717" lon="16.4923283"><ele>121.00000000000001</ele><time>2026-04-18T16:00:04.918Z</time></trkpt><trkpt lat="40.6288917" lon="16.4922733"><ele>121.0</ele><time>2026-04-18T16:00:05.916Z</time></trkpt><trkpt lat="40.6288083" lon="16.4922267"><ele>121.0</ele><time>2026-04-18T16:00:06.918Z</time></trkpt><trkpt lat="40.6287283" lon="16.4921883"><ele>121.0</ele><time>2026-04-18T16:00:07.919Z</time></trkpt><trkpt lat="40.6286467" lon="16.4921533"><ele>121.00000000000001</ele><time>2026-04-18T16:00:08.917Z</time></trkpt><trkpt lat="40.6285667" lon="16.49213"><ele>121.0</ele><time>2026-04-18T16:00:09.917Z</time></trkpt><trkpt lat="40.62849" lon="16.492105"><ele>119.66666666666667</ele><time>2026-04-18T16:00:10.917Z</time></trkpt><trkpt lat="40.6284167" lon="16.492075"><ele>118.33333333333334</ele><time>2026-04-18T16:00:11.916Z</time></trkpt><trkpt lat="40.6283433" lon="16.4920433"><ele>117.0</ele><time>2026-04-18T16:00:12.916Z</time></trkpt><trkpt lat="40.6282667" lon="16.4920267"><ele>115.66666666666666</ele><time>2026-04-18T16:00:13.917Z</time></trkpt><trkpt lat="40.6281933" lon="16.49202"><ele>114.33333333333333</ele><time>2026-04-18T16:00:14.916Z</time></trkpt><trkpt lat="40.6281183" lon="16.49203"><ele>113.0</ele><time>2026-04-18T16:00:15.917Z</time></trkpt><trkpt lat="40.6280367" lon="16.4920617"><ele>113.80000000000001</ele><time>2026-04-18T16:00:16.917Z</time></trkpt><trkpt lat="40.6279433" lon="16.4921167"><ele>114.60000000000001</ele><time>2026-04-18T16:00:17.917Z</time></trkpt><trkpt lat="40.627845" lon="16.4921817"><ele>115.39999999999999</ele><time>2026-04-18T16:00:18.916Z</time></trkpt><trkpt lat="40.6277483" lon="16.49224"><ele>116.19999999999999</ele><time>2026-04-18T16:00:19.917Z</time></trkpt><trkpt lat="40.6276617" lon="16.4922867"><ele>117.0</ele><time>2026-04-18T16:00:20.917Z</time></trkpt><trkpt lat="40.6275833" lon="16.4923283"><ele>117.0</ele><time>2026-04-18T16:00:21.916Z</time></trkpt><trkpt lat="40.6275117" lon="16.4923633"><ele>117.0</ele><time>2026-04-18T16:00:22.916Z</time></trkpt><trkpt lat="40.627445" lon="16.49239"><ele>117.0</ele><time>2026-04-18T16:00:23.917Z</time></trkpt><trkpt lat="40.6273283" lon="16.4924317"><ele>117.0</ele><time>2026-04-18T16:00:25.916Z</time></trkpt><trkpt lat="40.62723" lon="16.492465"><ele>117.0</ele><time>2026-04-18T16:00:27.916Z</time></trkpt><trkpt lat="40.6271533" lon="16.4924983"><ele>117.0</ele><time>2026-04-18T16:00:29.916Z</time></trkpt><trkpt lat="40.6270433" lon="16.492535"><ele>116.16666666666667</ele><time>2026-04-18T16:00:49.917Z</time></trkpt><trkpt lat="40.6269717" lon="16.4925683"><ele>115.33333333333334</ele><time>2026-04-18T16:00:51.917Z</time></trkpt><trkpt lat="40.6268767" lon="16.4926017"><ele>114.5</ele><time>2026-04-18T16:00:53.917Z</time></trkpt><trkpt lat="40.6268117" lon="16.4926283"><ele>113.66666666666667</ele><time>2026-04-18T16:00:54.916Z</time></trkpt><trkpt lat="40.6267283" lon="16.492665"><ele>112.83333333333334</ele><time>2026-04-18T16:00:55.916Z</time></trkpt><trkpt lat="40.62663" lon="16.492705"><ele>112.0</ele><time>2026-04-18T16:00:56.916Z</time></trkpt><trkpt lat="40.6265383" lon="16.49274"><ele>112.00000000000001</ele><time>2026-04-18T16:00:57.917Z</time></trkpt><trkpt lat="40.6264517" lon="16.4927717"><ele>112.0</ele><time>2026-04-18T16:00:58.917Z</time></trkpt><trkpt lat="40.6263667" lon="16.4928033"><ele>112.0</ele><time>2026-04-18T16:00:59.917Z</time></trkpt><trkpt lat="40.62628" lon="16.4928433"><ele>112.0</ele><time>2026-04-18T16:01:00.917Z</time></trkpt><trkpt lat="40.6262033" lon="16.4928867"><ele>112.00000000000001</ele><time>2026-04-18T16:01:01.917Z</time></trkpt><trkpt lat="40.6261333" lon="16.4929267"><ele>112.0</ele><time>2026-04-18T16:01:02.918Z</time></trkpt><trkpt lat="40.6260633" lon="16.4929583"><ele>112.83333333333334</ele><time>2026-04-18T16:01:03.918Z</time></trkpt><trkpt lat="40.6259867" lon="16.4929917"><ele>113.66666666666667</ele><time>2026-04-18T16:01:04.918Z</time></trkpt><trkpt lat="40.62591" lon="16.4930283"><ele>114.5</ele><time>2026-04-18T16:01:05.917Z</time></trkpt><trkpt lat="40.6258367" lon="16.49306"><ele>115.33333333333334</ele><time>2026-04-18T16:01:06.918Z</time></trkpt><trkpt lat="40.6257667" lon="16.4930917"><ele>116.16666666666667</ele><time>2026-04-18T16:01:07.917Z</time></trkpt><trkpt lat="40.6256883" lon="16.4931267"><ele>117.0</ele><time>2026-04-18T16:01:08.92Z</time></trkpt><trkpt lat="40.6256117" lon="16.4931567"><ele>117.0</ele><time>2026-04-18T16:01:09.917Z</time></trkpt><trkpt lat="40.6255317" lon="16.4931883"><ele>116.99999999999999</ele><time>2026-04-18T16:01:10.916Z</time></trkpt><trkpt lat="40.6254433" lon="16.4932283"><ele>116.99999999999999</ele><time>2026-04-18T16:01:11.916Z</time></trkpt><trkpt lat="40.6253383" lon="16.493285"><ele>117.0</ele><time>2026-04-18T16:01:12.916Z</time></trkpt><trkpt lat="40.6252283" lon="16.49335"><ele>117.0</ele><time>2026-04-18T16:01:13.917Z</time></trkpt><trkpt lat="40.6251183" lon="16.4934183"><ele>115.39999999999999</ele><time>2026-04-18T16:01:14.916Z</time></trkpt><trkpt lat="40.625015" lon="16.4934933"><ele>113.79999999999998</ele><time>2026-04-18T16:01:15.917Z</time></trkpt><trkpt lat="40.624925" lon="16.4935633"><ele>112.2</ele><time>2026-04-18T16:01:16.917Z</time></trkpt><trkpt lat="40.6248433" lon="16.4936283"><ele>110.6</ele><time>2026-04-18T16:01:17.917Z</time></trkpt><trkpt lat="40.6247717" lon="16.49368"><ele>109.0</ele><time>2026-04-18T16:01:18.917Z</time></trkpt><trkpt lat="40.6247133" lon="16.4937167"><ele>109.0</ele><time>2026-04-18T16:01:19.918Z</time></trkpt><trkpt lat="40.6246267" lon="16.49374"><ele>109.0</ele><time>2026-04-18T16:01:21.917Z</time></trkpt><trkpt lat="40.6245817" lon="16.4936667"><ele>109.0</ele><time>2026-04-18T16:01:24.918Z</time></trkpt><trkpt lat="40.62459" lon="16.49357"><ele>109.0</ele><time>2026-04-18T16:01:26.918Z</time></trkpt><trkpt lat="40.62461" lon="16.4934417"><ele>109.0</ele><time>2026-04-18T16:01:28.919Z</time></trkpt><trkpt lat="40.62462" lon="16.4932833"><ele>109.0</ele><time>2026-04-18T16:01:30.919Z</time></trkpt><trkpt lat="40.624635" lon="16.4931333"><ele>109.0</ele><time>2026-04-18T16:01:32.918Z</time></trkpt><trkpt lat="40.624645" lon="16.493015"><ele>109.0</ele><time>2026-04-18T16:01:34.918Z</time></trkpt><trkpt lat="40.6246483" lon="16.492915"><ele>109.0</ele><time>2026-04-18T16:01:36.918Z</time></trkpt><trkpt lat="40.6246533" lon="16.4927733"><ele>109.0</ele><time>2026-04-18T16:01:39.917Z</time></trkpt><trkpt lat="40.624655" lon="16.49259"><ele>109.0</ele><time>2026-04-18T16:01:41.917Z</time></trkpt><trkpt lat="40.6246567" lon="16.4924683"><ele>109.0</ele><time>2026-04-18T16:01:42.917Z</time></trkpt><trkpt lat="40.6246567" lon="16.4923133"><ele>109.0</ele><time>2026-04-18T16:01:43.917Z</time></trkpt><trkpt lat="40.62466" lon="16.4921533"><ele>109.0</ele><time>2026-04-18T16:01:44.916Z</time></trkpt><trkpt lat="40.6246683" lon="16.4920083"><ele>109.0</ele><time>2026-04-18T16:01:45.916Z</time></trkpt><trkpt lat="40.62469" lon="16.4918667"><ele>110.6</ele><time>2026-04-18T16:01:46.917Z</time></trkpt><trkpt lat="40.6247217" lon="16.4917317"><ele>112.2</ele><time>2026-04-18T16:01:47.916Z</time></trkpt><trkpt lat="40.6247633" lon="16.4916067"><ele>113.79999999999998</ele><time>2026-04-18T16:01:48.917Z</time></trkpt><trkpt lat="40.6248183" lon="16.4915033"><ele>115.39999999999999</ele><time>2026-04-18T16:01:49.917Z</time></trkpt><trkpt lat="40.62489" lon="16.491405"><ele>117.0</ele><time>2026-04-18T16:01:50.917Z</time></trkpt><trkpt lat="40.624975" lon="16.4913067"><ele>118.5</ele><time>2026-04-18T16:01:51.918Z</time></trkpt><trkpt lat="40.6250683" lon="16.4912067"><ele>120.0</ele><time>2026-04-18T16:01:52.917Z</time></trkpt><trkpt lat="40.6251733" lon="16.4911117"><ele>121.5</ele><time>2026-04-18T16:01:53.917Z</time></trkpt><trkpt lat="40.6252833" lon="16.49102"><ele>123.0</ele><time>2026-04-18T16:01:54.917Z</time></trkpt><trkpt lat="40.6253967" lon="16.4909267"><ele>123.0</ele><time>2026-04-18T16:01:55.917Z</time></trkpt><trkpt lat="40.6255167" lon="16.49083"><ele>123.0</ele><time>2026-04-18T16:01:56.917Z</time></trkpt><trkpt lat="40.625645" lon="16.4907283"><ele>123.0</ele><time>2026-04-18T16:01:57.916Z</time></trkpt><trkpt lat="40.625775" lon="16.4906267"><ele>123.0</ele><time>2026-04-18T16:01:58.916Z</time></trkpt><trkpt lat="40.6259" lon="16.4905217"><ele>127.66666666666666</ele><time>2026-04-18T16:01:59.916Z</time></trkpt><trkpt lat="40.6260267" lon="16.4904167"><ele>132.33333333333331</ele><time>2026-04-18T16:02:00.916Z</time></trkpt><trkpt lat="40.6261567" lon="16.4903117"><ele>137.0</ele><time>2026-04-18T16:02:01.917Z</time></trkpt><trkpt lat="40.6262967" lon="16.4902017"><ele>137.0</ele><time>2026-04-18T16:02:02.917Z</time></trkpt><trkpt lat="40.6264433" lon="16.4900833"><ele>137.0</ele><time>2026-04-18T16:02:03.916Z</time></trkpt><trkpt lat="40.6265917" lon="16.4899617"><ele>137.0</ele><time>2026-04-18T16:02:04.917Z</time></trkpt><trkpt lat="40.626745" lon="16.4898417"><ele>137.0</ele><time>2026-04-18T16:02:05.917Z</time></trkpt><trkpt lat="40.6269017" lon="16.4897133"><ele>137.0</ele><time>2026-04-18T16:02:06.916Z</time></trkpt><trkpt lat="40.627055" lon="16.489585"><ele>137.0</ele><time>2026-04-18T16:02:07.917Z</time></trkpt><trkpt lat="40.6271983" lon="16.4894667"><ele>139.25</ele><time>2026-04-18T16:02:08.917Z</time></trkpt><trkpt lat="40.6273267" lon="16.489365"><ele>141.5</ele><time>2026-04-18T16:02:09.915Z</time></trkpt><trkpt lat="40.6274483" lon="16.489265"><ele>143.75</ele><time>2026-04-18T16:02:10.917Z</time></trkpt><trkpt lat="40.6275683" lon="16.489165"><ele>146.0</ele><time>2026-04-18T16:02:11.918Z</time></trkpt><trkpt lat="40.6276767" lon="16.4890733"><ele>146.0</ele><time>2026-04-18T16:02:12.915Z</time></trkpt><trkpt lat="40.62778" lon="16.4889933"><ele>146.0</ele><time>2026-04-18T16:02:13.917Z</time></trkpt><trkpt lat="40.6278833" lon="16.4889133"><ele>146.0</ele><time>2026-04-18T16:02:14.917Z</time></trkpt><trkpt lat="40.6279833" lon="16.4888333"><ele>146.0</ele><time>2026-04-18T16:02:15.916Z</time></trkpt><trkpt lat="40.6280767" lon="16.48876"><ele>146.6</ele><time>2026-04-18T16:02:16.917Z</time></trkpt><trkpt lat="40.6281617" lon="16.4886883"><ele>147.2</ele><time>2026-04-18T16:02:17.917Z</time></trkpt><trkpt lat="40.628245" lon="16.4886133"><ele>147.8</ele><time>2026-04-18T16:02:18.917Z</time></trkpt><trkpt lat="40.6283217" lon="16.488535"><ele>148.4</ele><time>2026-04-18T16:02:19.917Z</time></trkpt><trkpt lat="40.6283833" lon="16.4884517"><ele>149.0</ele><time>2026-04-18T16:02:20.916Z</time></trkpt><trkpt lat="40.6284333" lon="16.4883617"><ele>149.0</ele><time>2026-04-18T16:02:21.917Z</time></trkpt><trkpt lat="40.6284733" lon="16.488265"><ele>149.0</ele><time>2026-04-18T16:02:22.917Z</time></trkpt><trkpt lat="40.6285017" lon="16.4881567"><ele>149.0</ele><time>2026-04-18T16:02:23.915Z</time></trkpt><trkpt lat="40.6285067" lon="16.4880367"><ele>149.0</ele><time>2026-04-18T16:02:24.917Z</time></trkpt><trkpt lat="40.6284933" lon="16.4879083"><ele>149.0</ele><time>2026-04-18T16:02:25.917Z</time></trkpt><trkpt lat="40.62846" lon="16.487775"><ele>151.25</ele><time>2026-04-18T16:02:26.917Z</time></trkpt><trkpt lat="40.62841" lon="16.4876383"><ele>153.5</ele><time>2026-04-18T16:02:27.916Z</time></trkpt><trkpt lat="40.6283267" lon="16.4874933"><ele>155.75</ele><time>2026-04-18T16:02:28.917Z</time></trkpt><trkpt lat="40.628215" lon="16.4873333"><ele>158.0</ele><time>2026-04-18T16:02:29.917Z</time></trkpt><trkpt lat="40.6280983" lon="16.4871717"><ele>158.75</ele><time>2026-04-18T16:02:30.917Z</time></trkpt><trkpt lat="40.6279867" lon="16.48702"><ele>159.5</ele><time>2026-04-18T16:02:31.917Z</time></trkpt><trkpt lat="40.6278933" lon="16.486895"><ele>160.25</ele><time>2026-04-18T16:02:32.917Z</time></trkpt><trkpt lat="40.62783" lon="16.4867983"><ele>161.0</ele><time>2026-04-18T16:02:33.917Z</time></trkpt><trkpt lat="40.6277767" lon="16.486725"><ele>159.4</ele><time>2026-04-18T16:02:34.916Z</time></trkpt><trkpt lat="40.6276967" lon="16.486605"><ele>157.8</ele><time>2026-04-18T16:02:36.916Z</time></trkpt><trkpt lat="40.62765" lon="16.4865433"><ele>156.20000000000002</ele><time>2026-04-18T16:02:37.917Z</time></trkpt><trkpt lat="40.6275883" lon="16.486475"><ele>154.60000000000002</ele><time>2026-04-18T16:02:38.916Z</time></trkpt><trkpt lat="40.6275167" lon="16.4864033"><ele>153.0</ele><time>2026-04-18T16:02:39.916Z</time></trkpt><trkpt lat="40.627435" lon="16.4863433"><ele>153.0</ele><time>2026-04-18T16:02:40.916Z</time></trkpt><trkpt lat="40.6273483" lon="16.4863017"><ele>153.0</ele><time>2026-04-18T16:02:41.917Z</time></trkpt><trkpt lat="40.6272483" lon="16.4862733"><ele>153.0</ele><time>2026-04-18T16:02:42.917Z</time></trkpt><trkpt lat="40.6271333" lon="16.4862617"><ele>153.0</ele><time>2026-04-18T16:02:43.917Z</time></trkpt><trkpt lat="40.627005" lon="16.4862717"><ele>153.0</ele><time>2026-04-18T16:02:44.917Z</time></trkpt><trkpt lat="40.6268733" lon="16.48629"><ele>150.25</ele><time>2026-04-18T16:02:45.915Z</time></trkpt><trkpt lat="40.626745" lon="16.4863117"><ele>147.5</ele><time>2026-04-18T16:02:46.918Z</time></trkpt><trkpt lat="40.6266233" lon="16.4863317"><ele>144.75</ele><time>2026-04-18T16:02:47.917Z</time></trkpt><trkpt lat="40.6265067" lon="16.486355"><ele>142.0</ele><time>2026-04-18T16:02:48.916Z</time></trkpt><trkpt lat="40.6263933" lon="16.486375"><ele>142.0</ele><time>2026-04-18T16:02:49.917Z</time></trkpt><trkpt lat="40.6262833" lon="16.4863867"><ele>142.0</ele><time>2026-04-18T16:02:50.917Z</time></trkpt><trkpt lat="40.6261767" lon="16.4863933"><ele>142.0</ele><time>2026-04-18T16:02:51.915Z</time></trkpt><trkpt lat="40.6260683" lon="16.4863967"><ele>142.0</ele><time>2026-04-18T16:02:52.917Z</time></trkpt><trkpt lat="40.6259567" lon="16.4863967"><ele>142.0</ele><time>2026-04-18T16:02:53.916Z</time></trkpt><trkpt lat="40.625845" lon="16.4863933"><ele>140.6</ele><time>2026-04-18T16:02:54.917Z</time></trkpt><trkpt lat="40.6257367" lon="16.48638"><ele>139.2</ele><time>2026-04-18T16:02:55.917Z</time></trkpt><trkpt lat="40.6256333" lon="16.4863633"><ele>137.8</ele><time>2026-04-18T16:02:56.916Z</time></trkpt><trkpt lat="40.6255417" lon="16.4863417"><ele>136.4</ele><time>2026-04-18T16:02:57.915Z</time></trkpt><trkpt lat="40.6254583" lon="16.48632"><ele>135.0</ele><time>2026-04-18T16:02:58.917Z</time></trkpt><trkpt lat="40.6253783" lon="16.48629"><ele>134.33333333333334</ele><time>2026-04-18T16:02:59.918Z</time></trkpt><trkpt lat="40.625305" lon="16.486255"><ele>133.66666666666666</ele><time>2026-04-18T16:03:00.916Z</time></trkpt><trkpt lat="40.6252383" lon="16.4862067"><ele>133.0</ele><time>2026-04-18T16:03:01.917Z</time></trkpt><trkpt lat="40.6251867" lon="16.4861417"><ele>132.33333333333331</ele><time>2026-04-18T16:03:02.915Z</time></trkpt><trkpt lat="40.6251483" lon="16.4860617"><ele>131.66666666666666</ele><time>2026-04-18T16:03:03.917Z</time></trkpt><trkpt lat="40.6251233" lon="16.48596"><ele>131.0</ele><time>2026-04-18T16:03:04.916Z</time></trkpt><trkpt lat="40.625125" lon="16.4858533"><ele>131.0</ele><time>2026-04-18T16:03:05.917Z</time></trkpt><trkpt lat="40.6251467" lon="16.4857467"><ele>131.0</ele><time>2026-04-18T16:03:06.917Z</time></trkpt><trkpt lat="40.6251917" lon="16.485645"><ele>131.0</ele><time>2026-04-18T16:03:07.917Z</time></trkpt><trkpt lat="40.6252667" lon="16.4855367"><ele>131.0</ele><time>2026-04-18T16:03:08.916Z</time></trkpt><trkpt lat="40.625345" lon="16.4854283"><ele>131.0</ele><time>2026-04-18T16:03:09.916Z</time></trkpt><trkpt lat="40.625425" lon="16.4853317"><ele>130.25</ele><time>2026-04-18T16:03:10.915Z</time></trkpt><trkpt lat="40.62551" lon="16.4852433"><ele>129.5</ele><time>2026-04-18T16:03:11.917Z</time></trkpt><trkpt lat="40.625605" lon="16.485175"><ele>128.75</ele><time>2026-04-18T16:03:12.916Z</time></trkpt><trkpt lat="40.6257167" lon="16.4851233"><ele>128.0</ele><time>2026-04-18T16:03:13.916Z</time></trkpt><trkpt lat="40.6258317" lon="16.4850917"><ele>128.0</ele><time>2026-04-18T16:03:14.917Z</time></trkpt><trkpt lat="40.6259367" lon="16.4850633"><ele>128.0</ele><time>2026-04-18T16:03:15.917Z</time></trkpt><trkpt lat="40.626025" lon="16.4850283"><ele>128.0</ele><time>2026-04-18T16:03:16.917Z</time></trkpt><trkpt lat="40.626105" lon="16.48497"><ele>128.0</ele><time>2026-04-18T16:03:17.917Z</time></trkpt><trkpt lat="40.6261817" lon="16.4848817"><ele>128.0</ele><time>2026-04-18T16:03:18.918Z</time></trkpt><trkpt lat="40.6262533" lon="16.4847767"><ele>126.75</ele><time>2026-04-18T16:03:19.918Z</time></trkpt><trkpt lat="40.6263217" lon="16.48467"><ele>125.5</ele><time>2026-04-18T16:03:20.918Z</time></trkpt><trkpt lat="40.62639" lon="16.4845533"><ele>124.25</ele><time>2026-04-18T16:03:21.916Z</time></trkpt><trkpt lat="40.6264617" lon="16.4844267"><ele>123.0</ele><time>2026-04-18T16:03:22.918Z</time></trkpt><trkpt lat="40.62654" lon="16.48429"><ele>123.0</ele><time>2026-04-18T16:03:23.917Z</time></trkpt><trkpt lat="40.62662" lon="16.4841517"><ele>123.0</ele><time>2026-04-18T16:03:24.918Z</time></trkpt><trkpt lat="40.626695" lon="16.48402"><ele>123.0</ele><time>2026-04-18T16:03:25.918Z</time></trkpt><trkpt lat="40.6267667" lon="16.4838933"><ele>123.0</ele><time>2026-04-18T16:03:26.918Z</time></trkpt><trkpt lat="40.6268333" lon="16.4837733"><ele>123.80000000000001</ele><time>2026-04-18T16:03:27.918Z</time></trkpt><trkpt lat="40.6269" lon="16.4836583"><ele>124.60000000000001</ele><time>2026-04-18T16:03:28.917Z</time></trkpt><trkpt lat="40.6269667" lon="16.483545"><ele>125.39999999999999</ele><time>2026-04-18T16:03:29.916Z</time></trkpt><trkpt lat="40.6270367" lon="16.4834267"><ele>126.19999999999999</ele><time>2026-04-18T16:03:30.917Z</time></trkpt><trkpt lat="40.6271083" lon="16.483305"><ele>127.0</ele><time>2026-04-18T16:03:31.916Z</time></trkpt><trkpt lat="40.6271883" lon="16.4831767"><ele>127.0</ele><time>2026-04-18T16:03:32.917Z</time></trkpt><trkpt lat="40.6272633" lon="16.4830433"><ele>127.0</ele><time>2026-04-18T16:03:33.916Z</time></trkpt><trkpt lat="40.6273433" lon="16.482905"><ele>127.0</ele><time>2026-04-18T16:03:34.916Z</time></trkpt><trkpt lat="40.627425" lon="16.48277"><ele>127.0</ele><time>2026-04-18T16:03:35.917Z</time></trkpt><trkpt lat="40.6275023" lon="16.4826405"><ele>125.19999999999999</ele><time>2026-04-18T16:03:36.917Z</time></trkpt><trkpt lat="40.6275754" lon="16.4825151"><ele>123.39999999999999</ele><time>2026-04-18T16:03:37.917Z</time></trkpt><trkpt lat="40.6276427" lon="16.482396"><ele>121.60000000000001</ele><time>2026-04-18T16:03:38.917Z</time></trkpt><trkpt lat="40.6276983" lon="16.4822978"><ele>119.80000000000001</ele><time>2026-04-18T16:03:39.917Z</time></trkpt><trkpt lat="40.6277373" lon="16.4822278"><ele>118.0</ele><time>2026-04-18T16:03:40.917Z</time></trkpt><trkpt lat="40.6277839" lon="16.4821426"><ele>118.0</ele><time>2026-04-18T16:03:42.917Z</time></trkpt><trkpt lat="40.6278341" lon="16.4820589"><ele>118.00000000000001</ele><time>2026-04-18T16:03:45.917Z</time></trkpt><trkpt lat="40.6278925" lon="16.4819543"><ele>118.00000000000001</ele><time>2026-04-18T16:03:48.917Z</time></trkpt><trkpt lat="40.6279621" lon="16.4818307"><ele>118.0</ele><time>2026-04-18T16:03:50.916Z</time></trkpt><trkpt lat="40.6280112" lon="16.4817491"><ele>118.0</ele><time>2026-04-18T16:03:51.919Z</time></trkpt><trkpt lat="40.6280591" lon="16.4816593"><ele>118.00000000000001</ele><time>2026-04-18T16:03:52.918Z</time></trkpt><trkpt lat="40.6281073" lon="16.4815658"><ele>118.0</ele><time>2026-04-18T16:03:53.918Z</time></trkpt><trkpt lat="40.6281532" lon="16.4814815"><ele>118.0</ele><time>2026-04-18T16:03:54.918Z</time></trkpt><trkpt lat="40.6281978" lon="16.4814117"><ele>118.0</ele><time>2026-04-18T16:03:55.918Z</time></trkpt><trkpt lat="40.6282453" lon="16.4813356"><ele>118.00000000000001</ele><time>2026-04-18T16:03:56.918Z</time></trkpt><trkpt lat="40.6282976" lon="16.4812512"><ele>118.0</ele><time>2026-04-18T16:03:57.918Z</time></trkpt><trkpt lat="40.6283575" lon="16.4811718"><ele>119.2</ele><time>2026-04-18T16:03:58.917Z</time></trkpt><trkpt lat="40.628424" lon="16.4811094"><ele>120.4</ele><time>2026-04-18T16:03:59.917Z</time></trkpt><trkpt lat="40.6285043" lon="16.4810587"><ele>121.60000000000001</ele><time>2026-04-18T16:04:00.917Z</time></trkpt><trkpt lat="40.6285927" lon="16.4810151"><ele>122.80000000000001</ele><time>2026-04-18T16:04:01.917Z</time></trkpt><trkpt lat="40.6286887" lon="16.4809838"><ele>124.0</ele><time>2026-04-18T16:04:02.916Z</time></trkpt><trkpt lat="40.6287984" lon="16.4809585"><ele>124.0</ele><time>2026-04-18T16:04:03.917Z</time></trkpt><trkpt lat="40.6289183" lon="16.4809435"><ele>124.0</ele><time>2026-04-18T16:04:04.917Z</time></trkpt><trkpt lat="40.6290552" lon="16.4809371"><ele>124.0</ele><time>2026-04-18T16:04:05.916Z</time></trkpt><trkpt lat="40.6292189" lon="16.4809287"><ele>124.0</ele><time>2026-04-18T16:04:06.916Z</time></trkpt><trkpt lat="40.6293815" lon="16.4809156"><ele>124.25</ele><time>2026-04-18T16:04:07.916Z</time></trkpt><trkpt lat="40.6295266" lon="16.4808933"><ele>124.5</ele><time>2026-04-18T16:04:08.917Z</time></trkpt><trkpt lat="40.6296533" lon="16.48085"><ele>124.75</ele><time>2026-04-18T16:04:09.917Z</time></trkpt><trkpt lat="40.6297767" lon="16.4807883"><ele>125.0</ele><time>2026-04-18T16:04:10.917Z</time></trkpt><trkpt lat="40.6299" lon="16.4806983"><ele>125.0</ele><time>2026-04-18T16:04:11.916Z</time></trkpt><trkpt lat="40.6300233" lon="16.48059"><ele>125.0</ele><time>2026-04-18T16:04:12.916Z</time></trkpt><trkpt lat="40.6301567" lon="16.4804583"><ele>125.0</ele><time>2026-04-18T16:04:13.918Z</time></trkpt><trkpt lat="40.63029" lon="16.48032"><ele>126.75</ele><time>2026-04-18T16:04:14.917Z</time></trkpt><trkpt lat="40.63041" lon="16.4801933"><ele>128.5</ele><time>2026-04-18T16:04:15.917Z</time></trkpt><trkpt lat="40.6305133" lon="16.4800883"><ele>130.25</ele><time>2026-04-18T16:04:16.917Z</time></trkpt><trkpt lat="40.630595" lon="16.47999"><ele>132.0</ele><time>2026-04-18T16:04:17.917Z</time></trkpt><trkpt lat="40.63067" lon="16.4798917"><ele>132.0</ele><time>2026-04-18T16:04:18.918Z</time></trkpt><trkpt lat="40.6307367" lon="16.47978"><ele>132.0</ele><time>2026-04-18T16:04:19.918Z</time></trkpt><trkpt lat="40.6307933" lon="16.479655"><ele>132.0</ele><time>2026-04-18T16:04:20.918Z</time></trkpt><trkpt lat="40.6308467" lon="16.4795317"><ele>132.0</ele><time>2026-04-18T16:04:21.917Z</time></trkpt><trkpt lat="40.6309067" lon="16.4794217"><ele>132.0</ele><time>2026-04-18T16:04:22.917Z</time></trkpt><trkpt lat="40.63098" lon="16.4793283"><ele>134.75</ele><time>2026-04-18T16:04:23.916Z</time></trkpt><trkpt lat="40.6310717" lon="16.479245"><ele>137.5</ele><time>2026-04-18T16:04:24.917Z</time></trkpt><trkpt lat="40.63118" lon="16.4791633"><ele>140.25</ele><time>2026-04-18T16:04:25.918Z</time></trkpt><trkpt lat="40.6312867" lon="16.4790833"><ele>143.0</ele><time>2026-04-18T16:04:26.916Z</time></trkpt><trkpt lat="40.6313767" lon="16.4789983"><ele>143.0</ele><time>2026-04-18T16:04:27.918Z</time></trkpt><trkpt lat="40.6314567" lon="16.478905"><ele>143.0</ele><time>2026-04-18T16:04:28.917Z</time></trkpt><trkpt lat="40.6315217" lon="16.4787983"><ele>143.0</ele><time>2026-04-18T16:04:29.917Z</time></trkpt><trkpt lat="40.6315683" lon="16.47868"><ele>143.0</ele><time>2026-04-18T16:04:30.918Z</time></trkpt><trkpt lat="40.6315983" lon="16.4785467"><ele>143.0</ele><time>2026-04-18T16:04:31.918Z</time></trkpt><trkpt lat="40.6316133" lon="16.4783983"><ele>143.75</ele><time>2026-04-18T16:04:32.917Z</time></trkpt><trkpt lat="40.63161" lon="16.478235"><ele>144.5</ele><time>2026-04-18T16:04:33.917Z</time></trkpt><trkpt lat="40.6315867" lon="16.4780683"><ele>145.25</ele><time>2026-04-18T16:04:34.918Z</time></trkpt><trkpt lat="40.6315533" lon="16.4779033"><ele>146.0</ele><time>2026-04-18T16:04:35.919Z</time></trkpt><trkpt lat="40.6315283" lon="16.477735"><ele>146.0</ele><time>2026-04-18T16:04:36.918Z</time></trkpt><trkpt lat="40.631515" lon="16.477555"><ele>146.0</ele><time>2026-04-18T16:04:37.918Z</time></trkpt><trkpt lat="40.6315083" lon="16.47738"><ele>146.0</ele><time>2026-04-18T16:04:38.916Z</time></trkpt><trkpt lat="40.631505" lon="16.4772167"><ele>146.0</ele><time>2026-04-18T16:04:39.917Z</time></trkpt><trkpt lat="40.6314967" lon="16.4770567"><ele>144.4</ele><time>2026-04-18T16:04:40.917Z</time></trkpt><trkpt lat="40.63148" lon="16.4769"><ele>142.8</ele><time>2026-04-18T16:04:41.918Z</time></trkpt><trkpt lat="40.6314583" lon="16.4767567"><ele>141.20000000000002</ele><time>2026-04-18T16:04:42.919Z</time></trkpt><trkpt lat="40.6314367" lon="16.4766267"><ele>139.6</ele><time>2026-04-18T16:04:43.917Z</time></trkpt><trkpt lat="40.6314083" lon="16.4764983"><ele>138.0</ele><time>2026-04-18T16:04:44.918Z</time></trkpt><trkpt lat="40.6313717" lon="16.4763717"><ele>137.4</ele><time>2026-04-18T16:04:45.917Z</time></trkpt><trkpt lat="40.6313283" lon="16.4762517"><ele>136.8</ele><time>2026-04-18T16:04:46.917Z</time></trkpt><trkpt lat="40.6312767" lon="16.4761417"><ele>136.2</ele><time>2026-04-18T16:04:47.917Z</time></trkpt><trkpt lat="40.63122" lon="16.4760417"><ele>135.6</ele><time>2026-04-18T16:04:48.917Z</time></trkpt><trkpt lat="40.63116" lon="16.47595"><ele>135.0</ele><time>2026-04-18T16:04:49.918Z</time></trkpt><trkpt lat="40.6311" lon="16.475865"><ele>135.0</ele><time>2026-04-18T16:04:50.917Z</time></trkpt><trkpt lat="40.63104" lon="16.4757817"><ele>135.0</ele><time>2026-04-18T16:04:51.917Z</time></trkpt><trkpt lat="40.6309817" lon="16.4756983"><ele>135.0</ele><time>2026-04-18T16:04:52.918Z</time></trkpt><trkpt lat="40.63093" lon="16.47561"><ele>135.0</ele><time>2026-04-18T16:04:53.916Z</time></trkpt><trkpt lat="40.63089" lon="16.475515"><ele>135.0</ele><time>2026-04-18T16:04:54.919Z</time></trkpt><trkpt lat="40.63085" lon="16.475415"><ele>135.0</ele><time>2026-04-18T16:04:55.917Z</time></trkpt><trkpt lat="40.6308083" lon="16.47532"><ele>133.16666666666666</ele><time>2026-04-18T16:04:56.917Z</time></trkpt><trkpt lat="40.6307617" lon="16.4752267"><ele>131.33333333333334</ele><time>2026-04-18T16:04:57.918Z</time></trkpt><trkpt lat="40.630715" lon="16.47514"><ele>129.5</ele><time>2026-04-18T16:04:58.917Z</time></trkpt><trkpt lat="40.6306583" lon="16.47506"><ele>127.66666666666667</ele><time>2026-04-18T16:04:59.916Z</time></trkpt><trkpt lat="40.6305933" lon="16.4749917"><ele>125.83333333333334</ele><time>2026-04-18T16:05:00.917Z</time></trkpt><trkpt lat="40.6305283" lon="16.4749267"><ele>124.0</ele><time>2026-04-18T16:05:01.918Z</time></trkpt><trkpt lat="40.630465" lon="16.4748583"><ele>124.00000000000001</ele><time>2026-04-18T16:05:02.922Z</time></trkpt><trkpt lat="40.6304017" lon="16.474785"><ele>124.0</ele><time>2026-04-18T16:05:03.917Z</time></trkpt><trkpt lat="40.6303417" lon="16.474715"><ele>124.0</ele><time>2026-04-18T16:05:04.917Z</time></trkpt><trkpt lat="40.63028" lon="16.47465"><ele>124.0</ele><time>2026-04-18T16:05:05.917Z</time></trkpt><trkpt lat="40.6302183" lon="16.474585"><ele>124.00000000000001</ele><time>2026-04-18T16:05:06.917Z</time></trkpt><trkpt lat="40.6301567" lon="16.4745217"><ele>124.0</ele><time>2026-04-18T16:05:07.918Z</time></trkpt><trkpt lat="40.6300917" lon="16.4744583"><ele>124.00000000000001</ele><time>2026-04-18T16:05:08.917Z</time></trkpt><trkpt lat="40.6300217" lon="16.4743983"><ele>124.0</ele><time>2026-04-18T16:05:09.917Z</time></trkpt><trkpt lat="40.6299533" lon="16.4743383"><ele>124.0</ele><time>2026-04-18T16:05:10.917Z</time></trkpt><trkpt lat="40.6298917" lon="16.474285"><ele>124.0</ele><time>2026-04-18T16:05:11.917Z</time></trkpt><trkpt lat="40.6298317" lon="16.47423"><ele>124.00000000000001</ele><time>2026-04-18T16:05:12.917Z</time></trkpt><trkpt lat="40.62977" lon="16.4741733"><ele>124.0</ele><time>2026-04-18T16:05:13.918Z</time></trkpt><trkpt lat="40.629705" lon="16.4741133"><ele>124.00000000000001</ele><time>2026-04-18T16:05:14.918Z</time></trkpt><trkpt lat="40.6296367" lon="16.4740533"><ele>124.0</ele><time>2026-04-18T16:05:15.918Z</time></trkpt><trkpt lat="40.6295683" lon="16.4739933"><ele>124.0</ele><time>2026-04-18T16:05:16.917Z</time></trkpt><trkpt lat="40.629495" lon="16.47393"><ele>124.0</ele><time>2026-04-18T16:05:17.917Z</time></trkpt><trkpt lat="40.62942" lon="16.4738633"><ele>124.00000000000001</ele><time>2026-04-18T16:05:18.918Z</time></trkpt><trkpt lat="40.6293517" lon="16.4737967"><ele>124.0</ele><time>2026-04-18T16:05:19.919Z</time></trkpt><trkpt lat="40.629285" lon="16.4737283"><ele>122.66666666666667</ele><time>2026-04-18T16:05:20.918Z</time></trkpt><trkpt lat="40.629225" lon="16.4736567"><ele>121.33333333333334</ele><time>2026-04-18T16:05:21.918Z</time></trkpt><trkpt lat="40.6291717" lon="16.4735817"><ele>120.0</ele><time>2026-04-18T16:05:22.918Z</time></trkpt><trkpt lat="40.6291233" lon="16.4735017"><ele>118.66666666666666</ele><time>2026-04-18T16:05:23.917Z</time></trkpt><trkpt lat="40.629075" lon="16.473425"><ele>117.33333333333333</ele><time>2026-04-18T16:05:24.917Z</time></trkpt><trkpt lat="40.629025" lon="16.4733467"><ele>116.0</ele><time>2026-04-18T16:05:25.918Z</time></trkpt><trkpt lat="40.628975" lon="16.4732717"><ele>116.00000000000001</ele><time>2026-04-18T16:05:26.916Z</time></trkpt><trkpt lat="40.6289267" lon="16.4731983"><ele>116.0</ele><time>2026-04-18T16:05:27.917Z</time></trkpt><trkpt lat="40.6288767" lon="16.4731267"><ele>116.00000000000001</ele><time>2026-04-18T16:05:28.918Z</time></trkpt><trkpt lat="40.6288317" lon="16.4730517"><ele>116.00000000000001</ele><time>2026-04-18T16:05:29.917Z</time></trkpt><trkpt lat="40.6287867" lon="16.4729767"><ele>116.0</ele><time>2026-04-18T16:05:30.918Z</time></trkpt><trkpt lat="40.6287417" lon="16.4728983"><ele>116.00000000000001</ele><time>2026-04-18T16:05:31.918Z</time></trkpt><trkpt lat="40.6287017" lon="16.4728183"><ele>116.00000000000001</ele><time>2026-04-18T16:05:32.919Z</time></trkpt><trkpt lat="40.6286667" lon="16.4727383"><ele>115.14285714285715</ele><time>2026-04-18T16:05:33.919Z</time></trkpt><trkpt lat="40.6286333" lon="16.4726567"><ele>114.28571428571429</ele><time>2026-04-18T16:05:34.918Z</time></trkpt><trkpt lat="40.628605" lon="16.4725767"><ele>113.42857142857143</ele><time>2026-04-18T16:05:35.918Z</time></trkpt><trkpt lat="40.62858" lon="16.4724933"><ele>112.57142857142858</ele><time>2026-04-18T16:05:36.918Z</time></trkpt><trkpt lat="40.6285617" lon="16.4724083"><ele>111.71428571428572</ele><time>2026-04-18T16:05:37.918Z</time></trkpt><trkpt lat="40.628545" lon="16.4723233"><ele>110.85714285714285</ele><time>2026-04-18T16:05:38.917Z</time></trkpt><trkpt lat="40.6285333" lon="16.4722383"><ele>110.0</ele><time>2026-04-18T16:05:39.916Z</time></trkpt><trkpt lat="40.6285267" lon="16.4721467"><ele>109.85714285714285</ele><time>2026-04-18T16:05:40.918Z</time></trkpt><trkpt lat="40.6285217" lon="16.4720583"><ele>109.71428571428571</ele><time>2026-04-18T16:05:41.918Z</time></trkpt><trkpt lat="40.62852" lon="16.4719717"><ele>109.57142857142857</ele><time>2026-04-18T16:05:42.918Z</time></trkpt><trkpt lat="40.628525" lon="16.4718833"><ele>109.42857142857142</ele><time>2026-04-18T16:05:43.918Z</time></trkpt><trkpt lat="40.6285333" lon="16.4717967"><ele>109.28571428571429</ele><time>2026-04-18T16:05:44.916Z</time></trkpt><trkpt lat="40.62854" lon="16.4717117"><ele>109.14285714285714</ele><time>2026-04-18T16:05:45.917Z</time></trkpt><trkpt lat="40.6285467" lon="16.4716267"><ele>109.0</ele><time>2026-04-18T16:05:46.917Z</time></trkpt><trkpt lat="40.6285667" lon="16.47147"><ele>109.0</ele><time>2026-04-18T16:05:48.916Z</time></trkpt><trkpt lat="40.6285783" lon="16.4713133"><ele>109.0</ele><time>2026-04-18T16:05:50.916Z</time></trkpt><trkpt lat="40.6285917" lon="16.471165"><ele>109.0</ele><time>2026-04-18T16:05:52.918Z</time></trkpt><trkpt lat="40.6285967" lon="16.4710817"><ele>109.0</ele><time>2026-04-18T16:05:53.918Z</time></trkpt><trkpt lat="40.6286033" lon="16.4709867"><ele>109.0</ele><time>2026-04-18T16:05:54.918Z</time></trkpt><trkpt lat="40.6286117" lon="16.4708767"><ele>109.25</ele><time>2026-04-18T16:05:55.918Z</time></trkpt><trkpt lat="40.6286183" lon="16.4707367"><ele>109.5</ele><time>2026-04-18T16:05:56.917Z</time></trkpt><trkpt lat="40.6286283" lon="16.4705667"><ele>109.75</ele><time>2026-04-18T16:05:57.917Z</time></trkpt><trkpt lat="40.6286417" lon="16.4703733"><ele>110.0</ele><time>2026-04-18T16:05:58.919Z</time></trkpt><trkpt lat="40.628655" lon="16.470165"><ele>110.0</ele><time>2026-04-18T16:05:59.916Z</time></trkpt><trkpt lat="40.628665" lon="16.46997"><ele>110.0</ele><time>2026-04-18T16:06:00.916Z</time></trkpt><trkpt lat="40.6286717" lon="16.469795"><ele>110.0</ele><time>2026-04-18T16:06:01.916Z</time></trkpt><trkpt lat="40.6286783" lon="16.4696383"><ele>110.0</ele><time>2026-04-18T16:06:02.916Z</time></trkpt><trkpt lat="40.6286883" lon="16.4695"><ele>109.83333333333333</ele><time>2026-04-18T16:06:03.917Z</time></trkpt><trkpt lat="40.6286983" lon="16.4693833"><ele>109.66666666666666</ele><time>2026-04-18T16:06:04.916Z</time></trkpt><trkpt lat="40.6287067" lon="16.46928"><ele>109.5</ele><time>2026-04-18T16:06:05.916Z</time></trkpt><trkpt lat="40.628715" lon="16.4691933"><ele>109.33333333333334</ele><time>2026-04-18T16:06:06.917Z</time></trkpt><trkpt lat="40.6287267" lon="16.4690583"><ele>109.16666666666667</ele><time>2026-04-18T16:06:08.916Z</time></trkpt><trkpt lat="40.628725" lon="16.4689733"><ele>109.0</ele><time>2026-04-18T16:06:10.917Z</time></trkpt><trkpt lat="40.628725" lon="16.4688533"><ele>109.4</ele><time>2026-04-18T16:06:22.916Z</time></trkpt><trkpt lat="40.628745" lon="16.4687417"><ele>109.80000000000001</ele><time>2026-04-18T16:06:26.916Z</time></trkpt><trkpt lat="40.62875" lon="16.4685767"><ele>110.19999999999999</ele><time>2026-04-18T16:06:28.916Z</time></trkpt><trkpt lat="40.62876" lon="16.4684483"><ele>110.6</ele><time>2026-04-18T16:06:29.917Z</time></trkpt><trkpt lat="40.6287717" lon="16.4683017"><ele>111.0</ele><time>2026-04-18T16:06:30.917Z</time></trkpt><trkpt lat="40.6287783" lon="16.4681217"><ele>112.0</ele><time>2026-04-18T16:06:31.917Z</time></trkpt><trkpt lat="40.62879" lon="16.4678983"><ele>113.0</ele><time>2026-04-18T16:06:32.916Z</time></trkpt><trkpt lat="40.6288067" lon="16.4676333"><ele>114.0</ele><time>2026-04-18T16:06:33.916Z</time></trkpt><trkpt lat="40.6288283" lon="16.4673283"><ele>113.66666666666666</ele><time>2026-04-18T16:06:34.916Z</time></trkpt><trkpt lat="40.6288517" lon="16.467025"><ele>113.33333333333333</ele><time>2026-04-18T16:06:35.915Z</time></trkpt><trkpt lat="40.6288717" lon="16.4667583"><ele>113.0</ele><time>2026-04-18T16:06:36.917Z</time></trkpt><trkpt lat="40.628885" lon="16.466525"><ele>113.0</ele><time>2026-04-18T16:06:37.915Z</time></trkpt><trkpt lat="40.6288967" lon="16.4663317"><ele>113.00000000000001</ele><time>2026-04-18T16:06:38.916Z</time></trkpt><trkpt lat="40.62891" lon="16.4661833"><ele>113.00000000000001</ele><time>2026-04-18T16:06:39.915Z</time></trkpt><trkpt lat="40.6289217" lon="16.4660683"><ele>113.0</ele><time>2026-04-18T16:06:40.916Z</time></trkpt><trkpt lat="40.6289383" lon="16.4659617"><ele>113.0</ele><time>2026-04-18T16:06:41.915Z</time></trkpt><trkpt lat="40.62896" lon="16.465855"><ele>112.4</ele><time>2026-04-18T16:06:42.916Z</time></trkpt><trkpt lat="40.62899" lon="16.4657383"><ele>111.80000000000001</ele><time>2026-04-18T16:06:43.916Z</time></trkpt><trkpt lat="40.62903" lon="16.4656133"><ele>111.2</ele><time>2026-04-18T16:06:44.916Z</time></trkpt><trkpt lat="40.6290833" lon="16.4654833"><ele>110.6</ele><time>2026-04-18T16:06:45.915Z</time></trkpt><trkpt lat="40.6291483" lon="16.4653617"><ele>110.0</ele><time>2026-04-18T16:06:46.917Z</time></trkpt><trkpt lat="40.62923" lon="16.4652467"><ele>109.25</ele><time>2026-04-18T16:06:47.916Z</time></trkpt><trkpt lat="40.6293267" lon="16.465135"><ele>108.5</ele><time>2026-04-18T16:06:48.916Z</time></trkpt><trkpt lat="40.629435" lon="16.4650233"><ele>107.75</ele><time>2026-04-18T16:06:49.916Z</time></trkpt><trkpt lat="40.6295517" lon="16.4649083"><ele>107.0</ele><time>2026-04-18T16:06:50.916Z</time></trkpt><trkpt lat="40.6296683" lon="16.4647883"><ele>106.66666666666666</ele><time>2026-04-18T16:06:51.917Z</time></trkpt><trkpt lat="40.6297867" lon="16.46466"><ele>106.33333333333334</ele><time>2026-04-18T16:06:52.917Z</time></trkpt><trkpt lat="40.629915" lon="16.4645233"><ele>106.0</ele><time>2026-04-18T16:06:53.916Z</time></trkpt><trkpt lat="40.6300517" lon="16.464375"><ele>106.0</ele><time>2026-04-18T16:06:54.917Z</time></trkpt><trkpt lat="40.6301883" lon="16.4642317"><ele>106.0</ele><time>2026-04-18T16:06:55.916Z</time></trkpt><trkpt lat="40.6303167" lon="16.4640933"><ele>106.0</ele><time>2026-04-18T16:06:56.916Z</time></trkpt><trkpt lat="40.6304483" lon="16.46395"><ele>107.33333333333334</ele><time>2026-04-18T16:06:57.915Z</time></trkpt><trkpt lat="40.6305817" lon="16.4638033"><ele>108.66666666666666</ele><time>2026-04-18T16:06:58.916Z</time></trkpt><trkpt lat="40.6307167" lon="16.463655"><ele>110.0</ele><time>2026-04-18T16:06:59.915Z</time></trkpt><trkpt lat="40.6308483" lon="16.4635117"><ele>110.0</ele><time>2026-04-18T16:07:00.916Z</time></trkpt><trkpt lat="40.63098" lon="16.4633717"><ele>110.0</ele><time>2026-04-18T16:07:01.917Z</time></trkpt><trkpt lat="40.6311133" lon="16.4632317"><ele>110.0</ele><time>2026-04-18T16:07:02.916Z</time></trkpt><trkpt lat="40.6312483" lon="16.4630867"><ele>110.66666666666666</ele><time>2026-04-18T16:07:03.916Z</time></trkpt><trkpt lat="40.631385" lon="16.462935"><ele>111.33333333333334</ele><time>2026-04-18T16:07:04.917Z</time></trkpt><trkpt lat="40.6315333" lon="16.4627733"><ele>112.0</ele><time>2026-04-18T16:07:05.916Z</time></trkpt><trkpt lat="40.6316867" lon="16.46261"><ele>112.0</ele><time>2026-04-18T16:07:06.916Z</time></trkpt><trkpt lat="40.631835" lon="16.4624517"><ele>112.0</ele><time>2026-04-18T16:07:07.916Z</time></trkpt><trkpt lat="40.631985" lon="16.462295"><ele>112.0</ele><time>2026-04-18T16:07:08.917Z</time></trkpt><trkpt lat="40.6321317" lon="16.4621383"><ele>112.33333333333334</ele><time>2026-04-18T16:07:09.916Z</time></trkpt><trkpt lat="40.6322717" lon="16.4619833"><ele>112.66666666666666</ele><time>2026-04-18T16:07:10.917Z</time></trkpt><trkpt lat="40.6324067" lon="16.4618333"><ele>113.0</ele><time>2026-04-18T16:07:11.916Z</time></trkpt><trkpt lat="40.6325333" lon="16.4616883"><ele>113.0</ele><time>2026-04-18T16:07:12.916Z</time></trkpt><trkpt lat="40.63265" lon="16.461555"><ele>113.0</ele><time>2026-04-18T16:07:13.916Z</time></trkpt><trkpt lat="40.6327633" lon="16.4614317"><ele>113.0</ele><time>2026-04-18T16:07:14.918Z</time></trkpt><trkpt lat="40.6328783" lon="16.4613133"><ele>113.0</ele><time>2026-04-18T16:07:15.916Z</time></trkpt><trkpt lat="40.633" lon="16.461185"><ele>114.33333333333333</ele><time>2026-04-18T16:07:16.916Z</time></trkpt><trkpt lat="40.6331233" lon="16.46105"><ele>115.66666666666666</ele><time>2026-04-18T16:07:17.915Z</time></trkpt><trkpt lat="40.6332533" lon="16.46091"><ele>117.0</ele><time>2026-04-18T16:07:18.916Z</time></trkpt><trkpt lat="40.6333833" lon="16.46077"><ele>117.0</ele><time>2026-04-18T16:07:19.917Z</time></trkpt><trkpt lat="40.6335167" lon="16.4606283"><ele>117.0</ele><time>2026-04-18T16:07:20.917Z</time></trkpt><trkpt lat="40.6336517" lon="16.46048"><ele>117.0</ele><time>2026-04-18T16:07:21.917Z</time></trkpt><trkpt lat="40.6337867" lon="16.4603317"><ele>117.0</ele><time>2026-04-18T16:07:22.92Z</time></trkpt><trkpt lat="40.6339167" lon="16.4601917"><ele>117.0</ele><time>2026-04-18T16:07:23.917Z</time></trkpt><trkpt lat="40.6340433" lon="16.460055"><ele>117.0</ele><time>2026-04-18T16:07:24.916Z</time></trkpt><trkpt lat="40.6341667" lon="16.4599233"><ele>117.0</ele><time>2026-04-18T16:07:25.917Z</time></trkpt><trkpt lat="40.634295" lon="16.4597867"><ele>117.0</ele><time>2026-04-18T16:07:26.916Z</time></trkpt><trkpt lat="40.634425" lon="16.4596533"><ele>117.0</ele><time>2026-04-18T16:07:27.917Z</time></trkpt><trkpt lat="40.6345617" lon="16.4595033"><ele>116.0</ele><time>2026-04-18T16:07:28.916Z</time></trkpt><trkpt lat="40.6347033" lon="16.4593483"><ele>115.0</ele><time>2026-04-18T16:07:29.917Z</time></trkpt><trkpt lat="40.634845" lon="16.4592"><ele>114.0</ele><time>2026-04-18T16:07:30.917Z</time></trkpt><trkpt lat="40.634975" lon="16.4590583"><ele>114.0</ele><time>2026-04-18T16:07:31.916Z</time></trkpt><trkpt lat="40.6351" lon="16.4589217"><ele>114.0</ele><time>2026-04-18T16:07:32.916Z</time></trkpt><trkpt lat="40.63523" lon="16.4587833"><ele>114.0</ele><time>2026-04-18T16:07:33.916Z</time></trkpt><trkpt lat="40.63536" lon="16.4586433"><ele>115.66666666666666</ele><time>2026-04-18T16:07:34.916Z</time></trkpt><trkpt lat="40.635495" lon="16.4585017"><ele>117.33333333333333</ele><time>2026-04-18T16:07:35.917Z</time></trkpt><trkpt lat="40.63563" lon="16.4583583"><ele>119.0</ele><time>2026-04-18T16:07:36.916Z</time></trkpt><trkpt lat="40.6357617" lon="16.4582167"><ele>119.0</ele><time>2026-04-18T16:07:37.916Z</time></trkpt><trkpt lat="40.6358933" lon="16.458075"><ele>119.0</ele><time>2026-04-18T16:07:38.917Z</time></trkpt><trkpt lat="40.6360233" lon="16.45794"><ele>119.0</ele><time>2026-04-18T16:07:39.916Z</time></trkpt><trkpt lat="40.6361467" lon="16.4578183"><ele>118.0</ele><time>2026-04-18T16:07:40.917Z</time></trkpt><trkpt lat="40.63627" lon="16.4577117"><ele>117.0</ele><time>2026-04-18T16:07:41.916Z</time></trkpt><trkpt lat="40.6364083" lon="16.4576233"><ele>116.0</ele><time>2026-04-18T16:07:42.916Z</time></trkpt><trkpt lat="40.6365617" lon="16.4575517"><ele>116.0</ele><time>2026-04-18T16:07:43.916Z</time></trkpt><trkpt lat="40.6367217" lon="16.4574917"><ele>116.0</ele><time>2026-04-18T16:07:44.916Z</time></trkpt><trkpt lat="40.63688" lon="16.45744"><ele>116.0</ele><time>2026-04-18T16:07:45.915Z</time></trkpt><trkpt lat="40.6370283" lon="16.4573933"><ele>116.5</ele><time>2026-04-18T16:07:46.917Z</time></trkpt><trkpt lat="40.6371633" lon="16.4573483"><ele>117.0</ele><time>2026-04-18T16:07:47.915Z</time></trkpt><trkpt lat="40.6372883" lon="16.45731"><ele>117.5</ele><time>2026-04-18T16:07:48.916Z</time></trkpt><trkpt lat="40.6374083" lon="16.4572717"><ele>118.0</ele><time>2026-04-18T16:07:49.916Z</time></trkpt><trkpt lat="40.6375217" lon="16.4572217"><ele>118.0</ele><time>2026-04-18T16:07:50.916Z</time></trkpt><trkpt lat="40.6376333" lon="16.457145"><ele>118.0</ele><time>2026-04-18T16:07:51.916Z</time></trkpt><trkpt lat="40.6377367" lon="16.4570433"><ele>118.0</ele><time>2026-04-18T16:07:52.916Z</time></trkpt><trkpt lat="40.637825" lon="16.456925"><ele>118.0</ele><time>2026-04-18T16:07:53.916Z</time></trkpt><trkpt lat="40.6379" lon="16.4567983"><ele>117.25</ele><time>2026-04-18T16:07:54.916Z</time></trkpt><trkpt lat="40.6379617" lon="16.4566583"><ele>116.5</ele><time>2026-04-18T16:07:55.917Z</time></trkpt><trkpt lat="40.638015" lon="16.456495"><ele>115.75</ele><time>2026-04-18T16:07:56.916Z</time></trkpt><trkpt lat="40.638065" lon="16.4563117"><ele>115.0</ele><time>2026-04-18T16:07:57.916Z</time></trkpt><trkpt lat="40.6381083" lon="16.4560983"><ele>114.33333333333334</ele><time>2026-04-18T16:07:58.917Z</time></trkpt><trkpt lat="40.6381583" lon="16.455845"><ele>113.66666666666666</ele><time>2026-04-18T16:07:59.917Z</time></trkpt><trkpt lat="40.638215" lon="16.4555733"><ele>113.0</ele><time>2026-04-18T16:08:00.917Z</time></trkpt><trkpt lat="40.6382683" lon="16.4553167"><ele>112.66666666666666</ele><time>2026-04-18T16:08:01.918Z</time></trkpt><trkpt lat="40.6383133" lon="16.4550883"><ele>112.33333333333334</ele><time>2026-04-18T16:08:02.918Z</time></trkpt><trkpt lat="40.6383517" lon="16.4548883"><ele>112.0</ele><time>2026-04-18T16:08:03.917Z</time></trkpt><trkpt lat="40.63839" lon="16.454715"><ele>112.5</ele><time>2026-04-18T16:08:04.917Z</time></trkpt><trkpt lat="40.638435" lon="16.4545567"><ele>113.0</ele><time>2026-04-18T16:08:05.917Z</time></trkpt><trkpt lat="40.6384967" lon="16.4544117"><ele>113.5</ele><time>2026-04-18T16:08:06.916Z</time></trkpt><trkpt lat="40.6385767" lon="16.45427"><ele>114.0</ele><time>2026-04-18T16:08:07.917Z</time></trkpt><trkpt lat="40.63867" lon="16.4541283"><ele>114.0</ele><time>2026-04-18T16:08:08.916Z</time></trkpt><trkpt lat="40.6387717" lon="16.4539783"><ele>114.0</ele><time>2026-04-18T16:08:09.917Z</time></trkpt><trkpt lat="40.638885" lon="16.45382"><ele>114.0</ele><time>2026-04-18T16:08:10.917Z</time></trkpt><trkpt lat="40.6390067" lon="16.453655"><ele>115.33333333333334</ele><time>2026-04-18T16:08:11.916Z</time></trkpt><trkpt lat="40.6391333" lon="16.4534867"><ele>116.66666666666667</ele><time>2026-04-18T16:08:12.917Z</time></trkpt><trkpt lat="40.6392633" lon="16.4533133"><ele>118.0</ele><time>2026-04-18T16:08:13.917Z</time></trkpt><trkpt lat="40.639395" lon="16.4531333"><ele>120.33333333333334</ele><time>2026-04-18T16:08:14.916Z</time></trkpt><trkpt lat="40.639525" lon="16.452955"><ele>122.66666666666666</ele><time>2026-04-18T16:08:15.916Z</time></trkpt><trkpt lat="40.639645" lon="16.4527917"><ele>125.0</ele><time>2026-04-18T16:08:16.916Z</time></trkpt><trkpt lat="40.63976" lon="16.452635"><ele>125.0</ele><time>2026-04-18T16:08:17.917Z</time></trkpt><trkpt lat="40.63987" lon="16.4524867"><ele>125.0</ele><time>2026-04-18T16:08:18.917Z</time></trkpt><trkpt lat="40.6399783" lon="16.452355"><ele>125.0</ele><time>2026-04-18T16:08:19.916Z</time></trkpt><trkpt lat="40.6400933" lon="16.4522417"><ele>125.0</ele><time>2026-04-18T16:08:20.916Z</time></trkpt><trkpt lat="40.6402183" lon="16.452145"><ele>126.33333333333333</ele><time>2026-04-18T16:08:21.917Z</time></trkpt><trkpt lat="40.6403583" lon="16.45206"><ele>127.66666666666666</ele><time>2026-04-18T16:08:22.916Z</time></trkpt><trkpt lat="40.64051" lon="16.45198"><ele>129.0</ele><time>2026-04-18T16:08:23.917Z</time></trkpt><trkpt lat="40.6406533" lon="16.4519067"><ele>129.0</ele><time>2026-04-18T16:08:24.916Z</time></trkpt><trkpt lat="40.640785" lon="16.45185"><ele>129.0</ele><time>2026-04-18T16:08:25.917Z</time></trkpt><trkpt lat="40.6409183" lon="16.4518133"><ele>129.0</ele><time>2026-04-18T16:08:26.916Z</time></trkpt><trkpt lat="40.641055" lon="16.4518033"><ele>129.0</ele><time>2026-04-18T16:08:27.916Z</time></trkpt><trkpt lat="40.6411983" lon="16.4518183"><ele>131.33333333333334</ele><time>2026-04-18T16:08:28.915Z</time></trkpt><trkpt lat="40.641355" lon="16.4518417"><ele>133.66666666666669</ele><time>2026-04-18T16:08:29.915Z</time></trkpt><trkpt lat="40.6415083" lon="16.451865"><ele>136.0</ele><time>2026-04-18T16:08:30.915Z</time></trkpt><trkpt lat="40.6416517" lon="16.4518767"><ele>136.0</ele><time>2026-04-18T16:08:31.917Z</time></trkpt><trkpt lat="40.6417833" lon="16.4518783"><ele>136.0</ele><time>2026-04-18T16:08:32.916Z</time></trkpt><trkpt lat="40.641905" lon="16.45186"><ele>136.0</ele><time>2026-04-18T16:08:33.917Z</time></trkpt><trkpt lat="40.64202" lon="16.45182"><ele>136.0</ele><time>2026-04-18T16:08:34.916Z</time></trkpt><trkpt lat="40.6421283" lon="16.4517517"><ele>136.5</ele><time>2026-04-18T16:08:35.917Z</time></trkpt><trkpt lat="40.64223" lon="16.4516483"><ele>137.0</ele><time>2026-04-18T16:08:36.916Z</time></trkpt><trkpt lat="40.6423317" lon="16.451525"><ele>137.5</ele><time>2026-04-18T16:08:37.917Z</time></trkpt><trkpt lat="40.64244" lon="16.45139"><ele>138.0</ele><time>2026-04-18T16:08:38.916Z</time></trkpt><trkpt lat="40.642545" lon="16.4512517"><ele>138.0</ele><time>2026-04-18T16:08:39.917Z</time></trkpt><trkpt lat="40.642645" lon="16.451115"><ele>138.0</ele><time>2026-04-18T16:08:40.917Z</time></trkpt><trkpt lat="40.6427383" lon="16.4509917"><ele>138.0</ele><time>2026-04-18T16:08:41.916Z</time></trkpt><trkpt lat="40.6428283" lon="16.4508767"><ele>138.0</ele><time>2026-04-18T16:08:42.916Z</time></trkpt><trkpt lat="40.6429233" lon="16.45077"><ele>139.75</ele><time>2026-04-18T16:08:43.917Z</time></trkpt><trkpt lat="40.643025" lon="16.450675"><ele>141.5</ele><time>2026-04-18T16:08:44.916Z</time></trkpt><trkpt lat="40.6431333" lon="16.4505817"><ele>143.25</ele><time>2026-04-18T16:08:45.916Z</time></trkpt><trkpt lat="40.6432533" lon="16.4504933"><ele>145.0</ele><time>2026-04-18T16:08:46.917Z</time></trkpt><trkpt lat="40.64338" lon="16.45042"><ele>145.0</ele><time>2026-04-18T16:08:47.916Z</time></trkpt><trkpt lat="40.643515" lon="16.45037"><ele>145.0</ele><time>2026-04-18T16:08:48.915Z</time></trkpt><trkpt lat="40.6436567" lon="16.4503517"><ele>145.0</ele><time>2026-04-18T16:08:49.918Z</time></trkpt><trkpt lat="40.6438067" lon="16.4503567"><ele>145.0</ele><time>2026-04-18T16:08:50.916Z</time></trkpt><trkpt lat="40.6439683" lon="16.4503717"><ele>146.66666666666669</ele><time>2026-04-18T16:08:51.916Z</time></trkpt><trkpt lat="40.6441417" lon="16.4503917"><ele>148.33333333333334</ele><time>2026-04-18T16:08:52.916Z</time></trkpt><trkpt lat="40.644315" lon="16.4504067"><ele>150.0</ele><time>2026-04-18T16:08:53.916Z</time></trkpt><trkpt lat="40.6444717" lon="16.4504217"><ele>150.0</ele><time>2026-04-18T16:08:54.917Z</time></trkpt><trkpt lat="40.6446183" lon="16.450435"><ele>150.0</ele><time>2026-04-18T16:08:55.917Z</time></trkpt><trkpt lat="40.6447617" lon="16.4504483"><ele>150.0</ele><time>2026-04-18T16:08:56.917Z</time></trkpt><trkpt lat="40.644905" lon="16.4504567"><ele>150.0</ele><time>2026-04-18T16:08:57.916Z</time></trkpt><trkpt lat="40.645055" lon="16.450455"><ele>150.0</ele><time>2026-04-18T16:08:58.917Z</time></trkpt><trkpt lat="40.64521" lon="16.45044"><ele>150.0</ele><time>2026-04-18T16:08:59.916Z</time></trkpt><trkpt lat="40.64537" lon="16.4504083"><ele>150.0</ele><time>2026-04-18T16:09:00.916Z</time></trkpt><trkpt lat="40.6455367" lon="16.4503733"><ele>149.66666666666666</ele><time>2026-04-18T16:09:01.916Z</time></trkpt><trkpt lat="40.6457017" lon="16.4503467"><ele>149.33333333333331</ele><time>2026-04-18T16:09:02.916Z</time></trkpt><trkpt lat="40.645855" lon="16.4503233"><ele>149.0</ele><time>2026-04-18T16:09:03.917Z</time></trkpt><trkpt lat="40.6459917" lon="16.450295"><ele>149.0</ele><time>2026-04-18T16:09:04.916Z</time></trkpt><trkpt lat="40.6461167" lon="16.45026"><ele>149.0</ele><time>2026-04-18T16:09:05.916Z</time></trkpt><trkpt lat="40.64623" lon="16.4502083"><ele>149.0</ele><time>2026-04-18T16:09:06.916Z</time></trkpt><trkpt lat="40.64634" lon="16.4501367"><ele>149.0</ele><time>2026-04-18T16:09:07.916Z</time></trkpt><trkpt lat="40.6464433" lon="16.4500433"><ele>150.5</ele><time>2026-04-18T16:09:08.917Z</time></trkpt><trkpt lat="40.6465383" lon="16.4499217"><ele>152.0</ele><time>2026-04-18T16:09:09.917Z</time></trkpt><trkpt lat="40.646625" lon="16.4497767"><ele>153.5</ele><time>2026-04-18T16:09:10.917Z</time></trkpt><trkpt lat="40.6467117" lon="16.4496067"><ele>155.0</ele><time>2026-04-18T16:09:11.916Z</time></trkpt><trkpt lat="40.646805" lon="16.4494033"><ele>155.0</ele><time>2026-04-18T16:09:12.918Z</time></trkpt><trkpt lat="40.6469067" lon="16.4491767"><ele>155.0</ele><time>2026-04-18T16:09:13.917Z</time></trkpt><trkpt lat="40.647005" lon="16.4489517"><ele>155.0</ele><time>2026-04-18T16:09:14.916Z</time></trkpt><trkpt lat="40.6470917" lon="16.4487533"><ele>155.25</ele><time>2026-04-18T16:09:15.916Z</time></trkpt><trkpt lat="40.6471717" lon="16.4485817"><ele>155.5</ele><time>2026-04-18T16:09:16.917Z</time></trkpt><trkpt lat="40.647255" lon="16.4484317"><ele>155.75</ele><time>2026-04-18T16:09:17.916Z</time></trkpt><trkpt lat="40.6473467" lon="16.4483"><ele>156.0</ele><time>2026-04-18T16:09:18.915Z</time></trkpt><trkpt lat="40.647455" lon="16.448185"><ele>156.0</ele><time>2026-04-18T16:09:19.916Z</time></trkpt><trkpt lat="40.6475767" lon="16.44809"><ele>156.0</ele><time>2026-04-18T16:09:20.916Z</time></trkpt><trkpt lat="40.6477111" lon="16.4480179"><ele>156.0</ele><time>2026-04-18T16:09:21.916Z</time></trkpt><trkpt lat="40.6478583" lon="16.4479788"><ele>156.0</ele><time>2026-04-18T16:09:22.916Z</time></trkpt><trkpt lat="40.6480143" lon="16.4479634"><ele>157.66666666666666</ele><time>2026-04-18T16:09:23.917Z</time></trkpt><trkpt lat="40.6481707" lon="16.4479542"><ele>159.33333333333331</ele><time>2026-04-18T16:09:24.916Z</time></trkpt><trkpt lat="40.6483238" lon="16.4479412"><ele>161.0</ele><time>2026-04-18T16:09:25.915Z</time></trkpt><trkpt lat="40.6484803" lon="16.4479132"><ele>160.33333333333331</ele><time>2026-04-18T16:09:26.917Z</time></trkpt><trkpt lat="40.648643" lon="16.4478708"><ele>159.66666666666666</ele><time>2026-04-18T16:09:27.917Z</time></trkpt><trkpt lat="40.6488013" lon="16.447818"><ele>159.0</ele><time>2026-04-18T16:09:28.916Z</time></trkpt><trkpt lat="40.6489449" lon="16.4477655"><ele>159.0</ele><time>2026-04-18T16:09:29.917Z</time></trkpt><trkpt lat="40.6490779" lon="16.4477207"><ele>159.0</ele><time>2026-04-18T16:09:30.916Z</time></trkpt><trkpt lat="40.6492048" lon="16.4476995"><ele>159.0</ele><time>2026-04-18T16:09:31.917Z</time></trkpt><trkpt lat="40.6493263" lon="16.4477016"><ele>159.0</ele><time>2026-04-18T16:09:32.916Z</time></trkpt><trkpt lat="40.6494426" lon="16.4477222"><ele>158.25</ele><time>2026-04-18T16:09:33.916Z</time></trkpt><trkpt lat="40.649557" lon="16.4477614"><ele>157.5</ele><time>2026-04-18T16:09:34.915Z</time></trkpt><trkpt lat="40.6496749" lon="16.4478098"><ele>156.75</ele><time>2026-04-18T16:09:35.916Z</time></trkpt><trkpt lat="40.6497909" lon="16.447857"><ele>156.0</ele><time>2026-04-18T16:09:36.916Z</time></trkpt><trkpt lat="40.6499041" lon="16.4478981"><ele>156.0</ele><time>2026-04-18T16:09:37.917Z</time></trkpt><trkpt lat="40.6500153" lon="16.4479294"><ele>156.0</ele><time>2026-04-18T16:09:38.916Z</time></trkpt><trkpt lat="40.6501335" lon="16.4479522"><ele>156.0</ele><time>2026-04-18T16:09:39.916Z</time></trkpt><trkpt lat="40.6502617" lon="16.4479655"><ele>156.0</ele><time>2026-04-18T16:09:40.916Z</time></trkpt><trkpt lat="40.6503929" lon="16.4479705"><ele>155.0</ele><time>2026-04-18T16:09:41.916Z</time></trkpt><trkpt lat="40.6505159" lon="16.4479627"><ele>154.0</ele><time>2026-04-18T16:09:42.916Z</time></trkpt><trkpt lat="40.650629" lon="16.4479395"><ele>153.0</ele><time>2026-04-18T16:09:43.917Z</time></trkpt><trkpt lat="40.6507324" lon="16.4478937"><ele>152.0</ele><time>2026-04-18T16:09:44.916Z</time></trkpt><trkpt lat="40.6508305" lon="16.4478262"><ele>152.0</ele><time>2026-04-18T16:09:45.916Z</time></trkpt><trkpt lat="40.650917" lon="16.4477439"><ele>152.0</ele><time>2026-04-18T16:09:46.916Z</time></trkpt><trkpt lat="40.6509789" lon="16.4476674"><ele>152.0</ele><time>2026-04-18T16:09:47.916Z</time></trkpt><trkpt lat="40.6510207" lon="16.4476027"><ele>152.0</ele><time>2026-04-18T16:09:48.917Z</time></trkpt><trkpt lat="40.6510772" lon="16.4474776"><ele>152.0</ele><time>2026-04-18T16:09:50.916Z</time></trkpt><trkpt lat="40.6510994" lon="16.4473997"><ele>152.0</ele><time>2026-04-18T16:09:51.917Z</time></trkpt><trkpt lat="40.6511174" lon="16.447314"><ele>152.0</ele><time>2026-04-18T16:09:52.917Z</time></trkpt><trkpt lat="40.6511315" lon="16.44721"><ele>152.0</ele><time>2026-04-18T16:09:53.916Z</time></trkpt><trkpt lat="40.6511525" lon="16.4470883"><ele>152.0</ele><time>2026-04-18T16:09:54.918Z</time></trkpt><trkpt lat="40.6511845" lon="16.4469512"><ele>152.0</ele><time>2026-04-18T16:09:55.916Z</time></trkpt><trkpt lat="40.6512325" lon="16.4467962"><ele>152.0</ele><time>2026-04-18T16:09:56.917Z</time></trkpt><trkpt lat="40.6513041" lon="16.4466195"><ele>149.66666666666666</ele><time>2026-04-18T16:09:57.918Z</time></trkpt><trkpt lat="40.6513987" lon="16.4464142"><ele>147.33333333333334</ele><time>2026-04-18T16:09:58.917Z</time></trkpt><trkpt lat="40.6514997" lon="16.4461999"><ele>145.0</ele><time>2026-04-18T16:09:59.916Z</time></trkpt><trkpt lat="40.6515951" lon="16.4459988"><ele>145.0</ele><time>2026-04-18T16:10:00.918Z</time></trkpt><trkpt lat="40.6516832" lon="16.4458119"><ele>145.0</ele><time>2026-04-18T16:10:01.918Z</time></trkpt><trkpt lat="40.6517642" lon="16.4456362"><ele>145.0</ele><time>2026-04-18T16:10:02.917Z</time></trkpt><trkpt lat="40.6518345" lon="16.4454663"><ele>145.0</ele><time>2026-04-18T16:10:03.917Z</time></trkpt><trkpt lat="40.6518921" lon="16.4453013"><ele>145.0</ele><time>2026-04-18T16:10:04.916Z</time></trkpt><trkpt lat="40.6519361" lon="16.4451384"><ele>145.0</ele><time>2026-04-18T16:10:05.917Z</time></trkpt><trkpt lat="40.651966" lon="16.4449785"><ele>145.0</ele><time>2026-04-18T16:10:06.918Z</time></trkpt><trkpt lat="40.6519828" lon="16.4448232"><ele>144.4</ele><time>2026-04-18T16:10:07.917Z</time></trkpt><trkpt lat="40.6519858" lon="16.4446706"><ele>143.8</ele><time>2026-04-18T16:10:08.918Z</time></trkpt><trkpt lat="40.6519801" lon="16.444525"><ele>143.2</ele><time>2026-04-18T16:10:09.917Z</time></trkpt><trkpt lat="40.6519713" lon="16.4443836"><ele>142.6</ele><time>2026-04-18T16:10:10.917Z</time></trkpt><trkpt lat="40.6519563" lon="16.4442512"><ele>142.0</ele><time>2026-04-18T16:10:11.917Z</time></trkpt><trkpt lat="40.6519273" lon="16.444119"><ele>142.0</ele><time>2026-04-18T16:10:12.916Z</time></trkpt><trkpt lat="40.6518855" lon="16.4439834"><ele>142.0</ele><time>2026-04-18T16:10:13.917Z</time></trkpt><trkpt lat="40.6518326" lon="16.4438557"><ele>142.0</ele><time>2026-04-18T16:10:14.917Z</time></trkpt><trkpt lat="40.6517738" lon="16.4437388"><ele>142.0</ele><time>2026-04-18T16:10:15.917Z</time></trkpt><trkpt lat="40.6517156" lon="16.4436292"><ele>142.0</ele><time>2026-04-18T16:10:16.917Z</time></trkpt><trkpt lat="40.6516617" lon="16.4435228"><ele>140.0</ele><time>2026-04-18T16:10:17.916Z</time></trkpt><trkpt lat="40.6516113" lon="16.443427"><ele>138.0</ele><time>2026-04-18T16:10:18.918Z</time></trkpt><trkpt lat="40.6515657" lon="16.4433457"><ele>136.0</ele><time>2026-04-18T16:10:19.919Z</time></trkpt><trkpt lat="40.6515376" lon="16.4432481"><ele>134.0</ele><time>2026-04-18T16:10:21.917Z</time></trkpt><trkpt lat="40.6516" lon="16.4432033"><ele>132.0</ele><time>2026-04-18T16:14:52.916Z</time></trkpt><trkpt lat="40.6517183" lon="16.443235"><ele>130.0</ele><time>2026-04-18T16:14:54.918Z</time></trkpt><trkpt lat="40.651815" lon="16.443285"><ele>130.0</ele><time>2026-04-18T16:14:55.917Z</time></trkpt><trkpt lat="40.651935" lon="16.4433467"><ele>130.0</ele><time>2026-04-18T16:14:56.917Z</time></trkpt><trkpt lat="40.6520717" lon="16.4434167"><ele>130.0</ele><time>2026-04-18T16:14:57.916Z</time></trkpt><trkpt lat="40.6522233" lon="16.4434933"><ele>130.0</ele><time>2026-04-18T16:14:58.916Z</time></trkpt><trkpt lat="40.65239" lon="16.4435767"><ele>130.0</ele><time>2026-04-18T16:14:59.917Z</time></trkpt><trkpt lat="40.65258" lon="16.443665"><ele>130.0</ele><time>2026-04-18T16:15:00.916Z</time></trkpt><trkpt lat="40.6527817" lon="16.4437667"><ele>130.0</ele><time>2026-04-18T16:15:01.917Z</time></trkpt><trkpt lat="40.6529833" lon="16.4438717"><ele>131.0</ele><time>2026-04-18T16:15:02.917Z</time></trkpt><trkpt lat="40.6531833" lon="16.4439717"><ele>132.0</ele><time>2026-04-18T16:15:03.915Z</time></trkpt><trkpt lat="40.6533783" lon="16.4440683"><ele>133.0</ele><time>2026-04-18T16:15:04.916Z</time></trkpt><trkpt lat="40.6535733" lon="16.4441617"><ele>134.33333333333334</ele><time>2026-04-18T16:15:05.917Z</time></trkpt><trkpt lat="40.6537683" lon="16.4442583"><ele>135.66666666666666</ele><time>2026-04-18T16:15:06.917Z</time></trkpt><trkpt lat="40.6539617" lon="16.4443567"><ele>137.0</ele><time>2026-04-18T16:15:07.917Z</time></trkpt><trkpt lat="40.65415" lon="16.44445"><ele>137.0</ele><time>2026-04-18T16:15:08.916Z</time></trkpt><trkpt lat="40.6543267" lon="16.4445417"><ele>137.0</ele><time>2026-04-18T16:15:09.917Z</time></trkpt><trkpt lat="40.6544983" lon="16.4446267"><ele>137.0</ele><time>2026-04-18T16:15:10.917Z</time></trkpt><trkpt lat="40.6546633" lon="16.4447083"><ele>138.66666666666666</ele><time>2026-04-18T16:15:11.917Z</time></trkpt><trkpt lat="40.6548233" lon="16.4447833"><ele>140.33333333333334</ele><time>2026-04-18T16:15:12.917Z</time></trkpt><trkpt lat="40.6549867" lon="16.4448433"><ele>142.0</ele><time>2026-04-18T16:15:13.917Z</time></trkpt><trkpt lat="40.65516" lon="16.4448867"><ele>144.0</ele><time>2026-04-18T16:15:14.916Z</time></trkpt><trkpt lat="40.6553367" lon="16.4449067"><ele>146.0</ele><time>2026-04-18T16:15:15.917Z</time></trkpt><trkpt lat="40.6555167" lon="16.4449"><ele>148.0</ele><time>2026-04-18T16:15:16.917Z</time></trkpt><trkpt lat="40.6557083" lon="16.4448733"><ele>148.0</ele><time>2026-04-18T16:15:17.917Z</time></trkpt><trkpt lat="40.6559067" lon="16.4448383"><ele>148.0</ele><time>2026-04-18T16:15:18.917Z</time></trkpt><trkpt lat="40.656105" lon="16.4448033"><ele>148.0</ele><time>2026-04-18T16:15:19.916Z</time></trkpt><trkpt lat="40.6563017" lon="16.44477"><ele>146.66666666666669</ele><time>2026-04-18T16:15:20.917Z</time></trkpt><trkpt lat="40.65649" lon="16.4447333"><ele>145.33333333333334</ele><time>2026-04-18T16:15:21.997Z</time></trkpt><trkpt lat="40.6566683" lon="16.4447083"><ele>144.0</ele><time>2026-04-18T16:15:22.917Z</time></trkpt><trkpt lat="40.6568383" lon="16.444695"><ele>145.66666666666666</ele><time>2026-04-18T16:15:23.917Z</time></trkpt><trkpt lat="40.6570117" lon="16.4447017"><ele>147.33333333333331</ele><time>2026-04-18T16:15:24.918Z</time></trkpt><trkpt lat="40.6572" lon="16.4447233"><ele>149.0</ele><time>2026-04-18T16:15:25.917Z</time></trkpt><trkpt lat="40.6574167" lon="16.44476"><ele>149.0</ele><time>2026-04-18T16:15:26.918Z</time></trkpt><trkpt lat="40.6576483" lon="16.4448017"><ele>149.0</ele><time>2026-04-18T16:15:27.917Z</time></trkpt><trkpt lat="40.6578883" lon="16.4448433"><ele>150.0</ele><time>2026-04-18T16:15:28.916Z</time></trkpt><trkpt lat="40.65812" lon="16.444885"><ele>151.0</ele><time>2026-04-18T16:15:29.916Z</time></trkpt><trkpt lat="40.65833" lon="16.4449217"><ele>152.0</ele><time>2026-04-18T16:15:30.916Z</time></trkpt><trkpt lat="40.6585217" lon="16.4449517"><ele>153.0</ele><time>2026-04-18T16:15:31.919Z</time></trkpt><trkpt lat="40.658695" lon="16.4449783"><ele>154.0</ele><time>2026-04-18T16:15:32.917Z</time></trkpt><trkpt lat="40.6588567" lon="16.4449983"><ele>155.0</ele><time>2026-04-18T16:15:33.916Z</time></trkpt><trkpt lat="40.6590167" lon="16.4449967"><ele>155.0</ele><time>2026-04-18T16:15:34.917Z</time></trkpt><trkpt lat="40.6591833" lon="16.444965"><ele>155.0</ele><time>2026-04-18T16:15:35.917Z</time></trkpt><trkpt lat="40.6593667" lon="16.4449033"><ele>155.0</ele><time>2026-04-18T16:15:36.917Z</time></trkpt><trkpt lat="40.6595583" lon="16.4448117"><ele>156.0</ele><time>2026-04-18T16:15:37.916Z</time></trkpt><trkpt lat="40.6597633" lon="16.444695"><ele>157.0</ele><time>2026-04-18T16:15:38.916Z</time></trkpt><trkpt lat="40.6599833" lon="16.4445617"><ele>157.0</ele><time>2026-04-18T16:15:39.916Z</time></trkpt><trkpt lat="40.6602217" lon="16.444425"><ele>157.0</ele><time>2026-04-18T16:15:40.915Z</time></trkpt><trkpt lat="40.6604633" lon="16.4442867"><ele>159.5</ele><time>2026-04-18T16:15:41.915Z</time></trkpt><trkpt lat="40.6607" lon="16.4441533"><ele>162.0</ele><time>2026-04-18T16:15:42.915Z</time></trkpt><trkpt lat="40.660925" lon="16.444025"><ele>163.0</ele><time>2026-04-18T16:15:43.917Z</time></trkpt><trkpt lat="40.6611417" lon="16.4439033"><ele>164.0</ele><time>2026-04-18T16:15:44.917Z</time></trkpt><trkpt lat="40.6613533" lon="16.4437833"><ele>165.0</ele><time>2026-04-18T16:15:45.916Z</time></trkpt><trkpt lat="40.661565" lon="16.443665"><ele>166.0</ele><time>2026-04-18T16:15:46.916Z</time></trkpt><trkpt lat="40.661775" lon="16.4435483"><ele>168.5</ele><time>2026-04-18T16:15:47.916Z</time></trkpt><trkpt lat="40.6619933" lon="16.44343"><ele>171.0</ele><time>2026-04-18T16:15:48.917Z</time></trkpt><trkpt lat="40.66221" lon="16.44331"><ele>171.0</ele><time>2026-04-18T16:15:49.918Z</time></trkpt><trkpt lat="40.6624183" lon="16.4431917"><ele>171.0</ele><time>2026-04-18T16:15:50.917Z</time></trkpt><trkpt lat="40.6626233" lon="16.4430717"><ele>174.5</ele><time>2026-04-18T16:15:51.917Z</time></trkpt><trkpt lat="40.6628283" lon="16.442955"><ele>178.0</ele><time>2026-04-18T16:15:52.917Z</time></trkpt><trkpt lat="40.6630367" lon="16.4428383"><ele>178.0</ele><time>2026-04-18T16:15:53.916Z</time></trkpt><trkpt lat="40.66324" lon="16.4427233"><ele>178.0</ele><time>2026-04-18T16:15:54.918Z</time></trkpt><trkpt lat="40.6634333" lon="16.4426133"><ele>178.0</ele><time>2026-04-18T16:15:55.919Z</time></trkpt><trkpt lat="40.6636267" lon="16.442505"><ele>177.66666666666669</ele><time>2026-04-18T16:15:56.917Z</time></trkpt><trkpt lat="40.6638183" lon="16.4423967"><ele>177.33333333333334</ele><time>2026-04-18T16:15:57.917Z</time></trkpt><trkpt lat="40.6640117" lon="16.4422883"><ele>177.0</ele><time>2026-04-18T16:15:58.916Z</time></trkpt><trkpt lat="40.6642083" lon="16.4421783"><ele>179.0</ele><time>2026-04-18T16:15:59.916Z</time></trkpt><trkpt lat="40.664415" lon="16.4420583"><ele>181.0</ele><time>2026-04-18T16:16:00.916Z</time></trkpt><trkpt lat="40.6646317" lon="16.44193"><ele>182.5</ele><time>2026-04-18T16:16:01.917Z</time></trkpt><trkpt lat="40.66486" lon="16.4417967"><ele>184.0</ele><time>2026-04-18T16:16:02.916Z</time></trkpt><trkpt lat="40.66509" lon="16.44167"><ele>187.0</ele><time>2026-04-18T16:16:03.916Z</time></trkpt><trkpt lat="40.665305" lon="16.4415533"><ele>190.0</ele><time>2026-04-18T16:16:04.917Z</time></trkpt><trkpt lat="40.66551" lon="16.44144"><ele>190.0</ele><time>2026-04-18T16:16:05.916Z</time></trkpt><trkpt lat="40.665715" lon="16.441325"><ele>190.0</ele><time>2026-04-18T16:16:06.916Z</time></trkpt><trkpt lat="40.66591" lon="16.44121"><ele>190.0</ele><time>2026-04-18T16:16:07.917Z</time></trkpt><trkpt lat="40.6660933" lon="16.4411017"><ele>190.33333333333334</ele><time>2026-04-18T16:16:08.916Z</time></trkpt><trkpt lat="40.6662683" lon="16.4410033"><ele>190.66666666666666</ele><time>2026-04-18T16:16:09.916Z</time></trkpt><trkpt lat="40.6664367" lon="16.4409067"><ele>191.0</ele><time>2026-04-18T16:16:10.917Z</time></trkpt><trkpt lat="40.6666017" lon="16.440815"><ele>191.0</ele><time>2026-04-18T16:16:11.916Z</time></trkpt><trkpt lat="40.6667567" lon="16.44072"><ele>191.0</ele><time>2026-04-18T16:16:12.917Z</time></trkpt><trkpt lat="40.6669033" lon="16.44063"><ele>191.0</ele><time>2026-04-18T16:16:13.917Z</time></trkpt><trkpt lat="40.6670483" lon="16.44055"><ele>191.0</ele><time>2026-04-18T16:16:14.917Z</time></trkpt><trkpt lat="40.667195" lon="16.4404833"><ele>191.0</ele><time>2026-04-18T16:16:15.917Z</time></trkpt><trkpt lat="40.6673417" lon="16.440435"><ele>191.0</ele><time>2026-04-18T16:16:16.917Z</time></trkpt><trkpt lat="40.6674917" lon="16.4404083"><ele>193.0</ele><time>2026-04-18T16:16:17.918Z</time></trkpt><trkpt lat="40.6676517" lon="16.44041"><ele>195.0</ele><time>2026-04-18T16:16:18.918Z</time></trkpt><trkpt lat="40.66783" lon="16.4404317"><ele>197.0</ele><time>2026-04-18T16:16:19.921Z</time></trkpt><trkpt lat="40.6680267" lon="16.440465"><ele>196.0</ele><time>2026-04-18T16:16:20.917Z</time></trkpt><trkpt lat="40.6682417" lon="16.440505"><ele>195.0</ele><time>2026-04-18T16:16:21.918Z</time></trkpt><trkpt lat="40.6684617" lon="16.4405517"><ele>194.0</ele><time>2026-04-18T16:16:22.918Z</time></trkpt><trkpt lat="40.6686767" lon="16.4405967"><ele>194.0</ele><time>2026-04-18T16:16:23.918Z</time></trkpt><trkpt lat="40.66888" lon="16.4406383"><ele>194.0</ele><time>2026-04-18T16:16:24.918Z</time></trkpt><trkpt lat="40.6690667" lon="16.440675"><ele>194.0</ele><time>2026-04-18T16:16:25.919Z</time></trkpt><trkpt lat="40.6692367" lon="16.4407067"><ele>194.0</ele><time>2026-04-18T16:16:26.918Z</time></trkpt><trkpt lat="40.6694" lon="16.440735"><ele>194.0</ele><time>2026-04-18T16:16:27.917Z</time></trkpt><trkpt lat="40.6695583" lon="16.4407617"><ele>194.0</ele><time>2026-04-18T16:16:28.915Z</time></trkpt><trkpt lat="40.66971" lon="16.4407767"><ele>195.33333333333334</ele><time>2026-04-18T16:16:29.915Z</time></trkpt><trkpt lat="40.6698567" lon="16.4407717"><ele>196.66666666666669</ele><time>2026-04-18T16:16:30.915Z</time></trkpt><trkpt lat="40.6700067" lon="16.440745"><ele>198.0</ele><time>2026-04-18T16:16:31.917Z</time></trkpt><trkpt lat="40.6701583" lon="16.4407033"><ele>199.75</ele><time>2026-04-18T16:16:32.916Z</time></trkpt><trkpt lat="40.6703033" lon="16.4406567"><ele>201.5</ele><time>2026-04-18T16:16:33.916Z</time></trkpt><trkpt lat="40.6704333" lon="16.44061"><ele>203.25</ele><time>2026-04-18T16:16:34.916Z</time></trkpt><trkpt lat="40.670555" lon="16.4405733"><ele>205.0</ele><time>2026-04-18T16:16:35.916Z</time></trkpt><trkpt lat="40.6706717" lon="16.4405533"><ele>205.0</ele><time>2026-04-18T16:16:36.916Z</time></trkpt><trkpt lat="40.6707817" lon="16.4405567"><ele>205.0</ele><time>2026-04-18T16:16:37.917Z</time></trkpt><trkpt lat="40.6708833" lon="16.44058"><ele>205.0</ele><time>2026-04-18T16:16:38.916Z</time></trkpt><trkpt lat="40.6709733" lon="16.440635"><ele>205.0</ele><time>2026-04-18T16:16:39.917Z</time></trkpt><trkpt lat="40.6710483" lon="16.440725"><ele>205.0</ele><time>2026-04-18T16:16:40.917Z</time></trkpt><trkpt lat="40.67112" lon="16.440855"><ele>205.66666666666666</ele><time>2026-04-18T16:16:41.916Z</time></trkpt><trkpt lat="40.6711867" lon="16.4410183"><ele>206.33333333333331</ele><time>2026-04-18T16:16:42.917Z</time></trkpt><trkpt lat="40.6712567" lon="16.4412083"><ele>207.0</ele><time>2026-04-18T16:16:43.917Z</time></trkpt><trkpt lat="40.671335" lon="16.4414167"><ele>207.0</ele><time>2026-04-18T16:16:44.916Z</time></trkpt><trkpt lat="40.6714217" lon="16.4416533"><ele>207.0</ele><time>2026-04-18T16:16:45.915Z</time></trkpt><trkpt lat="40.6715117" lon="16.4419117"><ele>207.0</ele><time>2026-04-18T16:16:46.917Z</time></trkpt><trkpt lat="40.6716017" lon="16.4421767"><ele>205.66666666666669</ele><time>2026-04-18T16:16:47.916Z</time></trkpt><trkpt lat="40.6716917" lon="16.4424283"><ele>204.33333333333334</ele><time>2026-04-18T16:16:48.919Z</time></trkpt><trkpt lat="40.6717817" lon="16.4426767"><ele>203.0</ele><time>2026-04-18T16:16:49.918Z</time></trkpt><trkpt lat="40.671875" lon="16.4429333"><ele>202.33333333333334</ele><time>2026-04-18T16:16:50.918Z</time></trkpt><trkpt lat="40.6719683" lon="16.4431933"><ele>201.66666666666669</ele><time>2026-04-18T16:16:51.917Z</time></trkpt><trkpt lat="40.672055" lon="16.4434417"><ele>201.0</ele><time>2026-04-18T16:16:52.918Z</time></trkpt><trkpt lat="40.67214" lon="16.4436783"><ele>199.0</ele><time>2026-04-18T16:16:53.919Z</time></trkpt><trkpt lat="40.672225" lon="16.443915"><ele>197.0</ele><time>2026-04-18T16:16:54.92Z</time></trkpt><trkpt lat="40.672315" lon="16.4441667"><ele>195.0</ele><time>2026-04-18T16:16:55.918Z</time></trkpt><trkpt lat="40.6724017" lon="16.4444133"><ele>193.66666666666666</ele><time>2026-04-18T16:16:56.918Z</time></trkpt><trkpt lat="40.6724817" lon="16.4446517"><ele>192.33333333333331</ele><time>2026-04-18T16:16:57.916Z</time></trkpt><trkpt lat="40.6725583" lon="16.4448783"><ele>191.0</ele><time>2026-04-18T16:16:58.916Z</time></trkpt><trkpt lat="40.6726322" lon="16.4450953"><ele>191.0</ele><time>2026-04-18T16:16:59.915Z</time></trkpt><trkpt lat="40.6727032" lon="16.4452971"><ele>191.0</ele><time>2026-04-18T16:17:00.916Z</time></trkpt><trkpt lat="40.6727694" lon="16.4454834"><ele>191.0</ele><time>2026-04-18T16:17:01.917Z</time></trkpt><trkpt lat="40.6728294" lon="16.4456541"><ele>190.20000000000002</ele><time>2026-04-18T16:17:02.916Z</time></trkpt><trkpt lat="40.6728794" lon="16.4458078"><ele>189.4</ele><time>2026-04-18T16:17:03.916Z</time></trkpt><trkpt lat="40.6729264" lon="16.4459434"><ele>188.6</ele><time>2026-04-18T16:17:04.917Z</time></trkpt><trkpt lat="40.6729752" lon="16.4460572"><ele>187.8</ele><time>2026-04-18T16:17:05.916Z</time></trkpt><trkpt lat="40.6730292" lon="16.4461394"><ele>187.0</ele><time>2026-04-18T16:17:06.916Z</time></trkpt><trkpt lat="40.6730919" lon="16.4461938"><ele>187.0</ele><time>2026-04-18T16:17:07.918Z</time></trkpt><trkpt lat="40.6731615" lon="16.4462147"><ele>187.0</ele><time>2026-04-18T16:17:08.915Z</time></trkpt><trkpt lat="40.673235" lon="16.4461924"><ele>187.0</ele><time>2026-04-18T16:17:09.916Z</time></trkpt><trkpt lat="40.6733088" lon="16.4461316"><ele>187.0</ele><time>2026-04-18T16:17:10.916Z</time></trkpt><trkpt lat="40.6733736" lon="16.4460356"><ele>187.0</ele><time>2026-04-18T16:17:11.916Z</time></trkpt><trkpt lat="40.6734078" lon="16.4458992"><ele>187.0</ele><time>2026-04-18T16:17:12.916Z</time></trkpt><trkpt lat="40.6734127" lon="16.4457314"><ele>187.0</ele><time>2026-04-18T16:17:13.917Z</time></trkpt><trkpt lat="40.67341" lon="16.4455465"><ele>187.0</ele><time>2026-04-18T16:17:14.916Z</time></trkpt><trkpt lat="40.6734081" lon="16.4453555"><ele>187.0</ele><time>2026-04-18T16:17:15.916Z</time></trkpt><trkpt lat="40.673412" lon="16.4451798"><ele>187.0</ele><time>2026-04-18T16:17:16.918Z</time></trkpt><trkpt lat="40.6734225" lon="16.4450214"><ele>186.75</ele><time>2026-04-18T16:17:17.917Z</time></trkpt><trkpt lat="40.6734453" lon="16.4448717"><ele>186.5</ele><time>2026-04-18T16:17:18.917Z</time></trkpt><trkpt lat="40.6734844" lon="16.4447201"><ele>186.25</ele><time>2026-04-18T16:17:19.917Z</time></trkpt><trkpt lat="40.673545" lon="16.4445612"><ele>186.0</ele><time>2026-04-18T16:17:20.916Z</time></trkpt><trkpt lat="40.6736211" lon="16.4443935"><ele>182.66666666666666</ele><time>2026-04-18T16:17:21.917Z</time></trkpt><trkpt lat="40.6737009" lon="16.444225"><ele>179.33333333333331</ele><time>2026-04-18T16:17:22.917Z</time></trkpt><trkpt lat="40.6737813" lon="16.4440545"><ele>176.0</ele><time>2026-04-18T16:17:23.917Z</time></trkpt><trkpt lat="40.6738632" lon="16.443875"><ele>176.66666666666666</ele><time>2026-04-18T16:17:24.917Z</time></trkpt><trkpt lat="40.6739538" lon="16.4436882"><ele>177.33333333333334</ele><time>2026-04-18T16:17:25.917Z</time></trkpt><trkpt lat="40.674054" lon="16.4434967"><ele>178.0</ele><time>2026-04-18T16:17:26.916Z</time></trkpt><trkpt lat="40.6741499" lon="16.4433132"><ele>178.0</ele><time>2026-04-18T16:17:27.916Z</time></trkpt><trkpt lat="40.6742316" lon="16.4431468"><ele>178.0</ele><time>2026-04-18T16:17:28.917Z</time></trkpt><trkpt lat="40.6743027" lon="16.442999"><ele>178.0</ele><time>2026-04-18T16:17:29.916Z</time></trkpt><trkpt lat="40.6743667" lon="16.4428706"><ele>178.0</ele><time>2026-04-18T16:17:30.917Z</time></trkpt><trkpt lat="40.6744273" lon="16.4427593"><ele>177.60000000000002</ele><time>2026-04-18T16:17:31.917Z</time></trkpt><trkpt lat="40.6744933" lon="16.4426733"><ele>177.20000000000002</ele><time>2026-04-18T16:17:32.916Z</time></trkpt><trkpt lat="40.6745767" lon="16.4426083"><ele>176.8</ele><time>2026-04-18T16:17:33.916Z</time></trkpt><trkpt lat="40.67468" lon="16.4425817"><ele>176.4</ele><time>2026-04-18T16:17:34.916Z</time></trkpt><trkpt lat="40.6747883" lon="16.4426"><ele>176.0</ele><time>2026-04-18T16:17:35.916Z</time></trkpt><trkpt lat="40.6749017" lon="16.442655"><ele>176.0</ele><time>2026-04-18T16:17:36.916Z</time></trkpt><trkpt lat="40.6750183" lon="16.44274"><ele>176.0</ele><time>2026-04-18T16:17:37.917Z</time></trkpt><trkpt lat="40.6751467" lon="16.4428417"><ele>176.0</ele><time>2026-04-18T16:17:38.916Z</time></trkpt><trkpt lat="40.6752883" lon="16.4429417"><ele>176.0</ele><time>2026-04-18T16:17:39.916Z</time></trkpt><trkpt lat="40.6754417" lon="16.443045"><ele>174.0</ele><time>2026-04-18T16:17:40.918Z</time></trkpt><trkpt lat="40.6756067" lon="16.4431633"><ele>172.0</ele><time>2026-04-18T16:17:41.916Z</time></trkpt><trkpt lat="40.6757767" lon="16.44328"><ele>170.0</ele><time>2026-04-18T16:17:42.917Z</time></trkpt><trkpt lat="40.675945" lon="16.4433933"><ele>172.0</ele><time>2026-04-18T16:17:43.917Z</time></trkpt><trkpt lat="40.676115" lon="16.44351"><ele>174.0</ele><time>2026-04-18T16:17:44.917Z</time></trkpt><trkpt lat="40.676285" lon="16.44363"><ele>176.0</ele><time>2026-04-18T16:17:45.917Z</time></trkpt><trkpt lat="40.6764533" lon="16.44375"><ele>173.66666666666666</ele><time>2026-04-18T16:17:46.917Z</time></trkpt><trkpt lat="40.67663" lon="16.443865"><ele>171.33333333333334</ele><time>2026-04-18T16:17:47.917Z</time></trkpt><trkpt lat="40.6768133" lon="16.44397"><ele>169.0</ele><time>2026-04-18T16:17:48.917Z</time></trkpt><trkpt lat="40.677005" lon="16.4440667"><ele>166.33333333333334</ele><time>2026-04-18T16:17:49.918Z</time></trkpt><trkpt lat="40.6772017" lon="16.44416"><ele>163.66666666666666</ele><time>2026-04-18T16:17:50.917Z</time></trkpt><trkpt lat="40.6774033" lon="16.4442483"><ele>161.0</ele><time>2026-04-18T16:17:51.917Z</time></trkpt><trkpt lat="40.6776083" lon="16.44434"><ele>160.66666666666666</ele><time>2026-04-18T16:17:52.917Z</time></trkpt><trkpt lat="40.6778133" lon="16.4444333"><ele>160.33333333333334</ele><time>2026-04-18T16:17:53.917Z</time></trkpt><trkpt lat="40.678015" lon="16.4445233"><ele>160.0</ele><time>2026-04-18T16:17:54.918Z</time></trkpt><trkpt lat="40.6782117" lon="16.4446083"><ele>160.33333333333334</ele><time>2026-04-18T16:17:55.917Z</time></trkpt><trkpt lat="40.6784083" lon="16.4446783"><ele>160.66666666666666</ele><time>2026-04-18T16:17:56.916Z</time></trkpt><trkpt lat="40.6786133" lon="16.444725"><ele>161.0</ele><time>2026-04-18T16:17:57.917Z</time></trkpt><trkpt lat="40.6788267" lon="16.44475"><ele>163.66666666666666</ele><time>2026-04-18T16:17:58.917Z</time></trkpt><trkpt lat="40.6790267" lon="16.44476"><ele>166.33333333333334</ele><time>2026-04-18T16:17:59.917Z</time></trkpt><trkpt lat="40.67921" lon="16.44477"><ele>169.0</ele><time>2026-04-18T16:18:00.917Z</time></trkpt><trkpt lat="40.6793667" lon="16.4447833"><ele>169.75</ele><time>2026-04-18T16:18:01.917Z</time></trkpt><trkpt lat="40.6795" lon="16.4448067"><ele>170.5</ele><time>2026-04-18T16:18:02.917Z</time></trkpt><trkpt lat="40.67962" lon="16.4448433"><ele>171.25</ele><time>2026-04-18T16:18:03.917Z</time></trkpt><trkpt lat="40.679725" lon="16.4449033"><ele>172.0</ele><time>2026-04-18T16:18:04.916Z</time></trkpt><trkpt lat="40.6798183" lon="16.4449967"><ele>172.0</ele><time>2026-04-18T16:18:05.916Z</time></trkpt><trkpt lat="40.6799017" lon="16.4451283"><ele>172.0</ele><time>2026-04-18T16:18:06.917Z</time></trkpt><trkpt lat="40.6799767" lon="16.445295"><ele>172.0</ele><time>2026-04-18T16:18:07.918Z</time></trkpt><trkpt lat="40.6800483" lon="16.4454717"><ele>172.0</ele><time>2026-04-18T16:18:08.917Z</time></trkpt><trkpt lat="40.680115" lon="16.445645"><ele>172.5</ele><time>2026-04-18T16:18:09.917Z</time></trkpt><trkpt lat="40.6801667" lon="16.4458117"><ele>173.0</ele><time>2026-04-18T16:18:10.917Z</time></trkpt><trkpt lat="40.6801967" lon="16.445985"><ele>173.5</ele><time>2026-04-18T16:18:11.918Z</time></trkpt><trkpt lat="40.6802033" lon="16.446175"><ele>174.0</ele><time>2026-04-18T16:18:12.917Z</time></trkpt><trkpt lat="40.68019" lon="16.4463883"><ele>176.33333333333334</ele><time>2026-04-18T16:18:13.917Z</time></trkpt><trkpt lat="40.6801683" lon="16.4466267"><ele>178.66666666666669</ele><time>2026-04-18T16:18:14.917Z</time></trkpt><trkpt lat="40.68014" lon="16.4468767"><ele>181.0</ele><time>2026-04-18T16:18:15.916Z</time></trkpt><trkpt lat="40.68011" lon="16.447135"><ele>182.0</ele><time>2026-04-18T16:18:16.917Z</time></trkpt><trkpt lat="40.6800817" lon="16.4473867"><ele>183.0</ele><time>2026-04-18T16:18:17.917Z</time></trkpt><trkpt lat="40.6800533" lon="16.4476133"><ele>184.0</ele><time>2026-04-18T16:18:18.917Z</time></trkpt><trkpt lat="40.680025" lon="16.4478183"><ele>184.0</ele><time>2026-04-18T16:18:19.917Z</time></trkpt><trkpt lat="40.679995" lon="16.4480067"><ele>184.0</ele><time>2026-04-18T16:18:20.917Z</time></trkpt><trkpt lat="40.6799517" lon="16.4481867"><ele>184.0</ele><time>2026-04-18T16:18:21.917Z</time></trkpt><trkpt lat="40.679885" lon="16.4483617"><ele>184.0</ele><time>2026-04-18T16:18:22.917Z</time></trkpt><trkpt lat="40.67979" lon="16.4485283"><ele>184.0</ele><time>2026-04-18T16:18:23.917Z</time></trkpt><trkpt lat="40.6796683" lon="16.4486833"><ele>184.0</ele><time>2026-04-18T16:18:24.917Z</time></trkpt><trkpt lat="40.6795233" lon="16.4488433"><ele>184.0</ele><time>2026-04-18T16:18:25.917Z</time></trkpt><trkpt lat="40.679365" lon="16.4490183"><ele>185.33333333333334</ele><time>2026-04-18T16:18:26.916Z</time></trkpt><trkpt lat="40.6792017" lon="16.4492017"><ele>186.66666666666666</ele><time>2026-04-18T16:18:27.917Z</time></trkpt><trkpt lat="40.6790333" lon="16.44939"><ele>188.0</ele><time>2026-04-18T16:18:28.916Z</time></trkpt><trkpt lat="40.67886" lon="16.4495817"><ele>188.33333333333331</ele><time>2026-04-18T16:18:29.915Z</time></trkpt><trkpt lat="40.6786867" lon="16.4497683"><ele>188.66666666666666</ele><time>2026-04-18T16:18:30.917Z</time></trkpt><trkpt lat="40.6785183" lon="16.44995"><ele>189.0</ele><time>2026-04-18T16:18:31.917Z</time></trkpt><trkpt lat="40.6783583" lon="16.450125"><ele>189.33333333333334</ele><time>2026-04-18T16:18:32.917Z</time></trkpt><trkpt lat="40.678205" lon="16.4503017"><ele>189.66666666666669</ele><time>2026-04-18T16:18:33.917Z</time></trkpt><trkpt lat="40.6780583" lon="16.4504883"><ele>190.0</ele><time>2026-04-18T16:18:34.917Z</time></trkpt><trkpt lat="40.67792" lon="16.4507"><ele>192.5</ele><time>2026-04-18T16:18:35.917Z</time></trkpt><trkpt lat="40.6777867" lon="16.4509383"><ele>195.0</ele><time>2026-04-18T16:18:36.917Z</time></trkpt><trkpt lat="40.677655" lon="16.4512"><ele>197.5</ele><time>2026-04-18T16:18:37.918Z</time></trkpt><trkpt lat="40.6775217" lon="16.4514717"><ele>200.0</ele><time>2026-04-18T16:18:38.917Z</time></trkpt><trkpt lat="40.67738" lon="16.4517567"><ele>200.0</ele><time>2026-04-18T16:18:39.916Z</time></trkpt><trkpt lat="40.6772302" lon="16.4520561"><ele>200.0</ele><time>2026-04-18T16:18:40.918Z</time></trkpt><trkpt lat="40.6770722" lon="16.452369"><ele>204.0</ele><time>2026-04-18T16:18:41.917Z</time></trkpt><trkpt lat="40.6769193" lon="16.452675"><ele>208.0</ele><time>2026-04-18T16:18:42.917Z</time></trkpt><trkpt lat="40.6767808" lon="16.4529598"><ele>209.5</ele><time>2026-04-18T16:18:43.917Z</time></trkpt><trkpt lat="40.6766484" lon="16.453228"><ele>211.0</ele><time>2026-04-18T16:18:44.916Z</time></trkpt><trkpt lat="40.6765183" lon="16.4534875"><ele>211.0</ele><time>2026-04-18T16:18:45.917Z</time></trkpt><trkpt lat="40.6763942" lon="16.4537365"><ele>211.0</ele><time>2026-04-18T16:18:46.917Z</time></trkpt><trkpt lat="40.676278" lon="16.4539751"><ele>211.0</ele><time>2026-04-18T16:18:47.915Z</time></trkpt><trkpt lat="40.6761623" lon="16.4542097"><ele>212.33333333333331</ele><time>2026-04-18T16:18:48.917Z</time></trkpt><trkpt lat="40.6760476" lon="16.4544436"><ele>213.66666666666669</ele><time>2026-04-18T16:18:49.918Z</time></trkpt><trkpt lat="40.6759326" lon="16.454677"><ele>215.0</ele><time>2026-04-18T16:18:50.917Z</time></trkpt><trkpt lat="40.6758145" lon="16.4549096"><ele>217.0</ele><time>2026-04-18T16:18:51.916Z</time></trkpt><trkpt lat="40.675701" lon="16.4551352"><ele>219.0</ele><time>2026-04-18T16:18:52.917Z</time></trkpt><trkpt lat="40.6755993" lon="16.455344"><ele>221.0</ele><time>2026-04-18T16:18:53.917Z</time></trkpt><trkpt lat="40.6754992" lon="16.4555434"><ele>222.33333333333334</ele><time>2026-04-18T16:18:54.917Z</time></trkpt><trkpt lat="40.6753974" lon="16.4557422"><ele>223.66666666666669</ele><time>2026-04-18T16:18:55.917Z</time></trkpt><trkpt lat="40.675295" lon="16.4559387"><ele>225.0</ele><time>2026-04-18T16:18:56.916Z</time></trkpt><trkpt lat="40.6752036" lon="16.4561256"><ele>225.0</ele><time>2026-04-18T16:18:57.917Z</time></trkpt><trkpt lat="40.6751235" lon="16.4563066"><ele>225.0</ele><time>2026-04-18T16:18:58.918Z</time></trkpt><trkpt lat="40.6750566" lon="16.4564901"><ele>225.0</ele><time>2026-04-18T16:18:59.917Z</time></trkpt><trkpt lat="40.6750016" lon="16.4566788"><ele>225.0</ele><time>2026-04-18T16:19:00.917Z</time></trkpt><trkpt lat="40.6749585" lon="16.4568678"><ele>225.0</ele><time>2026-04-18T16:19:01.919Z</time></trkpt><trkpt lat="40.6749171" lon="16.4570627"><ele>225.0</ele><time>2026-04-18T16:19:02.916Z</time></trkpt><trkpt lat="40.6748697" lon="16.4572698"><ele>225.33333333333331</ele><time>2026-04-18T16:19:03.917Z</time></trkpt><trkpt lat="40.6748177" lon="16.4574951"><ele>225.66666666666666</ele><time>2026-04-18T16:19:04.917Z</time></trkpt><trkpt lat="40.6747641" lon="16.4577426"><ele>226.0</ele><time>2026-04-18T16:19:05.918Z</time></trkpt><trkpt lat="40.6747094" lon="16.4580039"><ele>227.33333333333331</ele><time>2026-04-18T16:19:06.917Z</time></trkpt><trkpt lat="40.6746503" lon="16.4582762"><ele>228.66666666666669</ele><time>2026-04-18T16:19:07.918Z</time></trkpt><trkpt lat="40.674588" lon="16.4585552"><ele>230.0</ele><time>2026-04-18T16:19:08.916Z</time></trkpt><trkpt lat="40.6745253" lon="16.458846"><ele>230.5</ele><time>2026-04-18T16:19:09.916Z</time></trkpt><trkpt lat="40.674459" lon="16.4591388"><ele>231.0</ele><time>2026-04-18T16:19:10.916Z</time></trkpt><trkpt lat="40.6743965" lon="16.4594193"><ele>232.0</ele><time>2026-04-18T16:19:11.917Z</time></trkpt><trkpt lat="40.6743387" lon="16.4596911"><ele>233.0</ele><time>2026-04-18T16:19:12.917Z</time></trkpt><trkpt lat="40.6742796" lon="16.4599649"><ele>234.0</ele><time>2026-04-18T16:19:13.917Z</time></trkpt><trkpt lat="40.6742199" lon="16.4602396"><ele>234.66666666666669</ele><time>2026-04-18T16:19:14.917Z</time></trkpt><trkpt lat="40.674166" lon="16.4605158"><ele>235.33333333333334</ele><time>2026-04-18T16:19:15.917Z</time></trkpt><trkpt lat="40.6741191" lon="16.4608025"><ele>236.0</ele><time>2026-04-18T16:19:16.916Z</time></trkpt><trkpt lat="40.6740808" lon="16.4611033"><ele>237.0</ele><time>2026-04-18T16:19:17.917Z</time></trkpt><trkpt lat="40.6740477" lon="16.4614164"><ele>238.0</ele><time>2026-04-18T16:19:18.916Z</time></trkpt><trkpt lat="40.6740122" lon="16.461734"><ele>238.0</ele><time>2026-04-18T16:19:19.917Z</time></trkpt><trkpt lat="40.6739785" lon="16.4620374"><ele>238.0</ele><time>2026-04-18T16:19:20.918Z</time></trkpt><trkpt lat="40.6739456" lon="16.4623218"><ele>237.66666666666666</ele><time>2026-04-18T16:19:21.917Z</time></trkpt><trkpt lat="40.6739127" lon="16.4625951"><ele>237.33333333333331</ele><time>2026-04-18T16:19:22.917Z</time></trkpt><trkpt lat="40.6738815" lon="16.46286"><ele>237.0</ele><time>2026-04-18T16:19:23.917Z</time></trkpt><trkpt lat="40.673852" lon="16.4631153"><ele>235.66666666666669</ele><time>2026-04-18T16:19:24.916Z</time></trkpt><trkpt lat="40.673825" lon="16.4633574"><ele>234.33333333333334</ele><time>2026-04-18T16:19:25.917Z</time></trkpt><trkpt lat="40.6737987" lon="16.4635874"><ele>233.0</ele><time>2026-04-18T16:19:26.918Z</time></trkpt><trkpt lat="40.6737722" lon="16.4638087"><ele>231.33333333333334</ele><time>2026-04-18T16:19:27.917Z</time></trkpt><trkpt lat="40.6737466" lon="16.4640227"><ele>229.66666666666669</ele><time>2026-04-18T16:19:28.917Z</time></trkpt><trkpt lat="40.673723" lon="16.4642274"><ele>228.0</ele><time>2026-04-18T16:19:29.917Z</time></trkpt><trkpt lat="40.6737039" lon="16.4644214"><ele>228.0</ele><time>2026-04-18T16:19:30.917Z</time></trkpt><trkpt lat="40.6736861" lon="16.4646059"><ele>228.0</ele><time>2026-04-18T16:19:31.917Z</time></trkpt><trkpt lat="40.6736781" lon="16.4647836"><ele>228.0</ele><time>2026-04-18T16:19:32.918Z</time></trkpt><trkpt lat="40.6736841" lon="16.4649636"><ele>228.0</ele><time>2026-04-18T16:19:33.917Z</time></trkpt><trkpt lat="40.6737127" lon="16.4651523"><ele>225.66666666666669</ele><time>2026-04-18T16:19:34.917Z</time></trkpt><trkpt lat="40.6737668" lon="16.4653502"><ele>223.33333333333334</ele><time>2026-04-18T16:19:35.916Z</time></trkpt><trkpt lat="40.673839" lon="16.4655594"><ele>221.0</ele><time>2026-04-18T16:19:36.917Z</time></trkpt><trkpt lat="40.6739251" lon="16.465785"><ele>219.66666666666669</ele><time>2026-04-18T16:19:37.917Z</time></trkpt><trkpt lat="40.6740183" lon="16.466028"><ele>218.33333333333331</ele><time>2026-04-18T16:19:38.917Z</time></trkpt><trkpt lat="40.6741197" lon="16.4662888"><ele>217.0</ele><time>2026-04-18T16:19:39.917Z</time></trkpt><trkpt lat="40.6742254" lon="16.4665638"><ele>214.5</ele><time>2026-04-18T16:19:40.917Z</time></trkpt><trkpt lat="40.6743284" lon="16.4668378"><ele>212.0</ele><time>2026-04-18T16:19:41.917Z</time></trkpt><trkpt lat="40.6744285" lon="16.4671117"><ele>211.5</ele><time>2026-04-18T16:19:42.917Z</time></trkpt><trkpt lat="40.6745303" lon="16.4673942"><ele>211.0</ele><time>2026-04-18T16:19:43.917Z</time></trkpt><trkpt lat="40.6746298" lon="16.4676812"><ele>208.0</ele><time>2026-04-18T16:19:44.917Z</time></trkpt><trkpt lat="40.6747334" lon="16.4679805"><ele>205.0</ele><time>2026-04-18T16:19:45.916Z</time></trkpt><trkpt lat="40.6748358" lon="16.4682888"><ele>205.0</ele><time>2026-04-18T16:19:46.916Z</time></trkpt><trkpt lat="40.674935" lon="16.468585"><ele>205.0</ele><time>2026-04-18T16:19:47.917Z</time></trkpt><trkpt lat="40.6750317" lon="16.4688583"><ele>205.0</ele><time>2026-04-18T16:19:48.917Z</time></trkpt><trkpt lat="40.6751267" lon="16.469115"><ele>205.0</ele><time>2026-04-18T16:19:49.918Z</time></trkpt><trkpt lat="40.67522" lon="16.46935"><ele>205.0</ele><time>2026-04-18T16:19:50.917Z</time></trkpt><trkpt lat="40.675305" lon="16.4695567"><ele>205.5</ele><time>2026-04-18T16:19:51.917Z</time></trkpt><trkpt lat="40.6753783" lon="16.4697333"><ele>206.0</ele><time>2026-04-18T16:19:52.917Z</time></trkpt><trkpt lat="40.67544" lon="16.4698817"><ele>206.5</ele><time>2026-04-18T16:19:53.917Z</time></trkpt><trkpt lat="40.6754883" lon="16.4700117"><ele>207.0</ele><time>2026-04-18T16:19:54.917Z</time></trkpt><trkpt lat="40.6755183" lon="16.470135"><ele>207.0</ele><time>2026-04-18T16:19:55.918Z</time></trkpt><trkpt lat="40.675525" lon="16.4702667"><ele>207.0</ele><time>2026-04-18T16:19:56.917Z</time></trkpt><trkpt lat="40.6755117" lon="16.4704017"><ele>207.0</ele><time>2026-04-18T16:19:57.918Z</time></trkpt><trkpt lat="40.6754817" lon="16.4705483"><ele>207.0</ele><time>2026-04-18T16:19:58.918Z</time></trkpt><trkpt lat="40.6754283" lon="16.4706983"><ele>207.0</ele><time>2026-04-18T16:19:59.916Z</time></trkpt><trkpt lat="40.675355" lon="16.47084"><ele>204.33333333333331</ele><time>2026-04-18T16:20:00.921Z</time></trkpt><trkpt lat="40.675255" lon="16.4709683"><ele>201.66666666666666</ele><time>2026-04-18T16:20:01.917Z</time></trkpt><trkpt lat="40.6751217" lon="16.471085"><ele>199.0</ele><time>2026-04-18T16:20:02.917Z</time></trkpt><trkpt lat="40.6749683" lon="16.4712033"><ele>199.33333333333331</ele><time>2026-04-18T16:20:03.917Z</time></trkpt><trkpt lat="40.6748117" lon="16.4713417"><ele>199.66666666666669</ele><time>2026-04-18T16:20:04.918Z</time></trkpt><trkpt lat="40.6746517" lon="16.4715183"><ele>200.0</ele><time>2026-04-18T16:20:05.918Z</time></trkpt><trkpt lat="40.67449" lon="16.4717217"><ele>199.66666666666669</ele><time>2026-04-18T16:20:06.917Z</time></trkpt><trkpt lat="40.6743267" lon="16.4719283"><ele>199.33333333333331</ele><time>2026-04-18T16:20:07.918Z</time></trkpt><trkpt lat="40.67417" lon="16.472115"><ele>199.0</ele><time>2026-04-18T16:20:08.918Z</time></trkpt><trkpt lat="40.6740233" lon="16.4722883"><ele>199.0</ele><time>2026-04-18T16:20:09.917Z</time></trkpt><trkpt lat="40.673885" lon="16.47246"><ele>199.0</ele><time>2026-04-18T16:20:10.918Z</time></trkpt><trkpt lat="40.6737467" lon="16.47263"><ele>199.0</ele><time>2026-04-18T16:20:11.917Z</time></trkpt><trkpt lat="40.6736083" lon="16.472795"><ele>199.33333333333331</ele><time>2026-04-18T16:20:12.917Z</time></trkpt><trkpt lat="40.673475" lon="16.4729517"><ele>199.66666666666669</ele><time>2026-04-18T16:20:13.916Z</time></trkpt><trkpt lat="40.6733533" lon="16.4731033"><ele>200.0</ele><time>2026-04-18T16:20:14.918Z</time></trkpt><trkpt lat="40.673245" lon="16.4732417"><ele>200.0</ele><time>2026-04-18T16:20:15.916Z</time></trkpt><trkpt lat="40.6731533" lon="16.4733717"><ele>200.0</ele><time>2026-04-18T16:20:16.917Z</time></trkpt><trkpt lat="40.6730817" lon="16.4735067"><ele>200.0</ele><time>2026-04-18T16:20:17.918Z</time></trkpt><trkpt lat="40.6730283" lon="16.473655"><ele>200.0</ele><time>2026-04-18T16:20:18.917Z</time></trkpt><trkpt lat="40.6729933" lon="16.473815"><ele>200.75</ele><time>2026-04-18T16:20:19.918Z</time></trkpt><trkpt lat="40.6729783" lon="16.473985"><ele>201.5</ele><time>2026-04-18T16:20:20.917Z</time></trkpt><trkpt lat="40.6729867" lon="16.4741667"><ele>202.25</ele><time>2026-04-18T16:20:21.924Z</time></trkpt><trkpt lat="40.67302" lon="16.47436"><ele>203.0</ele><time>2026-04-18T16:20:22.918Z</time></trkpt><trkpt lat="40.6730717" lon="16.47456"><ele>203.5</ele><time>2026-04-18T16:20:23.917Z</time></trkpt><trkpt lat="40.6731283" lon="16.47476"><ele>204.0</ele><time>2026-04-18T16:20:24.917Z</time></trkpt><trkpt lat="40.6731767" lon="16.47494"><ele>204.5</ele><time>2026-04-18T16:20:25.917Z</time></trkpt><trkpt lat="40.673225" lon="16.4751067"><ele>205.0</ele><time>2026-04-18T16:20:26.918Z</time></trkpt><trkpt lat="40.6732733" lon="16.475255"><ele>205.0</ele><time>2026-04-18T16:20:27.916Z</time></trkpt><trkpt lat="40.6733117" lon="16.4753933"><ele>205.0</ele><time>2026-04-18T16:20:28.917Z</time></trkpt><trkpt lat="40.6733417" lon="16.4755233"><ele>205.0</ele><time>2026-04-18T16:20:29.917Z</time></trkpt><trkpt lat="40.6733667" lon="16.4756617"><ele>205.0</ele><time>2026-04-18T16:20:30.918Z</time></trkpt><trkpt lat="40.6733833" lon="16.475805"><ele>205.0</ele><time>2026-04-18T16:20:31.917Z</time></trkpt><trkpt lat="40.6733767" lon="16.47595"><ele>206.0</ele><time>2026-04-18T16:20:32.917Z</time></trkpt><trkpt lat="40.67335" lon="16.4760883"><ele>207.0</ele><time>2026-04-18T16:20:33.917Z</time></trkpt><trkpt lat="40.6733" lon="16.4762167"><ele>208.0</ele><time>2026-04-18T16:20:34.917Z</time></trkpt><trkpt lat="40.673245" lon="16.47633"><ele>209.0</ele><time>2026-04-18T16:20:35.917Z</time></trkpt><trkpt lat="40.6731917" lon="16.476425"><ele>210.0</ele><time>2026-04-18T16:20:36.917Z</time></trkpt><trkpt lat="40.6731433" lon="16.4765083"><ele>211.6</ele><time>2026-04-18T16:20:37.918Z</time></trkpt><trkpt lat="40.6731017" lon="16.4765867"><ele>213.2</ele><time>2026-04-18T16:20:38.918Z</time></trkpt><trkpt lat="40.6730417" lon="16.476715"><ele>214.8</ele><time>2026-04-18T16:20:40.917Z</time></trkpt><trkpt lat="40.6730217" lon="16.47681"><ele>216.4</ele><time>2026-04-18T16:20:42.916Z</time></trkpt><trkpt lat="40.67308" lon="16.4767317"><ele>218.0</ele><time>2026-04-18T16:20:46.917Z</time></trkpt><trkpt lat="40.67314" lon="16.4765733"><ele>218.0</ele><time>2026-04-18T16:20:48.916Z</time></trkpt><trkpt lat="40.6731983" lon="16.4764667"><ele>218.0</ele><time>2026-04-18T16:20:49.918Z</time></trkpt><trkpt lat="40.6732567" lon="16.4763533"><ele>218.0</ele><time>2026-04-18T16:20:50.918Z</time></trkpt><trkpt lat="40.6733067" lon="16.47624"><ele>218.0</ele><time>2026-04-18T16:20:51.917Z</time></trkpt><trkpt lat="40.6733467" lon="16.4761317"><ele>218.0</ele><time>2026-04-18T16:20:52.918Z</time></trkpt><trkpt lat="40.673375" lon="16.4760267"><ele>216.4</ele><time>2026-04-18T16:20:53.916Z</time></trkpt><trkpt lat="40.67339" lon="16.475925"><ele>214.8</ele><time>2026-04-18T16:20:54.918Z</time></trkpt><trkpt lat="40.6733967" lon="16.4758283"><ele>213.2</ele><time>2026-04-18T16:20:55.919Z</time></trkpt><trkpt lat="40.6733967" lon="16.4757417"><ele>211.6</ele><time>2026-04-18T16:20:56.917Z</time></trkpt><trkpt lat="40.6733783" lon="16.4755867"><ele>210.0</ele><time>2026-04-18T16:20:58.918Z</time></trkpt><trkpt lat="40.6733333" lon="16.4754267"><ele>209.16666666666666</ele><time>2026-04-18T16:21:00.917Z</time></trkpt><trkpt lat="40.6733" lon="16.4753283"><ele>208.33333333333331</ele><time>2026-04-18T16:21:01.917Z</time></trkpt><trkpt lat="40.6732633" lon="16.4752133"><ele>207.5</ele><time>2026-04-18T16:21:02.917Z</time></trkpt><trkpt lat="40.6732317" lon="16.475095"><ele>206.66666666666666</ele><time>2026-04-18T16:21:03.916Z</time></trkpt><trkpt lat="40.6732" lon="16.4749817"><ele>205.83333333333331</ele><time>2026-04-18T16:21:04.917Z</time></trkpt><trkpt lat="40.6731717" lon="16.4748767"><ele>205.0</ele><time>2026-04-18T16:21:05.915Z</time></trkpt><trkpt lat="40.6731467" lon="16.4747817"><ele>204.99999999999997</ele><time>2026-04-18T16:21:06.918Z</time></trkpt><trkpt lat="40.6731283" lon="16.4746983"><ele>205.0</ele><time>2026-04-18T16:21:07.919Z</time></trkpt><trkpt lat="40.6730967" lon="16.474585"><ele>205.0</ele><time>2026-04-18T16:21:09.918Z</time></trkpt><trkpt lat="40.6730333" lon="16.4745333"><ele>205.0</ele><time>2026-04-18T16:21:12.917Z</time></trkpt><trkpt lat="40.6729733" lon="16.47463"><ele>204.99999999999997</ele><time>2026-04-18T16:21:15.916Z</time></trkpt><trkpt lat="40.672935" lon="16.4747117"><ele>205.0</ele><time>2026-04-18T16:21:17.916Z</time></trkpt><trkpt lat="40.6728733" lon="16.4747867"><ele>204.99999999999997</ele><time>2026-04-18T16:21:20.917Z</time></trkpt><trkpt lat="40.67281" lon="16.47482"><ele>205.0</ele><time>2026-04-18T16:21:22.916Z</time></trkpt><trkpt lat="40.67273" lon="16.4748117"><ele>205.0</ele><time>2026-04-18T16:21:24.918Z</time></trkpt><trkpt lat="40.672645" lon="16.4748067"><ele>205.0</ele><time>2026-04-18T16:21:26.917Z</time></trkpt><trkpt lat="40.6725633" lon="16.4748367"><ele>204.99999999999997</ele><time>2026-04-18T16:21:29.917Z</time></trkpt><trkpt lat="40.672515" lon="16.4749217"><ele>205.0</ele><time>2026-04-18T16:21:32.916Z</time></trkpt><trkpt lat="40.6725067" lon="16.475035"><ele>204.2</ele><time>2026-04-18T16:21:35.917Z</time></trkpt><trkpt lat="40.672485" lon="16.4751683"><ele>203.4</ele><time>2026-04-18T16:21:38.917Z</time></trkpt><trkpt lat="40.6724383" lon="16.4753067"><ele>202.60000000000002</ele><time>2026-04-18T16:21:40.917Z</time></trkpt><trkpt lat="40.6723867" lon="16.47543"><ele>201.8</ele><time>2026-04-18T16:21:42.917Z</time></trkpt><trkpt lat="40.6723383" lon="16.4755167"><ele>201.0</ele><time>2026-04-18T16:21:44.917Z</time></trkpt><trkpt lat="40.672285" lon="16.475565"><ele>201.0</ele><time>2026-04-18T16:21:46.918Z</time></trkpt><trkpt lat="40.6722017" lon="16.47551"><ele>201.0</ele><time>2026-04-18T16:21:49.918Z</time></trkpt><trkpt lat="40.6721317" lon="16.475375"><ele>201.0</ele><time>2026-04-18T16:21:51.917Z</time></trkpt><trkpt lat="40.6720983" lon="16.475275"><ele>201.0</ele><time>2026-04-18T16:21:52.918Z</time></trkpt><trkpt lat="40.67205" lon="16.4751767"><ele>201.0</ele><time>2026-04-18T16:21:53.918Z</time></trkpt><trkpt lat="40.671995" lon="16.4751"><ele>199.66666666666666</ele><time>2026-04-18T16:21:54.917Z</time></trkpt><trkpt lat="40.6719283" lon="16.4750367"><ele>198.33333333333331</ele><time>2026-04-18T16:21:55.917Z</time></trkpt><trkpt lat="40.671865" lon="16.4749867"><ele>197.0</ele><time>2026-04-18T16:21:56.916Z</time></trkpt><trkpt lat="40.6718067" lon="16.47495"><ele>195.66666666666666</ele><time>2026-04-18T16:21:57.916Z</time></trkpt><trkpt lat="40.6717017" lon="16.4748867"><ele>194.33333333333331</ele><time>2026-04-18T16:21:59.916Z</time></trkpt><trkpt lat="40.671625" lon="16.4748417"><ele>193.0</ele><time>2026-04-18T16:22:01.917Z</time></trkpt><trkpt lat="40.67154" lon="16.4747717"><ele>193.0</ele><time>2026-04-18T16:22:03.918Z</time></trkpt><trkpt lat="40.671485" lon="16.4747067"><ele>193.0</ele><time>2026-04-18T16:22:05.916Z</time></trkpt><trkpt lat="40.671425" lon="16.4746067"><ele>193.0</ele><time>2026-04-18T16:22:07.917Z</time></trkpt><trkpt lat="40.6713667" lon="16.4745"><ele>193.0</ele><time>2026-04-18T16:22:09.916Z</time></trkpt><trkpt lat="40.6713233" lon="16.4744267"><ele>193.0</ele><time>2026-04-18T16:22:10.917Z</time></trkpt><trkpt lat="40.671245" lon="16.4743133"><ele>192.49999999999997</ele><time>2026-04-18T16:22:12.918Z</time></trkpt><trkpt lat="40.6711683" lon="16.4742567"><ele>192.0</ele><time>2026-04-18T16:22:14.922Z</time></trkpt><trkpt lat="40.6711117" lon="16.4742017"><ele>191.5</ele><time>2026-04-18T16:22:17.918Z</time></trkpt><trkpt lat="40.671055" lon="16.4741467"><ele>191.0</ele><time>2026-04-18T16:22:20.918Z</time></trkpt><trkpt lat="40.6709867" lon="16.4740867"><ele>190.5</ele><time>2026-04-18T16:22:22.919Z</time></trkpt><trkpt lat="40.6709267" lon="16.4739983"><ele>190.0</ele><time>2026-04-18T16:22:24.917Z</time></trkpt><trkpt lat="40.67088" lon="16.473925"><ele>189.83333333333334</ele><time>2026-04-18T16:22:25.917Z</time></trkpt><trkpt lat="40.6708417" lon="16.47385"><ele>189.66666666666669</ele><time>2026-04-18T16:22:26.916Z</time></trkpt><trkpt lat="40.670795" lon="16.4737833"><ele>189.5</ele><time>2026-04-18T16:22:27.918Z</time></trkpt><trkpt lat="40.67075" lon="16.473725"><ele>189.33333333333334</ele><time>2026-04-18T16:22:28.916Z</time></trkpt><trkpt lat="40.6706633" lon="16.4736483"><ele>189.16666666666666</ele><time>2026-04-18T16:22:30.916Z</time></trkpt><trkpt lat="40.6705517" lon="16.4736067"><ele>189.0</ele><time>2026-04-18T16:22:32.915Z</time></trkpt><trkpt lat="40.6704683" lon="16.4735867"><ele>189.0</ele><time>2026-04-18T16:22:34.917Z</time></trkpt><trkpt lat="40.6703817" lon="16.4735817"><ele>189.0</ele><time>2026-04-18T16:22:38.916Z</time></trkpt><trkpt lat="40.67032" lon="16.4736067"><ele>189.0</ele><time>2026-04-18T16:22:40.917Z</time></trkpt><trkpt lat="40.6702417" lon="16.4736617"><ele>189.0</ele><time>2026-04-18T16:22:42.915Z</time></trkpt><trkpt lat="40.6701583" lon="16.47367"><ele>189.0</ele><time>2026-04-18T16:22:44.915Z</time></trkpt><trkpt lat="40.670235" lon="16.4736383"><ele>189.0</ele><time>2026-04-18T16:23:53.918Z</time></trkpt><trkpt lat="40.6703067" lon="16.4735917"><ele>189.0</ele><time>2026-04-18T16:23:55.916Z</time></trkpt><trkpt lat="40.6703733" lon="16.4735617"><ele>189.0</ele><time>2026-04-18T16:23:58.919Z</time></trkpt><trkpt lat="40.6704383" lon="16.4735683"><ele>189.0</ele><time>2026-04-18T16:24:00.917Z</time></trkpt><trkpt lat="40.6705467" lon="16.4735917"><ele>189.0</ele><time>2026-04-18T16:24:02.916Z</time></trkpt><trkpt lat="40.6706633" lon="16.47365"><ele>189.0</ele><time>2026-04-18T16:24:04.918Z</time></trkpt><trkpt lat="40.670715" lon="16.4736983"><ele>189.0</ele><time>2026-04-18T16:24:05.916Z</time></trkpt><trkpt lat="40.670765" lon="16.47376"><ele>188.66666666666666</ele><time>2026-04-18T16:24:06.916Z</time></trkpt><trkpt lat="40.6708067" lon="16.4738383"><ele>188.33333333333334</ele><time>2026-04-18T16:24:07.917Z</time></trkpt><trkpt lat="40.670855" lon="16.4739317"><ele>188.0</ele><time>2026-04-18T16:24:08.917Z</time></trkpt><trkpt lat="40.6709" lon="16.47401"><ele>187.66666666666669</ele><time>2026-04-18T16:24:09.916Z</time></trkpt><trkpt lat="40.67095" lon="16.4740767"><ele>187.33333333333334</ele><time>2026-04-18T16:24:10.916Z</time></trkpt><trkpt lat="40.6710217" lon="16.474135"><ele>187.0</ele><time>2026-04-18T16:24:12.916Z</time></trkpt><trkpt lat="40.6710767" lon="16.4741783"><ele>187.5</ele><time>2026-04-18T16:24:14.922Z</time></trkpt><trkpt lat="40.67115" lon="16.4742383"><ele>188.0</ele><time>2026-04-18T16:24:16.916Z</time></trkpt><trkpt lat="40.6712417" lon="16.474325"><ele>188.5</ele><time>2026-04-18T16:24:18.916Z</time></trkpt><trkpt lat="40.6712883" lon="16.4743983"><ele>189.0</ele><time>2026-04-18T16:24:19.918Z</time></trkpt><trkpt lat="40.6713267" lon="16.4744767"><ele>189.5</ele><time>2026-04-18T16:24:20.916Z</time></trkpt><trkpt lat="40.6713633" lon="16.4745567"><ele>190.0</ele><time>2026-04-18T16:24:21.919Z</time></trkpt><trkpt lat="40.6714067" lon="16.4746317"><ele>190.5</ele><time>2026-04-18T16:24:22.916Z</time></trkpt><trkpt lat="40.671455" lon="16.4747"><ele>191.0</ele><time>2026-04-18T16:24:23.916Z</time></trkpt><trkpt lat="40.6715083" lon="16.4747533"><ele>191.5</ele><time>2026-04-18T16:24:24.916Z</time></trkpt><trkpt lat="40.6715633" lon="16.4747967"><ele>192.0</ele><time>2026-04-18T16:24:25.916Z</time></trkpt><trkpt lat="40.6716183" lon="16.4748533"><ele>192.49999999999997</ele><time>2026-04-18T16:24:27.916Z</time></trkpt><trkpt lat="40.6717033" lon="16.474915"><ele>193.0</ele><time>2026-04-18T16:24:31.915Z</time></trkpt><trkpt lat="40.6718067" lon="16.4749717"><ele>193.0</ele><time>2026-04-18T16:24:33.916Z</time></trkpt><trkpt lat="40.6719117" lon="16.475065"><ele>193.0</ele><time>2026-04-18T16:24:35.922Z</time></trkpt><trkpt lat="40.671965" lon="16.4751367"><ele>193.0</ele><time>2026-04-18T16:24:36.917Z</time></trkpt><trkpt lat="40.6720217" lon="16.4752267"><ele>193.0</ele><time>2026-04-18T16:24:37.917Z</time></trkpt><trkpt lat="40.672065" lon="16.4753233"><ele>193.0</ele><time>2026-04-18T16:24:38.917Z</time></trkpt><trkpt lat="40.6721183" lon="16.47542"><ele>193.49999999999997</ele><time>2026-04-18T16:24:39.917Z</time></trkpt><trkpt lat="40.6721633" lon="16.4754967"><ele>194.0</ele><time>2026-04-18T16:24:40.918Z</time></trkpt><trkpt lat="40.6722217" lon="16.47556"><ele>194.5</ele><time>2026-04-18T16:24:41.918Z</time></trkpt><trkpt lat="40.672315" lon="16.475595"><ele>195.0</ele><time>2026-04-18T16:24:43.917Z</time></trkpt><trkpt lat="40.6723917" lon="16.4755433"><ele>195.49999999999997</ele><time>2026-04-18T16:24:45.916Z</time></trkpt><trkpt lat="40.67244" lon="16.475415"><ele>196.0</ele><time>2026-04-18T16:24:47.916Z</time></trkpt><trkpt lat="40.6724567" lon="16.475315"><ele>195.99999999999997</ele><time>2026-04-18T16:24:48.916Z</time></trkpt><trkpt lat="40.6724767" lon="16.4752267"><ele>196.0</ele><time>2026-04-18T16:24:49.917Z</time></trkpt><trkpt lat="40.6724983" lon="16.47511"><ele>196.0</ele><time>2026-04-18T16:24:51.917Z</time></trkpt><trkpt lat="40.6724983" lon="16.4750083"><ele>196.0</ele><time>2026-04-18T16:24:53.918Z</time></trkpt><trkpt lat="40.6725233" lon="16.47489"><ele>195.99999999999997</ele><time>2026-04-18T16:24:55.916Z</time></trkpt><trkpt lat="40.6725733" lon="16.47478"><ele>196.0</ele><time>2026-04-18T16:24:57.915Z</time></trkpt><trkpt lat="40.6726617" lon="16.47476"><ele>195.99999999999997</ele><time>2026-04-18T16:24:59.915Z</time></trkpt><trkpt lat="40.672725" lon="16.4747733"><ele>196.0</ele><time>2026-04-18T16:25:00.916Z</time></trkpt><trkpt lat="40.6728417" lon="16.4747717"><ele>196.0</ele><time>2026-04-18T16:25:02.916Z</time></trkpt><trkpt lat="40.6729033" lon="16.47475"><ele>196.0</ele><time>2026-04-18T16:25:03.916Z</time></trkpt><trkpt lat="40.6729617" lon="16.4747117"><ele>195.99999999999997</ele><time>2026-04-18T16:25:04.916Z</time></trkpt><trkpt lat="40.6730083" lon="16.47465"><ele>196.0</ele><time>2026-04-18T16:25:05.915Z</time></trkpt><trkpt lat="40.6730683" lon="16.47459"><ele>197.8</ele><time>2026-04-18T16:25:07.917Z</time></trkpt><trkpt lat="40.6731117" lon="16.4746983"><ele>199.60000000000002</ele><time>2026-04-18T16:25:10.916Z</time></trkpt><trkpt lat="40.67313" lon="16.4748033"><ele>201.4</ele><time>2026-04-18T16:25:11.916Z</time></trkpt><trkpt lat="40.6731733" lon="16.4749533"><ele>203.2</ele><time>2026-04-18T16:25:12.917Z</time></trkpt><trkpt lat="40.6732267" lon="16.475125"><ele>205.0</ele><time>2026-04-18T16:25:13.916Z</time></trkpt><trkpt lat="40.6732833" lon="16.4753083"><ele>206.25</ele><time>2026-04-18T16:25:14.917Z</time></trkpt><trkpt lat="40.67333" lon="16.4754733"><ele>207.5</ele><time>2026-04-18T16:25:15.916Z</time></trkpt><trkpt lat="40.6733633" lon="16.4756183"><ele>208.75</ele><time>2026-04-18T16:25:16.916Z</time></trkpt><trkpt lat="40.6733817" lon="16.4757517"><ele>210.0</ele><time>2026-04-18T16:25:17.916Z</time></trkpt><trkpt lat="40.6733817" lon="16.4758883"><ele>210.0</ele><time>2026-04-18T16:25:18.917Z</time></trkpt><trkpt lat="40.6733633" lon="16.4760283"><ele>210.0</ele><time>2026-04-18T16:25:19.916Z</time></trkpt><trkpt lat="40.673325" lon="16.4761667"><ele>210.0</ele><time>2026-04-18T16:25:20.916Z</time></trkpt><trkpt lat="40.6732683" lon="16.4763033"><ele>210.0</ele><time>2026-04-18T16:25:21.917Z</time></trkpt><trkpt lat="40.6731967" lon="16.47644"><ele>212.0</ele><time>2026-04-18T16:25:22.917Z</time></trkpt><trkpt lat="40.6731233" lon="16.476575"><ele>214.0</ele><time>2026-04-18T16:25:23.917Z</time></trkpt><trkpt lat="40.673055" lon="16.4767083"><ele>216.0</ele><time>2026-04-18T16:25:24.915Z</time></trkpt><trkpt lat="40.6729833" lon="16.4768533"><ele>218.0</ele><time>2026-04-18T16:25:25.916Z</time></trkpt><trkpt lat="40.6729017" lon="16.4770183"><ele>219.66666666666669</ele><time>2026-04-18T16:25:26.916Z</time></trkpt><trkpt lat="40.6727983" lon="16.47721"><ele>221.33333333333331</ele><time>2026-04-18T16:25:27.916Z</time></trkpt><trkpt lat="40.6726767" lon="16.4774267"><ele>223.0</ele><time>2026-04-18T16:25:28.917Z</time></trkpt><trkpt lat="40.6725417" lon="16.477665"><ele>223.0</ele><time>2026-04-18T16:25:29.916Z</time></trkpt><trkpt lat="40.6724033" lon="16.4779067"><ele>223.0</ele><time>2026-04-18T16:25:30.917Z</time></trkpt><trkpt lat="40.67226" lon="16.4781567"><ele>223.5</ele><time>2026-04-18T16:25:31.917Z</time></trkpt><trkpt lat="40.6721117" lon="16.4784117"><ele>224.0</ele><time>2026-04-18T16:25:32.916Z</time></trkpt><trkpt lat="40.6719633" lon="16.4786783"><ele>225.0</ele><time>2026-04-18T16:25:33.916Z</time></trkpt><trkpt lat="40.6718167" lon="16.4789483"><ele>226.0</ele><time>2026-04-18T16:25:34.916Z</time></trkpt><trkpt lat="40.67168" lon="16.47923"><ele>226.0</ele><time>2026-04-18T16:25:35.916Z</time></trkpt><trkpt lat="40.67155" lon="16.47951"><ele>226.0</ele><time>2026-04-18T16:25:36.916Z</time></trkpt><trkpt lat="40.6714217" lon="16.4797833"><ele>227.0</ele><time>2026-04-18T16:25:37.917Z</time></trkpt><trkpt lat="40.671295" lon="16.48005"><ele>228.0</ele><time>2026-04-18T16:25:38.916Z</time></trkpt><trkpt lat="40.671165" lon="16.4803183"><ele>229.0</ele><time>2026-04-18T16:25:39.916Z</time></trkpt><trkpt lat="40.671035" lon="16.4805933"><ele>230.0</ele><time>2026-04-18T16:25:40.916Z</time></trkpt><trkpt lat="40.6709067" lon="16.480865"><ele>230.0</ele><time>2026-04-18T16:25:41.914Z</time></trkpt><trkpt lat="40.6707783" lon="16.4811367"><ele>230.0</ele><time>2026-04-18T16:25:42.916Z</time></trkpt><trkpt lat="40.6706517" lon="16.4814083"><ele>230.5</ele><time>2026-04-18T16:25:43.916Z</time></trkpt><trkpt lat="40.6705233" lon="16.4816817"><ele>231.0</ele><time>2026-04-18T16:25:44.916Z</time></trkpt><trkpt lat="40.67039" lon="16.4819583"><ele>233.0</ele><time>2026-04-18T16:25:45.917Z</time></trkpt><trkpt lat="40.6702583" lon="16.48224"><ele>235.0</ele><time>2026-04-18T16:25:46.916Z</time></trkpt><trkpt lat="40.6701233" lon="16.482525"><ele>235.0</ele><time>2026-04-18T16:25:47.916Z</time></trkpt><trkpt lat="40.669985" lon="16.4828133"><ele>235.0</ele><time>2026-04-18T16:25:48.916Z</time></trkpt><trkpt lat="40.669845" lon="16.483105"><ele>234.5</ele><time>2026-04-18T16:25:49.917Z</time></trkpt><trkpt lat="40.6697092" lon="16.4833989"><ele>234.0</ele><time>2026-04-18T16:25:50.916Z</time></trkpt><trkpt lat="40.66957" lon="16.4836944"><ele>236.0</ele><time>2026-04-18T16:25:51.916Z</time></trkpt><trkpt lat="40.669429" lon="16.4839909"><ele>238.0</ele><time>2026-04-18T16:25:52.916Z</time></trkpt><trkpt lat="40.6692871" lon="16.4842908"><ele>238.0</ele><time>2026-04-18T16:25:53.916Z</time></trkpt><trkpt lat="40.6691449" lon="16.4845927"><ele>238.0</ele><time>2026-04-18T16:25:54.916Z</time></trkpt><trkpt lat="40.6690017" lon="16.4848974"><ele>238.5</ele><time>2026-04-18T16:25:55.917Z</time></trkpt><trkpt lat="40.6688583" lon="16.4851989"><ele>239.0</ele><time>2026-04-18T16:25:56.916Z</time></trkpt><trkpt lat="40.6687207" lon="16.4854845"><ele>240.5</ele><time>2026-04-18T16:25:57.916Z</time></trkpt><trkpt lat="40.6685951" lon="16.4857482"><ele>242.0</ele><time>2026-04-18T16:25:58.917Z</time></trkpt><trkpt lat="40.6684765" lon="16.4860004"><ele>242.0</ele><time>2026-04-18T16:25:59.916Z</time></trkpt><trkpt lat="40.6683572" lon="16.4862503"><ele>242.0</ele><time>2026-04-18T16:26:00.916Z</time></trkpt><trkpt lat="40.6682408" lon="16.4864922"><ele>242.0</ele><time>2026-04-18T16:26:01.917Z</time></trkpt><trkpt lat="40.6681359" lon="16.4867198"><ele>242.33333333333334</ele><time>2026-04-18T16:26:02.916Z</time></trkpt><trkpt lat="40.6680312" lon="16.4869495"><ele>242.66666666666669</ele><time>2026-04-18T16:26:03.916Z</time></trkpt><trkpt lat="40.6679175" lon="16.4871869"><ele>243.0</ele><time>2026-04-18T16:26:04.916Z</time></trkpt><trkpt lat="40.667797" lon="16.4874357"><ele>243.0</ele><time>2026-04-18T16:26:05.916Z</time></trkpt><trkpt lat="40.6676736" lon="16.4876977"><ele>243.0</ele><time>2026-04-18T16:26:06.916Z</time></trkpt><trkpt lat="40.6675443" lon="16.4879708"><ele>242.0</ele><time>2026-04-18T16:26:07.916Z</time></trkpt><trkpt lat="40.6674122" lon="16.4882463"><ele>241.0</ele><time>2026-04-18T16:26:08.917Z</time></trkpt><trkpt lat="40.6672771" lon="16.4885208"><ele>239.5</ele><time>2026-04-18T16:26:09.916Z</time></trkpt><trkpt lat="40.6671428" lon="16.4888001"><ele>238.0</ele><time>2026-04-18T16:26:10.916Z</time></trkpt><trkpt lat="40.667012" lon="16.4890826"><ele>239.5</ele><time>2026-04-18T16:26:11.916Z</time></trkpt><trkpt lat="40.6668833" lon="16.4893638"><ele>241.0</ele><time>2026-04-18T16:26:12.917Z</time></trkpt><trkpt lat="40.6667576" lon="16.4896374"><ele>241.0</ele><time>2026-04-18T16:26:13.917Z</time></trkpt><trkpt lat="40.6666368" lon="16.4898962"><ele>241.0</ele><time>2026-04-18T16:26:14.915Z</time></trkpt><trkpt lat="40.6665176" lon="16.49015"><ele>241.0</ele><time>2026-04-18T16:26:15.916Z</time></trkpt><trkpt lat="40.6663986" lon="16.4904115"><ele>241.0</ele><time>2026-04-18T16:26:16.916Z</time></trkpt><trkpt lat="40.6662887" lon="16.4906853"><ele>241.5</ele><time>2026-04-18T16:26:17.916Z</time></trkpt><trkpt lat="40.6661949" lon="16.4909767"><ele>242.0</ele><time>2026-04-18T16:26:18.916Z</time></trkpt><trkpt lat="40.666111" lon="16.4912863"><ele>242.0</ele><time>2026-04-18T16:26:19.917Z</time></trkpt><trkpt lat="40.6660269" lon="16.4916031"><ele>242.0</ele><time>2026-04-18T16:26:20.916Z</time></trkpt><trkpt lat="40.6659389" lon="16.4919159"><ele>242.5</ele><time>2026-04-18T16:26:21.916Z</time></trkpt><trkpt lat="40.6658497" lon="16.4922272"><ele>243.0</ele><time>2026-04-18T16:26:22.916Z</time></trkpt><trkpt lat="40.6657625" lon="16.4925341"><ele>243.0</ele><time>2026-04-18T16:26:23.916Z</time></trkpt><trkpt lat="40.6656756" lon="16.4928408"><ele>243.0</ele><time>2026-04-18T16:26:24.917Z</time></trkpt><trkpt lat="40.6655918" lon="16.4931426"><ele>244.0</ele><time>2026-04-18T16:26:25.916Z</time></trkpt><trkpt lat="40.6655147" lon="16.4934278"><ele>245.0</ele><time>2026-04-18T16:26:26.916Z</time></trkpt><trkpt lat="40.6654397" lon="16.4937014"><ele>245.5</ele><time>2026-04-18T16:26:27.916Z</time></trkpt><trkpt lat="40.6653616" lon="16.4939778"><ele>246.0</ele><time>2026-04-18T16:26:28.916Z</time></trkpt><trkpt lat="40.6652766" lon="16.4942629"><ele>246.0</ele><time>2026-04-18T16:26:29.916Z</time></trkpt><trkpt lat="40.6651894" lon="16.4945574"><ele>246.0</ele><time>2026-04-18T16:26:30.917Z</time></trkpt><trkpt lat="40.6651015" lon="16.4948621"><ele>244.0</ele><time>2026-04-18T16:26:31.918Z</time></trkpt><trkpt lat="40.6650143" lon="16.4951655"><ele>242.0</ele><time>2026-04-18T16:26:32.916Z</time></trkpt><trkpt lat="40.6649305" lon="16.4954549"><ele>241.0</ele><time>2026-04-18T16:26:33.916Z</time></trkpt><trkpt lat="40.6648518" lon="16.4957303"><ele>240.0</ele><time>2026-04-18T16:26:34.916Z</time></trkpt><trkpt lat="40.6647742" lon="16.4959978"><ele>239.0</ele><time>2026-04-18T16:26:35.916Z</time></trkpt><trkpt lat="40.6647001" lon="16.4962592"><ele>239.0</ele><time>2026-04-18T16:26:36.916Z</time></trkpt><trkpt lat="40.6646257" lon="16.4965152"><ele>239.0</ele><time>2026-04-18T16:26:37.916Z</time></trkpt><trkpt lat="40.664552" lon="16.496764"><ele>239.0</ele><time>2026-04-18T16:26:38.915Z</time></trkpt><trkpt lat="40.6644807" lon="16.4970113"><ele>236.33333333333334</ele><time>2026-04-18T16:26:39.917Z</time></trkpt><trkpt lat="40.6644133" lon="16.4972502"><ele>233.66666666666669</ele><time>2026-04-18T16:26:40.916Z</time></trkpt><trkpt lat="40.6643497" lon="16.4974762"><ele>231.0</ele><time>2026-04-18T16:26:41.916Z</time></trkpt><trkpt lat="40.6642899" lon="16.4976883"><ele>231.0</ele><time>2026-04-18T16:26:42.916Z</time></trkpt><trkpt lat="40.6642304" lon="16.4978956"><ele>231.0</ele><time>2026-04-18T16:26:43.916Z</time></trkpt><trkpt lat="40.6641734" lon="16.4980986"><ele>231.0</ele><time>2026-04-18T16:26:44.916Z</time></trkpt><trkpt lat="40.6641186" lon="16.4982982"><ele>231.33333333333331</ele><time>2026-04-18T16:26:45.916Z</time></trkpt><trkpt lat="40.6640636" lon="16.4984918"><ele>231.66666666666666</ele><time>2026-04-18T16:26:46.916Z</time></trkpt><trkpt lat="40.6640114" lon="16.4986874"><ele>232.0</ele><time>2026-04-18T16:26:47.917Z</time></trkpt><trkpt lat="40.6639588" lon="16.4988967"><ele>231.0</ele><time>2026-04-18T16:26:48.916Z</time></trkpt><trkpt lat="40.6639126" lon="16.4991278"><ele>230.0</ele><time>2026-04-18T16:26:49.917Z</time></trkpt><trkpt lat="40.6638713" lon="16.4993843"><ele>229.0</ele><time>2026-04-18T16:26:50.916Z</time></trkpt><trkpt lat="40.6638301" lon="16.4996621"><ele>227.5</ele><time>2026-04-18T16:26:51.917Z</time></trkpt><trkpt lat="40.6637856" lon="16.4999594"><ele>226.0</ele><time>2026-04-18T16:26:52.916Z</time></trkpt><trkpt lat="40.6637405" lon="16.5002689"><ele>223.5</ele><time>2026-04-18T16:26:53.916Z</time></trkpt><trkpt lat="40.6636971" lon="16.5005856"><ele>221.0</ele><time>2026-04-18T16:26:54.916Z</time></trkpt><trkpt lat="40.6636512" lon="16.5009055"><ele>222.0</ele><time>2026-04-18T16:26:55.916Z</time></trkpt><trkpt lat="40.6636059" lon="16.5012303"><ele>223.0</ele><time>2026-04-18T16:26:56.921Z</time></trkpt><trkpt lat="40.6635633" lon="16.5015567"><ele>223.0</ele><time>2026-04-18T16:26:57.915Z</time></trkpt><trkpt lat="40.6635167" lon="16.5018733"><ele>223.0</ele><time>2026-04-18T16:26:58.916Z</time></trkpt><trkpt lat="40.6634717" lon="16.5021833"><ele>220.66666666666666</ele><time>2026-04-18T16:26:59.916Z</time></trkpt><trkpt lat="40.6634283" lon="16.5024767"><ele>218.33333333333331</ele><time>2026-04-18T16:27:00.916Z</time></trkpt><trkpt lat="40.66339" lon="16.502755"><ele>216.0</ele><time>2026-04-18T16:27:01.916Z</time></trkpt><trkpt lat="40.6633517" lon="16.5030167"><ele>215.66666666666669</ele><time>2026-04-18T16:27:02.918Z</time></trkpt><trkpt lat="40.6633117" lon="16.503265"><ele>215.33333333333334</ele><time>2026-04-18T16:27:03.916Z</time></trkpt><trkpt lat="40.6632583" lon="16.5035133"><ele>215.0</ele><time>2026-04-18T16:27:04.916Z</time></trkpt><trkpt lat="40.6631833" lon="16.503775"><ele>213.5</ele><time>2026-04-18T16:27:05.915Z</time></trkpt><trkpt lat="40.66309" lon="16.50405"><ele>212.0</ele><time>2026-04-18T16:27:06.918Z</time></trkpt><trkpt lat="40.662985" lon="16.50434"><ele>210.5</ele><time>2026-04-18T16:27:07.915Z</time></trkpt><trkpt lat="40.6628767" lon="16.50464"><ele>209.0</ele><time>2026-04-18T16:27:08.915Z</time></trkpt><trkpt lat="40.6627683" lon="16.5049433"><ele>209.0</ele><time>2026-04-18T16:27:09.915Z</time></trkpt><trkpt lat="40.6626567" lon="16.50525"><ele>209.0</ele><time>2026-04-18T16:27:10.915Z</time></trkpt><trkpt lat="40.6625467" lon="16.505565"><ele>209.0</ele><time>2026-04-18T16:27:11.915Z</time></trkpt><trkpt lat="40.6624383" lon="16.5058767"><ele>209.0</ele><time>2026-04-18T16:27:12.916Z</time></trkpt><trkpt lat="40.6623283" lon="16.5061833"><ele>206.5</ele><time>2026-04-18T16:27:13.917Z</time></trkpt><trkpt lat="40.6622267" lon="16.50648"><ele>204.0</ele><time>2026-04-18T16:27:14.916Z</time></trkpt><trkpt lat="40.6621217" lon="16.5067783"><ele>203.0</ele><time>2026-04-18T16:27:15.917Z</time></trkpt><trkpt lat="40.6620117" lon="16.5070833"><ele>202.0</ele><time>2026-04-18T16:27:16.916Z</time></trkpt><trkpt lat="40.6619017" lon="16.5073917"><ele>201.5</ele><time>2026-04-18T16:27:17.916Z</time></trkpt><trkpt lat="40.6617917" lon="16.5077033"><ele>201.0</ele><time>2026-04-18T16:27:18.917Z</time></trkpt><trkpt lat="40.66168" lon="16.5080167"><ele>201.0</ele><time>2026-04-18T16:27:19.917Z</time></trkpt><trkpt lat="40.6615683" lon="16.5083317"><ele>201.0</ele><time>2026-04-18T16:27:20.917Z</time></trkpt><trkpt lat="40.6614567" lon="16.5086517"><ele>200.0</ele><time>2026-04-18T16:27:21.918Z</time></trkpt><trkpt lat="40.661345" lon="16.5089733"><ele>199.0</ele><time>2026-04-18T16:27:22.919Z</time></trkpt><trkpt lat="40.6612317" lon="16.5092933"><ele>198.5</ele><time>2026-04-18T16:27:23.916Z</time></trkpt><trkpt lat="40.66112" lon="16.5096117"><ele>198.0</ele><time>2026-04-18T16:27:25.007Z</time></trkpt><trkpt lat="40.66101" lon="16.50993"><ele>198.0</ele><time>2026-04-18T16:27:25.917Z</time></trkpt><trkpt lat="40.6609017" lon="16.5102467"><ele>198.0</ele><time>2026-04-18T16:27:26.916Z</time></trkpt><trkpt lat="40.6607917" lon="16.5105617"><ele>197.0</ele><time>2026-04-18T16:27:27.917Z</time></trkpt><trkpt lat="40.6606817" lon="16.5108717"><ele>196.0</ele><time>2026-04-18T16:27:28.918Z</time></trkpt><trkpt lat="40.660575" lon="16.5111817"><ele>194.5</ele><time>2026-04-18T16:27:29.915Z</time></trkpt><trkpt lat="40.66047" lon="16.51149"><ele>193.0</ele><time>2026-04-18T16:27:30.916Z</time></trkpt><trkpt lat="40.660365" lon="16.5117967"><ele>193.0</ele><time>2026-04-18T16:27:31.917Z</time></trkpt><trkpt lat="40.6602583" lon="16.5121017"><ele>193.0</ele><time>2026-04-18T16:27:32.916Z</time></trkpt><trkpt lat="40.66015" lon="16.512405"><ele>193.0</ele><time>2026-04-18T16:27:33.916Z</time></trkpt><trkpt lat="40.6600433" lon="16.5127067"><ele>193.0</ele><time>2026-04-18T16:27:34.917Z</time></trkpt><trkpt lat="40.6599383" lon="16.5130133"><ele>191.5</ele><time>2026-04-18T16:27:35.917Z</time></trkpt><trkpt lat="40.6598333" lon="16.51332"><ele>190.0</ele><time>2026-04-18T16:27:36.917Z</time></trkpt><trkpt lat="40.6597267" lon="16.5136267"><ele>189.0</ele><time>2026-04-18T16:27:37.917Z</time></trkpt><trkpt lat="40.6596183" lon="16.5139367"><ele>188.0</ele><time>2026-04-18T16:27:38.916Z</time></trkpt><trkpt lat="40.65951" lon="16.5142483"><ele>188.0</ele><time>2026-04-18T16:27:39.916Z</time></trkpt><trkpt lat="40.6594" lon="16.5145667"><ele>188.0</ele><time>2026-04-18T16:27:40.917Z</time></trkpt><trkpt lat="40.6592883" lon="16.5148867"><ele>188.0</ele><time>2026-04-18T16:27:41.916Z</time></trkpt><trkpt lat="40.6591767" lon="16.51521"><ele>188.0</ele><time>2026-04-18T16:27:42.916Z</time></trkpt><trkpt lat="40.6590633" lon="16.5155333"><ele>187.5</ele><time>2026-04-18T16:27:43.918Z</time></trkpt><trkpt lat="40.6589533" lon="16.51584"><ele>187.0</ele><time>2026-04-18T16:27:44.916Z</time></trkpt><trkpt lat="40.65885" lon="16.5161217"><ele>186.33333333333334</ele><time>2026-04-18T16:27:45.915Z</time></trkpt><trkpt lat="40.6587567" lon="16.5163833"><ele>185.66666666666666</ele><time>2026-04-18T16:27:46.917Z</time></trkpt><trkpt lat="40.65867" lon="16.5166267"><ele>185.0</ele><time>2026-04-18T16:27:47.916Z</time></trkpt><trkpt lat="40.65859" lon="16.516855"><ele>184.66666666666666</ele><time>2026-04-18T16:27:48.918Z</time></trkpt><trkpt lat="40.6585233" lon="16.5170817"><ele>184.33333333333334</ele><time>2026-04-18T16:27:49.918Z</time></trkpt><trkpt lat="40.6584717" lon="16.5173167"><ele>184.0</ele><time>2026-04-18T16:27:50.918Z</time></trkpt><trkpt lat="40.6584383" lon="16.51757"><ele>184.0</ele><time>2026-04-18T16:27:51.918Z</time></trkpt><trkpt lat="40.65842" lon="16.5178483"><ele>184.0</ele><time>2026-04-18T16:27:52.917Z</time></trkpt><trkpt lat="40.65841" lon="16.5181417"><ele>184.0</ele><time>2026-04-18T16:27:53.916Z</time></trkpt><trkpt lat="40.6584017" lon="16.5184517"><ele>182.0</ele><time>2026-04-18T16:27:54.917Z</time></trkpt><trkpt lat="40.6583917" lon="16.5187633"><ele>180.0</ele><time>2026-04-18T16:27:55.918Z</time></trkpt><trkpt lat="40.65838" lon="16.5190733"><ele>180.0</ele><time>2026-04-18T16:27:56.916Z</time></trkpt><trkpt lat="40.65837" lon="16.51938"><ele>180.0</ele><time>2026-04-18T16:27:57.917Z</time></trkpt><trkpt lat="40.6583583" lon="16.5196883"><ele>178.5</ele><time>2026-04-18T16:27:58.918Z</time></trkpt><trkpt lat="40.6583483" lon="16.5199983"><ele>177.0</ele><time>2026-04-18T16:27:59.917Z</time></trkpt><trkpt lat="40.6583383" lon="16.5203083"><ele>175.0</ele><time>2026-04-18T16:28:00.917Z</time></trkpt><trkpt lat="40.65833" lon="16.52062"><ele>173.0</ele><time>2026-04-18T16:28:01.919Z</time></trkpt><trkpt lat="40.6583217" lon="16.52093"><ele>173.0</ele><time>2026-04-18T16:28:02.917Z</time></trkpt><trkpt lat="40.65831" lon="16.52124"><ele>173.0</ele><time>2026-04-18T16:28:03.916Z</time></trkpt><trkpt lat="40.658295" lon="16.5215467"><ele>173.0</ele><time>2026-04-18T16:28:04.915Z</time></trkpt><trkpt lat="40.6582817" lon="16.52185"><ele>173.0</ele><time>2026-04-18T16:28:05.916Z</time></trkpt><trkpt lat="40.6582733" lon="16.5221533"><ele>171.5</ele><time>2026-04-18T16:28:06.917Z</time></trkpt><trkpt lat="40.658265" lon="16.522455"><ele>170.0</ele><time>2026-04-18T16:28:07.917Z</time></trkpt><trkpt lat="40.6582567" lon="16.52276"><ele>170.5</ele><time>2026-04-18T16:28:08.917Z</time></trkpt><trkpt lat="40.6582467" lon="16.5230667"><ele>171.0</ele><time>2026-04-18T16:28:09.917Z</time></trkpt><trkpt lat="40.658235" lon="16.5233767"><ele>171.0</ele><time>2026-04-18T16:28:10.918Z</time></trkpt><trkpt lat="40.658225" lon="16.52369"><ele>171.0</ele><time>2026-04-18T16:28:11.915Z</time></trkpt><trkpt lat="40.658215" lon="16.5240067"><ele>172.5</ele><time>2026-04-18T16:28:12.917Z</time></trkpt><trkpt lat="40.658205" lon="16.5243267"><ele>174.0</ele><time>2026-04-18T16:28:13.918Z</time></trkpt><trkpt lat="40.6581967" lon="16.5246483"><ele>174.5</ele><time>2026-04-18T16:28:14.916Z</time></trkpt><trkpt lat="40.6581933" lon="16.52497"><ele>175.0</ele><time>2026-04-18T16:28:15.916Z</time></trkpt><trkpt lat="40.658195" lon="16.5252967"><ele>175.0</ele><time>2026-04-18T16:28:16.917Z</time></trkpt><trkpt lat="40.6582017" lon="16.5256233"><ele>175.0</ele><time>2026-04-18T16:28:17.917Z</time></trkpt><trkpt lat="40.65821" lon="16.5259533"><ele>175.0</ele><time>2026-04-18T16:28:18.917Z</time></trkpt><trkpt lat="40.65822" lon="16.5262817"><ele>175.0</ele><time>2026-04-18T16:28:19.916Z</time></trkpt><trkpt lat="40.6582267" lon="16.526605"><ele>175.0</ele><time>2026-04-18T16:28:20.917Z</time></trkpt><trkpt lat="40.6582333" lon="16.5269217"><ele>175.0</ele><time>2026-04-18T16:28:21.916Z</time></trkpt><trkpt lat="40.6582433" lon="16.5272283"><ele>175.5</ele><time>2026-04-18T16:28:22.917Z</time></trkpt><trkpt lat="40.658255" lon="16.5275383"><ele>176.0</ele><time>2026-04-18T16:28:23.917Z</time></trkpt><trkpt lat="40.6582617" lon="16.5278567"><ele>175.5</ele><time>2026-04-18T16:28:24.916Z</time></trkpt><trkpt lat="40.6582633" lon="16.52818"><ele>175.0</ele><time>2026-04-18T16:28:25.919Z</time></trkpt><trkpt lat="40.6582617" lon="16.5285017"><ele>176.0</ele><time>2026-04-18T16:28:26.918Z</time></trkpt><trkpt lat="40.6582617" lon="16.5288183"><ele>177.0</ele><time>2026-04-18T16:28:27.917Z</time></trkpt><trkpt lat="40.658265" lon="16.5291333"><ele>177.0</ele><time>2026-04-18T16:28:28.916Z</time></trkpt><trkpt lat="40.6582733" lon="16.529445"><ele>177.0</ele><time>2026-04-18T16:28:29.916Z</time></trkpt><trkpt lat="40.65828" lon="16.529755"><ele>177.0</ele><time>2026-04-18T16:28:30.916Z</time></trkpt><trkpt lat="40.658285" lon="16.5300617"><ele>177.0</ele><time>2026-04-18T16:28:31.918Z</time></trkpt><trkpt lat="40.6582917" lon="16.5303683"><ele>178.0</ele><time>2026-04-18T16:28:32.917Z</time></trkpt><trkpt lat="40.6583" lon="16.5306767"><ele>179.0</ele><time>2026-04-18T16:28:33.916Z</time></trkpt><trkpt lat="40.6583117" lon="16.5309833"><ele>180.0</ele><time>2026-04-18T16:28:34.917Z</time></trkpt><trkpt lat="40.65832" lon="16.53129"><ele>181.0</ele><time>2026-04-18T16:28:35.916Z</time></trkpt><trkpt lat="40.6583317" lon="16.5315967"><ele>181.0</ele><time>2026-04-18T16:28:36.916Z</time></trkpt><trkpt lat="40.658345" lon="16.531905"><ele>181.0</ele><time>2026-04-18T16:28:37.915Z</time></trkpt><trkpt lat="40.65836" lon="16.5322133"><ele>181.0</ele><time>2026-04-18T16:28:38.916Z</time></trkpt><trkpt lat="40.6583733" lon="16.5325233"><ele>181.0</ele><time>2026-04-18T16:28:39.916Z</time></trkpt><trkpt lat="40.6583833" lon="16.5328317"><ele>181.5</ele><time>2026-04-18T16:28:40.918Z</time></trkpt><trkpt lat="40.6583933" lon="16.5331383"><ele>182.0</ele><time>2026-04-18T16:28:41.916Z</time></trkpt><trkpt lat="40.6584033" lon="16.5334467"><ele>182.5</ele><time>2026-04-18T16:28:42.916Z</time></trkpt><trkpt lat="40.6584167" lon="16.533755"><ele>183.0</ele><time>2026-04-18T16:28:43.917Z</time></trkpt><trkpt lat="40.6584317" lon="16.534065"><ele>183.0</ele><time>2026-04-18T16:28:44.916Z</time></trkpt><trkpt lat="40.658445" lon="16.534375"><ele>183.0</ele><time>2026-04-18T16:28:45.916Z</time></trkpt><trkpt lat="40.65846" lon="16.5346867"><ele>182.5</ele><time>2026-04-18T16:28:46.917Z</time></trkpt><trkpt lat="40.6584733" lon="16.535"><ele>182.0</ele><time>2026-04-18T16:28:47.917Z</time></trkpt><trkpt lat="40.6584883" lon="16.5353183"><ele>181.5</ele><time>2026-04-18T16:28:48.917Z</time></trkpt><trkpt lat="40.6585017" lon="16.535625"><ele>181.0</ele><time>2026-04-18T16:28:49.919Z</time></trkpt><trkpt lat="40.6585133" lon="16.5359167"><ele>181.0</ele><time>2026-04-18T16:28:50.916Z</time></trkpt><trkpt lat="40.658525" lon="16.5361983"><ele>181.0</ele><time>2026-04-18T16:28:51.916Z</time></trkpt><trkpt lat="40.6585383" lon="16.53648"><ele>181.0</ele><time>2026-04-18T16:28:52.917Z</time></trkpt><trkpt lat="40.658555" lon="16.536765"><ele>180.66666666666669</ele><time>2026-04-18T16:28:53.917Z</time></trkpt><trkpt lat="40.65858" lon="16.53705"><ele>180.33333333333334</ele><time>2026-04-18T16:28:54.917Z</time></trkpt><trkpt lat="40.65861" lon="16.5373367"><ele>180.0</ele><time>2026-04-18T16:28:55.916Z</time></trkpt><trkpt lat="40.6586383" lon="16.537625"><ele>179.0</ele><time>2026-04-18T16:28:56.916Z</time></trkpt><trkpt lat="40.658665" lon="16.5379183"><ele>178.0</ele><time>2026-04-18T16:28:57.915Z</time></trkpt><trkpt lat="40.6586917" lon="16.538215"><ele>178.0</ele><time>2026-04-18T16:28:58.917Z</time></trkpt><trkpt lat="40.65872" lon="16.5385133"><ele>178.0</ele><time>2026-04-18T16:28:59.918Z</time></trkpt><trkpt lat="40.65875" lon="16.5388133"><ele>178.33333333333334</ele><time>2026-04-18T16:29:00.918Z</time></trkpt><trkpt lat="40.6587783" lon="16.5391033"><ele>178.66666666666666</ele><time>2026-04-18T16:29:01.918Z</time></trkpt><trkpt lat="40.6588067" lon="16.5393767"><ele>179.0</ele><time>2026-04-18T16:29:02.916Z</time></trkpt><trkpt lat="40.6588317" lon="16.5396333"><ele>179.0</ele><time>2026-04-18T16:29:03.916Z</time></trkpt><trkpt lat="40.6588583" lon="16.539875"><ele>179.0</ele><time>2026-04-18T16:29:04.916Z</time></trkpt><trkpt lat="40.6588817" lon="16.5401017"><ele>179.0</ele><time>2026-04-18T16:29:05.916Z</time></trkpt><trkpt lat="40.6589033" lon="16.5403183"><ele>178.66666666666666</ele><time>2026-04-18T16:29:06.917Z</time></trkpt><trkpt lat="40.658925" lon="16.540525"><ele>178.33333333333334</ele><time>2026-04-18T16:29:07.918Z</time></trkpt><trkpt lat="40.6589483" lon="16.54073"><ele>178.0</ele><time>2026-04-18T16:29:08.916Z</time></trkpt><trkpt lat="40.658965" lon="16.540935"><ele>178.0</ele><time>2026-04-18T16:29:09.917Z</time></trkpt><trkpt lat="40.6589683" lon="16.541145"><ele>178.0</ele><time>2026-04-18T16:29:10.917Z</time></trkpt><trkpt lat="40.65895" lon="16.5413567"><ele>178.0</ele><time>2026-04-18T16:29:11.917Z</time></trkpt><trkpt lat="40.6589133" lon="16.541565"><ele>178.0</ele><time>2026-04-18T16:29:12.916Z</time></trkpt><trkpt lat="40.6588617" lon="16.5417683"><ele>178.0</ele><time>2026-04-18T16:29:13.918Z</time></trkpt><trkpt lat="40.6588067" lon="16.5419617"><ele>178.0</ele><time>2026-04-18T16:29:14.916Z</time></trkpt><trkpt lat="40.6587567" lon="16.542145"><ele>178.0</ele><time>2026-04-18T16:29:15.916Z</time></trkpt><trkpt lat="40.6587083" lon="16.5423167"><ele>178.0</ele><time>2026-04-18T16:29:16.917Z</time></trkpt><trkpt lat="40.6586633" lon="16.5424933"><ele>178.0</ele><time>2026-04-18T16:29:17.917Z</time></trkpt><trkpt lat="40.6586133" lon="16.542685"><ele>178.0</ele><time>2026-04-18T16:29:18.918Z</time></trkpt><trkpt lat="40.658555" lon="16.5428917"><ele>179.0</ele><time>2026-04-18T16:29:19.917Z</time></trkpt><trkpt lat="40.6584883" lon="16.5431167"><ele>180.0</ele><time>2026-04-18T16:29:20.917Z</time></trkpt><trkpt lat="40.658425" lon="16.5433517"><ele>181.0</ele><time>2026-04-18T16:29:21.918Z</time></trkpt><trkpt lat="40.658365" lon="16.5435817"><ele>182.0</ele><time>2026-04-18T16:29:22.918Z</time></trkpt><trkpt lat="40.6583033" lon="16.5438067"><ele>183.0</ele><time>2026-04-18T16:29:23.919Z</time></trkpt><trkpt lat="40.65824" lon="16.5440333"><ele>184.0</ele><time>2026-04-18T16:29:24.917Z</time></trkpt><trkpt lat="40.6581783" lon="16.5442717"><ele>184.0</ele><time>2026-04-18T16:29:25.916Z</time></trkpt><trkpt lat="40.6581167" lon="16.544525"><ele>184.0</ele><time>2026-04-18T16:29:26.916Z</time></trkpt><trkpt lat="40.6580433" lon="16.5447883"><ele>184.0</ele><time>2026-04-18T16:29:27.915Z</time></trkpt><trkpt lat="40.6579633" lon="16.5450567"><ele>184.0</ele><time>2026-04-18T16:29:28.918Z</time></trkpt><trkpt lat="40.657885" lon="16.545325"><ele>184.0</ele><time>2026-04-18T16:29:29.918Z</time></trkpt><trkpt lat="40.6578083" lon="16.5455983"><ele>184.0</ele><time>2026-04-18T16:29:30.918Z</time></trkpt><trkpt lat="40.6577333" lon="16.54588"><ele>184.0</ele><time>2026-04-18T16:29:31.918Z</time></trkpt><trkpt lat="40.657655" lon="16.5461633"><ele>184.0</ele><time>2026-04-18T16:29:32.918Z</time></trkpt><trkpt lat="40.657575" lon="16.546445"><ele>185.0</ele><time>2026-04-18T16:29:33.916Z</time></trkpt><trkpt lat="40.6574968" lon="16.5467259"><ele>186.0</ele><time>2026-04-18T16:29:34.916Z</time></trkpt><trkpt lat="40.6574184" lon="16.5470076"><ele>186.0</ele><time>2026-04-18T16:29:35.917Z</time></trkpt><trkpt lat="40.6573386" lon="16.5472886"><ele>186.0</ele><time>2026-04-18T16:29:36.916Z</time></trkpt><trkpt lat="40.6572631" lon="16.5475543"><ele>186.0</ele><time>2026-04-18T16:29:37.916Z</time></trkpt><trkpt lat="40.6571929" lon="16.547804"><ele>186.0</ele><time>2026-04-18T16:29:38.918Z</time></trkpt><trkpt lat="40.6571309" lon="16.5480441"><ele>186.0</ele><time>2026-04-18T16:29:39.916Z</time></trkpt><trkpt lat="40.657069" lon="16.5482846"><ele>186.0</ele><time>2026-04-18T16:29:40.917Z</time></trkpt><trkpt lat="40.6570028" lon="16.5485223"><ele>184.66666666666666</ele><time>2026-04-18T16:29:41.917Z</time></trkpt><trkpt lat="40.6569411" lon="16.5487489"><ele>183.33333333333331</ele><time>2026-04-18T16:29:42.916Z</time></trkpt><trkpt lat="40.6568931" lon="16.548973"><ele>182.0</ele><time>2026-04-18T16:29:43.918Z</time></trkpt><trkpt lat="40.6568643" lon="16.5492056"><ele>182.0</ele><time>2026-04-18T16:29:44.916Z</time></trkpt><trkpt lat="40.6568551" lon="16.5494553"><ele>182.0</ele><time>2026-04-18T16:29:45.916Z</time></trkpt><trkpt lat="40.6568637" lon="16.5497243"><ele>182.0</ele><time>2026-04-18T16:29:46.917Z</time></trkpt><trkpt lat="40.6568794" lon="16.5500064"><ele>182.0</ele><time>2026-04-18T16:29:47.916Z</time></trkpt><trkpt lat="40.6568981" lon="16.5503018"><ele>182.0</ele><time>2026-04-18T16:29:48.916Z</time></trkpt><trkpt lat="40.6569136" lon="16.5506049"><ele>181.5</ele><time>2026-04-18T16:29:49.916Z</time></trkpt><trkpt lat="40.6569288" lon="16.5509141"><ele>181.0</ele><time>2026-04-18T16:29:50.917Z</time></trkpt><trkpt lat="40.656944" lon="16.5512288"><ele>181.5</ele><time>2026-04-18T16:29:51.917Z</time></trkpt><trkpt lat="40.6569615" lon="16.5515451"><ele>182.0</ele><time>2026-04-18T16:29:52.918Z</time></trkpt><trkpt lat="40.6569819" lon="16.551852"><ele>181.0</ele><time>2026-04-18T16:29:53.918Z</time></trkpt><trkpt lat="40.6570021" lon="16.5521459"><ele>180.0</ele><time>2026-04-18T16:29:54.916Z</time></trkpt><trkpt lat="40.6570191" lon="16.5524152"><ele>179.0</ele><time>2026-04-18T16:29:55.917Z</time></trkpt><trkpt lat="40.6570355" lon="16.5526689"><ele>178.33333333333331</ele><time>2026-04-18T16:29:56.916Z</time></trkpt><trkpt lat="40.6570494" lon="16.5529106"><ele>177.66666666666666</ele><time>2026-04-18T16:29:57.916Z</time></trkpt><trkpt lat="40.6570607" lon="16.5531404"><ele>177.0</ele><time>2026-04-18T16:29:58.918Z</time></trkpt><trkpt lat="40.6570708" lon="16.5533557"><ele>177.0</ele><time>2026-04-18T16:29:59.917Z</time></trkpt><trkpt lat="40.6570807" lon="16.5535601"><ele>177.0</ele><time>2026-04-18T16:30:00.917Z</time></trkpt><trkpt lat="40.6570904" lon="16.5537456"><ele>177.0</ele><time>2026-04-18T16:30:01.917Z</time></trkpt><trkpt lat="40.6570963" lon="16.5538976"><ele>177.0</ele><time>2026-04-18T16:30:02.916Z</time></trkpt><trkpt lat="40.657097" lon="16.5540233"><ele>177.0</ele><time>2026-04-18T16:30:03.916Z</time></trkpt><trkpt lat="40.6570829" lon="16.5541379"><ele>177.0</ele><time>2026-04-18T16:30:04.917Z</time></trkpt><trkpt lat="40.6570489" lon="16.5542466"><ele>177.0</ele><time>2026-04-18T16:30:05.917Z</time></trkpt><trkpt lat="40.6570134" lon="16.5543492"><ele>177.0</ele><time>2026-04-18T16:30:06.919Z</time></trkpt><trkpt lat="40.6569988" lon="16.5544535"><ele>177.0</ele><time>2026-04-18T16:30:07.918Z</time></trkpt><trkpt lat="40.6570086" lon="16.5545568"><ele>177.0</ele><time>2026-04-18T16:30:08.918Z</time></trkpt><trkpt lat="40.657041" lon="16.5546629"><ele>177.75</ele><time>2026-04-18T16:30:09.917Z</time></trkpt><trkpt lat="40.6570844" lon="16.5547992"><ele>178.5</ele><time>2026-04-18T16:30:10.918Z</time></trkpt><trkpt lat="40.657122" lon="16.5549709"><ele>179.25</ele><time>2026-04-18T16:30:11.918Z</time></trkpt><trkpt lat="40.6571457" lon="16.5551725"><ele>180.0</ele><time>2026-04-18T16:30:12.918Z</time></trkpt><trkpt lat="40.6571623" lon="16.555401"><ele>180.66666666666666</ele><time>2026-04-18T16:30:13.918Z</time></trkpt><trkpt lat="40.6571785" lon="16.5556575"><ele>181.33333333333331</ele><time>2026-04-18T16:30:14.917Z</time></trkpt><trkpt lat="40.6571941" lon="16.5559285"><ele>182.0</ele><time>2026-04-18T16:30:15.916Z</time></trkpt><trkpt lat="40.6572096" lon="16.5562064"><ele>182.33333333333331</ele><time>2026-04-18T16:30:16.916Z</time></trkpt><trkpt lat="40.6572304" lon="16.5564863"><ele>182.66666666666666</ele><time>2026-04-18T16:30:17.916Z</time></trkpt><trkpt lat="40.6572475" lon="16.5567676"><ele>183.0</ele><time>2026-04-18T16:30:18.915Z</time></trkpt><trkpt lat="40.6572642" lon="16.5570482"><ele>183.66666666666666</ele><time>2026-04-18T16:30:19.917Z</time></trkpt><trkpt lat="40.6572774" lon="16.5573299"><ele>184.33333333333331</ele><time>2026-04-18T16:30:20.916Z</time></trkpt><trkpt lat="40.6572804" lon="16.5576114"><ele>185.0</ele><time>2026-04-18T16:30:21.916Z</time></trkpt><trkpt lat="40.657264" lon="16.5578931"><ele>185.66666666666666</ele><time>2026-04-18T16:30:22.916Z</time></trkpt><trkpt lat="40.6572212" lon="16.5581725"><ele>186.33333333333334</ele><time>2026-04-18T16:30:23.915Z</time></trkpt><trkpt lat="40.6571607" lon="16.5584422"><ele>187.0</ele><time>2026-04-18T16:30:24.916Z</time></trkpt><trkpt lat="40.6570903" lon="16.5586897"><ele>188.0</ele><time>2026-04-18T16:30:25.917Z</time></trkpt><trkpt lat="40.6570268" lon="16.5589203"><ele>189.0</ele><time>2026-04-18T16:30:26.917Z</time></trkpt><trkpt lat="40.6569852" lon="16.5591425"><ele>190.0</ele><time>2026-04-18T16:30:27.916Z</time></trkpt><trkpt lat="40.6569663" lon="16.5593592"><ele>191.25</ele><time>2026-04-18T16:30:28.917Z</time></trkpt><trkpt lat="40.6569666" lon="16.5595619"><ele>192.5</ele><time>2026-04-18T16:30:29.915Z</time></trkpt><trkpt lat="40.6569842" lon="16.5597522"><ele>193.75</ele><time>2026-04-18T16:30:30.918Z</time></trkpt><trkpt lat="40.6570231" lon="16.5599292"><ele>195.0</ele><time>2026-04-18T16:30:31.918Z</time></trkpt><trkpt lat="40.6570859" lon="16.5600982"><ele>195.0</ele><time>2026-04-18T16:30:32.918Z</time></trkpt><trkpt lat="40.6571717" lon="16.5602706"><ele>195.0</ele><time>2026-04-18T16:30:33.916Z</time></trkpt><trkpt lat="40.6572711" lon="16.5604464"><ele>195.0</ele><time>2026-04-18T16:30:34.916Z</time></trkpt><trkpt lat="40.6573722" lon="16.5606239"><ele>195.0</ele><time>2026-04-18T16:30:35.916Z</time></trkpt><trkpt lat="40.6574732" lon="16.560785"><ele>195.0</ele><time>2026-04-18T16:30:36.916Z</time></trkpt><trkpt lat="40.6575729" lon="16.5609205"><ele>195.0</ele><time>2026-04-18T16:30:37.916Z</time></trkpt><trkpt lat="40.6576873" lon="16.5610348"><ele>195.0</ele><time>2026-04-18T16:30:38.915Z</time></trkpt><trkpt lat="40.6578229" lon="16.5611323"><ele>196.0</ele><time>2026-04-18T16:30:39.916Z</time></trkpt><trkpt lat="40.6579778" lon="16.5612177"><ele>197.0</ele><time>2026-04-18T16:30:40.916Z</time></trkpt><trkpt lat="40.6581617" lon="16.5612917"><ele>198.0</ele><time>2026-04-18T16:30:41.915Z</time></trkpt><trkpt lat="40.658355" lon="16.5613733"><ele>198.0</ele><time>2026-04-18T16:30:42.916Z</time></trkpt><trkpt lat="40.6585583" lon="16.5614583"><ele>198.0</ele><time>2026-04-18T16:30:43.917Z</time></trkpt><trkpt lat="40.65876" lon="16.5615467"><ele>198.0</ele><time>2026-04-18T16:30:44.916Z</time></trkpt><trkpt lat="40.6589583" lon="16.5616367"><ele>198.33333333333331</ele><time>2026-04-18T16:30:45.916Z</time></trkpt><trkpt lat="40.6591517" lon="16.5617267"><ele>198.66666666666666</ele><time>2026-04-18T16:30:46.916Z</time></trkpt><trkpt lat="40.6593433" lon="16.5618133"><ele>199.0</ele><time>2026-04-18T16:30:47.915Z</time></trkpt><trkpt lat="40.659525" lon="16.5618917"><ele>200.0</ele><time>2026-04-18T16:30:48.916Z</time></trkpt><trkpt lat="40.6596867" lon="16.5619617"><ele>201.0</ele><time>2026-04-18T16:30:49.916Z</time></trkpt><trkpt lat="40.6598333" lon="16.5620333"><ele>202.0</ele><time>2026-04-18T16:30:50.916Z</time></trkpt><trkpt lat="40.659975" lon="16.5621167"><ele>202.33333333333331</ele><time>2026-04-18T16:30:51.916Z</time></trkpt><trkpt lat="40.6601117" lon="16.5622267"><ele>202.66666666666669</ele><time>2026-04-18T16:30:52.916Z</time></trkpt><trkpt lat="40.66025" lon="16.5623717"><ele>203.0</ele><time>2026-04-18T16:30:53.915Z</time></trkpt><trkpt lat="40.66038" lon="16.5625383"><ele>203.0</ele><time>2026-04-18T16:30:54.916Z</time></trkpt><trkpt lat="40.66049" lon="16.5627067"><ele>203.0</ele><time>2026-04-18T16:30:55.916Z</time></trkpt><trkpt lat="40.6605717" lon="16.5628717"><ele>203.0</ele><time>2026-04-18T16:30:56.916Z</time></trkpt><trkpt lat="40.66063" lon="16.5630333"><ele>204.5</ele><time>2026-04-18T16:30:57.917Z</time></trkpt><trkpt lat="40.660665" lon="16.5632067"><ele>206.0</ele><time>2026-04-18T16:30:58.915Z</time></trkpt><trkpt lat="40.6606733" lon="16.5633967"><ele>207.5</ele><time>2026-04-18T16:30:59.915Z</time></trkpt><trkpt lat="40.6606567" lon="16.5635983"><ele>209.0</ele><time>2026-04-18T16:31:00.917Z</time></trkpt><trkpt lat="40.66062" lon="16.5638167"><ele>209.33333333333334</ele><time>2026-04-18T16:31:01.916Z</time></trkpt><trkpt lat="40.6605717" lon="16.5640483"><ele>209.66666666666669</ele><time>2026-04-18T16:31:02.916Z</time></trkpt><trkpt lat="40.6605233" lon="16.5642883"><ele>210.0</ele><time>2026-04-18T16:31:03.916Z</time></trkpt><trkpt lat="40.6604767" lon="16.564535"><ele>210.0</ele><time>2026-04-18T16:31:04.917Z</time></trkpt><trkpt lat="40.6604283" lon="16.5647833"><ele>210.0</ele><time>2026-04-18T16:31:05.916Z</time></trkpt><trkpt lat="40.6603767" lon="16.565035"><ele>210.0</ele><time>2026-04-18T16:31:06.917Z</time></trkpt><trkpt lat="40.6603233" lon="16.5652967"><ele>213.33333333333331</ele><time>2026-04-18T16:31:07.915Z</time></trkpt><trkpt lat="40.6602717" lon="16.5655733"><ele>216.66666666666666</ele><time>2026-04-18T16:31:08.917Z</time></trkpt><trkpt lat="40.660215" lon="16.56586"><ele>220.0</ele><time>2026-04-18T16:31:09.916Z</time></trkpt><trkpt lat="40.6601583" lon="16.56614"><ele>220.33333333333331</ele><time>2026-04-18T16:31:10.916Z</time></trkpt><trkpt lat="40.6601033" lon="16.5664117"><ele>220.66666666666669</ele><time>2026-04-18T16:31:11.916Z</time></trkpt><trkpt lat="40.6600533" lon="16.5666733"><ele>221.0</ele><time>2026-04-18T16:31:12.916Z</time></trkpt><trkpt lat="40.660005" lon="16.5669367"><ele>220.33333333333334</ele><time>2026-04-18T16:31:13.916Z</time></trkpt><trkpt lat="40.6599583" lon="16.567195"><ele>219.66666666666669</ele><time>2026-04-18T16:31:14.916Z</time></trkpt><trkpt lat="40.65991" lon="16.56745"><ele>219.0</ele><time>2026-04-18T16:31:15.916Z</time></trkpt><trkpt lat="40.65986" lon="16.5677067"><ele>219.33333333333331</ele><time>2026-04-18T16:31:16.915Z</time></trkpt><trkpt lat="40.6598133" lon="16.56796"><ele>219.66666666666666</ele><time>2026-04-18T16:31:17.916Z</time></trkpt><trkpt lat="40.65977" lon="16.5681917"><ele>220.0</ele><time>2026-04-18T16:31:18.916Z</time></trkpt><trkpt lat="40.65973" lon="16.568405"><ele>220.0</ele><time>2026-04-18T16:31:19.917Z</time></trkpt><trkpt lat="40.6596933" lon="16.5686067"><ele>220.0</ele><time>2026-04-18T16:31:20.915Z</time></trkpt><trkpt lat="40.6596683" lon="16.5688067"><ele>220.0</ele><time>2026-04-18T16:31:21.916Z</time></trkpt><trkpt lat="40.6596667" lon="16.5690083"><ele>221.33333333333331</ele><time>2026-04-18T16:31:22.917Z</time></trkpt><trkpt lat="40.6596883" lon="16.5692167"><ele>222.66666666666669</ele><time>2026-04-18T16:31:23.916Z</time></trkpt><trkpt lat="40.6597267" lon="16.569425"><ele>224.0</ele><time>2026-04-18T16:31:24.916Z</time></trkpt><trkpt lat="40.65977" lon="16.5696233"><ele>225.25</ele><time>2026-04-18T16:31:25.917Z</time></trkpt><trkpt lat="40.6598083" lon="16.5698033"><ele>226.5</ele><time>2026-04-18T16:31:26.916Z</time></trkpt><trkpt lat="40.6598467" lon="16.5699717"><ele>227.75</ele><time>2026-04-18T16:31:27.917Z</time></trkpt><trkpt lat="40.65989" lon="16.5701233"><ele>229.0</ele><time>2026-04-18T16:31:28.917Z</time></trkpt><trkpt lat="40.6599433" lon="16.570255"><ele>229.25</ele><time>2026-04-18T16:31:29.916Z</time></trkpt><trkpt lat="40.6600183" lon="16.5703617"><ele>229.5</ele><time>2026-04-18T16:31:30.916Z</time></trkpt><trkpt lat="40.6601133" lon="16.5704467"><ele>229.75</ele><time>2026-04-18T16:31:31.917Z</time></trkpt><trkpt lat="40.66022" lon="16.5705083"><ele>230.0</ele><time>2026-04-18T16:31:32.916Z</time></trkpt><trkpt lat="40.6603333" lon="16.570545"><ele>230.0</ele><time>2026-04-18T16:31:33.916Z</time></trkpt><trkpt lat="40.6604417" lon="16.5705617"><ele>230.0</ele><time>2026-04-18T16:31:34.917Z</time></trkpt><trkpt lat="40.6605533" lon="16.5705667"><ele>230.0</ele><time>2026-04-18T16:31:35.916Z</time></trkpt><trkpt lat="40.6606733" lon="16.5705717"><ele>230.0</ele><time>2026-04-18T16:31:36.917Z</time></trkpt><trkpt lat="40.6608067" lon="16.5705717"><ele>230.0</ele><time>2026-04-18T16:31:37.919Z</time></trkpt><trkpt lat="40.6609467" lon="16.5705567"><ele>230.0</ele><time>2026-04-18T16:31:38.916Z</time></trkpt><trkpt lat="40.66109" lon="16.57052"><ele>230.0</ele><time>2026-04-18T16:31:39.917Z</time></trkpt><trkpt lat="40.6612383" lon="16.570455"><ele>230.0</ele><time>2026-04-18T16:31:40.916Z</time></trkpt><trkpt lat="40.6613883" lon="16.570365"><ele>230.25</ele><time>2026-04-18T16:31:41.915Z</time></trkpt><trkpt lat="40.661525" lon="16.57026"><ele>230.5</ele><time>2026-04-18T16:31:42.918Z</time></trkpt><trkpt lat="40.661645" lon="16.57015"><ele>230.75</ele><time>2026-04-18T16:31:43.918Z</time></trkpt><trkpt lat="40.66176" lon="16.5700383"><ele>231.0</ele><time>2026-04-18T16:31:44.918Z</time></trkpt><trkpt lat="40.6618733" lon="16.5699267"><ele>231.75</ele><time>2026-04-18T16:31:45.919Z</time></trkpt><trkpt lat="40.6619883" lon="16.5698167"><ele>232.5</ele><time>2026-04-18T16:31:46.917Z</time></trkpt><trkpt lat="40.662105" lon="16.5697067"><ele>233.25</ele><time>2026-04-18T16:31:47.918Z</time></trkpt><trkpt lat="40.66222" lon="16.5695967"><ele>234.0</ele><time>2026-04-18T16:31:48.917Z</time></trkpt><trkpt lat="40.6623383" lon="16.5694867"><ele>234.0</ele><time>2026-04-18T16:31:49.917Z</time></trkpt><trkpt lat="40.6624601" lon="16.5693779"><ele>234.0</ele><time>2026-04-18T16:31:50.917Z</time></trkpt><trkpt lat="40.6625911" lon="16.5692734"><ele>234.0</ele><time>2026-04-18T16:31:51.916Z</time></trkpt><trkpt lat="40.6627244" lon="16.5691811"><ele>237.0</ele><time>2026-04-18T16:31:52.919Z</time></trkpt><trkpt lat="40.6628572" lon="16.5690993"><ele>240.0</ele><time>2026-04-18T16:31:53.915Z</time></trkpt><trkpt lat="40.6629934" lon="16.5690242"><ele>243.0</ele><time>2026-04-18T16:31:54.916Z</time></trkpt><trkpt lat="40.6631263" lon="16.5689513"><ele>246.0</ele><time>2026-04-18T16:31:55.916Z</time></trkpt><trkpt lat="40.6632656" lon="16.5688725"><ele>246.0</ele><time>2026-04-18T16:31:56.916Z</time></trkpt><trkpt lat="40.6634101" lon="16.5687842"><ele>246.0</ele><time>2026-04-18T16:31:57.916Z</time></trkpt><trkpt lat="40.6635664" lon="16.5686868"><ele>246.0</ele><time>2026-04-18T16:31:58.917Z</time></trkpt><trkpt lat="40.6637343" lon="16.5685891"><ele>246.33333333333331</ele><time>2026-04-18T16:31:59.92Z</time></trkpt><trkpt lat="40.6639121" lon="16.5684954"><ele>246.66666666666666</ele><time>2026-04-18T16:32:00.916Z</time></trkpt><trkpt lat="40.6640949" lon="16.568401"><ele>247.0</ele><time>2026-04-18T16:32:01.917Z</time></trkpt><trkpt lat="40.664273" lon="16.568304"><ele>247.0</ele><time>2026-04-18T16:32:02.917Z</time></trkpt><trkpt lat="40.6644443" lon="16.5682077"><ele>247.0</ele><time>2026-04-18T16:32:03.916Z</time></trkpt><trkpt lat="40.6646015" lon="16.5681126"><ele>247.0</ele><time>2026-04-18T16:32:04.916Z</time></trkpt><trkpt lat="40.6647387" lon="16.5680257"><ele>246.5</ele><time>2026-04-18T16:32:05.916Z</time></trkpt><trkpt lat="40.6648629" lon="16.5679443"><ele>246.0</ele><time>2026-04-18T16:32:06.916Z</time></trkpt><trkpt lat="40.6649858" lon="16.5678697"><ele>245.5</ele><time>2026-04-18T16:32:07.916Z</time></trkpt><trkpt lat="40.6651198" lon="16.5678038"><ele>245.0</ele><time>2026-04-18T16:32:08.916Z</time></trkpt><trkpt lat="40.6652647" lon="16.567756"><ele>246.75</ele><time>2026-04-18T16:32:09.916Z</time></trkpt><trkpt lat="40.6654066" lon="16.5677368"><ele>248.5</ele><time>2026-04-18T16:32:10.916Z</time></trkpt><trkpt lat="40.6655394" lon="16.5677468"><ele>250.25</ele><time>2026-04-18T16:32:11.915Z</time></trkpt><trkpt lat="40.6656617" lon="16.5677853"><ele>252.0</ele><time>2026-04-18T16:32:12.916Z</time></trkpt><trkpt lat="40.6657851" lon="16.5678582"><ele>254.0</ele><time>2026-04-18T16:32:13.917Z</time></trkpt><trkpt lat="40.6659169" lon="16.5679603"><ele>256.0</ele><time>2026-04-18T16:32:14.917Z</time></trkpt><trkpt lat="40.666062" lon="16.5680807"><ele>258.0</ele><time>2026-04-18T16:32:15.915Z</time></trkpt><trkpt lat="40.666222" lon="16.5682073"><ele>259.0</ele><time>2026-04-18T16:32:16.916Z</time></trkpt><trkpt lat="40.6663953" lon="16.5683452"><ele>260.0</ele><time>2026-04-18T16:32:17.916Z</time></trkpt><trkpt lat="40.6665767" lon="16.5684909"><ele>261.0</ele><time>2026-04-18T16:32:18.915Z</time></trkpt><trkpt lat="40.666756" lon="16.568631"><ele>261.6666666666667</ele><time>2026-04-18T16:32:19.917Z</time></trkpt><trkpt lat="40.6669222" lon="16.5687617"><ele>262.33333333333337</ele><time>2026-04-18T16:32:20.916Z</time></trkpt><trkpt lat="40.6670748" lon="16.5688895"><ele>263.0</ele><time>2026-04-18T16:32:21.916Z</time></trkpt><trkpt lat="40.6672135" lon="16.5690162"><ele>264.33333333333337</ele><time>2026-04-18T16:32:22.916Z</time></trkpt><trkpt lat="40.667333" lon="16.5691472"><ele>265.6666666666667</ele><time>2026-04-18T16:32:23.916Z</time></trkpt><trkpt lat="40.6674402" lon="16.5692933"><ele>267.0</ele><time>2026-04-18T16:32:24.916Z</time></trkpt><trkpt lat="40.6675352" lon="16.5694632"><ele>267.6666666666667</ele><time>2026-04-18T16:32:25.916Z</time></trkpt><trkpt lat="40.667623" lon="16.5696617"><ele>268.33333333333337</ele><time>2026-04-18T16:32:26.916Z</time></trkpt><trkpt lat="40.6677117" lon="16.5698736"><ele>269.0</ele><time>2026-04-18T16:32:27.916Z</time></trkpt><trkpt lat="40.6677986" lon="16.5700898"><ele>270.0</ele><time>2026-04-18T16:32:28.915Z</time></trkpt><trkpt lat="40.6678846" lon="16.5703077"><ele>271.0</ele><time>2026-04-18T16:32:29.915Z</time></trkpt><trkpt lat="40.6679711" lon="16.5705286"><ele>272.0</ele><time>2026-04-18T16:32:30.915Z</time></trkpt><trkpt lat="40.6680698" lon="16.5707557"><ele>273.6666666666667</ele><time>2026-04-18T16:32:31.919Z</time></trkpt><trkpt lat="40.6681755" lon="16.5709927"><ele>275.3333333333333</ele><time>2026-04-18T16:32:32.916Z</time></trkpt><trkpt lat="40.6682812" lon="16.5712263"><ele>277.0</ele><time>2026-04-18T16:32:33.916Z</time></trkpt><trkpt lat="40.6683766" lon="16.5714476"><ele>278.0</ele><time>2026-04-18T16:32:34.916Z</time></trkpt><trkpt lat="40.6684557" lon="16.571653"><ele>279.0</ele><time>2026-04-18T16:32:35.916Z</time></trkpt><trkpt lat="40.6685225" lon="16.571854"><ele>280.0</ele><time>2026-04-18T16:32:36.918Z</time></trkpt><trkpt lat="40.668579" lon="16.5720613"><ele>281.66666666666663</ele><time>2026-04-18T16:32:37.917Z</time></trkpt><trkpt lat="40.6686273" lon="16.5722818"><ele>283.3333333333333</ele><time>2026-04-18T16:32:38.916Z</time></trkpt><trkpt lat="40.6686661" lon="16.5725188"><ele>285.0</ele><time>2026-04-18T16:32:39.916Z</time></trkpt><trkpt lat="40.668693" lon="16.5727627"><ele>285.75</ele><time>2026-04-18T16:32:40.916Z</time></trkpt><trkpt lat="40.6687054" lon="16.5729839"><ele>286.5</ele><time>2026-04-18T16:32:41.916Z</time></trkpt><trkpt lat="40.6687082" lon="16.5731742"><ele>287.25</ele><time>2026-04-18T16:32:42.916Z</time></trkpt><trkpt lat="40.6687118" lon="16.5733433"><ele>288.0</ele><time>2026-04-18T16:32:43.917Z</time></trkpt><trkpt lat="40.6687135" lon="16.5734929"><ele>288.0</ele><time>2026-04-18T16:32:44.915Z</time></trkpt><trkpt lat="40.6687031" lon="16.5736265"><ele>288.0</ele><time>2026-04-18T16:32:45.917Z</time></trkpt><trkpt lat="40.6686802" lon="16.5737453"><ele>288.0</ele><time>2026-04-18T16:32:46.916Z</time></trkpt><trkpt lat="40.6686626" lon="16.5738582"><ele>288.0</ele><time>2026-04-18T16:32:47.916Z</time></trkpt><trkpt lat="40.6686644" lon="16.5739661"><ele>288.0</ele><time>2026-04-18T16:32:48.916Z</time></trkpt><trkpt lat="40.6686868" lon="16.5740624"><ele>288.0</ele><time>2026-04-18T16:32:49.916Z</time></trkpt><trkpt lat="40.668728" lon="16.57414"><ele>288.5714285714286</ele><time>2026-04-18T16:32:50.917Z</time></trkpt><trkpt lat="40.6687858" lon="16.5741862"><ele>289.14285714285717</ele><time>2026-04-18T16:32:51.916Z</time></trkpt><trkpt lat="40.6688536" lon="16.574194"><ele>289.7142857142857</ele><time>2026-04-18T16:32:52.916Z</time></trkpt><trkpt lat="40.6689234" lon="16.5741541"><ele>290.28571428571433</ele><time>2026-04-18T16:32:53.916Z</time></trkpt><trkpt lat="40.6689838" lon="16.5740815"><ele>290.8571428571429</ele><time>2026-04-18T16:32:54.916Z</time></trkpt><trkpt lat="40.6690357" lon="16.5740116"><ele>291.42857142857144</ele><time>2026-04-18T16:32:55.916Z</time></trkpt><trkpt lat="40.6690883" lon="16.5739467"><ele>292.0</ele><time>2026-04-18T16:32:56.916Z</time></trkpt><trkpt lat="40.6691433" lon="16.5739017"><ele>292.0</ele><time>2026-04-18T16:32:57.916Z</time></trkpt><trkpt lat="40.669205" lon="16.573865"><ele>292.0</ele><time>2026-04-18T16:32:58.916Z</time></trkpt><trkpt lat="40.66927" lon="16.5738433"><ele>292.0</ele><time>2026-04-18T16:32:59.916Z</time></trkpt><trkpt lat="40.66935" lon="16.5738233"><ele>292.0</ele><time>2026-04-18T16:33:00.916Z</time></trkpt><trkpt lat="40.6694483" lon="16.5737917"><ele>292.0</ele><time>2026-04-18T16:33:01.917Z</time></trkpt><trkpt lat="40.6695667" lon="16.5737517"><ele>292.0</ele><time>2026-04-18T16:33:02.916Z</time></trkpt><trkpt lat="40.6697083" lon="16.5737083"><ele>292.0</ele><time>2026-04-18T16:33:03.916Z</time></trkpt><trkpt lat="40.6698617" lon="16.5736667"><ele>292.0</ele><time>2026-04-18T16:33:04.916Z</time></trkpt><trkpt lat="40.6700167" lon="16.5736233"><ele>292.0</ele><time>2026-04-18T16:33:05.917Z</time></trkpt><trkpt lat="40.6701733" lon="16.5735783"><ele>293.0</ele><time>2026-04-18T16:33:06.916Z</time></trkpt><trkpt lat="40.6703317" lon="16.573535"><ele>294.0</ele><time>2026-04-18T16:33:07.917Z</time></trkpt><trkpt lat="40.6704933" lon="16.57349"><ele>295.0</ele><time>2026-04-18T16:33:08.916Z</time></trkpt><trkpt lat="40.6706617" lon="16.5734367"><ele>295.0</ele><time>2026-04-18T16:33:09.916Z</time></trkpt><trkpt lat="40.6708283" lon="16.57339"><ele>295.0</ele><time>2026-04-18T16:33:10.916Z</time></trkpt><trkpt lat="40.670985" lon="16.5733467"><ele>295.0</ele><time>2026-04-18T16:33:11.916Z</time></trkpt><trkpt lat="40.6711383" lon="16.5733083"><ele>295.5</ele><time>2026-04-18T16:33:12.916Z</time></trkpt><trkpt lat="40.671285" lon="16.5732733"><ele>296.0</ele><time>2026-04-18T16:33:13.918Z</time></trkpt><trkpt lat="40.6714283" lon="16.57324"><ele>296.5</ele><time>2026-04-18T16:33:14.916Z</time></trkpt><trkpt lat="40.6715667" lon="16.5732183"><ele>297.0</ele><time>2026-04-18T16:33:15.916Z</time></trkpt><trkpt lat="40.6717017" lon="16.5732083"><ele>297.0</ele><time>2026-04-18T16:33:16.917Z</time></trkpt><trkpt lat="40.6718267" lon="16.5732133"><ele>297.0</ele><time>2026-04-18T16:33:17.916Z</time></trkpt><trkpt lat="40.6719383" lon="16.5732283"><ele>297.0</ele><time>2026-04-18T16:33:18.917Z</time></trkpt><trkpt lat="40.6720317" lon="16.5732433"><ele>297.0</ele><time>2026-04-18T16:33:19.916Z</time></trkpt><trkpt lat="40.672105" lon="16.5732483"><ele>297.0</ele><time>2026-04-18T16:33:20.916Z</time></trkpt><trkpt lat="40.6722217" lon="16.573205"><ele>297.0</ele><time>2026-04-18T16:33:22.916Z</time></trkpt><trkpt lat="40.6722683" lon="16.5730583"><ele>297.0</ele><time>2026-04-18T16:33:24.916Z</time></trkpt><trkpt lat="40.6722683" lon="16.57296"><ele>297.0</ele><time>2026-04-18T16:33:25.919Z</time></trkpt><trkpt lat="40.672275" lon="16.5728567"><ele>297.0</ele><time>2026-04-18T16:33:26.916Z</time></trkpt><trkpt lat="40.672285" lon="16.5727533"><ele>297.0</ele><time>2026-04-18T16:33:27.916Z</time></trkpt><trkpt lat="40.6723017" lon="16.5726583"><ele>297.0</ele><time>2026-04-18T16:33:28.916Z</time></trkpt><trkpt lat="40.6723133" lon="16.5725733"><ele>296.2</ele><time>2026-04-18T16:33:29.916Z</time></trkpt><trkpt lat="40.6723333" lon="16.5724533"><ele>295.4</ele><time>2026-04-18T16:33:31.918Z</time></trkpt><trkpt lat="40.672315" lon="16.5723667"><ele>294.6</ele><time>2026-04-18T16:33:35.918Z</time></trkpt><trkpt lat="40.6722667" lon="16.5724817"><ele>293.8</ele><time>2026-04-18T16:33:38.916Z</time></trkpt><trkpt lat="40.672255" lon="16.5726567"><ele>293.0</ele><time>2026-04-18T16:33:40.92Z</time></trkpt><trkpt lat="40.6722417" lon="16.57277"><ele>293.6666666666667</ele><time>2026-04-18T16:33:41.916Z</time></trkpt><trkpt lat="40.6722317" lon="16.5728817"><ele>294.33333333333337</ele><time>2026-04-18T16:33:42.917Z</time></trkpt><trkpt lat="40.6722267" lon="16.5729717"><ele>295.0</ele><time>2026-04-18T16:33:43.916Z</time></trkpt><trkpt lat="40.6722167" lon="16.5730917"><ele>295.6666666666667</ele><time>2026-04-18T16:33:45.916Z</time></trkpt><trkpt lat="40.67221" lon="16.5732067"><ele>296.3333333333333</ele><time>2026-04-18T16:41:02.915Z</time></trkpt><trkpt lat="40.6722883" lon="16.5732867"><ele>297.0</ele><time>2026-04-18T16:41:04.915Z</time></trkpt><trkpt lat="40.6723517" lon="16.5732933"><ele>297.0</ele><time>2026-04-18T16:41:05.915Z</time></trkpt><trkpt lat="40.6724233" lon="16.5732867"><ele>297.0</ele><time>2026-04-18T16:41:06.916Z</time></trkpt><trkpt lat="40.672505" lon="16.573285"><ele>297.0</ele><time>2026-04-18T16:41:07.917Z</time></trkpt><trkpt lat="40.6725967" lon="16.5732967"><ele>297.0</ele><time>2026-04-18T16:41:08.916Z</time></trkpt><trkpt lat="40.6726867" lon="16.5733133"><ele>297.0</ele><time>2026-04-18T16:41:09.916Z</time></trkpt><trkpt lat="40.672775" lon="16.573335"><ele>297.0</ele><time>2026-04-18T16:41:10.916Z</time></trkpt><trkpt lat="40.6728683" lon="16.573355"><ele>297.0</ele><time>2026-04-18T16:41:11.916Z</time></trkpt><trkpt lat="40.6729633" lon="16.5733733"><ele>297.0</ele><time>2026-04-18T16:41:12.918Z</time></trkpt><trkpt lat="40.6730633" lon="16.57339"><ele>297.0</ele><time>2026-04-18T16:41:13.917Z</time></trkpt><trkpt lat="40.6731717" lon="16.5734033"><ele>297.0</ele><time>2026-04-18T16:41:14.916Z</time></trkpt><trkpt lat="40.6732867" lon="16.573415"><ele>297.0</ele><time>2026-04-18T16:41:15.916Z</time></trkpt><trkpt lat="40.6734" lon="16.5734317"><ele>297.0</ele><time>2026-04-18T16:41:16.917Z</time></trkpt><trkpt lat="40.6735033" lon="16.57345"><ele>297.0</ele><time>2026-04-18T16:41:17.916Z</time></trkpt><trkpt lat="40.6735883" lon="16.5734667"><ele>297.0</ele><time>2026-04-18T16:41:18.917Z</time></trkpt><trkpt lat="40.6736567" lon="16.57348"><ele>297.0</ele><time>2026-04-18T16:41:19.919Z</time></trkpt><trkpt lat="40.673755" lon="16.5735183"><ele>297.0</ele><time>2026-04-18T16:41:21.917Z</time></trkpt><trkpt lat="40.6738067" lon="16.5736183"><ele>297.8333333333333</ele><time>2026-04-18T16:41:23.917Z</time></trkpt><trkpt lat="40.6738233" lon="16.573705"><ele>298.6666666666667</ele><time>2026-04-18T16:41:24.918Z</time></trkpt><trkpt lat="40.6738367" lon="16.5738167"><ele>299.5</ele><time>2026-04-18T16:41:25.917Z</time></trkpt><trkpt lat="40.673855" lon="16.57394"><ele>300.33333333333337</ele><time>2026-04-18T16:41:26.916Z</time></trkpt><trkpt lat="40.6738767" lon="16.5740667"><ele>301.1666666666667</ele><time>2026-04-18T16:41:27.916Z</time></trkpt><trkpt lat="40.6739133" lon="16.5741917"><ele>302.0</ele><time>2026-04-18T16:41:28.916Z</time></trkpt><trkpt lat="40.6739733" lon="16.5743217"><ele>302.0</ele><time>2026-04-18T16:41:29.916Z</time></trkpt><trkpt lat="40.6740483" lon="16.5744567"><ele>302.0</ele><time>2026-04-18T16:41:30.916Z</time></trkpt><trkpt lat="40.6741283" lon="16.574595"><ele>302.0</ele><time>2026-04-18T16:41:31.918Z</time></trkpt><trkpt lat="40.6742067" lon="16.57473"><ele>302.0</ele><time>2026-04-18T16:41:32.917Z</time></trkpt><trkpt lat="40.6742867" lon="16.5748667"><ele>304.0</ele><time>2026-04-18T16:41:33.916Z</time></trkpt><trkpt lat="40.6743717" lon="16.5750083"><ele>306.0</ele><time>2026-04-18T16:41:34.916Z</time></trkpt><trkpt lat="40.6744633" lon="16.5751567"><ele>308.0</ele><time>2026-04-18T16:41:35.916Z</time></trkpt><trkpt lat="40.674555" lon="16.5753117"><ele>310.0</ele><time>2026-04-18T16:41:36.917Z</time></trkpt><trkpt lat="40.67464" lon="16.575455"><ele>312.0</ele><time>2026-04-18T16:41:37.916Z</time></trkpt><trkpt lat="40.6747133" lon="16.57558"><ele>314.0</ele><time>2026-04-18T16:41:38.917Z</time></trkpt><trkpt lat="40.674775" lon="16.5756867"><ele>316.0</ele><time>2026-04-18T16:41:39.915Z</time></trkpt><trkpt lat="40.6748283" lon="16.5757817"><ele>318.0</ele><time>2026-04-18T16:41:40.915Z</time></trkpt><trkpt lat="40.6748717" lon="16.575875"><ele>320.0</ele><time>2026-04-18T16:41:41.917Z</time></trkpt><trkpt lat="40.6749" lon="16.57596"><ele>320.0</ele><time>2026-04-18T16:41:42.916Z</time></trkpt><trkpt lat="40.6749233" lon="16.5760417"><ele>320.0</ele><time>2026-04-18T16:41:43.916Z</time></trkpt><trkpt lat="40.6749467" lon="16.576125"><ele>320.0</ele><time>2026-04-18T16:41:44.916Z</time></trkpt><trkpt lat="40.6749683" lon="16.5762117"><ele>320.0</ele><time>2026-04-18T16:41:45.916Z</time></trkpt><trkpt lat="40.6749867" lon="16.5763033"><ele>320.0</ele><time>2026-04-18T16:41:46.917Z</time></trkpt><trkpt lat="40.674995" lon="16.5763917"><ele>320.0</ele><time>2026-04-18T16:41:47.916Z</time></trkpt><trkpt lat="40.6749933" lon="16.576475"><ele>320.0</ele><time>2026-04-18T16:41:48.917Z</time></trkpt><trkpt lat="40.6749967" lon="16.5765583"><ele>321.1666666666667</ele><time>2026-04-18T16:41:49.917Z</time></trkpt><trkpt lat="40.675015" lon="16.5766433"><ele>322.33333333333337</ele><time>2026-04-18T16:41:50.916Z</time></trkpt><trkpt lat="40.6750417" lon="16.5767317"><ele>323.5</ele><time>2026-04-18T16:41:51.917Z</time></trkpt><trkpt lat="40.675065" lon="16.57683"><ele>324.6666666666667</ele><time>2026-04-18T16:41:52.917Z</time></trkpt><trkpt lat="40.675085" lon="16.5769317"><ele>325.8333333333333</ele><time>2026-04-18T16:41:53.916Z</time></trkpt><trkpt lat="40.6751033" lon="16.57704"><ele>327.0</ele><time>2026-04-18T16:41:54.917Z</time></trkpt><trkpt lat="40.6751233" lon="16.5771483"><ele>327.8333333333333</ele><time>2026-04-18T16:41:55.917Z</time></trkpt><trkpt lat="40.675145" lon="16.5772533"><ele>328.6666666666667</ele><time>2026-04-18T16:41:56.915Z</time></trkpt><trkpt lat="40.67516" lon="16.5773467"><ele>329.5</ele><time>2026-04-18T16:41:57.917Z</time></trkpt><trkpt lat="40.6751767" lon="16.5774383"><ele>330.33333333333337</ele><time>2026-04-18T16:41:58.917Z</time></trkpt><trkpt lat="40.6752067" lon="16.5775267"><ele>331.1666666666667</ele><time>2026-04-18T16:41:59.916Z</time></trkpt><trkpt lat="40.67524" lon="16.5776117"><ele>332.0</ele><time>2026-04-18T16:42:00.915Z</time></trkpt><trkpt lat="40.6752767" lon="16.5777017"><ele>332.6666666666667</ele><time>2026-04-18T16:42:01.916Z</time></trkpt><trkpt lat="40.6753133" lon="16.5777867"><ele>333.33333333333337</ele><time>2026-04-18T16:42:02.915Z</time></trkpt><trkpt lat="40.6753617" lon="16.5778633"><ele>334.0</ele><time>2026-04-18T16:42:03.916Z</time></trkpt><trkpt lat="40.6754017" lon="16.577945"><ele>334.6666666666667</ele><time>2026-04-18T16:42:04.917Z</time></trkpt><trkpt lat="40.67543" lon="16.5780467"><ele>335.3333333333333</ele><time>2026-04-18T16:42:05.916Z</time></trkpt><trkpt lat="40.67545" lon="16.5781633"><ele>336.0</ele><time>2026-04-18T16:42:06.916Z</time></trkpt><trkpt lat="40.6754767" lon="16.5782883"><ele>337.0</ele><time>2026-04-18T16:42:07.916Z</time></trkpt><trkpt lat="40.675505" lon="16.5784183"><ele>338.0</ele><time>2026-04-18T16:42:08.916Z</time></trkpt><trkpt lat="40.6755317" lon="16.57855"><ele>339.0</ele><time>2026-04-18T16:42:09.916Z</time></trkpt><trkpt lat="40.6755567" lon="16.57868"><ele>340.0</ele><time>2026-04-18T16:42:10.916Z</time></trkpt><trkpt lat="40.6755817" lon="16.5788133"><ele>341.0</ele><time>2026-04-18T16:42:11.916Z</time></trkpt><trkpt lat="40.675615" lon="16.5789433"><ele>341.20000000000005</ele><time>2026-04-18T16:42:12.917Z</time></trkpt><trkpt lat="40.6756583" lon="16.5790733"><ele>341.40000000000003</ele><time>2026-04-18T16:42:13.918Z</time></trkpt><trkpt lat="40.6757117" lon="16.5792"><ele>341.6</ele><time>2026-04-18T16:42:14.916Z</time></trkpt><trkpt lat="40.6757767" lon="16.5793183"><ele>341.8</ele><time>2026-04-18T16:42:15.916Z</time></trkpt><trkpt lat="40.675845" lon="16.579435"><ele>342.0</ele><time>2026-04-18T16:42:16.916Z</time></trkpt><trkpt lat="40.6759167" lon="16.5795467"><ele>343.20000000000005</ele><time>2026-04-18T16:42:17.917Z</time></trkpt><trkpt lat="40.6759883" lon="16.579655"><ele>344.4</ele><time>2026-04-18T16:42:18.916Z</time></trkpt><trkpt lat="40.6760583" lon="16.5797533"><ele>345.6</ele><time>2026-04-18T16:42:19.917Z</time></trkpt><trkpt lat="40.6761283" lon="16.5798467"><ele>346.79999999999995</ele><time>2026-04-18T16:42:20.92Z</time></trkpt><trkpt lat="40.6761983" lon="16.5799433"><ele>348.0</ele><time>2026-04-18T16:42:21.918Z</time></trkpt><trkpt lat="40.6762733" lon="16.5800367"><ele>348.8333333333333</ele><time>2026-04-18T16:42:22.916Z</time></trkpt><trkpt lat="40.6763467" lon="16.5801167"><ele>349.6666666666667</ele><time>2026-04-18T16:42:23.916Z</time></trkpt><trkpt lat="40.676415" lon="16.5801867"><ele>350.5</ele><time>2026-04-18T16:42:24.918Z</time></trkpt><trkpt lat="40.6764817" lon="16.5802617"><ele>351.33333333333337</ele><time>2026-04-18T16:42:25.917Z</time></trkpt><trkpt lat="40.676545" lon="16.58034"><ele>352.1666666666667</ele><time>2026-04-18T16:42:26.917Z</time></trkpt><trkpt lat="40.6766017" lon="16.5804217"><ele>353.0</ele><time>2026-04-18T16:42:27.916Z</time></trkpt><trkpt lat="40.6766517" lon="16.5805067"><ele>353.0</ele><time>2026-04-18T16:42:28.916Z</time></trkpt><trkpt lat="40.6766967" lon="16.58059"><ele>353.0</ele><time>2026-04-18T16:42:29.916Z</time></trkpt><trkpt lat="40.6767467" lon="16.58068"><ele>353.0</ele><time>2026-04-18T16:42:30.917Z</time></trkpt><trkpt lat="40.6767967" lon="16.5807817"><ele>353.0</ele><time>2026-04-18T16:42:31.917Z</time></trkpt><trkpt lat="40.67684" lon="16.5808967"><ele>353.0</ele><time>2026-04-18T16:42:32.922Z</time></trkpt><trkpt lat="40.6768817" lon="16.5810167"><ele>353.0</ele><time>2026-04-18T16:42:33.917Z</time></trkpt><trkpt lat="40.6769267" lon="16.58113"><ele>353.0</ele><time>2026-04-18T16:42:34.917Z</time></trkpt><trkpt lat="40.67698" lon="16.5812383"><ele>353.0</ele><time>2026-04-18T16:42:35.916Z</time></trkpt><trkpt lat="40.6770433" lon="16.581345"><ele>353.0</ele><time>2026-04-18T16:42:36.916Z</time></trkpt><trkpt lat="40.6771067" lon="16.58145"><ele>353.0</ele><time>2026-04-18T16:42:37.917Z</time></trkpt><trkpt lat="40.6771683" lon="16.581555"><ele>353.1666666666667</ele><time>2026-04-18T16:42:38.917Z</time></trkpt><trkpt lat="40.6772283" lon="16.5816617"><ele>353.33333333333337</ele><time>2026-04-18T16:42:39.915Z</time></trkpt><trkpt lat="40.6772833" lon="16.5817617"><ele>353.5</ele><time>2026-04-18T16:42:40.917Z</time></trkpt><trkpt lat="40.6773283" lon="16.5818533"><ele>353.6666666666667</ele><time>2026-04-18T16:42:41.916Z</time></trkpt><trkpt lat="40.6773733" lon="16.5819333"><ele>353.8333333333333</ele><time>2026-04-18T16:42:42.917Z</time></trkpt><trkpt lat="40.6774117" lon="16.582005"><ele>354.0</ele><time>2026-04-18T16:42:43.917Z</time></trkpt><trkpt lat="40.6774433" lon="16.5820783"><ele>354.0</ele><time>2026-04-18T16:42:44.915Z</time></trkpt><trkpt lat="40.6775117" lon="16.5821883"><ele>354.0</ele><time>2026-04-18T16:42:46.916Z</time></trkpt><trkpt lat="40.6776" lon="16.5821883"><ele>354.0</ele><time>2026-04-18T16:42:48.916Z</time></trkpt><trkpt lat="40.6776767" lon="16.5820633"><ele>354.0</ele><time>2026-04-18T16:42:50.916Z</time></trkpt><trkpt lat="40.6777233" lon="16.58199"><ele>354.0</ele><time>2026-04-18T16:42:51.917Z</time></trkpt><trkpt lat="40.6777783" lon="16.5819167"><ele>354.5</ele><time>2026-04-18T16:42:52.916Z</time></trkpt><trkpt lat="40.67784" lon="16.5818467"><ele>355.0</ele><time>2026-04-18T16:42:53.916Z</time></trkpt><trkpt lat="40.677905" lon="16.5817767"><ele>355.5</ele><time>2026-04-18T16:42:54.917Z</time></trkpt><trkpt lat="40.67797" lon="16.5817083"><ele>356.0</ele><time>2026-04-18T16:42:55.917Z</time></trkpt><trkpt lat="40.678035" lon="16.5816417"><ele>356.5</ele><time>2026-04-18T16:42:56.917Z</time></trkpt><trkpt lat="40.6781017" lon="16.5815783"><ele>357.0</ele><time>2026-04-18T16:42:57.916Z</time></trkpt><trkpt lat="40.6781633" lon="16.581515"><ele>357.0</ele><time>2026-04-18T16:42:58.919Z</time></trkpt><trkpt lat="40.678225" lon="16.5814517"><ele>357.0</ele><time>2026-04-18T16:42:59.916Z</time></trkpt><trkpt lat="40.6782917" lon="16.5813817"><ele>357.0</ele><time>2026-04-18T16:43:00.916Z</time></trkpt><trkpt lat="40.6783633" lon="16.5813117"><ele>357.0</ele><time>2026-04-18T16:43:01.922Z</time></trkpt><trkpt lat="40.67844" lon="16.5812367"><ele>357.0</ele><time>2026-04-18T16:43:02.916Z</time></trkpt><trkpt lat="40.6785183" lon="16.5811533"><ele>357.0</ele><time>2026-04-18T16:43:03.915Z</time></trkpt><trkpt lat="40.6785983" lon="16.581065"><ele>357.20000000000005</ele><time>2026-04-18T16:43:04.917Z</time></trkpt><trkpt lat="40.6786733" lon="16.5809733"><ele>357.4</ele><time>2026-04-18T16:43:05.916Z</time></trkpt><trkpt lat="40.6787467" lon="16.5808767"><ele>357.6</ele><time>2026-04-18T16:43:06.917Z</time></trkpt><trkpt lat="40.678815" lon="16.5807783"><ele>357.79999999999995</ele><time>2026-04-18T16:43:07.917Z</time></trkpt><trkpt lat="40.6788783" lon="16.5806883"><ele>358.0</ele><time>2026-04-18T16:43:08.916Z</time></trkpt><trkpt lat="40.6789433" lon="16.5806133"><ele>358.0</ele><time>2026-04-18T16:43:09.915Z</time></trkpt><trkpt lat="40.679005" lon="16.58055"><ele>358.0</ele><time>2026-04-18T16:43:10.915Z</time></trkpt><trkpt lat="40.67906" lon="16.5804833"><ele>358.0</ele><time>2026-04-18T16:43:11.916Z</time></trkpt><trkpt lat="40.6791083" lon="16.5803983"><ele>358.0</ele><time>2026-04-18T16:43:12.916Z</time></trkpt><trkpt lat="40.6791417" lon="16.5802933"><ele>358.0</ele><time>2026-04-18T16:43:13.918Z</time></trkpt><trkpt lat="40.67918" lon="16.5801767"><ele>358.0</ele><time>2026-04-18T16:43:14.918Z</time></trkpt><trkpt lat="40.6792283" lon="16.5800583"><ele>357.5</ele><time>2026-04-18T16:43:15.916Z</time></trkpt><trkpt lat="40.6792867" lon="16.5799333"><ele>357.0</ele><time>2026-04-18T16:43:16.916Z</time></trkpt><trkpt lat="40.6793483" lon="16.5798033"><ele>356.5</ele><time>2026-04-18T16:43:17.916Z</time></trkpt><trkpt lat="40.6794083" lon="16.5796733"><ele>356.0</ele><time>2026-04-18T16:43:18.916Z</time></trkpt><trkpt lat="40.6794683" lon="16.579545"><ele>356.0</ele><time>2026-04-18T16:43:19.917Z</time></trkpt><trkpt lat="40.6795267" lon="16.5794167"><ele>356.0</ele><time>2026-04-18T16:43:20.916Z</time></trkpt><trkpt lat="40.6795767" lon="16.5792817"><ele>356.0</ele><time>2026-04-18T16:43:21.916Z</time></trkpt><trkpt lat="40.67963" lon="16.5791417"><ele>356.0</ele><time>2026-04-18T16:43:22.917Z</time></trkpt><trkpt lat="40.67969" lon="16.5789917"><ele>356.0</ele><time>2026-04-18T16:43:23.915Z</time></trkpt><trkpt lat="40.6797517" lon="16.578835"><ele>356.0</ele><time>2026-04-18T16:43:24.916Z</time></trkpt><trkpt lat="40.6798117" lon="16.5786883"><ele>356.0</ele><time>2026-04-18T16:43:25.916Z</time></trkpt><trkpt lat="40.67987" lon="16.5785517"><ele>356.0</ele><time>2026-04-18T16:43:26.916Z</time></trkpt><trkpt lat="40.6799283" lon="16.5784267"><ele>355.4</ele><time>2026-04-18T16:43:27.916Z</time></trkpt><trkpt lat="40.679985" lon="16.5783133"><ele>354.8</ele><time>2026-04-18T16:43:28.915Z</time></trkpt><trkpt lat="40.68005" lon="16.5782167"><ele>354.2</ele><time>2026-04-18T16:43:29.917Z</time></trkpt><trkpt lat="40.6801283" lon="16.57814"><ele>353.59999999999997</ele><time>2026-04-18T16:43:30.917Z</time></trkpt><trkpt lat="40.6802133" lon="16.5780833"><ele>353.0</ele><time>2026-04-18T16:43:31.917Z</time></trkpt><trkpt lat="40.6803083" lon="16.57805"><ele>352.79999999999995</ele><time>2026-04-18T16:43:32.917Z</time></trkpt><trkpt lat="40.68041" lon="16.5780383"><ele>352.6</ele><time>2026-04-18T16:43:33.916Z</time></trkpt><trkpt lat="40.6805167" lon="16.5780433"><ele>352.4</ele><time>2026-04-18T16:43:34.917Z</time></trkpt><trkpt lat="40.6806133" lon="16.578055"><ele>352.20000000000005</ele><time>2026-04-18T16:43:35.916Z</time></trkpt><trkpt lat="40.6807017" lon="16.5780683"><ele>352.0</ele><time>2026-04-18T16:43:36.917Z</time></trkpt><trkpt lat="40.680785" lon="16.5780783"><ele>352.0</ele><time>2026-04-18T16:43:37.916Z</time></trkpt><trkpt lat="40.6808633" lon="16.5780833"><ele>352.0</ele><time>2026-04-18T16:43:38.915Z</time></trkpt><trkpt lat="40.6809433" lon="16.5780917"><ele>352.0</ele><time>2026-04-18T16:43:39.916Z</time></trkpt><trkpt lat="40.681025" lon="16.5781017"><ele>352.0</ele><time>2026-04-18T16:43:40.916Z</time></trkpt><trkpt lat="40.6811017" lon="16.5781133"><ele>352.0</ele><time>2026-04-18T16:43:41.916Z</time></trkpt><trkpt lat="40.6811667" lon="16.5781217"><ele>352.0</ele><time>2026-04-18T16:43:42.916Z</time></trkpt><trkpt lat="40.6812767" lon="16.5781267"><ele>352.0</ele><time>2026-04-18T16:43:44.916Z</time></trkpt><trkpt lat="40.6813867" lon="16.5781383"><ele>352.0</ele><time>2026-04-18T16:43:46.916Z</time></trkpt><trkpt lat="40.6815167" lon="16.57816"><ele>352.0</ele><time>2026-04-18T16:43:48.916Z</time></trkpt><trkpt lat="40.68159" lon="16.5781717"><ele>352.0</ele><time>2026-04-18T16:43:49.915Z</time></trkpt><trkpt lat="40.681665" lon="16.5781883"><ele>352.0</ele><time>2026-04-18T16:43:50.916Z</time></trkpt><trkpt lat="40.6817333" lon="16.578215"><ele>352.0</ele><time>2026-04-18T16:43:51.916Z</time></trkpt><trkpt lat="40.6817967" lon="16.5782533"><ele>352.0</ele><time>2026-04-18T16:43:52.916Z</time></trkpt><trkpt lat="40.6818533" lon="16.5783033"><ele>352.0</ele><time>2026-04-18T16:43:53.916Z</time></trkpt><trkpt lat="40.6819017" lon="16.5783683"><ele>352.0</ele><time>2026-04-18T16:43:54.917Z</time></trkpt><trkpt lat="40.681945" lon="16.57845"><ele>352.0</ele><time>2026-04-18T16:43:55.916Z</time></trkpt><trkpt lat="40.6819783" lon="16.5785517"><ele>352.0</ele><time>2026-04-18T16:43:56.916Z</time></trkpt><trkpt lat="40.682" lon="16.5786783"><ele>354.25</ele><time>2026-04-18T16:43:57.916Z</time></trkpt><trkpt lat="40.6820033" lon="16.578825"><ele>356.5</ele><time>2026-04-18T16:43:58.916Z</time></trkpt><trkpt lat="40.6819883" lon="16.5789883"><ele>358.75</ele><time>2026-04-18T16:43:59.916Z</time></trkpt><trkpt lat="40.6819617" lon="16.5791517"><ele>361.0</ele><time>2026-04-18T16:44:00.916Z</time></trkpt><trkpt lat="40.6819333" lon="16.579315"><ele>360.5</ele><time>2026-04-18T16:44:01.916Z</time></trkpt><trkpt lat="40.6819083" lon="16.5794833"><ele>360.0</ele><time>2026-04-18T16:44:02.917Z</time></trkpt><trkpt lat="40.6818783" lon="16.579655"><ele>359.5</ele><time>2026-04-18T16:44:03.916Z</time></trkpt><trkpt lat="40.6818417" lon="16.5798317"><ele>359.0</ele><time>2026-04-18T16:44:04.916Z</time></trkpt><trkpt lat="40.6817933" lon="16.5800033"><ele>359.0</ele><time>2026-04-18T16:44:05.915Z</time></trkpt><trkpt lat="40.6817483" lon="16.5801683"><ele>359.0</ele><time>2026-04-18T16:44:06.916Z</time></trkpt><trkpt lat="40.6817083" lon="16.5803183"><ele>359.0</ele><time>2026-04-18T16:44:07.916Z</time></trkpt><trkpt lat="40.6816733" lon="16.5804483"><ele>359.0</ele><time>2026-04-18T16:44:08.917Z</time></trkpt><trkpt lat="40.6816417" lon="16.5805583"><ele>359.0</ele><time>2026-04-18T16:44:09.916Z</time></trkpt><trkpt lat="40.681615" lon="16.5806583"><ele>359.5</ele><time>2026-04-18T16:44:10.916Z</time></trkpt><trkpt lat="40.68159" lon="16.580755"><ele>360.0</ele><time>2026-04-18T16:44:11.916Z</time></trkpt><trkpt lat="40.6815633" lon="16.5808517"><ele>360.5</ele><time>2026-04-18T16:44:12.915Z</time></trkpt><trkpt lat="40.681535" lon="16.5809583"><ele>361.0</ele><time>2026-04-18T16:44:13.916Z</time></trkpt><trkpt lat="40.6815083" lon="16.581075"><ele>361.5</ele><time>2026-04-18T16:44:14.917Z</time></trkpt><trkpt lat="40.6814817" lon="16.5811967"><ele>362.0</ele><time>2026-04-18T16:44:15.917Z</time></trkpt><trkpt lat="40.68146" lon="16.5813067"><ele>362.1666666666667</ele><time>2026-04-18T16:44:16.916Z</time></trkpt><trkpt lat="40.681435" lon="16.5814083"><ele>362.33333333333337</ele><time>2026-04-18T16:44:17.915Z</time></trkpt><trkpt lat="40.6814117" lon="16.5815083"><ele>362.5</ele><time>2026-04-18T16:44:18.916Z</time></trkpt><trkpt lat="40.68139" lon="16.5816017"><ele>362.6666666666667</ele><time>2026-04-18T16:44:19.917Z</time></trkpt><trkpt lat="40.681365" lon="16.5816967"><ele>362.8333333333333</ele><time>2026-04-18T16:44:20.917Z</time></trkpt><trkpt lat="40.6813333" lon="16.581795"><ele>363.0</ele><time>2026-04-18T16:44:21.917Z</time></trkpt><trkpt lat="40.681295" lon="16.5819017"><ele>363.0</ele><time>2026-04-18T16:44:22.916Z</time></trkpt><trkpt lat="40.6812567" lon="16.582015"><ele>363.0</ele><time>2026-04-18T16:44:23.916Z</time></trkpt><trkpt lat="40.6812167" lon="16.5821367"><ele>363.0</ele><time>2026-04-18T16:44:24.917Z</time></trkpt><trkpt lat="40.6811767" lon="16.5822683"><ele>363.0</ele><time>2026-04-18T16:44:25.917Z</time></trkpt><trkpt lat="40.6811333" lon="16.5823967"><ele>363.0</ele><time>2026-04-18T16:44:26.917Z</time></trkpt><trkpt lat="40.6810933" lon="16.5825283"><ele>363.0</ele><time>2026-04-18T16:44:27.918Z</time></trkpt><trkpt lat="40.6810533" lon="16.5826633"><ele>363.0</ele><time>2026-04-18T16:44:28.92Z</time></trkpt><trkpt lat="40.6810117" lon="16.5828067"><ele>363.0</ele><time>2026-04-18T16:44:29.918Z</time></trkpt><trkpt lat="40.6809633" lon="16.5829617"><ele>363.0</ele><time>2026-04-18T16:44:30.918Z</time></trkpt><trkpt lat="40.6809133" lon="16.5831167"><ele>363.2</ele><time>2026-04-18T16:44:31.917Z</time></trkpt><trkpt lat="40.6808633" lon="16.583255"><ele>363.4</ele><time>2026-04-18T16:44:32.916Z</time></trkpt><trkpt lat="40.6808183" lon="16.5833867"><ele>363.59999999999997</ele><time>2026-04-18T16:44:33.918Z</time></trkpt><trkpt lat="40.68078" lon="16.58351"><ele>363.79999999999995</ele><time>2026-04-18T16:44:34.917Z</time></trkpt><trkpt lat="40.6807433" lon="16.583625"><ele>364.0</ele><time>2026-04-18T16:44:35.916Z</time></trkpt><trkpt lat="40.68071" lon="16.5837317"><ele>364.3333333333333</ele><time>2026-04-18T16:44:36.916Z</time></trkpt><trkpt lat="40.6806817" lon="16.5838283"><ele>364.66666666666663</ele><time>2026-04-18T16:44:37.917Z</time></trkpt><trkpt lat="40.6806567" lon="16.583915"><ele>365.0</ele><time>2026-04-18T16:44:38.916Z</time></trkpt><trkpt lat="40.6806333" lon="16.5839933"><ele>365.3333333333333</ele><time>2026-04-18T16:44:39.916Z</time></trkpt><trkpt lat="40.680595" lon="16.584125"><ele>365.6666666666667</ele><time>2026-04-18T16:44:41.915Z</time></trkpt><trkpt lat="40.6805667" lon="16.584225"><ele>366.0</ele><time>2026-04-18T16:44:43.917Z</time></trkpt><trkpt lat="40.6805267" lon="16.5843467"><ele>366.0</ele><time>2026-04-18T16:44:45.916Z</time></trkpt><trkpt lat="40.6804983" lon="16.58443"><ele>366.0</ele><time>2026-04-18T16:44:46.916Z</time></trkpt><trkpt lat="40.6804633" lon="16.58453"><ele>366.0</ele><time>2026-04-18T16:44:47.916Z</time></trkpt><trkpt lat="40.6804283" lon="16.58464"><ele>366.0</ele><time>2026-04-18T16:44:48.916Z</time></trkpt><trkpt lat="40.6803967" lon="16.58475"><ele>366.0</ele><time>2026-04-18T16:44:49.917Z</time></trkpt><trkpt lat="40.6803667" lon="16.5848583"><ele>366.0</ele><time>2026-04-18T16:44:50.916Z</time></trkpt><trkpt lat="40.6803317" lon="16.5849667"><ele>366.0</ele><time>2026-04-18T16:44:51.916Z</time></trkpt><trkpt lat="40.6802933" lon="16.585075"><ele>366.0</ele><time>2026-04-18T16:44:52.916Z</time></trkpt><trkpt lat="40.68026" lon="16.585175"><ele>366.0</ele><time>2026-04-18T16:44:53.916Z</time></trkpt><trkpt lat="40.6802283" lon="16.5852683"><ele>366.0</ele><time>2026-04-18T16:44:54.917Z</time></trkpt><trkpt lat="40.680195" lon="16.5853583"><ele>366.0</ele><time>2026-04-18T16:44:55.917Z</time></trkpt><trkpt lat="40.680155" lon="16.58545"><ele>366.0</ele><time>2026-04-18T16:44:56.917Z</time></trkpt><trkpt lat="40.6801067" lon="16.5855483"><ele>366.20000000000005</ele><time>2026-04-18T16:44:57.916Z</time></trkpt><trkpt lat="40.680045" lon="16.58565"><ele>366.40000000000003</ele><time>2026-04-18T16:44:58.917Z</time></trkpt><trkpt lat="40.6799767" lon="16.5857483"><ele>366.6</ele><time>2026-04-18T16:44:59.916Z</time></trkpt><trkpt lat="40.6799017" lon="16.585835"><ele>366.8</ele><time>2026-04-18T16:45:00.915Z</time></trkpt><trkpt lat="40.679825" lon="16.58591"><ele>367.0</ele><time>2026-04-18T16:45:01.916Z</time></trkpt><trkpt lat="40.67975" lon="16.5859767"><ele>367.0</ele><time>2026-04-18T16:45:02.916Z</time></trkpt><trkpt lat="40.679675" lon="16.5860367"><ele>367.0</ele><time>2026-04-18T16:45:03.916Z</time></trkpt><trkpt lat="40.6796017" lon="16.586085"><ele>367.0</ele><time>2026-04-18T16:45:04.916Z</time></trkpt><trkpt lat="40.6795317" lon="16.58613"><ele>367.0</ele><time>2026-04-18T16:45:05.915Z</time></trkpt><trkpt lat="40.6794667" lon="16.5861767"><ele>367.0</ele><time>2026-04-18T16:45:06.916Z</time></trkpt><trkpt lat="40.6794" lon="16.5862217"><ele>367.0</ele><time>2026-04-18T16:45:07.917Z</time></trkpt><trkpt lat="40.6793333" lon="16.5862533"><ele>367.16666666666663</ele><time>2026-04-18T16:45:08.916Z</time></trkpt><trkpt lat="40.679265" lon="16.5862583"><ele>367.3333333333333</ele><time>2026-04-18T16:45:09.916Z</time></trkpt><trkpt lat="40.6792017" lon="16.5862317"><ele>367.5</ele><time>2026-04-18T16:45:10.916Z</time></trkpt><trkpt lat="40.6791183" lon="16.5861117"><ele>367.6666666666667</ele><time>2026-04-18T16:45:12.917Z</time></trkpt><trkpt lat="40.6790967" lon="16.5860267"><ele>367.83333333333337</ele><time>2026-04-18T16:45:13.917Z</time></trkpt><trkpt lat="40.6790983" lon="16.5859317"><ele>368.0</ele><time>2026-04-18T16:45:14.917Z</time></trkpt><trkpt lat="40.6791233" lon="16.58584"><ele>367.83333333333337</ele><time>2026-04-18T16:45:15.916Z</time></trkpt><trkpt lat="40.6791733" lon="16.58576"><ele>367.6666666666667</ele><time>2026-04-18T16:45:16.916Z</time></trkpt><trkpt lat="40.67924" lon="16.5857067"><ele>367.5</ele><time>2026-04-18T16:45:17.916Z</time></trkpt><trkpt lat="40.679315" lon="16.585695"><ele>367.3333333333333</ele><time>2026-04-18T16:45:18.915Z</time></trkpt><trkpt lat="40.6793817" lon="16.585715"><ele>367.16666666666663</ele><time>2026-04-18T16:45:19.917Z</time></trkpt><trkpt lat="40.67944" lon="16.5857683"><ele>367.0</ele><time>2026-04-18T16:45:20.917Z</time></trkpt><trkpt lat="40.6795033" lon="16.5858517"><ele>367.0</ele><time>2026-04-18T16:45:21.916Z</time></trkpt><trkpt lat="40.6795767" lon="16.5859533"><ele>367.0</ele><time>2026-04-18T16:45:22.917Z</time></trkpt><trkpt lat="40.6796633" lon="16.5860667"><ele>367.0</ele><time>2026-04-18T16:45:23.916Z</time></trkpt><trkpt lat="40.6797517" lon="16.5861917"><ele>367.0</ele><time>2026-04-18T16:45:24.916Z</time></trkpt><trkpt lat="40.6798517" lon="16.5863267"><ele>367.0</ele><time>2026-04-18T16:45:25.917Z</time></trkpt><trkpt lat="40.67996" lon="16.5864717"><ele>367.0</ele><time>2026-04-18T16:45:26.916Z</time></trkpt><trkpt lat="40.680085" lon="16.5866317"><ele>367.0</ele><time>2026-04-18T16:45:27.916Z</time></trkpt><trkpt lat="40.68021" lon="16.5868033"><ele>367.66666666666663</ele><time>2026-04-18T16:45:28.916Z</time></trkpt><trkpt lat="40.6803367" lon="16.5869783"><ele>368.3333333333333</ele><time>2026-04-18T16:45:29.917Z</time></trkpt><trkpt lat="40.6804633" lon="16.5871617"><ele>369.0</ele><time>2026-04-18T16:45:30.916Z</time></trkpt><trkpt lat="40.6805883" lon="16.5873517"><ele>369.0</ele><time>2026-04-18T16:45:31.917Z</time></trkpt><trkpt lat="40.680715" lon="16.58755"><ele>369.0</ele><time>2026-04-18T16:45:32.917Z</time></trkpt><trkpt lat="40.6808367" lon="16.5877483"><ele>369.0</ele><time>2026-04-18T16:45:33.916Z</time></trkpt><trkpt lat="40.6809583" lon="16.58795"><ele>368.3333333333333</ele><time>2026-04-18T16:45:34.917Z</time></trkpt><trkpt lat="40.6810783" lon="16.5881483"><ele>367.66666666666663</ele><time>2026-04-18T16:45:35.917Z</time></trkpt><trkpt lat="40.6811967" lon="16.5883417"><ele>367.0</ele><time>2026-04-18T16:45:36.916Z</time></trkpt><trkpt lat="40.6813083" lon="16.58853"><ele>365.0</ele><time>2026-04-18T16:45:37.917Z</time></trkpt><trkpt lat="40.6814217" lon="16.5887117"><ele>363.0</ele><time>2026-04-18T16:45:38.916Z</time></trkpt><trkpt lat="40.681535" lon="16.58888"><ele>361.0</ele><time>2026-04-18T16:45:39.916Z</time></trkpt><trkpt lat="40.681655" lon="16.5890433"><ele>361.0</ele><time>2026-04-18T16:45:40.917Z</time></trkpt><trkpt lat="40.6817833" lon="16.5891967"><ele>361.0</ele><time>2026-04-18T16:45:41.916Z</time></trkpt><trkpt lat="40.6819183" lon="16.5893383"><ele>361.0</ele><time>2026-04-18T16:45:42.916Z</time></trkpt><trkpt lat="40.6820567" lon="16.5894733"><ele>360.0</ele><time>2026-04-18T16:45:43.917Z</time></trkpt><trkpt lat="40.682205" lon="16.5895967"><ele>359.0</ele><time>2026-04-18T16:45:44.916Z</time></trkpt><trkpt lat="40.6823583" lon="16.5897117"><ele>358.0</ele><time>2026-04-18T16:45:45.917Z</time></trkpt><trkpt lat="40.6825217" lon="16.5898167"><ele>358.0</ele><time>2026-04-18T16:45:46.917Z</time></trkpt><trkpt lat="40.6826912" lon="16.5899081"><ele>358.0</ele><time>2026-04-18T16:45:47.917Z</time></trkpt><trkpt lat="40.6828671" lon="16.5899812"><ele>358.0</ele><time>2026-04-18T16:45:48.916Z</time></trkpt><trkpt lat="40.6830485" lon="16.5900367"><ele>357.66666666666663</ele><time>2026-04-18T16:45:49.917Z</time></trkpt><trkpt lat="40.683235" lon="16.5900779"><ele>357.3333333333333</ele><time>2026-04-18T16:45:50.916Z</time></trkpt><trkpt lat="40.6834214" lon="16.590111"><ele>357.0</ele><time>2026-04-18T16:45:51.917Z</time></trkpt><trkpt lat="40.6836109" lon="16.5901382"><ele>357.0</ele><time>2026-04-18T16:45:52.917Z</time></trkpt><trkpt lat="40.6838038" lon="16.5901615"><ele>357.0</ele><time>2026-04-18T16:45:53.917Z</time></trkpt><trkpt lat="40.6839986" lon="16.59018"><ele>357.0</ele><time>2026-04-18T16:45:54.917Z</time></trkpt><trkpt lat="40.6841955" lon="16.5901936"><ele>357.0</ele><time>2026-04-18T16:45:55.917Z</time></trkpt><trkpt lat="40.6843942" lon="16.5901986"><ele>357.0</ele><time>2026-04-18T16:45:56.916Z</time></trkpt><trkpt lat="40.6845941" lon="16.5901998"><ele>357.0</ele><time>2026-04-18T16:45:57.916Z</time></trkpt><trkpt lat="40.6847937" lon="16.5901977"><ele>356.6666666666667</ele><time>2026-04-18T16:45:58.921Z</time></trkpt><trkpt lat="40.6849929" lon="16.5901947"><ele>356.33333333333337</ele><time>2026-04-18T16:45:59.917Z</time></trkpt><trkpt lat="40.6851932" lon="16.5901889"><ele>356.0</ele><time>2026-04-18T16:46:00.916Z</time></trkpt><trkpt lat="40.685396" lon="16.5901859"><ele>354.0</ele><time>2026-04-18T16:46:01.917Z</time></trkpt><trkpt lat="40.6855997" lon="16.590185"><ele>352.0</ele><time>2026-04-18T16:46:02.916Z</time></trkpt><trkpt lat="40.6858048" lon="16.5901886"><ele>350.0</ele><time>2026-04-18T16:46:03.916Z</time></trkpt><trkpt lat="40.686005" lon="16.5901859"><ele>349.33333333333337</ele><time>2026-04-18T16:46:04.916Z</time></trkpt><trkpt lat="40.6861964" lon="16.5901827"><ele>348.6666666666667</ele><time>2026-04-18T16:46:05.916Z</time></trkpt><trkpt lat="40.686387" lon="16.5901795"><ele>348.0</ele><time>2026-04-18T16:46:06.916Z</time></trkpt><trkpt lat="40.6865802" lon="16.5901762"><ele>348.0</ele><time>2026-04-18T16:46:07.917Z</time></trkpt><trkpt lat="40.6867722" lon="16.590174"><ele>348.0</ele><time>2026-04-18T16:46:08.916Z</time></trkpt><trkpt lat="40.6869628" lon="16.5901721"><ele>348.0</ele><time>2026-04-18T16:46:09.916Z</time></trkpt><trkpt lat="40.6871509" lon="16.5901704"><ele>348.0</ele><time>2026-04-18T16:46:10.916Z</time></trkpt><trkpt lat="40.6873318" lon="16.5901688"><ele>348.0</ele><time>2026-04-18T16:46:11.916Z</time></trkpt><trkpt lat="40.6875126" lon="16.590166"><ele>348.0</ele><time>2026-04-18T16:46:12.916Z</time></trkpt><trkpt lat="40.6876967" lon="16.590164"><ele>347.0</ele><time>2026-04-18T16:46:13.917Z</time></trkpt><trkpt lat="40.687883" lon="16.5901633"><ele>346.0</ele><time>2026-04-18T16:46:14.916Z</time></trkpt><trkpt lat="40.6880701" lon="16.5901656"><ele>345.0</ele><time>2026-04-18T16:46:15.916Z</time></trkpt><trkpt lat="40.6882567" lon="16.5901674"><ele>345.0</ele><time>2026-04-18T16:46:16.917Z</time></trkpt><trkpt lat="40.6884435" lon="16.5901704"><ele>345.0</ele><time>2026-04-18T16:46:17.916Z</time></trkpt><trkpt lat="40.6886288" lon="16.5901806"><ele>345.0</ele><time>2026-04-18T16:46:18.917Z</time></trkpt><trkpt lat="40.6888092" lon="16.5902026"><ele>345.0</ele><time>2026-04-18T16:46:19.918Z</time></trkpt><trkpt lat="40.68898" lon="16.5902367"><ele>345.0</ele><time>2026-04-18T16:46:20.916Z</time></trkpt><trkpt lat="40.6891467" lon="16.5902733"><ele>345.0</ele><time>2026-04-18T16:46:21.919Z</time></trkpt><trkpt lat="40.689315" lon="16.59032"><ele>342.6666666666667</ele><time>2026-04-18T16:46:22.918Z</time></trkpt><trkpt lat="40.6894867" lon="16.5903767"><ele>340.33333333333337</ele><time>2026-04-18T16:46:23.917Z</time></trkpt><trkpt lat="40.6896617" lon="16.5904417"><ele>338.0</ele><time>2026-04-18T16:46:24.917Z</time></trkpt><trkpt lat="40.68984" lon="16.59051"><ele>338.0</ele><time>2026-04-18T16:46:25.917Z</time></trkpt><trkpt lat="40.6900233" lon="16.5905817"><ele>338.0</ele><time>2026-04-18T16:46:26.916Z</time></trkpt><trkpt lat="40.690205" lon="16.590655"><ele>338.0</ele><time>2026-04-18T16:46:27.916Z</time></trkpt><trkpt lat="40.6903817" lon="16.5907283"><ele>337.6666666666667</ele><time>2026-04-18T16:46:28.916Z</time></trkpt><trkpt lat="40.69056" lon="16.5908017"><ele>337.3333333333333</ele><time>2026-04-18T16:46:29.916Z</time></trkpt><trkpt lat="40.69074" lon="16.5908767"><ele>337.0</ele><time>2026-04-18T16:46:30.916Z</time></trkpt><trkpt lat="40.6909183" lon="16.59095"><ele>338.0</ele><time>2026-04-18T16:46:31.917Z</time></trkpt><trkpt lat="40.6910933" lon="16.5910217"><ele>339.0</ele><time>2026-04-18T16:46:32.916Z</time></trkpt><trkpt lat="40.6912633" lon="16.5910917"><ele>340.0</ele><time>2026-04-18T16:46:33.916Z</time></trkpt><trkpt lat="40.6914333" lon="16.59116"><ele>339.0</ele><time>2026-04-18T16:46:34.916Z</time></trkpt><trkpt lat="40.691605" lon="16.59123"><ele>338.0</ele><time>2026-04-18T16:46:35.916Z</time></trkpt><trkpt lat="40.69178" lon="16.5912967"><ele>337.0</ele><time>2026-04-18T16:46:36.916Z</time></trkpt><trkpt lat="40.6919583" lon="16.5913583"><ele>339.0</ele><time>2026-04-18T16:46:37.916Z</time></trkpt><trkpt lat="40.6921383" lon="16.5914167"><ele>341.0</ele><time>2026-04-18T16:46:38.916Z</time></trkpt><trkpt lat="40.692315" lon="16.59147"><ele>343.0</ele><time>2026-04-18T16:46:39.916Z</time></trkpt><trkpt lat="40.6924867" lon="16.5915167"><ele>343.0</ele><time>2026-04-18T16:46:40.916Z</time></trkpt><trkpt lat="40.6926617" lon="16.591555"><ele>343.0</ele><time>2026-04-18T16:46:41.918Z</time></trkpt><trkpt lat="40.6928467" lon="16.591585"><ele>343.0</ele><time>2026-04-18T16:46:42.918Z</time></trkpt><trkpt lat="40.6930417" lon="16.5916117"><ele>343.3333333333333</ele><time>2026-04-18T16:46:43.917Z</time></trkpt><trkpt lat="40.6932317" lon="16.5916333"><ele>343.6666666666667</ele><time>2026-04-18T16:46:44.917Z</time></trkpt><trkpt lat="40.6934267" lon="16.5916467"><ele>344.0</ele><time>2026-04-18T16:46:45.916Z</time></trkpt><trkpt lat="40.6936233" lon="16.5916517"><ele>344.0</ele><time>2026-04-18T16:46:46.917Z</time></trkpt><trkpt lat="40.6938217" lon="16.5916433"><ele>344.0</ele><time>2026-04-18T16:46:47.916Z</time></trkpt><trkpt lat="40.6940167" lon="16.5916217"><ele>344.0</ele><time>2026-04-18T16:46:48.917Z</time></trkpt><trkpt lat="40.694215" lon="16.5915917"><ele>344.0</ele><time>2026-04-18T16:46:49.919Z</time></trkpt><trkpt lat="40.6944117" lon="16.5915517"><ele>344.0</ele><time>2026-04-18T16:46:50.917Z</time></trkpt><trkpt lat="40.69461" lon="16.5915033"><ele>344.0</ele><time>2026-04-18T16:46:51.918Z</time></trkpt><trkpt lat="40.694805" lon="16.5914483"><ele>344.0</ele><time>2026-04-18T16:46:52.919Z</time></trkpt><trkpt lat="40.6950017" lon="16.5913817"><ele>344.0</ele><time>2026-04-18T16:46:53.916Z</time></trkpt><trkpt lat="40.6951917" lon="16.5913033"><ele>344.0</ele><time>2026-04-18T16:46:54.916Z</time></trkpt><trkpt lat="40.6953817" lon="16.5912133"><ele>345.6666666666667</ele><time>2026-04-18T16:46:55.918Z</time></trkpt><trkpt lat="40.69557" lon="16.5911167"><ele>347.3333333333333</ele><time>2026-04-18T16:46:56.916Z</time></trkpt><trkpt lat="40.695755" lon="16.5910083"><ele>349.0</ele><time>2026-04-18T16:46:57.916Z</time></trkpt><trkpt lat="40.6959383" lon="16.5908967"><ele>347.3333333333333</ele><time>2026-04-18T16:46:58.916Z</time></trkpt><trkpt lat="40.69612" lon="16.5907783"><ele>345.6666666666667</ele><time>2026-04-18T16:46:59.916Z</time></trkpt><trkpt lat="40.6962983" lon="16.590655"><ele>344.0</ele><time>2026-04-18T16:47:00.917Z</time></trkpt><trkpt lat="40.6964767" lon="16.5905333"><ele>344.0</ele><time>2026-04-18T16:47:01.918Z</time></trkpt><trkpt lat="40.69665" lon="16.5904117"><ele>344.0</ele><time>2026-04-18T16:47:02.916Z</time></trkpt><trkpt lat="40.6968233" lon="16.5902917"><ele>344.0</ele><time>2026-04-18T16:47:03.917Z</time></trkpt><trkpt lat="40.6969917" lon="16.5901717"><ele>344.0</ele><time>2026-04-18T16:47:04.917Z</time></trkpt><trkpt lat="40.69716" lon="16.59005"><ele>344.0</ele><time>2026-04-18T16:47:05.917Z</time></trkpt><trkpt lat="40.6973267" lon="16.5899283"><ele>344.0</ele><time>2026-04-18T16:47:06.917Z</time></trkpt><trkpt lat="40.6974933" lon="16.589805"><ele>344.0</ele><time>2026-04-18T16:47:07.917Z</time></trkpt><trkpt lat="40.69766" lon="16.5896833"><ele>344.0</ele><time>2026-04-18T16:47:08.916Z</time></trkpt><trkpt lat="40.6978283" lon="16.58956"><ele>344.0</ele><time>2026-04-18T16:47:09.917Z</time></trkpt><trkpt lat="40.6979983" lon="16.5894367"><ele>343.0</ele><time>2026-04-18T16:47:10.916Z</time></trkpt><trkpt lat="40.6981667" lon="16.589315"><ele>342.0</ele><time>2026-04-18T16:47:11.916Z</time></trkpt><trkpt lat="40.6983367" lon="16.5891917"><ele>341.0</ele><time>2026-04-18T16:47:12.917Z</time></trkpt><trkpt lat="40.698505" lon="16.5890683"><ele>339.6666666666667</ele><time>2026-04-18T16:47:13.916Z</time></trkpt><trkpt lat="40.6986717" lon="16.5889417"><ele>338.3333333333333</ele><time>2026-04-18T16:47:14.916Z</time></trkpt><trkpt lat="40.6988367" lon="16.5888133"><ele>337.0</ele><time>2026-04-18T16:47:15.915Z</time></trkpt><trkpt lat="40.6990017" lon="16.588685"><ele>338.0</ele><time>2026-04-18T16:47:16.916Z</time></trkpt><trkpt lat="40.6991667" lon="16.5885567"><ele>339.0</ele><time>2026-04-18T16:47:17.918Z</time></trkpt><trkpt lat="40.6993333" lon="16.58843"><ele>340.0</ele><time>2026-04-18T16:47:18.917Z</time></trkpt><trkpt lat="40.6994983" lon="16.5883017"><ele>340.0</ele><time>2026-04-18T16:47:19.917Z</time></trkpt><trkpt lat="40.6996633" lon="16.5881733"><ele>340.0</ele><time>2026-04-18T16:47:20.916Z</time></trkpt><trkpt lat="40.69983" lon="16.588045"><ele>340.0</ele><time>2026-04-18T16:47:21.917Z</time></trkpt><trkpt lat="40.699995" lon="16.5879183"><ele>340.66666666666663</ele><time>2026-04-18T16:47:22.917Z</time></trkpt><trkpt lat="40.7001617" lon="16.5877883"><ele>341.3333333333333</ele><time>2026-04-18T16:47:23.918Z</time></trkpt><trkpt lat="40.7003283" lon="16.5876583"><ele>342.0</ele><time>2026-04-18T16:47:24.917Z</time></trkpt><trkpt lat="40.700495" lon="16.5875267"><ele>342.0</ele><time>2026-04-18T16:47:25.917Z</time></trkpt><trkpt lat="40.7006667" lon="16.5873933"><ele>342.0</ele><time>2026-04-18T16:47:26.917Z</time></trkpt><trkpt lat="40.70084" lon="16.5872617"><ele>342.0</ele><time>2026-04-18T16:47:27.916Z</time></trkpt><trkpt lat="40.7010183" lon="16.5871267"><ele>343.6666666666667</ele><time>2026-04-18T16:47:28.916Z</time></trkpt><trkpt lat="40.7011983" lon="16.5869883"><ele>345.33333333333337</ele><time>2026-04-18T16:47:29.916Z</time></trkpt><trkpt lat="40.7013783" lon="16.5868483"><ele>347.0</ele><time>2026-04-18T16:47:30.916Z</time></trkpt><trkpt lat="40.7015583" lon="16.5867067"><ele>347.0</ele><time>2026-04-18T16:47:31.916Z</time></trkpt><trkpt lat="40.70174" lon="16.5865667"><ele>347.0</ele><time>2026-04-18T16:47:32.916Z</time></trkpt><trkpt lat="40.7019233" lon="16.5864233"><ele>347.0</ele><time>2026-04-18T16:47:33.916Z</time></trkpt><trkpt lat="40.7021083" lon="16.58628"><ele>348.6666666666667</ele><time>2026-04-18T16:47:34.916Z</time></trkpt><trkpt lat="40.7022933" lon="16.5861367"><ele>350.3333333333333</ele><time>2026-04-18T16:47:35.916Z</time></trkpt><trkpt lat="40.7024783" lon="16.585995"><ele>352.0</ele><time>2026-04-18T16:47:36.916Z</time></trkpt><trkpt lat="40.7026633" lon="16.5858517"><ele>353.0</ele><time>2026-04-18T16:47:37.916Z</time></trkpt><trkpt lat="40.702845" lon="16.5857083"><ele>354.0</ele><time>2026-04-18T16:47:38.916Z</time></trkpt><trkpt lat="40.7030283" lon="16.5855667"><ele>355.0</ele><time>2026-04-18T16:47:39.918Z</time></trkpt><trkpt lat="40.7032133" lon="16.5854233"><ele>355.0</ele><time>2026-04-18T16:47:40.916Z</time></trkpt><trkpt lat="40.7033967" lon="16.58528"><ele>355.0</ele><time>2026-04-18T16:47:41.916Z</time></trkpt><trkpt lat="40.70358" lon="16.5851383"><ele>355.0</ele><time>2026-04-18T16:47:42.917Z</time></trkpt><trkpt lat="40.70376" lon="16.5850017"><ele>355.0</ele><time>2026-04-18T16:47:43.916Z</time></trkpt><trkpt lat="40.7039383" lon="16.5848683"><ele>355.0</ele><time>2026-04-18T16:47:44.916Z</time></trkpt><trkpt lat="40.7041117" lon="16.584735"><ele>355.0</ele><time>2026-04-18T16:47:45.916Z</time></trkpt><trkpt lat="40.7042833" lon="16.5846033"><ele>353.3333333333333</ele><time>2026-04-18T16:47:46.918Z</time></trkpt><trkpt lat="40.704455" lon="16.5844733"><ele>351.6666666666667</ele><time>2026-04-18T16:47:47.917Z</time></trkpt><trkpt lat="40.704625" lon="16.5843433"><ele>350.0</ele><time>2026-04-18T16:47:48.916Z</time></trkpt><trkpt lat="40.7047933" lon="16.5842167"><ele>350.0</ele><time>2026-04-18T16:47:49.917Z</time></trkpt><trkpt lat="40.70496" lon="16.5840933"><ele>350.0</ele><time>2026-04-18T16:47:50.916Z</time></trkpt><trkpt lat="40.7051267" lon="16.58397"><ele>350.0</ele><time>2026-04-18T16:47:51.917Z</time></trkpt><trkpt lat="40.705295" lon="16.583845"><ele>347.6666666666667</ele><time>2026-04-18T16:47:52.917Z</time></trkpt><trkpt lat="40.7054617" lon="16.5837217"><ele>345.3333333333333</ele><time>2026-04-18T16:47:53.917Z</time></trkpt><trkpt lat="40.7056317" lon="16.5835967"><ele>343.0</ele><time>2026-04-18T16:47:54.917Z</time></trkpt><trkpt lat="40.7058" lon="16.5834733"><ele>343.0</ele><time>2026-04-18T16:47:55.917Z</time></trkpt><trkpt lat="40.7059717" lon="16.5833483"><ele>343.0</ele><time>2026-04-18T16:47:56.917Z</time></trkpt><trkpt lat="40.7061433" lon="16.5832233"><ele>343.0</ele><time>2026-04-18T16:47:57.916Z</time></trkpt><trkpt lat="40.7063183" lon="16.5830983"><ele>343.0</ele><time>2026-04-18T16:47:58.917Z</time></trkpt><trkpt lat="40.7064933" lon="16.5829717"><ele>343.0</ele><time>2026-04-18T16:47:59.916Z</time></trkpt><trkpt lat="40.7066667" lon="16.5828467"><ele>343.0</ele><time>2026-04-18T16:48:00.917Z</time></trkpt><trkpt lat="40.70684" lon="16.5827233"><ele>341.0</ele><time>2026-04-18T16:48:01.917Z</time></trkpt><trkpt lat="40.70701" lon="16.5826"><ele>339.0</ele><time>2026-04-18T16:48:02.916Z</time></trkpt><trkpt lat="40.7071833" lon="16.582475"><ele>337.0</ele><time>2026-04-18T16:48:03.916Z</time></trkpt><trkpt lat="40.7073567" lon="16.5823517"><ele>337.0</ele><time>2026-04-18T16:48:04.916Z</time></trkpt><trkpt lat="40.7075267" lon="16.5822267"><ele>337.0</ele><time>2026-04-18T16:48:05.917Z</time></trkpt><trkpt lat="40.707695" lon="16.5821067"><ele>337.0</ele><time>2026-04-18T16:48:06.918Z</time></trkpt><trkpt lat="40.7078617" lon="16.5819867"><ele>335.3333333333333</ele><time>2026-04-18T16:48:07.917Z</time></trkpt><trkpt lat="40.7080283" lon="16.5818717"><ele>333.6666666666667</ele><time>2026-04-18T16:48:08.917Z</time></trkpt><trkpt lat="40.7081933" lon="16.5817583"><ele>332.0</ele><time>2026-04-18T16:48:09.916Z</time></trkpt><trkpt lat="40.7083617" lon="16.58165"><ele>332.0</ele><time>2026-04-18T16:48:10.916Z</time></trkpt><trkpt lat="40.7085333" lon="16.581545"><ele>332.0</ele><time>2026-04-18T16:48:11.917Z</time></trkpt><trkpt lat="40.7087067" lon="16.5814467"><ele>332.0</ele><time>2026-04-18T16:48:12.917Z</time></trkpt><trkpt lat="40.708885" lon="16.5813517"><ele>331.0</ele><time>2026-04-18T16:48:13.918Z</time></trkpt><trkpt lat="40.7090633" lon="16.581265"><ele>330.0</ele><time>2026-04-18T16:48:14.916Z</time></trkpt><trkpt lat="40.7092417" lon="16.5811817"><ele>329.0</ele><time>2026-04-18T16:48:15.917Z</time></trkpt><trkpt lat="40.709425" lon="16.5811017"><ele>328.33333333333337</ele><time>2026-04-18T16:48:16.917Z</time></trkpt><trkpt lat="40.7096083" lon="16.581025"><ele>327.6666666666667</ele><time>2026-04-18T16:48:17.917Z</time></trkpt><trkpt lat="40.7097917" lon="16.5809483"><ele>327.0</ele><time>2026-04-18T16:48:18.919Z</time></trkpt><trkpt lat="40.709975" lon="16.5808767"><ele>327.0</ele><time>2026-04-18T16:48:19.917Z</time></trkpt><trkpt lat="40.7101567" lon="16.580805"><ele>327.0</ele><time>2026-04-18T16:48:20.917Z</time></trkpt><trkpt lat="40.7103383" lon="16.5807333"><ele>327.0</ele><time>2026-04-18T16:48:21.917Z</time></trkpt><trkpt lat="40.71052" lon="16.5806617"><ele>326.6666666666667</ele><time>2026-04-18T16:48:22.919Z</time></trkpt><trkpt lat="40.7107017" lon="16.5805917"><ele>326.33333333333337</ele><time>2026-04-18T16:48:23.917Z</time></trkpt><trkpt lat="40.7108867" lon="16.5805183"><ele>326.0</ele><time>2026-04-18T16:48:24.918Z</time></trkpt><trkpt lat="40.7110683" lon="16.580445"><ele>326.33333333333337</ele><time>2026-04-18T16:48:25.917Z</time></trkpt><trkpt lat="40.7112517" lon="16.5803717"><ele>326.6666666666667</ele><time>2026-04-18T16:48:26.916Z</time></trkpt><trkpt lat="40.7114333" lon="16.5803"><ele>327.0</ele><time>2026-04-18T16:48:27.917Z</time></trkpt><trkpt lat="40.7116183" lon="16.58023"><ele>327.0</ele><time>2026-04-18T16:48:28.916Z</time></trkpt><trkpt lat="40.7118033" lon="16.5801583"><ele>327.0</ele><time>2026-04-18T16:48:29.915Z</time></trkpt><trkpt lat="40.7119883" lon="16.5800867"><ele>327.0</ele><time>2026-04-18T16:48:30.916Z</time></trkpt><trkpt lat="40.712175" lon="16.5800117"><ele>326.0</ele><time>2026-04-18T16:48:31.917Z</time></trkpt><trkpt lat="40.7123633" lon="16.5799367"><ele>325.0</ele><time>2026-04-18T16:48:32.916Z</time></trkpt><trkpt lat="40.7125483" lon="16.57986"><ele>324.0</ele><time>2026-04-18T16:48:33.918Z</time></trkpt><trkpt lat="40.7127333" lon="16.5797867"><ele>322.6666666666667</ele><time>2026-04-18T16:48:34.916Z</time></trkpt><trkpt lat="40.7129167" lon="16.5797133"><ele>321.33333333333337</ele><time>2026-04-18T16:48:35.916Z</time></trkpt><trkpt lat="40.7131033" lon="16.5796367"><ele>320.0</ele><time>2026-04-18T16:48:36.916Z</time></trkpt><trkpt lat="40.7132917" lon="16.5795617"><ele>320.33333333333337</ele><time>2026-04-18T16:48:37.917Z</time></trkpt><trkpt lat="40.7134783" lon="16.579485"><ele>320.6666666666667</ele><time>2026-04-18T16:48:38.916Z</time></trkpt><trkpt lat="40.7136617" lon="16.5794083"><ele>321.0</ele><time>2026-04-18T16:48:39.917Z</time></trkpt><trkpt lat="40.7138433" lon="16.579335"><ele>321.0</ele><time>2026-04-18T16:48:40.917Z</time></trkpt><trkpt lat="40.7140233" lon="16.5792617"><ele>321.0</ele><time>2026-04-18T16:48:41.916Z</time></trkpt><trkpt lat="40.7142" lon="16.57919"><ele>321.0</ele><time>2026-04-18T16:48:42.916Z</time></trkpt><trkpt lat="40.7143733" lon="16.57912"><ele>321.0</ele><time>2026-04-18T16:48:43.917Z</time></trkpt><trkpt lat="40.7145467" lon="16.5790517"><ele>321.0</ele><time>2026-04-18T16:48:44.916Z</time></trkpt><trkpt lat="40.7147217" lon="16.5789817"><ele>321.0</ele><time>2026-04-18T16:48:45.916Z</time></trkpt><trkpt lat="40.7148933" lon="16.578915"><ele>321.0</ele><time>2026-04-18T16:48:46.917Z</time></trkpt><trkpt lat="40.715065" lon="16.5788467"><ele>321.0</ele><time>2026-04-18T16:48:47.916Z</time></trkpt><trkpt lat="40.7152383" lon="16.5787783"><ele>321.0</ele><time>2026-04-18T16:48:48.918Z</time></trkpt><trkpt lat="40.715415" lon="16.5787083"><ele>321.0</ele><time>2026-04-18T16:48:49.916Z</time></trkpt><trkpt lat="40.7155983" lon="16.5786367"><ele>321.0</ele><time>2026-04-18T16:48:50.917Z</time></trkpt><trkpt lat="40.7157833" lon="16.578565"><ele>321.0</ele><time>2026-04-18T16:48:51.92Z</time></trkpt><trkpt lat="40.71597" lon="16.5784933"><ele>321.6666666666667</ele><time>2026-04-18T16:48:52.919Z</time></trkpt><trkpt lat="40.7161617" lon="16.5784217"><ele>322.33333333333337</ele><time>2026-04-18T16:48:53.918Z</time></trkpt><trkpt lat="40.716355" lon="16.5783467"><ele>323.0</ele><time>2026-04-18T16:48:54.917Z</time></trkpt><trkpt lat="40.7165517" lon="16.5782717"><ele>323.0</ele><time>2026-04-18T16:48:55.917Z</time></trkpt><trkpt lat="40.7167483" lon="16.5781967"><ele>323.0</ele><time>2026-04-18T16:48:56.916Z</time></trkpt><trkpt lat="40.7169483" lon="16.578125"><ele>323.0</ele><time>2026-04-18T16:48:57.915Z</time></trkpt><trkpt lat="40.7171433" lon="16.5780517"><ele>323.33333333333337</ele><time>2026-04-18T16:48:58.916Z</time></trkpt><trkpt lat="40.7173367" lon="16.5779783"><ele>323.6666666666667</ele><time>2026-04-18T16:48:59.916Z</time></trkpt><trkpt lat="40.7175267" lon="16.5779067"><ele>324.0</ele><time>2026-04-18T16:49:00.923Z</time></trkpt><trkpt lat="40.7177167" lon="16.5778333"><ele>325.0</ele><time>2026-04-18T16:49:01.917Z</time></trkpt><trkpt lat="40.717905" lon="16.5777617"><ele>326.0</ele><time>2026-04-18T16:49:02.916Z</time></trkpt><trkpt lat="40.7180917" lon="16.5776883"><ele>327.0</ele><time>2026-04-18T16:49:03.916Z</time></trkpt><trkpt lat="40.7182783" lon="16.577615"><ele>327.0</ele><time>2026-04-18T16:49:04.917Z</time></trkpt><trkpt lat="40.7184667" lon="16.5775417"><ele>327.0</ele><time>2026-04-18T16:49:05.916Z</time></trkpt><trkpt lat="40.7186567" lon="16.5774683"><ele>327.0</ele><time>2026-04-18T16:49:06.916Z</time></trkpt><trkpt lat="40.718845" lon="16.5773983"><ele>328.0</ele><time>2026-04-18T16:49:07.918Z</time></trkpt><trkpt lat="40.7190383" lon="16.5773233"><ele>329.0</ele><time>2026-04-18T16:49:08.917Z</time></trkpt><trkpt lat="40.7192333" lon="16.5772467"><ele>330.0</ele><time>2026-04-18T16:49:09.916Z</time></trkpt><trkpt lat="40.7194267" lon="16.5771683"><ele>330.6666666666667</ele><time>2026-04-18T16:49:10.917Z</time></trkpt><trkpt lat="40.71962" lon="16.5770917"><ele>331.33333333333337</ele><time>2026-04-18T16:49:11.917Z</time></trkpt><trkpt lat="40.7198167" lon="16.5770133"><ele>332.0</ele><time>2026-04-18T16:49:12.918Z</time></trkpt><trkpt lat="40.72001" lon="16.5769367"><ele>330.33333333333337</ele><time>2026-04-18T16:49:13.919Z</time></trkpt><trkpt lat="40.7202067" lon="16.57686"><ele>328.6666666666667</ele><time>2026-04-18T16:49:14.918Z</time></trkpt><trkpt lat="40.7204033" lon="16.576785"><ele>327.0</ele><time>2026-04-18T16:49:15.918Z</time></trkpt><trkpt lat="40.7206017" lon="16.5767083"><ele>326.6666666666667</ele><time>2026-04-18T16:49:16.918Z</time></trkpt><trkpt lat="40.7207967" lon="16.5766317"><ele>326.33333333333337</ele><time>2026-04-18T16:49:17.918Z</time></trkpt><trkpt lat="40.7209917" lon="16.576555"><ele>326.0</ele><time>2026-04-18T16:49:18.918Z</time></trkpt><trkpt lat="40.721185" lon="16.5764783"><ele>326.6666666666667</ele><time>2026-04-18T16:49:19.92Z</time></trkpt><trkpt lat="40.7213783" lon="16.5764033"><ele>327.3333333333333</ele><time>2026-04-18T16:49:20.918Z</time></trkpt><trkpt lat="40.7215717" lon="16.5763283"><ele>328.0</ele><time>2026-04-18T16:49:21.918Z</time></trkpt><trkpt lat="40.721765" lon="16.5762533"><ele>328.0</ele><time>2026-04-18T16:49:22.918Z</time></trkpt><trkpt lat="40.7219583" lon="16.5761767"><ele>328.0</ele><time>2026-04-18T16:49:23.917Z</time></trkpt><trkpt lat="40.72215" lon="16.5761017"><ele>328.0</ele><time>2026-04-18T16:49:24.916Z</time></trkpt><trkpt lat="40.7223417" lon="16.5760233"><ele>328.0</ele><time>2026-04-18T16:49:25.917Z</time></trkpt><trkpt lat="40.7225333" lon="16.5759467"><ele>328.0</ele><time>2026-04-18T16:49:26.916Z</time></trkpt><trkpt lat="40.722725" lon="16.5758733"><ele>328.0</ele><time>2026-04-18T16:49:27.917Z</time></trkpt><trkpt lat="40.7229117" lon="16.5758"><ele>329.0</ele><time>2026-04-18T16:49:28.919Z</time></trkpt><trkpt lat="40.7230983" lon="16.5757283"><ele>330.0</ele><time>2026-04-18T16:49:29.918Z</time></trkpt><trkpt lat="40.723285" lon="16.575655"><ele>331.0</ele><time>2026-04-18T16:49:30.918Z</time></trkpt><trkpt lat="40.7234717" lon="16.5755817"><ele>331.0</ele><time>2026-04-18T16:49:31.919Z</time></trkpt><trkpt lat="40.7236567" lon="16.5755067"><ele>331.0</ele><time>2026-04-18T16:49:32.918Z</time></trkpt><trkpt lat="40.7238417" lon="16.5754283"><ele>331.0</ele><time>2026-04-18T16:49:33.918Z</time></trkpt><trkpt lat="40.724025" lon="16.5753517"><ele>331.0</ele><time>2026-04-18T16:49:34.919Z</time></trkpt><trkpt lat="40.7242067" lon="16.5752733"><ele>331.0</ele><time>2026-04-18T16:49:35.918Z</time></trkpt><trkpt lat="40.7243783" lon="16.5751983"><ele>331.0</ele><time>2026-04-18T16:49:36.918Z</time></trkpt><trkpt lat="40.72454" lon="16.5751267"><ele>332.3333333333333</ele><time>2026-04-18T16:49:37.917Z</time></trkpt><trkpt lat="40.724695" lon="16.5750533"><ele>333.6666666666667</ele><time>2026-04-18T16:49:38.918Z</time></trkpt><trkpt lat="40.72485" lon="16.5749783"><ele>335.0</ele><time>2026-04-18T16:49:39.918Z</time></trkpt><trkpt lat="40.725005" lon="16.5749017"><ele>335.0</ele><time>2026-04-18T16:49:40.919Z</time></trkpt><trkpt lat="40.7251617" lon="16.5748233"><ele>335.0</ele><time>2026-04-18T16:49:41.917Z</time></trkpt><trkpt lat="40.7253167" lon="16.574745"><ele>335.0</ele><time>2026-04-18T16:49:42.918Z</time></trkpt><trkpt lat="40.7254733" lon="16.5746617"><ele>335.33333333333337</ele><time>2026-04-18T16:49:43.919Z</time></trkpt><trkpt lat="40.7256333" lon="16.5745733"><ele>335.6666666666667</ele><time>2026-04-18T16:49:44.916Z</time></trkpt><trkpt lat="40.725795" lon="16.574485"><ele>336.0</ele><time>2026-04-18T16:49:45.916Z</time></trkpt><trkpt lat="40.7259567" lon="16.5743933"><ele>335.0</ele><time>2026-04-18T16:49:46.917Z</time></trkpt><trkpt lat="40.72612" lon="16.5742967"><ele>334.0</ele><time>2026-04-18T16:49:47.917Z</time></trkpt><trkpt lat="40.726285" lon="16.574195"><ele>333.0</ele><time>2026-04-18T16:49:48.916Z</time></trkpt><trkpt lat="40.7264533" lon="16.5740933"><ele>333.0</ele><time>2026-04-18T16:49:49.917Z</time></trkpt><trkpt lat="40.7266217" lon="16.573985"><ele>333.0</ele><time>2026-04-18T16:49:50.916Z</time></trkpt><trkpt lat="40.7267867" lon="16.57388"><ele>333.0</ele><time>2026-04-18T16:49:51.916Z</time></trkpt><trkpt lat="40.7269383" lon="16.5737783"><ele>332.3333333333333</ele><time>2026-04-18T16:49:52.916Z</time></trkpt><trkpt lat="40.7270867" lon="16.5736817"><ele>331.66666666666663</ele><time>2026-04-18T16:49:53.916Z</time></trkpt><trkpt lat="40.72724" lon="16.573585"><ele>331.0</ele><time>2026-04-18T16:49:54.916Z</time></trkpt><trkpt lat="40.727395" lon="16.5734867"><ele>331.0</ele><time>2026-04-18T16:49:55.916Z</time></trkpt><trkpt lat="40.7275517" lon="16.5733867"><ele>331.0</ele><time>2026-04-18T16:49:56.916Z</time></trkpt><trkpt lat="40.72771" lon="16.5732883"><ele>331.0</ele><time>2026-04-18T16:49:57.918Z</time></trkpt><trkpt lat="40.7278733" lon="16.5731917"><ele>332.0</ele><time>2026-04-18T16:49:58.916Z</time></trkpt><trkpt lat="40.7280417" lon="16.573095"><ele>333.0</ele><time>2026-04-18T16:49:59.916Z</time></trkpt><trkpt lat="40.7282133" lon="16.573"><ele>334.0</ele><time>2026-04-18T16:50:00.916Z</time></trkpt><trkpt lat="40.7283883" lon="16.5729083"><ele>332.3333333333333</ele><time>2026-04-18T16:50:01.917Z</time></trkpt><trkpt lat="40.72857" lon="16.57282"><ele>330.6666666666667</ele><time>2026-04-18T16:50:02.916Z</time></trkpt><trkpt lat="40.7287517" lon="16.5727383"><ele>329.0</ele><time>2026-04-18T16:50:03.917Z</time></trkpt><trkpt lat="40.728935" lon="16.5726617"><ele>329.0</ele><time>2026-04-18T16:50:04.917Z</time></trkpt><trkpt lat="40.7291133" lon="16.57259"><ele>329.0</ele><time>2026-04-18T16:50:05.916Z</time></trkpt><trkpt lat="40.7292917" lon="16.57252"><ele>329.0</ele><time>2026-04-18T16:50:06.917Z</time></trkpt><trkpt lat="40.7294717" lon="16.5724483"><ele>330.0</ele><time>2026-04-18T16:50:07.918Z</time></trkpt><trkpt lat="40.72965" lon="16.57238"><ele>331.0</ele><time>2026-04-18T16:50:08.917Z</time></trkpt><trkpt lat="40.7298267" lon="16.572315"><ele>332.0</ele><time>2026-04-18T16:50:09.915Z</time></trkpt><trkpt lat="40.73" lon="16.5722483"><ele>332.0</ele><time>2026-04-18T16:50:10.916Z</time></trkpt><trkpt lat="40.7301717" lon="16.5721817"><ele>332.0</ele><time>2026-04-18T16:50:11.917Z</time></trkpt><trkpt lat="40.7303417" lon="16.572115"><ele>332.0</ele><time>2026-04-18T16:50:12.916Z</time></trkpt><trkpt lat="40.7305117" lon="16.5720483"><ele>330.6666666666667</ele><time>2026-04-18T16:50:13.917Z</time></trkpt><trkpt lat="40.7306817" lon="16.5719817"><ele>329.3333333333333</ele><time>2026-04-18T16:50:14.917Z</time></trkpt><trkpt lat="40.73085" lon="16.5719167"><ele>328.0</ele><time>2026-04-18T16:50:15.916Z</time></trkpt><trkpt lat="40.7310217" lon="16.5718533"><ele>327.66666666666663</ele><time>2026-04-18T16:50:16.916Z</time></trkpt><trkpt lat="40.7311938" lon="16.5717865"><ele>327.3333333333333</ele><time>2026-04-18T16:50:17.916Z</time></trkpt><trkpt lat="40.7313652" lon="16.5717202"><ele>327.0</ele><time>2026-04-18T16:50:18.916Z</time></trkpt><trkpt lat="40.7315371" lon="16.5716547"><ele>327.0</ele><time>2026-04-18T16:50:19.917Z</time></trkpt><trkpt lat="40.7317086" lon="16.5715897"><ele>327.0</ele><time>2026-04-18T16:50:20.915Z</time></trkpt><trkpt lat="40.7318814" lon="16.5715235"><ele>327.0</ele><time>2026-04-18T16:50:21.916Z</time></trkpt><trkpt lat="40.7320546" lon="16.5714581"><ele>327.3333333333333</ele><time>2026-04-18T16:50:22.916Z</time></trkpt><trkpt lat="40.7322269" lon="16.5713941"><ele>327.66666666666663</ele><time>2026-04-18T16:50:23.917Z</time></trkpt><trkpt lat="40.7324001" lon="16.5713306"><ele>328.0</ele><time>2026-04-18T16:50:24.916Z</time></trkpt><trkpt lat="40.732572" lon="16.5712649"><ele>328.0</ele><time>2026-04-18T16:50:25.917Z</time></trkpt><trkpt lat="40.7327435" lon="16.5711986"><ele>328.0</ele><time>2026-04-18T16:50:26.917Z</time></trkpt><trkpt lat="40.7329146" lon="16.5711322"><ele>328.0</ele><time>2026-04-18T16:50:27.916Z</time></trkpt><trkpt lat="40.7330861" lon="16.5710657"><ele>328.0</ele><time>2026-04-18T16:50:28.916Z</time></trkpt><trkpt lat="40.733258" lon="16.5709989"><ele>328.0</ele><time>2026-04-18T16:50:29.916Z</time></trkpt><trkpt lat="40.7334298" lon="16.5709322"><ele>328.0</ele><time>2026-04-18T16:50:30.916Z</time></trkpt><trkpt lat="40.733603" lon="16.5708642"><ele>328.0</ele><time>2026-04-18T16:50:31.917Z</time></trkpt><trkpt lat="40.7337802" lon="16.5707959"><ele>328.0</ele><time>2026-04-18T16:50:32.916Z</time></trkpt><trkpt lat="40.7339616" lon="16.5707259"><ele>328.0</ele><time>2026-04-18T16:50:33.916Z</time></trkpt><trkpt lat="40.7341483" lon="16.5706541"><ele>328.0</ele><time>2026-04-18T16:50:34.916Z</time></trkpt><trkpt lat="40.7343416" lon="16.5705829"><ele>328.0</ele><time>2026-04-18T16:50:35.916Z</time></trkpt><trkpt lat="40.7345392" lon="16.5705069"><ele>328.0</ele><time>2026-04-18T16:50:36.918Z</time></trkpt><trkpt lat="40.7347334" lon="16.5704329"><ele>328.3333333333333</ele><time>2026-04-18T16:50:37.917Z</time></trkpt><trkpt lat="40.7349238" lon="16.5703586"><ele>328.6666666666667</ele><time>2026-04-18T16:50:38.916Z</time></trkpt><trkpt lat="40.7351122" lon="16.5702864"><ele>329.0</ele><time>2026-04-18T16:50:39.915Z</time></trkpt><trkpt lat="40.7353029" lon="16.5702146"><ele>329.6666666666667</ele><time>2026-04-18T16:50:40.916Z</time></trkpt><trkpt lat="40.7354919" lon="16.5701477"><ele>330.3333333333333</ele><time>2026-04-18T16:50:41.918Z</time></trkpt><trkpt lat="40.7356814" lon="16.5700811"><ele>331.0</ele><time>2026-04-18T16:50:42.916Z</time></trkpt><trkpt lat="40.73587" lon="16.5700204"><ele>332.3333333333333</ele><time>2026-04-18T16:50:43.917Z</time></trkpt><trkpt lat="40.7360561" lon="16.5699633"><ele>333.6666666666667</ele><time>2026-04-18T16:50:44.917Z</time></trkpt><trkpt lat="40.7362397" lon="16.5699079"><ele>335.0</ele><time>2026-04-18T16:50:45.917Z</time></trkpt><trkpt lat="40.7364228" lon="16.5698564"><ele>335.0</ele><time>2026-04-18T16:50:46.917Z</time></trkpt><trkpt lat="40.7366049" lon="16.5698049"><ele>335.0</ele><time>2026-04-18T16:50:47.916Z</time></trkpt><trkpt lat="40.7367873" lon="16.5697591"><ele>335.0</ele><time>2026-04-18T16:50:48.918Z</time></trkpt><trkpt lat="40.7369686" lon="16.5697142"><ele>335.6666666666667</ele><time>2026-04-18T16:50:49.917Z</time></trkpt><trkpt lat="40.7371513" lon="16.5696705"><ele>336.3333333333333</ele><time>2026-04-18T16:50:50.917Z</time></trkpt><trkpt lat="40.7373316" lon="16.5696272"><ele>337.0</ele><time>2026-04-18T16:50:51.915Z</time></trkpt><trkpt lat="40.7375115" lon="16.5695865"><ele>337.0</ele><time>2026-04-18T16:50:52.916Z</time></trkpt><trkpt lat="40.7376902" lon="16.5695472"><ele>337.0</ele><time>2026-04-18T16:50:53.916Z</time></trkpt><trkpt lat="40.7378697" lon="16.5695088"><ele>337.0</ele><time>2026-04-18T16:50:54.916Z</time></trkpt><trkpt lat="40.7380487" lon="16.5694678"><ele>337.3333333333333</ele><time>2026-04-18T16:50:55.918Z</time></trkpt><trkpt lat="40.7382294" lon="16.5694256"><ele>337.6666666666667</ele><time>2026-04-18T16:50:56.916Z</time></trkpt><trkpt lat="40.73841" lon="16.5693858"><ele>338.0</ele><time>2026-04-18T16:50:57.916Z</time></trkpt><trkpt lat="40.7385942" lon="16.5693445"><ele>338.6666666666667</ele><time>2026-04-18T16:50:58.917Z</time></trkpt><trkpt lat="40.7387781" lon="16.5693018"><ele>339.3333333333333</ele><time>2026-04-18T16:50:59.916Z</time></trkpt><trkpt lat="40.7389649" lon="16.5692595"><ele>340.0</ele><time>2026-04-18T16:51:00.917Z</time></trkpt><trkpt lat="40.739156" lon="16.5692164"><ele>340.0</ele><time>2026-04-18T16:51:01.918Z</time></trkpt><trkpt lat="40.7393509" lon="16.5691716"><ele>340.0</ele><time>2026-04-18T16:51:02.915Z</time></trkpt><trkpt lat="40.7395479" lon="16.5691263"><ele>340.0</ele><time>2026-04-18T16:51:03.915Z</time></trkpt><trkpt lat="40.7397475" lon="16.5690802"><ele>341.3333333333333</ele><time>2026-04-18T16:51:04.916Z</time></trkpt><trkpt lat="40.7399462" lon="16.5690358"><ele>342.6666666666667</ele><time>2026-04-18T16:51:05.916Z</time></trkpt><trkpt lat="40.7401406" lon="16.5689913"><ele>344.0</ele><time>2026-04-18T16:51:06.916Z</time></trkpt><trkpt lat="40.7403352" lon="16.5689453"><ele>344.33333333333337</ele><time>2026-04-18T16:51:07.917Z</time></trkpt><trkpt lat="40.7405312" lon="16.5689"><ele>344.6666666666667</ele><time>2026-04-18T16:51:08.917Z</time></trkpt><trkpt lat="40.7407289" lon="16.5688549"><ele>345.0</ele><time>2026-04-18T16:51:09.915Z</time></trkpt><trkpt lat="40.7409273" lon="16.5688097"><ele>345.0</ele><time>2026-04-18T16:51:10.915Z</time></trkpt><trkpt lat="40.7411221" lon="16.5687613"><ele>345.0</ele><time>2026-04-18T16:51:11.916Z</time></trkpt><trkpt lat="40.7413194" lon="16.5687156"><ele>345.0</ele><time>2026-04-18T16:51:12.916Z</time></trkpt><trkpt lat="40.7415161" lon="16.5686723"><ele>345.0</ele><time>2026-04-18T16:51:13.917Z</time></trkpt><trkpt lat="40.7417123" lon="16.5686292"><ele>345.0</ele><time>2026-04-18T16:51:14.917Z</time></trkpt><trkpt lat="40.7419063" lon="16.5685872"><ele>345.0</ele><time>2026-04-18T16:51:15.916Z</time></trkpt><trkpt lat="40.7421011" lon="16.568543"><ele>346.3333333333333</ele><time>2026-04-18T16:51:16.915Z</time></trkpt><trkpt lat="40.7422933" lon="16.568497"><ele>347.66666666666663</ele><time>2026-04-18T16:51:17.916Z</time></trkpt><trkpt lat="40.7424835" lon="16.5684508"><ele>349.0</ele><time>2026-04-18T16:51:18.917Z</time></trkpt><trkpt lat="40.7426733" lon="16.5684017"><ele>351.3333333333333</ele><time>2026-04-18T16:51:19.918Z</time></trkpt><trkpt lat="40.7428616" lon="16.5683509"><ele>353.6666666666667</ele><time>2026-04-18T16:51:20.917Z</time></trkpt><trkpt lat="40.7430486" lon="16.568296"><ele>356.0</ele><time>2026-04-18T16:51:21.919Z</time></trkpt><trkpt lat="40.7432352" lon="16.5682396"><ele>356.0</ele><time>2026-04-18T16:51:22.919Z</time></trkpt><trkpt lat="40.7434205" lon="16.5681771"><ele>356.0</ele><time>2026-04-18T16:51:23.919Z</time></trkpt><trkpt lat="40.743605" lon="16.56811"><ele>356.0</ele><time>2026-04-18T16:51:24.919Z</time></trkpt><trkpt lat="40.7437883" lon="16.5680367"><ele>355.33333333333337</ele><time>2026-04-18T16:51:25.919Z</time></trkpt><trkpt lat="40.74397" lon="16.5679583"><ele>354.6666666666667</ele><time>2026-04-18T16:51:26.92Z</time></trkpt><trkpt lat="40.74415" lon="16.5678767"><ele>354.0</ele><time>2026-04-18T16:51:27.918Z</time></trkpt><trkpt lat="40.7443283" lon="16.5677917"><ele>355.6666666666667</ele><time>2026-04-18T16:51:28.915Z</time></trkpt><trkpt lat="40.7445067" lon="16.567705"><ele>357.33333333333337</ele><time>2026-04-18T16:51:29.916Z</time></trkpt><trkpt lat="40.7446833" lon="16.5676133"><ele>359.0</ele><time>2026-04-18T16:51:30.916Z</time></trkpt><trkpt lat="40.7448583" lon="16.567515"><ele>359.0</ele><time>2026-04-18T16:51:31.917Z</time></trkpt><trkpt lat="40.74503" lon="16.567415"><ele>359.0</ele><time>2026-04-18T16:51:32.916Z</time></trkpt><trkpt lat="40.7452017" lon="16.5673133"><ele>359.0</ele><time>2026-04-18T16:51:33.916Z</time></trkpt><trkpt lat="40.7453733" lon="16.5672067"><ele>359.6666666666667</ele><time>2026-04-18T16:51:34.917Z</time></trkpt><trkpt lat="40.7455433" lon="16.5671"><ele>360.3333333333333</ele><time>2026-04-18T16:51:35.916Z</time></trkpt><trkpt lat="40.745715" lon="16.5669933"><ele>361.0</ele><time>2026-04-18T16:51:36.916Z</time></trkpt><trkpt lat="40.745885" lon="16.56689"><ele>363.66666666666663</ele><time>2026-04-18T16:51:37.917Z</time></trkpt><trkpt lat="40.746055" lon="16.5667833"><ele>366.3333333333333</ele><time>2026-04-18T16:51:38.919Z</time></trkpt><trkpt lat="40.7462233" lon="16.5666783"><ele>369.0</ele><time>2026-04-18T16:51:39.917Z</time></trkpt><trkpt lat="40.7463917" lon="16.566575"><ele>369.0</ele><time>2026-04-18T16:51:40.915Z</time></trkpt><trkpt lat="40.74656" lon="16.5664717"><ele>369.0</ele><time>2026-04-18T16:51:41.916Z</time></trkpt><trkpt lat="40.746725" lon="16.5663683"><ele>369.0</ele><time>2026-04-18T16:51:42.918Z</time></trkpt><trkpt lat="40.7468917" lon="16.5662633"><ele>370.3333333333333</ele><time>2026-04-18T16:51:43.916Z</time></trkpt><trkpt lat="40.74706" lon="16.56616"><ele>371.66666666666663</ele><time>2026-04-18T16:51:44.916Z</time></trkpt><trkpt lat="40.7472267" lon="16.5660567"><ele>373.0</ele><time>2026-04-18T16:51:45.917Z</time></trkpt><trkpt lat="40.7473933" lon="16.5659533"><ele>373.0</ele><time>2026-04-18T16:51:46.917Z</time></trkpt><trkpt lat="40.74756" lon="16.56585"><ele>373.0</ele><time>2026-04-18T16:51:47.917Z</time></trkpt><trkpt lat="40.7477283" lon="16.565745"><ele>373.0</ele><time>2026-04-18T16:51:48.917Z</time></trkpt><trkpt lat="40.7479" lon="16.56564"><ele>372.3333333333333</ele><time>2026-04-18T16:51:49.917Z</time></trkpt><trkpt lat="40.74807" lon="16.565535"><ele>371.6666666666667</ele><time>2026-04-18T16:51:50.916Z</time></trkpt><trkpt lat="40.7482417" lon="16.5654283"><ele>371.0</ele><time>2026-04-18T16:51:51.918Z</time></trkpt><trkpt lat="40.7484133" lon="16.5653183"><ele>373.33333333333337</ele><time>2026-04-18T16:51:52.924Z</time></trkpt><trkpt lat="40.7485883" lon="16.56521"><ele>375.6666666666667</ele><time>2026-04-18T16:51:53.918Z</time></trkpt><trkpt lat="40.7487633" lon="16.5651017"><ele>378.0</ele><time>2026-04-18T16:51:54.918Z</time></trkpt><trkpt lat="40.7489417" lon="16.5649933"><ele>378.0</ele><time>2026-04-18T16:51:55.92Z</time></trkpt><trkpt lat="40.74912" lon="16.5648817"><ele>378.0</ele><time>2026-04-18T16:51:56.917Z</time></trkpt><trkpt lat="40.7492983" lon="16.5647717"><ele>378.0</ele><time>2026-04-18T16:51:57.919Z</time></trkpt><trkpt lat="40.7494817" lon="16.5646633"><ele>379.6666666666667</ele><time>2026-04-18T16:51:58.916Z</time></trkpt><trkpt lat="40.7496667" lon="16.56456"><ele>381.33333333333337</ele><time>2026-04-18T16:51:59.917Z</time></trkpt><trkpt lat="40.7498517" lon="16.5644567"><ele>383.0</ele><time>2026-04-18T16:52:00.917Z</time></trkpt><trkpt lat="40.7500367" lon="16.5643583"><ele>385.6666666666667</ele><time>2026-04-18T16:52:01.916Z</time></trkpt><trkpt lat="40.7502267" lon="16.5642667"><ele>388.33333333333337</ele><time>2026-04-18T16:52:02.917Z</time></trkpt><trkpt lat="40.7504183" lon="16.5641783"><ele>391.0</ele><time>2026-04-18T16:52:03.917Z</time></trkpt><trkpt lat="40.75061" lon="16.564095"><ele>391.0</ele><time>2026-04-18T16:52:04.916Z</time></trkpt><trkpt lat="40.7508017" lon="16.56402"><ele>391.0</ele><time>2026-04-18T16:52:05.916Z</time></trkpt><trkpt lat="40.751" lon="16.5639533"><ele>391.0</ele><time>2026-04-18T16:52:06.917Z</time></trkpt><trkpt lat="40.7511983" lon="16.5638967"><ele>393.33333333333337</ele><time>2026-04-18T16:52:07.916Z</time></trkpt><trkpt lat="40.7513983" lon="16.5638467"><ele>395.66666666666663</ele><time>2026-04-18T16:52:08.916Z</time></trkpt><trkpt lat="40.7516" lon="16.56381"><ele>398.0</ele><time>2026-04-18T16:52:09.918Z</time></trkpt><trkpt lat="40.7518033" lon="16.5637833"><ele>398.0</ele><time>2026-04-18T16:52:10.917Z</time></trkpt><trkpt lat="40.7520067" lon="16.5637683"><ele>398.0</ele><time>2026-04-18T16:52:11.916Z</time></trkpt><trkpt lat="40.7522117" lon="16.5637617"><ele>398.0</ele><time>2026-04-18T16:52:12.917Z</time></trkpt><trkpt lat="40.7524167" lon="16.563765"><ele>398.0</ele><time>2026-04-18T16:52:13.917Z</time></trkpt><trkpt lat="40.7526217" lon="16.56378"><ele>398.0</ele><time>2026-04-18T16:52:14.917Z</time></trkpt><trkpt lat="40.752825" lon="16.5638033"><ele>398.0</ele><time>2026-04-18T16:52:15.917Z</time></trkpt><trkpt lat="40.753025" lon="16.5638333"><ele>398.3333333333333</ele><time>2026-04-18T16:52:16.917Z</time></trkpt><trkpt lat="40.7532283" lon="16.5638683"><ele>398.66666666666663</ele><time>2026-04-18T16:52:17.916Z</time></trkpt><trkpt lat="40.7534333" lon="16.5639117"><ele>399.0</ele><time>2026-04-18T16:52:18.917Z</time></trkpt><trkpt lat="40.7536383" lon="16.5639617"><ele>399.66666666666663</ele><time>2026-04-18T16:52:19.918Z</time></trkpt><trkpt lat="40.7538467" lon="16.5640167"><ele>400.3333333333333</ele><time>2026-04-18T16:52:20.918Z</time></trkpt><trkpt lat="40.7540517" lon="16.5640783"><ele>401.0</ele><time>2026-04-18T16:52:21.919Z</time></trkpt><trkpt lat="40.7542567" lon="16.564145"><ele>400.66666666666663</ele><time>2026-04-18T16:52:22.918Z</time></trkpt><trkpt lat="40.75446" lon="16.5642133"><ele>400.33333333333337</ele><time>2026-04-18T16:52:23.918Z</time></trkpt><trkpt lat="40.7546633" lon="16.5642833"><ele>400.0</ele><time>2026-04-18T16:52:24.918Z</time></trkpt><trkpt lat="40.754865" lon="16.5643533"><ele>400.0</ele><time>2026-04-18T16:52:25.919Z</time></trkpt><trkpt lat="40.755065" lon="16.564425"><ele>400.0</ele><time>2026-04-18T16:52:26.918Z</time></trkpt><trkpt lat="40.7552667" lon="16.5644933"><ele>400.0</ele><time>2026-04-18T16:52:27.919Z</time></trkpt><trkpt lat="40.7554667" lon="16.56456"><ele>399.6666666666667</ele><time>2026-04-18T16:52:28.916Z</time></trkpt><trkpt lat="40.75566" lon="16.564625"><ele>399.33333333333337</ele><time>2026-04-18T16:52:29.916Z</time></trkpt><trkpt lat="40.7558467" lon="16.56469"><ele>399.0</ele><time>2026-04-18T16:52:30.919Z</time></trkpt><trkpt lat="40.75603" lon="16.5647517"><ele>399.0</ele><time>2026-04-18T16:52:31.917Z</time></trkpt><trkpt lat="40.7562167" lon="16.5648133"><ele>399.0</ele><time>2026-04-18T16:52:32.916Z</time></trkpt><trkpt lat="40.7564033" lon="16.564875"><ele>399.0</ele><time>2026-04-18T16:52:33.916Z</time></trkpt><trkpt lat="40.7565933" lon="16.56493"><ele>399.0</ele><time>2026-04-18T16:52:34.916Z</time></trkpt><trkpt lat="40.756785" lon="16.5649783"><ele>399.0</ele><time>2026-04-18T16:52:35.918Z</time></trkpt><trkpt lat="40.7569783" lon="16.5650233"><ele>399.0</ele><time>2026-04-18T16:52:36.919Z</time></trkpt><trkpt lat="40.7571717" lon="16.5650617"><ele>399.33333333333337</ele><time>2026-04-18T16:52:37.918Z</time></trkpt><trkpt lat="40.757365" lon="16.5650933"><ele>399.6666666666667</ele><time>2026-04-18T16:52:38.916Z</time></trkpt><trkpt lat="40.7575517" lon="16.56512"><ele>400.0</ele><time>2026-04-18T16:52:39.917Z</time></trkpt><trkpt lat="40.7577333" lon="16.5651383"><ele>399.33333333333337</ele><time>2026-04-18T16:52:40.917Z</time></trkpt><trkpt lat="40.7579117" lon="16.56515"><ele>398.66666666666663</ele><time>2026-04-18T16:52:41.916Z</time></trkpt><trkpt lat="40.7580883" lon="16.5651517"><ele>398.0</ele><time>2026-04-18T16:52:42.917Z</time></trkpt><trkpt lat="40.758265" lon="16.5651483"><ele>398.0</ele><time>2026-04-18T16:52:43.917Z</time></trkpt><trkpt lat="40.7584417" lon="16.5651367"><ele>398.0</ele><time>2026-04-18T16:52:44.917Z</time></trkpt><trkpt lat="40.75862" lon="16.5651183"><ele>398.0</ele><time>2026-04-18T16:52:45.916Z</time></trkpt><trkpt lat="40.7587983" lon="16.565095"><ele>398.0</ele><time>2026-04-18T16:52:46.917Z</time></trkpt><trkpt lat="40.7589767" lon="16.5650667"><ele>398.0</ele><time>2026-04-18T16:52:47.917Z</time></trkpt><trkpt lat="40.7591567" lon="16.5650317"><ele>398.0</ele><time>2026-04-18T16:52:48.919Z</time></trkpt><trkpt lat="40.7593383" lon="16.56499"><ele>398.3333333333333</ele><time>2026-04-18T16:52:49.918Z</time></trkpt><trkpt lat="40.75952" lon="16.5649417"><ele>398.66666666666663</ele><time>2026-04-18T16:52:50.917Z</time></trkpt><trkpt lat="40.7597083" lon="16.5648867"><ele>399.0</ele><time>2026-04-18T16:52:51.916Z</time></trkpt><trkpt lat="40.7598967" lon="16.5648267"><ele>399.0</ele><time>2026-04-18T16:52:52.917Z</time></trkpt><trkpt lat="40.760085" lon="16.5647633"><ele>399.0</ele><time>2026-04-18T16:52:53.917Z</time></trkpt><trkpt lat="40.7602733" lon="16.5646967"><ele>399.0</ele><time>2026-04-18T16:52:54.92Z</time></trkpt><trkpt lat="40.7604633" lon="16.56463"><ele>398.66666666666663</ele><time>2026-04-18T16:52:55.919Z</time></trkpt><trkpt lat="40.7606517" lon="16.5645633"><ele>398.3333333333333</ele><time>2026-04-18T16:52:56.918Z</time></trkpt><trkpt lat="40.7608417" lon="16.5644967"><ele>398.0</ele><time>2026-04-18T16:52:57.919Z</time></trkpt><trkpt lat="40.7610333" lon="16.5644267"><ele>397.66666666666663</ele><time>2026-04-18T16:52:58.916Z</time></trkpt><trkpt lat="40.7612267" lon="16.5643583"><ele>397.33333333333337</ele><time>2026-04-18T16:52:59.916Z</time></trkpt><trkpt lat="40.7614183" lon="16.56429"><ele>397.0</ele><time>2026-04-18T16:53:00.916Z</time></trkpt><trkpt lat="40.7616067" lon="16.5642233"><ele>397.0</ele><time>2026-04-18T16:53:01.916Z</time></trkpt><trkpt lat="40.7617933" lon="16.5641567"><ele>397.0</ele><time>2026-04-18T16:53:02.917Z</time></trkpt><trkpt lat="40.76198" lon="16.56409"><ele>397.0</ele><time>2026-04-18T16:53:03.916Z</time></trkpt><trkpt lat="40.762165" lon="16.5640217"><ele>397.0</ele><time>2026-04-18T16:53:04.916Z</time></trkpt><trkpt lat="40.76235" lon="16.5639533"><ele>397.0</ele><time>2026-04-18T16:53:05.916Z</time></trkpt><trkpt lat="40.762535" lon="16.5638867"><ele>397.0</ele><time>2026-04-18T16:53:06.916Z</time></trkpt><trkpt lat="40.7627167" lon="16.5638217"><ele>397.0</ele><time>2026-04-18T16:53:07.917Z</time></trkpt><trkpt lat="40.7629" lon="16.5637567"><ele>397.0</ele><time>2026-04-18T16:53:08.917Z</time></trkpt><trkpt lat="40.7630817" lon="16.56369"><ele>397.0</ele><time>2026-04-18T16:53:09.916Z</time></trkpt><trkpt lat="40.763265" lon="16.5636217"><ele>397.6666666666667</ele><time>2026-04-18T16:53:10.916Z</time></trkpt><trkpt lat="40.763445" lon="16.5635567"><ele>398.33333333333337</ele><time>2026-04-18T16:53:11.916Z</time></trkpt><trkpt lat="40.7636267" lon="16.5634933"><ele>399.0</ele><time>2026-04-18T16:53:12.916Z</time></trkpt><trkpt lat="40.7638083" lon="16.5634283"><ele>399.0</ele><time>2026-04-18T16:53:13.917Z</time></trkpt><trkpt lat="40.7639917" lon="16.5633617"><ele>399.0</ele><time>2026-04-18T16:53:14.916Z</time></trkpt><trkpt lat="40.7641717" lon="16.5632967"><ele>399.0</ele><time>2026-04-18T16:53:15.916Z</time></trkpt><trkpt lat="40.764355" lon="16.5632317"><ele>398.33333333333337</ele><time>2026-04-18T16:53:16.917Z</time></trkpt><trkpt lat="40.7645383" lon="16.563165"><ele>397.6666666666667</ele><time>2026-04-18T16:53:17.918Z</time></trkpt><trkpt lat="40.7647217" lon="16.5630983"><ele>397.0</ele><time>2026-04-18T16:53:18.918Z</time></trkpt><trkpt lat="40.7649083" lon="16.5630317"><ele>397.0</ele><time>2026-04-18T16:53:19.92Z</time></trkpt><trkpt lat="40.7650933" lon="16.562965"><ele>397.0</ele><time>2026-04-18T16:53:20.918Z</time></trkpt><trkpt lat="40.7652783" lon="16.5628967"><ele>397.0</ele><time>2026-04-18T16:53:21.917Z</time></trkpt><trkpt lat="40.765465" lon="16.56283"><ele>397.0</ele><time>2026-04-18T16:53:22.92Z</time></trkpt><trkpt lat="40.76565" lon="16.5627633"><ele>397.0</ele><time>2026-04-18T16:53:23.916Z</time></trkpt><trkpt lat="40.7658317" lon="16.5626983"><ele>397.0</ele><time>2026-04-18T16:53:24.918Z</time></trkpt><trkpt lat="40.7660133" lon="16.5626317"><ele>397.33333333333337</ele><time>2026-04-18T16:53:25.917Z</time></trkpt><trkpt lat="40.7661917" lon="16.562565"><ele>397.66666666666663</ele><time>2026-04-18T16:53:26.916Z</time></trkpt><trkpt lat="40.7663717" lon="16.5624983"><ele>398.0</ele><time>2026-04-18T16:53:27.916Z</time></trkpt><trkpt lat="40.7665517" lon="16.5624317"><ele>398.0</ele><time>2026-04-18T16:53:28.916Z</time></trkpt><trkpt lat="40.7667317" lon="16.562365"><ele>398.0</ele><time>2026-04-18T16:53:29.915Z</time></trkpt><trkpt lat="40.7669133" lon="16.5623"><ele>398.0</ele><time>2026-04-18T16:53:30.917Z</time></trkpt><trkpt lat="40.7670967" lon="16.5622333"><ele>398.0</ele><time>2026-04-18T16:53:31.916Z</time></trkpt><trkpt lat="40.7672817" lon="16.5621667"><ele>398.0</ele><time>2026-04-18T16:53:32.917Z</time></trkpt><trkpt lat="40.7674683" lon="16.5621"><ele>398.0</ele><time>2026-04-18T16:53:33.916Z</time></trkpt><trkpt lat="40.7676567" lon="16.5620317"><ele>398.0</ele><time>2026-04-18T16:53:34.916Z</time></trkpt><trkpt lat="40.7678433" lon="16.5619633"><ele>398.0</ele><time>2026-04-18T16:53:35.916Z</time></trkpt><trkpt lat="40.7680333" lon="16.5618967"><ele>398.0</ele><time>2026-04-18T16:53:36.916Z</time></trkpt><trkpt lat="40.7682233" lon="16.56183"><ele>398.0</ele><time>2026-04-18T16:53:37.917Z</time></trkpt><trkpt lat="40.768415" lon="16.5617617"><ele>398.0</ele><time>2026-04-18T16:53:38.916Z</time></trkpt><trkpt lat="40.7686067" lon="16.5616933"><ele>398.0</ele><time>2026-04-18T16:53:39.915Z</time></trkpt><trkpt lat="40.7687967" lon="16.5616267"><ele>397.66666666666663</ele><time>2026-04-18T16:53:40.916Z</time></trkpt><trkpt lat="40.7689883" lon="16.56156"><ele>397.33333333333337</ele><time>2026-04-18T16:53:41.917Z</time></trkpt><trkpt lat="40.76918" lon="16.56149"><ele>397.0</ele><time>2026-04-18T16:53:42.916Z</time></trkpt><trkpt lat="40.7693717" lon="16.5614167"><ele>397.0</ele><time>2026-04-18T16:53:43.918Z</time></trkpt><trkpt lat="40.7695633" lon="16.5613467"><ele>397.0</ele><time>2026-04-18T16:53:44.916Z</time></trkpt><trkpt lat="40.7697533" lon="16.5612817"><ele>397.0</ele><time>2026-04-18T16:53:45.916Z</time></trkpt><trkpt lat="40.76994" lon="16.561215"><ele>397.0</ele><time>2026-04-18T16:53:46.918Z</time></trkpt><trkpt lat="40.7701233" lon="16.5611517"><ele>397.0</ele><time>2026-04-18T16:53:47.917Z</time></trkpt><trkpt lat="40.7703033" lon="16.5610867"><ele>397.0</ele><time>2026-04-18T16:53:48.919Z</time></trkpt><trkpt lat="40.7704817" lon="16.5610233"><ele>397.0</ele><time>2026-04-18T16:53:49.916Z</time></trkpt><trkpt lat="40.7706633" lon="16.5609583"><ele>397.0</ele><time>2026-04-18T16:53:50.916Z</time></trkpt><trkpt lat="40.77084" lon="16.5608967"><ele>397.0</ele><time>2026-04-18T16:53:51.917Z</time></trkpt><trkpt lat="40.7710167" lon="16.560835"><ele>397.0</ele><time>2026-04-18T16:53:52.917Z</time></trkpt><trkpt lat="40.771195" lon="16.5607733"><ele>397.0</ele><time>2026-04-18T16:53:53.917Z</time></trkpt><trkpt lat="40.7713717" lon="16.5607117"><ele>397.0</ele><time>2026-04-18T16:53:54.917Z</time></trkpt><trkpt lat="40.77155" lon="16.5606483"><ele>397.0</ele><time>2026-04-18T16:53:55.917Z</time></trkpt><trkpt lat="40.7717267" lon="16.5605817"><ele>397.0</ele><time>2026-04-18T16:53:56.917Z</time></trkpt><trkpt lat="40.7719017" lon="16.5605167"><ele>397.0</ele><time>2026-04-18T16:53:57.917Z</time></trkpt><trkpt lat="40.7720783" lon="16.5604517"><ele>397.0</ele><time>2026-04-18T16:53:58.916Z</time></trkpt><trkpt lat="40.7722533" lon="16.5603867"><ele>397.0</ele><time>2026-04-18T16:53:59.916Z</time></trkpt><trkpt lat="40.7724283" lon="16.5603233"><ele>397.0</ele><time>2026-04-18T16:54:00.917Z</time></trkpt><trkpt lat="40.7726033" lon="16.5602583"><ele>396.6666666666667</ele><time>2026-04-18T16:54:01.917Z</time></trkpt><trkpt lat="40.7727767" lon="16.5601967"><ele>396.33333333333337</ele><time>2026-04-18T16:54:02.917Z</time></trkpt><trkpt lat="40.772945" lon="16.560135"><ele>396.0</ele><time>2026-04-18T16:54:03.917Z</time></trkpt><trkpt lat="40.7731133" lon="16.560075"><ele>396.0</ele><time>2026-04-18T16:54:04.917Z</time></trkpt><trkpt lat="40.7732867" lon="16.5600117"><ele>396.0</ele><time>2026-04-18T16:54:05.917Z</time></trkpt><trkpt lat="40.773465" lon="16.5599467"><ele>396.0</ele><time>2026-04-18T16:54:06.916Z</time></trkpt><trkpt lat="40.7736417" lon="16.55988"><ele>396.33333333333337</ele><time>2026-04-18T16:54:07.916Z</time></trkpt><trkpt lat="40.7738233" lon="16.5598133"><ele>396.6666666666667</ele><time>2026-04-18T16:54:08.916Z</time></trkpt><trkpt lat="40.7740067" lon="16.5597467"><ele>397.0</ele><time>2026-04-18T16:54:09.916Z</time></trkpt><trkpt lat="40.7741933" lon="16.55968"><ele>397.33333333333337</ele><time>2026-04-18T16:54:10.917Z</time></trkpt><trkpt lat="40.7743767" lon="16.559615"><ele>397.66666666666663</ele><time>2026-04-18T16:54:11.917Z</time></trkpt><trkpt lat="40.7745583" lon="16.5595483"><ele>398.0</ele><time>2026-04-18T16:54:12.916Z</time></trkpt><trkpt lat="40.77474" lon="16.5594817"><ele>398.0</ele><time>2026-04-18T16:54:13.918Z</time></trkpt><trkpt lat="40.7749183" lon="16.559415"><ele>398.0</ele><time>2026-04-18T16:54:14.917Z</time></trkpt><trkpt lat="40.7750983" lon="16.55935"><ele>398.0</ele><time>2026-04-18T16:54:15.917Z</time></trkpt><trkpt lat="40.775275" lon="16.559285"><ele>397.3333333333333</ele><time>2026-04-18T16:54:16.917Z</time></trkpt><trkpt lat="40.7754533" lon="16.55922"><ele>396.66666666666663</ele><time>2026-04-18T16:54:17.916Z</time></trkpt><trkpt lat="40.7756317" lon="16.5591533"><ele>396.0</ele><time>2026-04-18T16:54:18.915Z</time></trkpt><trkpt lat="40.7758117" lon="16.55909"><ele>396.0</ele><time>2026-04-18T16:54:19.917Z</time></trkpt><trkpt lat="40.7759917" lon="16.5590267"><ele>396.0</ele><time>2026-04-18T16:54:20.916Z</time></trkpt><trkpt lat="40.7761733" lon="16.5589633"><ele>396.0</ele><time>2026-04-18T16:54:21.916Z</time></trkpt><trkpt lat="40.776355" lon="16.558895"><ele>396.66666666666663</ele><time>2026-04-18T16:54:22.916Z</time></trkpt><trkpt lat="40.7765367" lon="16.5588283"><ele>397.3333333333333</ele><time>2026-04-18T16:54:23.917Z</time></trkpt><trkpt lat="40.7767183" lon="16.5587583"><ele>398.0</ele><time>2026-04-18T16:54:24.917Z</time></trkpt><trkpt lat="40.7769017" lon="16.55869"><ele>398.3333333333333</ele><time>2026-04-18T16:54:25.917Z</time></trkpt><trkpt lat="40.7770883" lon="16.5586217"><ele>398.66666666666663</ele><time>2026-04-18T16:54:26.917Z</time></trkpt><trkpt lat="40.777275" lon="16.5585517"><ele>399.0</ele><time>2026-04-18T16:54:27.916Z</time></trkpt><trkpt lat="40.7774617" lon="16.5584817"><ele>399.0</ele><time>2026-04-18T16:54:28.916Z</time></trkpt><trkpt lat="40.77765" lon="16.5584133"><ele>399.0</ele><time>2026-04-18T16:54:29.916Z</time></trkpt><trkpt lat="40.7778383" lon="16.558345"><ele>399.0</ele><time>2026-04-18T16:54:30.916Z</time></trkpt><trkpt lat="40.7780283" lon="16.5582767"><ele>399.0</ele><time>2026-04-18T16:54:31.917Z</time></trkpt><trkpt lat="40.7782183" lon="16.5582083"><ele>399.0</ele><time>2026-04-18T16:54:32.916Z</time></trkpt><trkpt lat="40.7784083" lon="16.5581417"><ele>399.0</ele><time>2026-04-18T16:54:33.916Z</time></trkpt><trkpt lat="40.7785983" lon="16.558075"><ele>399.0</ele><time>2026-04-18T16:54:34.917Z</time></trkpt><trkpt lat="40.7787867" lon="16.558005"><ele>399.0</ele><time>2026-04-18T16:54:35.916Z</time></trkpt><trkpt lat="40.7789767" lon="16.5579367"><ele>399.0</ele><time>2026-04-18T16:54:36.917Z</time></trkpt><trkpt lat="40.779165" lon="16.55787"><ele>399.33333333333337</ele><time>2026-04-18T16:54:37.918Z</time></trkpt><trkpt lat="40.779355" lon="16.5578033"><ele>399.6666666666667</ele><time>2026-04-18T16:54:38.917Z</time></trkpt><trkpt lat="40.7795433" lon="16.557735"><ele>400.0</ele><time>2026-04-18T16:54:39.916Z</time></trkpt><trkpt lat="40.7797317" lon="16.5576667"><ele>400.0</ele><time>2026-04-18T16:54:40.916Z</time></trkpt><trkpt lat="40.77992" lon="16.5575967"><ele>400.0</ele><time>2026-04-18T16:54:41.916Z</time></trkpt><trkpt lat="40.7801067" lon="16.5575283"><ele>400.0</ele><time>2026-04-18T16:54:42.916Z</time></trkpt><trkpt lat="40.78029" lon="16.5574633"><ele>400.6666666666667</ele><time>2026-04-18T16:54:43.917Z</time></trkpt><trkpt lat="40.780475" lon="16.5573967"><ele>401.33333333333337</ele><time>2026-04-18T16:54:44.916Z</time></trkpt><trkpt lat="40.7806567" lon="16.5573317"><ele>402.0</ele><time>2026-04-18T16:54:45.916Z</time></trkpt><trkpt lat="40.7808417" lon="16.5572667"><ele>401.66666666666663</ele><time>2026-04-18T16:54:46.916Z</time></trkpt><trkpt lat="40.781025" lon="16.5572"><ele>401.3333333333333</ele><time>2026-04-18T16:54:47.917Z</time></trkpt><trkpt lat="40.7812083" lon="16.5571333"><ele>401.0</ele><time>2026-04-18T16:54:48.916Z</time></trkpt><trkpt lat="40.7813883" lon="16.5570667"><ele>401.0</ele><time>2026-04-18T16:54:49.917Z</time></trkpt><trkpt lat="40.7815633" lon="16.5570017"><ele>401.0</ele><time>2026-04-18T16:54:50.921Z</time></trkpt><trkpt lat="40.7817283" lon="16.5569417"><ele>401.0</ele><time>2026-04-18T16:54:51.916Z</time></trkpt><trkpt lat="40.78189" lon="16.55688"><ele>400.66666666666663</ele><time>2026-04-18T16:54:52.917Z</time></trkpt><trkpt lat="40.7820567" lon="16.5568183"><ele>400.33333333333337</ele><time>2026-04-18T16:54:53.916Z</time></trkpt><trkpt lat="40.7822283" lon="16.5567567"><ele>400.0</ele><time>2026-04-18T16:54:54.916Z</time></trkpt><trkpt lat="40.7824033" lon="16.5566933"><ele>400.0</ele><time>2026-04-18T16:54:55.917Z</time></trkpt><trkpt lat="40.7825817" lon="16.55663"><ele>400.0</ele><time>2026-04-18T16:54:56.916Z</time></trkpt><trkpt lat="40.7827633" lon="16.5565667"><ele>400.0</ele><time>2026-04-18T16:54:57.916Z</time></trkpt><trkpt lat="40.782945" lon="16.5565"><ele>399.6666666666667</ele><time>2026-04-18T16:54:58.916Z</time></trkpt><trkpt lat="40.78313" lon="16.5564333"><ele>399.33333333333337</ele><time>2026-04-18T16:54:59.916Z</time></trkpt><trkpt lat="40.7833167" lon="16.556365"><ele>399.0</ele><time>2026-04-18T16:55:00.916Z</time></trkpt><trkpt lat="40.783505" lon="16.5562967"><ele>399.33333333333337</ele><time>2026-04-18T16:55:01.917Z</time></trkpt><trkpt lat="40.783695" lon="16.55623"><ele>399.6666666666667</ele><time>2026-04-18T16:55:02.916Z</time></trkpt><trkpt lat="40.7838867" lon="16.5561633"><ele>400.0</ele><time>2026-04-18T16:55:03.916Z</time></trkpt><trkpt lat="40.78408" lon="16.5560967"><ele>400.6666666666667</ele><time>2026-04-18T16:55:04.917Z</time></trkpt><trkpt lat="40.784275" lon="16.55603"><ele>401.33333333333337</ele><time>2026-04-18T16:55:05.917Z</time></trkpt><trkpt lat="40.7844683" lon="16.555965"><ele>402.0</ele><time>2026-04-18T16:55:06.916Z</time></trkpt><trkpt lat="40.7846617" lon="16.5558983"><ele>402.0</ele><time>2026-04-18T16:55:07.917Z</time></trkpt><trkpt lat="40.7848533" lon="16.555835"><ele>402.0</ele><time>2026-04-18T16:55:08.916Z</time></trkpt><trkpt lat="40.785045" lon="16.5557733"><ele>402.0</ele><time>2026-04-18T16:55:09.917Z</time></trkpt><trkpt lat="40.7852367" lon="16.5557117"><ele>401.66666666666663</ele><time>2026-04-18T16:55:10.916Z</time></trkpt><trkpt lat="40.7854283" lon="16.555655"><ele>401.3333333333333</ele><time>2026-04-18T16:55:11.916Z</time></trkpt><trkpt lat="40.7856183" lon="16.5556"><ele>401.0</ele><time>2026-04-18T16:55:12.917Z</time></trkpt><trkpt lat="40.7858083" lon="16.5555467"><ele>401.0</ele><time>2026-04-18T16:55:13.917Z</time></trkpt><trkpt lat="40.786" lon="16.5554917"><ele>401.0</ele><time>2026-04-18T16:55:14.916Z</time></trkpt><trkpt lat="40.78619" lon="16.5554383"><ele>401.0</ele><time>2026-04-18T16:55:15.916Z</time></trkpt><trkpt lat="40.7863817" lon="16.5553833"><ele>401.0</ele><time>2026-04-18T16:55:16.916Z</time></trkpt><trkpt lat="40.7865717" lon="16.55533"><ele>401.0</ele><time>2026-04-18T16:55:17.916Z</time></trkpt><trkpt lat="40.7867617" lon="16.5552833"><ele>401.0</ele><time>2026-04-18T16:55:18.917Z</time></trkpt><trkpt lat="40.7869517" lon="16.5552367"><ele>401.0</ele><time>2026-04-18T16:55:19.916Z</time></trkpt><trkpt lat="40.7871417" lon="16.5551917"><ele>401.0</ele><time>2026-04-18T16:55:20.915Z</time></trkpt><trkpt lat="40.78733" lon="16.555145"><ele>401.0</ele><time>2026-04-18T16:55:21.917Z</time></trkpt><trkpt lat="40.78752" lon="16.5551017"><ele>402.0</ele><time>2026-04-18T16:55:22.916Z</time></trkpt><trkpt lat="40.7877083" lon="16.5550567"><ele>403.0</ele><time>2026-04-18T16:55:23.915Z</time></trkpt><trkpt lat="40.787895" lon="16.555015"><ele>404.0</ele><time>2026-04-18T16:55:24.915Z</time></trkpt><trkpt lat="40.7880833" lon="16.5549717"><ele>404.0</ele><time>2026-04-18T16:55:25.917Z</time></trkpt><trkpt lat="40.7882717" lon="16.5549333"><ele>404.0</ele><time>2026-04-18T16:55:26.916Z</time></trkpt><trkpt lat="40.78846" lon="16.5548967"><ele>404.0</ele><time>2026-04-18T16:55:27.917Z</time></trkpt><trkpt lat="40.7886467" lon="16.5548567"><ele>404.3333333333333</ele><time>2026-04-18T16:55:28.916Z</time></trkpt><trkpt lat="40.7888233" lon="16.554815"><ele>404.66666666666663</ele><time>2026-04-18T16:55:29.916Z</time></trkpt><trkpt lat="40.788985" lon="16.5547783"><ele>405.0</ele><time>2026-04-18T16:55:30.916Z</time></trkpt><trkpt lat="40.7891383" lon="16.5547467"><ele>405.0</ele><time>2026-04-18T16:55:31.917Z</time></trkpt><trkpt lat="40.7892833" lon="16.554715"><ele>405.0</ele><time>2026-04-18T16:55:32.916Z</time></trkpt><trkpt lat="40.7894233" lon="16.55468"><ele>405.0</ele><time>2026-04-18T16:55:33.916Z</time></trkpt><trkpt lat="40.7895533" lon="16.5546483"><ele>405.0</ele><time>2026-04-18T16:55:34.916Z</time></trkpt><trkpt lat="40.789675" lon="16.5546183"><ele>405.0</ele><time>2026-04-18T16:55:35.917Z</time></trkpt><trkpt lat="40.78979" lon="16.55459"><ele>405.0</ele><time>2026-04-18T16:55:36.915Z</time></trkpt><trkpt lat="40.7899067" lon="16.5545633"><ele>405.0</ele><time>2026-04-18T16:55:37.917Z</time></trkpt><trkpt lat="40.7900233" lon="16.5545417"><ele>405.0</ele><time>2026-04-18T16:55:38.916Z</time></trkpt><trkpt lat="40.7901317" lon="16.554525"><ele>404.8</ele><time>2026-04-18T16:55:39.916Z</time></trkpt><trkpt lat="40.790235" lon="16.55453"><ele>404.6</ele><time>2026-04-18T16:55:40.916Z</time></trkpt><trkpt lat="40.7903317" lon="16.55456"><ele>404.4</ele><time>2026-04-18T16:55:41.917Z</time></trkpt><trkpt lat="40.79042" lon="16.5546183"><ele>404.2</ele><time>2026-04-18T16:55:42.915Z</time></trkpt><trkpt lat="40.7904933" lon="16.5547083"><ele>404.0</ele><time>2026-04-18T16:55:43.919Z</time></trkpt><trkpt lat="40.79055" lon="16.5548217"><ele>403.79999999999995</ele><time>2026-04-18T16:55:44.916Z</time></trkpt><trkpt lat="40.7905867" lon="16.5549567"><ele>403.59999999999997</ele><time>2026-04-18T16:55:45.916Z</time></trkpt><trkpt lat="40.7906067" lon="16.5550967"><ele>403.4</ele><time>2026-04-18T16:55:46.916Z</time></trkpt><trkpt lat="40.7906083" lon="16.5552267"><ele>403.2</ele><time>2026-04-18T16:55:47.916Z</time></trkpt><trkpt lat="40.7906067" lon="16.5553383"><ele>403.0</ele><time>2026-04-18T16:55:48.916Z</time></trkpt><trkpt lat="40.7906133" lon="16.5554233"><ele>402.79999999999995</ele><time>2026-04-18T16:55:49.917Z</time></trkpt><trkpt lat="40.7906817" lon="16.55553"><ele>402.6</ele><time>2026-04-18T16:55:51.916Z</time></trkpt><trkpt lat="40.7907883" lon="16.555505"><ele>402.4</ele><time>2026-04-18T16:55:53.916Z</time></trkpt><trkpt lat="40.7908533" lon="16.5554483"><ele>402.20000000000005</ele><time>2026-04-18T16:55:54.915Z</time></trkpt><trkpt lat="40.7909383" lon="16.555395"><ele>402.0</ele><time>2026-04-18T16:55:55.917Z</time></trkpt><trkpt lat="40.7910417" lon="16.5553517"><ele>402.0</ele><time>2026-04-18T16:55:56.916Z</time></trkpt><trkpt lat="40.791155" lon="16.5553183"><ele>402.0</ele><time>2026-04-18T16:55:57.916Z</time></trkpt><trkpt lat="40.7912733" lon="16.5552833"><ele>402.0</ele><time>2026-04-18T16:55:58.916Z</time></trkpt><trkpt lat="40.7913883" lon="16.5552483"><ele>402.0</ele><time>2026-04-18T16:55:59.916Z</time></trkpt><trkpt lat="40.7914917" lon="16.5552217"><ele>402.0</ele><time>2026-04-18T16:56:00.916Z</time></trkpt><trkpt lat="40.7915867" lon="16.5552017"><ele>402.0</ele><time>2026-04-18T16:56:01.917Z</time></trkpt><trkpt lat="40.79168" lon="16.5551767"><ele>402.0</ele><time>2026-04-18T16:56:02.918Z</time></trkpt><trkpt lat="40.7917767" lon="16.5551517"><ele>402.0</ele><time>2026-04-18T16:56:03.916Z</time></trkpt><trkpt lat="40.7918717" lon="16.55513"><ele>402.0</ele><time>2026-04-18T16:56:04.916Z</time></trkpt><trkpt lat="40.7919517" lon="16.5551133"><ele>402.0</ele><time>2026-04-18T16:56:05.915Z</time></trkpt><trkpt lat="40.7920483" lon="16.5550883"><ele>402.0</ele><time>2026-04-18T16:56:07.916Z</time></trkpt><trkpt lat="40.7920967" lon="16.5550283"><ele>402.0</ele><time>2026-04-18T16:56:10.916Z</time></trkpt><trkpt lat="40.792075" lon="16.554915"><ele>402.0</ele><time>2026-04-18T16:56:12.916Z</time></trkpt><trkpt lat="40.7920667" lon="16.554785"><ele>402.0</ele><time>2026-04-18T16:56:14.916Z</time></trkpt><trkpt lat="40.7920633" lon="16.5546717"><ele>402.0</ele><time>2026-04-18T16:56:16.916Z</time></trkpt><trkpt lat="40.7920517" lon="16.5545833"><ele>402.0</ele><time>2026-04-18T16:56:18.916Z</time></trkpt><trkpt lat="40.7920683" lon="16.5544967"><ele>402.0</ele><time>2026-04-18T16:56:22.916Z</time></trkpt><trkpt lat="40.7921317" lon="16.5545"><ele>402.0</ele><time>2026-04-18T16:56:26.916Z</time></trkpt><trkpt lat="40.79213" lon="16.554415"><ele>402.0</ele><time>2026-04-18T17:05:35.915Z</time></trkpt><trkpt lat="40.7920867" lon="16.554345"><ele>402.0</ele><time>2026-04-18T17:05:38.916Z</time></trkpt><trkpt lat="40.792065" lon="16.55445"><ele>402.0</ele><time>2026-04-18T17:05:41.916Z</time></trkpt><trkpt lat="40.792055" lon="16.5545933"><ele>402.0</ele><time>2026-04-18T17:05:43.916Z</time></trkpt><trkpt lat="40.7920533" lon="16.55469"><ele>402.0</ele><time>2026-04-18T17:05:44.916Z</time></trkpt><trkpt lat="40.792055" lon="16.554785"><ele>402.0</ele><time>2026-04-18T17:05:45.916Z</time></trkpt><trkpt lat="40.7920667" lon="16.55493"><ele>402.0</ele><time>2026-04-18T17:05:47.915Z</time></trkpt><trkpt lat="40.7920783" lon="16.555015"><ele>402.0</ele><time>2026-04-18T17:05:49.915Z</time></trkpt><trkpt lat="40.792165" lon="16.5550617"><ele>402.0</ele><time>2026-04-18T17:05:53.916Z</time></trkpt><trkpt lat="40.792285" lon="16.555025"><ele>402.0</ele><time>2026-04-18T17:05:55.916Z</time></trkpt><trkpt lat="40.7923567" lon="16.5550033"><ele>402.0</ele><time>2026-04-18T17:05:56.917Z</time></trkpt><trkpt lat="40.79243" lon="16.5549817"><ele>402.0</ele><time>2026-04-18T17:05:57.915Z</time></trkpt><trkpt lat="40.7925083" lon="16.5549617"><ele>402.0</ele><time>2026-04-18T17:05:58.916Z</time></trkpt><trkpt lat="40.7925917" lon="16.5549433"><ele>402.0</ele><time>2026-04-18T17:05:59.916Z</time></trkpt><trkpt lat="40.7926767" lon="16.55492"><ele>402.0</ele><time>2026-04-18T17:06:00.915Z</time></trkpt><trkpt lat="40.7927583" lon="16.5549"><ele>402.1666666666667</ele><time>2026-04-18T17:06:01.917Z</time></trkpt><trkpt lat="40.7928283" lon="16.55489"><ele>402.33333333333337</ele><time>2026-04-18T17:06:02.916Z</time></trkpt><trkpt lat="40.7929" lon="16.5549017"><ele>402.5</ele><time>2026-04-18T17:06:03.916Z</time></trkpt><trkpt lat="40.7929767" lon="16.5549217"><ele>402.6666666666667</ele><time>2026-04-18T17:06:04.916Z</time></trkpt><trkpt lat="40.79306" lon="16.5549233"><ele>402.83333333333337</ele><time>2026-04-18T17:06:05.916Z</time></trkpt><trkpt lat="40.7931483" lon="16.554895"><ele>403.0</ele><time>2026-04-18T17:06:06.916Z</time></trkpt><trkpt lat="40.7932417" lon="16.5548517"><ele>403.0</ele><time>2026-04-18T17:06:07.917Z</time></trkpt><trkpt lat="40.7933417" lon="16.5548167"><ele>403.0</ele><time>2026-04-18T17:06:08.916Z</time></trkpt><trkpt lat="40.7934517" lon="16.5548"><ele>403.0</ele><time>2026-04-18T17:06:09.916Z</time></trkpt><trkpt lat="40.79357" lon="16.55479"><ele>403.0</ele><time>2026-04-18T17:06:10.916Z</time></trkpt><trkpt lat="40.7936917" lon="16.5547867"><ele>402.25</ele><time>2026-04-18T17:06:11.916Z</time></trkpt><trkpt lat="40.7938183" lon="16.554785"><ele>401.5</ele><time>2026-04-18T17:06:12.916Z</time></trkpt><trkpt lat="40.79395" lon="16.5547867"><ele>400.75</ele><time>2026-04-18T17:06:13.916Z</time></trkpt><trkpt lat="40.7940883" lon="16.5547867"><ele>400.0</ele><time>2026-04-18T17:06:14.918Z</time></trkpt><trkpt lat="40.7942283" lon="16.5547867"><ele>398.75</ele><time>2026-04-18T17:06:15.916Z</time></trkpt><trkpt lat="40.7943683" lon="16.55479"><ele>397.5</ele><time>2026-04-18T17:06:16.916Z</time></trkpt><trkpt lat="40.7945117" lon="16.5547883"><ele>396.25</ele><time>2026-04-18T17:06:17.916Z</time></trkpt><trkpt lat="40.7946567" lon="16.5547817"><ele>395.0</ele><time>2026-04-18T17:06:18.916Z</time></trkpt><trkpt lat="40.794805" lon="16.5547733"><ele>395.0</ele><time>2026-04-18T17:06:19.918Z</time></trkpt><trkpt lat="40.7949567" lon="16.554765"><ele>395.0</ele><time>2026-04-18T17:06:20.916Z</time></trkpt><trkpt lat="40.7951133" lon="16.5547567"><ele>395.0</ele><time>2026-04-18T17:06:21.917Z</time></trkpt><trkpt lat="40.7952733" lon="16.554745"><ele>394.75</ele><time>2026-04-18T17:06:22.917Z</time></trkpt><trkpt lat="40.7954233" lon="16.5547333"><ele>394.5</ele><time>2026-04-18T17:06:23.916Z</time></trkpt><trkpt lat="40.7955667" lon="16.554725"><ele>394.25</ele><time>2026-04-18T17:06:24.915Z</time></trkpt><trkpt lat="40.7957017" lon="16.55472"><ele>394.0</ele><time>2026-04-18T17:06:25.916Z</time></trkpt><trkpt lat="40.79583" lon="16.5547117"><ele>394.0</ele><time>2026-04-18T17:06:26.916Z</time></trkpt><trkpt lat="40.7959533" lon="16.5547033"><ele>394.0</ele><time>2026-04-18T17:06:27.915Z</time></trkpt><trkpt lat="40.7960733" lon="16.5546933"><ele>394.0</ele><time>2026-04-18T17:06:28.916Z</time></trkpt><trkpt lat="40.7962017" lon="16.554685"><ele>394.0</ele><time>2026-04-18T17:06:29.916Z</time></trkpt><trkpt lat="40.796335" lon="16.554685"><ele>392.25</ele><time>2026-04-18T17:06:30.917Z</time></trkpt><trkpt lat="40.7964633" lon="16.5546833"><ele>390.5</ele><time>2026-04-18T17:06:31.916Z</time></trkpt><trkpt lat="40.796585" lon="16.5546767"><ele>388.75</ele><time>2026-04-18T17:06:32.916Z</time></trkpt><trkpt lat="40.7967033" lon="16.5546717"><ele>387.0</ele><time>2026-04-18T17:06:33.916Z</time></trkpt><trkpt lat="40.7968183" lon="16.554675"><ele>386.6</ele><time>2026-04-18T17:06:34.917Z</time></trkpt><trkpt lat="40.7969283" lon="16.55468"><ele>386.20000000000005</ele><time>2026-04-18T17:06:35.917Z</time></trkpt><trkpt lat="40.7970267" lon="16.5546817"><ele>385.8</ele><time>2026-04-18T17:06:36.916Z</time></trkpt><trkpt lat="40.7971067" lon="16.55468"><ele>385.4</ele><time>2026-04-18T17:06:37.917Z</time></trkpt><trkpt lat="40.797215" lon="16.5546617"><ele>385.0</ele><time>2026-04-18T17:06:39.916Z</time></trkpt><trkpt lat="40.7972767" lon="16.5546167"><ele>385.00000000000006</ele><time>2026-04-18T17:06:41.918Z</time></trkpt><trkpt lat="40.7972983" lon="16.5544967"><ele>385.0</ele><time>2026-04-18T17:06:43.916Z</time></trkpt><trkpt lat="40.797295" lon="16.5544033"><ele>385.0</ele><time>2026-04-18T17:06:44.916Z</time></trkpt><trkpt lat="40.7972983" lon="16.5542967"><ele>385.0</ele><time>2026-04-18T17:06:45.916Z</time></trkpt><trkpt lat="40.79732" lon="16.5541917"><ele>385.00000000000006</ele><time>2026-04-18T17:06:46.916Z</time></trkpt><trkpt lat="40.7973667" lon="16.5541133"><ele>385.0</ele><time>2026-04-18T17:06:47.916Z</time></trkpt><trkpt lat="40.7974283" lon="16.554065"><ele>385.0</ele><time>2026-04-18T17:06:48.917Z</time></trkpt><trkpt lat="40.7975017" lon="16.5540533"><ele>385.0</ele><time>2026-04-18T17:06:49.917Z</time></trkpt><trkpt lat="40.7975867" lon="16.5540633"><ele>385.0</ele><time>2026-04-18T17:06:50.916Z</time></trkpt><trkpt lat="40.79769" lon="16.554075"><ele>385.0</ele><time>2026-04-18T17:06:51.916Z</time></trkpt><trkpt lat="40.7978017" lon="16.554085"><ele>385.0</ele><time>2026-04-18T17:06:52.918Z</time></trkpt><trkpt lat="40.797925" lon="16.5541"><ele>385.5</ele><time>2026-04-18T17:06:53.916Z</time></trkpt><trkpt lat="40.7980517" lon="16.5541183"><ele>386.0</ele><time>2026-04-18T17:06:54.916Z</time></trkpt><trkpt lat="40.7981833" lon="16.5541383"><ele>386.5</ele><time>2026-04-18T17:06:55.917Z</time></trkpt><trkpt lat="40.7983217" lon="16.55416"><ele>387.0</ele><time>2026-04-18T17:06:56.916Z</time></trkpt><trkpt lat="40.798465" lon="16.5541833"><ele>387.5</ele><time>2026-04-18T17:06:57.916Z</time></trkpt><trkpt lat="40.79861" lon="16.5542117"><ele>388.0</ele><time>2026-04-18T17:06:58.916Z</time></trkpt><trkpt lat="40.7987567" lon="16.55424"><ele>388.5</ele><time>2026-04-18T17:06:59.916Z</time></trkpt><trkpt lat="40.7989067" lon="16.55427"><ele>389.0</ele><time>2026-04-18T17:07:00.916Z</time></trkpt><trkpt lat="40.79906" lon="16.5542967"><ele>389.0</ele><time>2026-04-18T17:07:01.918Z</time></trkpt><trkpt lat="40.799215" lon="16.554325"><ele>389.0</ele><time>2026-04-18T17:07:02.916Z</time></trkpt><trkpt lat="40.7993683" lon="16.5543567"><ele>389.0</ele><time>2026-04-18T17:07:03.916Z</time></trkpt><trkpt lat="40.7995233" lon="16.5543883"><ele>389.0</ele><time>2026-04-18T17:07:04.917Z</time></trkpt><trkpt lat="40.799675" lon="16.5544167"><ele>389.0</ele><time>2026-04-18T17:07:05.916Z</time></trkpt><trkpt lat="40.7998283" lon="16.5544433"><ele>389.0</ele><time>2026-04-18T17:07:06.916Z</time></trkpt><trkpt lat="40.7999833" lon="16.554475"><ele>389.0</ele><time>2026-04-18T17:07:07.916Z</time></trkpt><trkpt lat="40.8001383" lon="16.554505"><ele>389.0</ele><time>2026-04-18T17:07:08.916Z</time></trkpt><trkpt lat="40.8002933" lon="16.5545333"><ele>389.0</ele><time>2026-04-18T17:07:09.915Z</time></trkpt><trkpt lat="40.8004517" lon="16.5545633"><ele>389.66666666666663</ele><time>2026-04-18T17:07:10.915Z</time></trkpt><trkpt lat="40.800615" lon="16.554595"><ele>390.33333333333337</ele><time>2026-04-18T17:07:11.916Z</time></trkpt><trkpt lat="40.8007817" lon="16.55463"><ele>391.0</ele><time>2026-04-18T17:07:12.915Z</time></trkpt><trkpt lat="40.8009517" lon="16.554665"><ele>391.33333333333337</ele><time>2026-04-18T17:07:13.917Z</time></trkpt><trkpt lat="40.80112" lon="16.5546983"><ele>391.66666666666663</ele><time>2026-04-18T17:07:14.916Z</time></trkpt><trkpt lat="40.8012867" lon="16.55473"><ele>392.0</ele><time>2026-04-18T17:07:15.917Z</time></trkpt><trkpt lat="40.8014533" lon="16.55476"><ele>392.0</ele><time>2026-04-18T17:07:16.916Z</time></trkpt><trkpt lat="40.801625" lon="16.554795"><ele>392.0</ele><time>2026-04-18T17:07:17.917Z</time></trkpt><trkpt lat="40.8017983" lon="16.5548333"><ele>392.0</ele><time>2026-04-18T17:07:18.915Z</time></trkpt><trkpt lat="40.8019683" lon="16.5548733"><ele>391.66666666666663</ele><time>2026-04-18T17:07:19.917Z</time></trkpt><trkpt lat="40.80214" lon="16.554915"><ele>391.33333333333337</ele><time>2026-04-18T17:07:20.916Z</time></trkpt><trkpt lat="40.8023117" lon="16.554955"><ele>391.0</ele><time>2026-04-18T17:07:21.916Z</time></trkpt><trkpt lat="40.8024817" lon="16.5549933"><ele>391.0</ele><time>2026-04-18T17:07:22.917Z</time></trkpt><trkpt lat="40.8026517" lon="16.5550267"><ele>391.0</ele><time>2026-04-18T17:07:23.916Z</time></trkpt><trkpt lat="40.80282" lon="16.5550583"><ele>391.0</ele><time>2026-04-18T17:07:24.915Z</time></trkpt><trkpt lat="40.80299" lon="16.55509"><ele>391.0</ele><time>2026-04-18T17:07:25.918Z</time></trkpt><trkpt lat="40.8031583" lon="16.55512"><ele>391.0</ele><time>2026-04-18T17:07:26.917Z</time></trkpt><trkpt lat="40.803325" lon="16.555145"><ele>391.0</ele><time>2026-04-18T17:07:27.917Z</time></trkpt><trkpt lat="40.80349" lon="16.5551667"><ele>391.6666666666667</ele><time>2026-04-18T17:07:28.915Z</time></trkpt><trkpt lat="40.8036533" lon="16.5551917"><ele>392.33333333333337</ele><time>2026-04-18T17:07:29.917Z</time></trkpt><trkpt lat="40.8038117" lon="16.555215"><ele>393.0</ele><time>2026-04-18T17:07:30.917Z</time></trkpt><trkpt lat="40.8039683" lon="16.55524"><ele>393.0</ele><time>2026-04-18T17:07:31.916Z</time></trkpt><trkpt lat="40.8041267" lon="16.5552683"><ele>393.0</ele><time>2026-04-18T17:07:32.916Z</time></trkpt><trkpt lat="40.8042867" lon="16.5552967"><ele>393.0</ele><time>2026-04-18T17:07:33.917Z</time></trkpt><trkpt lat="40.8044467" lon="16.5553267"><ele>393.33333333333337</ele><time>2026-04-18T17:07:34.917Z</time></trkpt><trkpt lat="40.8046067" lon="16.5553567"><ele>393.6666666666667</ele><time>2026-04-18T17:07:35.916Z</time></trkpt><trkpt lat="40.804765" lon="16.5553867"><ele>394.0</ele><time>2026-04-18T17:07:36.916Z</time></trkpt><trkpt lat="40.804925" lon="16.55542"><ele>394.0</ele><time>2026-04-18T17:07:37.916Z</time></trkpt><trkpt lat="40.805085" lon="16.5554517"><ele>394.0</ele><time>2026-04-18T17:07:38.917Z</time></trkpt><trkpt lat="40.805245" lon="16.555485"><ele>394.0</ele><time>2026-04-18T17:07:39.916Z</time></trkpt><trkpt lat="40.8054033" lon="16.5555133"><ele>395.6666666666667</ele><time>2026-04-18T17:07:40.917Z</time></trkpt><trkpt lat="40.80556" lon="16.5555433"><ele>397.33333333333337</ele><time>2026-04-18T17:07:41.916Z</time></trkpt><trkpt lat="40.8057217" lon="16.555575"><ele>399.0</ele><time>2026-04-18T17:07:42.916Z</time></trkpt><trkpt lat="40.8058867" lon="16.5556067"><ele>399.66666666666663</ele><time>2026-04-18T17:07:43.917Z</time></trkpt><trkpt lat="40.80605" lon="16.555635"><ele>400.3333333333333</ele><time>2026-04-18T17:07:44.916Z</time></trkpt><trkpt lat="40.8061983" lon="16.555665"><ele>401.0</ele><time>2026-04-18T17:07:45.916Z</time></trkpt><trkpt lat="40.8063367" lon="16.5556967"><ele>401.0</ele><time>2026-04-18T17:07:46.916Z</time></trkpt><trkpt lat="40.806465" lon="16.5557367"><ele>401.0</ele><time>2026-04-18T17:07:47.916Z</time></trkpt><trkpt lat="40.8065833" lon="16.5557917"><ele>401.0</ele><time>2026-04-18T17:07:48.917Z</time></trkpt><trkpt lat="40.8066917" lon="16.5558683"><ele>401.0</ele><time>2026-04-18T17:07:49.917Z</time></trkpt><trkpt lat="40.8067833" lon="16.5559683"><ele>401.4</ele><time>2026-04-18T17:07:50.916Z</time></trkpt><trkpt lat="40.8068533" lon="16.5560867"><ele>401.8</ele><time>2026-04-18T17:07:51.916Z</time></trkpt><trkpt lat="40.8069017" lon="16.5562217"><ele>402.2</ele><time>2026-04-18T17:07:52.916Z</time></trkpt><trkpt lat="40.8069267" lon="16.5563667"><ele>402.59999999999997</ele><time>2026-04-18T17:07:53.917Z</time></trkpt><trkpt lat="40.8069417" lon="16.55651"><ele>403.0</ele><time>2026-04-18T17:07:54.916Z</time></trkpt><trkpt lat="40.8069617" lon="16.5566417"><ele>402.33333333333337</ele><time>2026-04-18T17:07:55.916Z</time></trkpt><trkpt lat="40.806995" lon="16.5567517"><ele>401.6666666666667</ele><time>2026-04-18T17:07:56.915Z</time></trkpt><trkpt lat="40.8070383" lon="16.5568383"><ele>401.0</ele><time>2026-04-18T17:07:57.916Z</time></trkpt><trkpt lat="40.8070883" lon="16.5569133"><ele>400.33333333333337</ele><time>2026-04-18T17:07:58.917Z</time></trkpt><trkpt lat="40.807155" lon="16.5569717"><ele>399.6666666666667</ele><time>2026-04-18T17:07:59.916Z</time></trkpt><trkpt lat="40.80724" lon="16.55703"><ele>399.0</ele><time>2026-04-18T17:08:00.916Z</time></trkpt><trkpt lat="40.8073267" lon="16.5570833"><ele>398.8333333333333</ele><time>2026-04-18T17:08:01.916Z</time></trkpt><trkpt lat="40.8074033" lon="16.5571283"><ele>398.66666666666663</ele><time>2026-04-18T17:08:02.917Z</time></trkpt><trkpt lat="40.8074733" lon="16.5571617"><ele>398.5</ele><time>2026-04-18T17:08:03.916Z</time></trkpt><trkpt lat="40.80754" lon="16.5571867"><ele>398.3333333333333</ele><time>2026-04-18T17:08:04.916Z</time></trkpt><trkpt lat="40.8076533" lon="16.55723"><ele>398.16666666666663</ele><time>2026-04-18T17:08:06.916Z</time></trkpt><trkpt lat="40.8077517" lon="16.557255"><ele>398.0</ele><time>2026-04-18T17:08:08.917Z</time></trkpt><trkpt lat="40.8078433" lon="16.557265"><ele>398.8333333333333</ele><time>2026-04-18T17:08:10.917Z</time></trkpt><trkpt lat="40.807935" lon="16.5572683"><ele>399.66666666666663</ele><time>2026-04-18T17:08:12.916Z</time></trkpt><trkpt lat="40.80802" lon="16.5572667"><ele>400.5</ele><time>2026-04-18T17:08:14.916Z</time></trkpt><trkpt lat="40.8080917" lon="16.5572417"><ele>401.33333333333337</ele><time>2026-04-18T17:08:16.917Z</time></trkpt><trkpt lat="40.8081333" lon="16.5571233"><ele>402.1666666666667</ele><time>2026-04-18T17:08:19.917Z</time></trkpt><trkpt lat="40.80813" lon="16.557035"><ele>403.0</ele><time>2026-04-18T17:08:21.917Z</time></trkpt><trkpt lat="40.8081283" lon="16.5569417"><ele>403.2</ele><time>2026-04-18T17:08:23.916Z</time></trkpt><trkpt lat="40.8081533" lon="16.5568417"><ele>403.4</ele><time>2026-04-18T17:08:25.918Z</time></trkpt><trkpt lat="40.8081883" lon="16.5567517"><ele>403.59999999999997</ele><time>2026-04-18T17:08:27.916Z</time></trkpt><trkpt lat="40.8082517" lon="16.5566633"><ele>403.79999999999995</ele><time>2026-04-18T17:08:29.917Z</time></trkpt><trkpt lat="40.8083517" lon="16.5565733"><ele>404.0</ele><time>2026-04-18T17:08:31.917Z</time></trkpt><trkpt lat="40.8084283" lon="16.556525"><ele>404.75</ele><time>2026-04-18T17:08:32.916Z</time></trkpt><trkpt lat="40.808525" lon="16.5564767"><ele>405.5</ele><time>2026-04-18T17:08:33.915Z</time></trkpt><trkpt lat="40.8086467" lon="16.556425"><ele>406.25</ele><time>2026-04-18T17:08:34.916Z</time></trkpt><trkpt lat="40.808765" lon="16.55638"><ele>407.0</ele><time>2026-04-18T17:08:35.916Z</time></trkpt><trkpt lat="40.8088867" lon="16.5563283"><ele>407.0</ele><time>2026-04-18T17:08:36.915Z</time></trkpt><trkpt lat="40.80901" lon="16.55627"><ele>407.0</ele><time>2026-04-18T17:08:37.916Z</time></trkpt><trkpt lat="40.80913" lon="16.5562067"><ele>407.0</ele><time>2026-04-18T17:08:38.916Z</time></trkpt><trkpt lat="40.809255" lon="16.5561417"><ele>407.0</ele><time>2026-04-18T17:08:39.916Z</time></trkpt><trkpt lat="40.8093817" lon="16.556075"><ele>409.25</ele><time>2026-04-18T17:08:40.917Z</time></trkpt><trkpt lat="40.8095117" lon="16.5559983"><ele>411.5</ele><time>2026-04-18T17:08:41.916Z</time></trkpt><trkpt lat="40.8096333" lon="16.5559017"><ele>413.75</ele><time>2026-04-18T17:08:42.916Z</time></trkpt><trkpt lat="40.80978" lon="16.5558367"><ele>416.0</ele><time>2026-04-18T17:08:43.917Z</time></trkpt><trkpt lat="40.8099233" lon="16.5557667"><ele>416.0</ele><time>2026-04-18T17:08:44.914Z</time></trkpt><trkpt lat="40.81008" lon="16.5557"><ele>416.0</ele><time>2026-04-18T17:08:45.916Z</time></trkpt><trkpt lat="40.8102183" lon="16.5556383"><ele>416.0</ele><time>2026-04-18T17:08:46.916Z</time></trkpt><trkpt lat="40.8103533" lon="16.5555783"><ele>416.0</ele><time>2026-04-18T17:08:47.916Z</time></trkpt><trkpt lat="40.81049" lon="16.555515"><ele>416.0</ele><time>2026-04-18T17:08:48.916Z</time></trkpt><trkpt lat="40.8106217" lon="16.5554517"><ele>416.0</ele><time>2026-04-18T17:08:49.916Z</time></trkpt><trkpt lat="40.810755" lon="16.5553867"><ele>416.0</ele><time>2026-04-18T17:08:50.916Z</time></trkpt><trkpt lat="40.8108867" lon="16.5553217"><ele>416.5</ele><time>2026-04-18T17:08:51.916Z</time></trkpt><trkpt lat="40.8110183" lon="16.5552567"><ele>417.0</ele><time>2026-04-18T17:08:52.917Z</time></trkpt><trkpt lat="40.8111533" lon="16.5551917"><ele>417.5</ele><time>2026-04-18T17:08:53.917Z</time></trkpt><trkpt lat="40.81129" lon="16.555125"><ele>418.0</ele><time>2026-04-18T17:08:54.916Z</time></trkpt><trkpt lat="40.8114267" lon="16.5550583"><ele>418.0</ele><time>2026-04-18T17:08:55.916Z</time></trkpt><trkpt lat="40.8115667" lon="16.5549883"><ele>418.0</ele><time>2026-04-18T17:08:56.916Z</time></trkpt><trkpt lat="40.8117117" lon="16.5549167"><ele>418.0</ele><time>2026-04-18T17:08:57.916Z</time></trkpt><trkpt lat="40.8118617" lon="16.5548417"><ele>419.0</ele><time>2026-04-18T17:08:58.915Z</time></trkpt><trkpt lat="40.8120067" lon="16.5547667"><ele>420.0</ele><time>2026-04-18T17:08:59.916Z</time></trkpt><trkpt lat="40.8121383" lon="16.5547"><ele>421.0</ele><time>2026-04-18T17:09:00.917Z</time></trkpt><trkpt lat="40.81226" lon="16.5546367"><ele>422.0</ele><time>2026-04-18T17:09:01.916Z</time></trkpt><trkpt lat="40.8123683" lon="16.5545783"><ele>422.40000000000003</ele><time>2026-04-18T17:09:02.916Z</time></trkpt><trkpt lat="40.8124683" lon="16.5545267"><ele>422.8</ele><time>2026-04-18T17:09:03.916Z</time></trkpt><trkpt lat="40.8125583" lon="16.5544867"><ele>423.2</ele><time>2026-04-18T17:09:04.915Z</time></trkpt><trkpt lat="40.8126433" lon="16.5544567"><ele>423.6</ele><time>2026-04-18T17:09:05.917Z</time></trkpt><trkpt lat="40.812725" lon="16.554445"><ele>424.0</ele><time>2026-04-18T17:09:06.916Z</time></trkpt><trkpt lat="40.812805" lon="16.5544483"><ele>425.0</ele><time>2026-04-18T17:09:07.917Z</time></trkpt><trkpt lat="40.8128767" lon="16.554445"><ele>426.0</ele><time>2026-04-18T17:09:08.916Z</time></trkpt><trkpt lat="40.8129383" lon="16.554425"><ele>427.0</ele><time>2026-04-18T17:09:09.916Z</time></trkpt><trkpt lat="40.81302" lon="16.5543267"><ele>428.0</ele><time>2026-04-18T17:09:11.916Z</time></trkpt><trkpt lat="40.8130317" lon="16.554195"><ele>429.0</ele><time>2026-04-18T17:09:13.917Z</time></trkpt><trkpt lat="40.8129583" lon="16.5540833"><ele>429.0</ele><time>2026-04-18T17:09:15.915Z</time></trkpt><trkpt lat="40.812905" lon="16.5540367"><ele>429.0</ele><time>2026-04-18T17:09:16.918Z</time></trkpt><trkpt lat="40.8128317" lon="16.55392"><ele>429.0</ele><time>2026-04-18T17:09:18.916Z</time></trkpt><trkpt lat="40.8127483" lon="16.5538017"><ele>429.0</ele><time>2026-04-18T17:09:20.916Z</time></trkpt><trkpt lat="40.8126733" lon="16.5537717"><ele>429.0</ele><time>2026-04-18T17:09:21.916Z</time></trkpt><trkpt lat="40.812585" lon="16.5537683"><ele>428.1666666666667</ele><time>2026-04-18T17:09:22.916Z</time></trkpt><trkpt lat="40.8124883" lon="16.5537767"><ele>427.33333333333337</ele><time>2026-04-18T17:09:23.916Z</time></trkpt><trkpt lat="40.81239" lon="16.5537833"><ele>426.5</ele><time>2026-04-18T17:09:24.916Z</time></trkpt><trkpt lat="40.8123" lon="16.5537917"><ele>425.6666666666667</ele><time>2026-04-18T17:09:25.917Z</time></trkpt><trkpt lat="40.8122183" lon="16.5538033"><ele>424.83333333333337</ele><time>2026-04-18T17:09:26.918Z</time></trkpt><trkpt lat="40.8121467" lon="16.5538067"><ele>424.0</ele><time>2026-04-18T17:09:27.917Z</time></trkpt><trkpt lat="40.81205" lon="16.5537583"><ele>424.0</ele><time>2026-04-18T17:09:29.915Z</time></trkpt><trkpt lat="40.812025" lon="16.5536517"><ele>424.0</ele><time>2026-04-18T17:09:31.918Z</time></trkpt><trkpt lat="40.8120833" lon="16.553495"><ele>424.0</ele><time>2026-04-18T17:09:33.916Z</time></trkpt><trkpt lat="40.8121333" lon="16.553395"><ele>424.0</ele><time>2026-04-18T17:09:34.916Z</time></trkpt><trkpt lat="40.8121933" lon="16.5532883"><ele>424.0</ele><time>2026-04-18T17:09:35.916Z</time></trkpt><trkpt lat="40.812255" lon="16.55318"><ele>424.0</ele><time>2026-04-18T17:09:36.916Z</time></trkpt><trkpt lat="40.812315" lon="16.5530683"><ele>424.0</ele><time>2026-04-18T17:09:37.916Z</time></trkpt><trkpt lat="40.8123733" lon="16.552955"><ele>424.0</ele><time>2026-04-18T17:09:38.916Z</time></trkpt><trkpt lat="40.81243" lon="16.55284"><ele>424.0</ele><time>2026-04-18T17:09:39.916Z</time></trkpt><trkpt lat="40.81249" lon="16.5527233"><ele>424.0</ele><time>2026-04-18T17:09:40.917Z</time></trkpt><trkpt lat="40.812555" lon="16.552605"><ele>424.25</ele><time>2026-04-18T17:09:41.916Z</time></trkpt><trkpt lat="40.8126167" lon="16.5524833"><ele>424.5</ele><time>2026-04-18T17:09:42.918Z</time></trkpt><trkpt lat="40.81268" lon="16.552355"><ele>424.75</ele><time>2026-04-18T17:09:43.918Z</time></trkpt><trkpt lat="40.8127433" lon="16.5522217"><ele>425.0</ele><time>2026-04-18T17:09:44.916Z</time></trkpt><trkpt lat="40.8128083" lon="16.55209"><ele>425.5</ele><time>2026-04-18T17:09:45.916Z</time></trkpt><trkpt lat="40.8128817" lon="16.5519617"><ele>426.0</ele><time>2026-04-18T17:09:46.917Z</time></trkpt><trkpt lat="40.8129567" lon="16.551835"><ele>426.5</ele><time>2026-04-18T17:09:47.917Z</time></trkpt><trkpt lat="40.8130383" lon="16.5517133"><ele>427.0</ele><time>2026-04-18T17:09:48.917Z</time></trkpt><trkpt lat="40.8131217" lon="16.5516"><ele>427.0</ele><time>2026-04-18T17:09:49.916Z</time></trkpt><trkpt lat="40.8132133" lon="16.5514933"><ele>427.0</ele><time>2026-04-18T17:09:50.917Z</time></trkpt><trkpt lat="40.81331" lon="16.55139"><ele>427.0</ele><time>2026-04-18T17:09:51.915Z</time></trkpt><trkpt lat="40.8134067" lon="16.551285"><ele>427.0</ele><time>2026-04-18T17:09:52.917Z</time></trkpt><trkpt lat="40.81352" lon="16.551185"><ele>426.75</ele><time>2026-04-18T17:09:53.917Z</time></trkpt><trkpt lat="40.81364" lon="16.5510933"><ele>426.5</ele><time>2026-04-18T17:09:54.916Z</time></trkpt><trkpt lat="40.8137617" lon="16.5510167"><ele>426.25</ele><time>2026-04-18T17:09:55.915Z</time></trkpt><trkpt lat="40.8138867" lon="16.550945"><ele>426.0</ele><time>2026-04-18T17:09:56.916Z</time></trkpt><trkpt lat="40.814015" lon="16.55088"><ele>426.0</ele><time>2026-04-18T17:09:57.917Z</time></trkpt><trkpt lat="40.8141467" lon="16.5508183"><ele>426.0</ele><time>2026-04-18T17:09:58.916Z</time></trkpt><trkpt lat="40.814275" lon="16.55076"><ele>426.0</ele><time>2026-04-18T17:09:59.916Z</time></trkpt><trkpt lat="40.8143983" lon="16.5507083"><ele>426.0</ele><time>2026-04-18T17:10:00.917Z</time></trkpt><trkpt lat="40.8145167" lon="16.55065"><ele>426.5</ele><time>2026-04-18T17:10:01.918Z</time></trkpt><trkpt lat="40.814625" lon="16.550585"><ele>427.0</ele><time>2026-04-18T17:10:02.918Z</time></trkpt><trkpt lat="40.8147267" lon="16.550505"><ele>427.5</ele><time>2026-04-18T17:10:03.916Z</time></trkpt><trkpt lat="40.814825" lon="16.5504117"><ele>428.0</ele><time>2026-04-18T17:10:04.916Z</time></trkpt><trkpt lat="40.8149117" lon="16.5503117"><ele>428.2</ele><time>2026-04-18T17:10:05.916Z</time></trkpt><trkpt lat="40.8149817" lon="16.550205"><ele>428.4</ele><time>2026-04-18T17:10:06.917Z</time></trkpt><trkpt lat="40.8150433" lon="16.5500933"><ele>428.59999999999997</ele><time>2026-04-18T17:10:07.916Z</time></trkpt><trkpt lat="40.8151" lon="16.5499833"><ele>428.79999999999995</ele><time>2026-04-18T17:10:08.917Z</time></trkpt><trkpt lat="40.81515" lon="16.5498867"><ele>429.0</ele><time>2026-04-18T17:10:09.917Z</time></trkpt><trkpt lat="40.8151867" lon="16.5498033"><ele>429.2</ele><time>2026-04-18T17:10:10.916Z</time></trkpt><trkpt lat="40.8152233" lon="16.5496833"><ele>429.4</ele><time>2026-04-18T17:10:12.916Z</time></trkpt><trkpt lat="40.8152467" lon="16.5495917"><ele>429.6</ele><time>2026-04-18T17:10:14.916Z</time></trkpt><trkpt lat="40.815275" lon="16.5494583"><ele>429.8</ele><time>2026-04-18T17:10:16.917Z</time></trkpt><trkpt lat="40.8153267" lon="16.5493467"><ele>430.0</ele><time>2026-04-18T17:10:18.918Z</time></trkpt><trkpt lat="40.8153883" lon="16.5492083"><ele>430.00000000000006</ele><time>2026-04-18T17:10:20.916Z</time></trkpt><trkpt lat="40.81543" lon="16.5490733"><ele>430.0</ele><time>2026-04-18T17:10:22.917Z</time></trkpt><trkpt lat="40.815395" lon="16.54896"><ele>430.0</ele><time>2026-04-18T17:10:24.917Z</time></trkpt><trkpt lat="40.81534" lon="16.548915"><ele>430.0</ele><time>2026-04-18T17:10:25.917Z</time></trkpt><trkpt lat="40.81527" lon="16.5488633"><ele>430.00000000000006</ele><time>2026-04-18T17:10:26.915Z</time></trkpt><trkpt lat="40.8151917" lon="16.5488"><ele>430.0</ele><time>2026-04-18T17:10:27.916Z</time></trkpt><trkpt lat="40.815115" lon="16.548735"><ele>430.00000000000006</ele><time>2026-04-18T17:10:28.917Z</time></trkpt><trkpt lat="40.815035" lon="16.5486667"><ele>430.0</ele><time>2026-04-18T17:10:29.916Z</time></trkpt><trkpt lat="40.8149533" lon="16.5485917"><ele>430.0</ele><time>2026-04-18T17:10:30.917Z</time></trkpt><trkpt lat="40.814875" lon="16.5485233"><ele>430.0</ele><time>2026-04-18T17:10:31.916Z</time></trkpt><trkpt lat="40.8148083" lon="16.5484733"><ele>430.00000000000006</ele><time>2026-04-18T17:10:32.916Z</time></trkpt><trkpt lat="40.8147383" lon="16.5484517"><ele>430.0</ele><time>2026-04-18T17:10:33.916Z</time></trkpt><trkpt lat="40.81466" lon="16.5484583"><ele>430.0</ele><time>2026-04-18T17:10:34.916Z</time></trkpt><trkpt lat="40.8145733" lon="16.5484783"><ele>430.0</ele><time>2026-04-18T17:10:35.916Z</time></trkpt><trkpt lat="40.8144783" lon="16.5484967"><ele>430.0</ele><time>2026-04-18T17:10:36.916Z</time></trkpt><trkpt lat="40.8143767" lon="16.548505"><ele>430.0</ele><time>2026-04-18T17:10:37.916Z</time></trkpt><trkpt lat="40.81428" lon="16.5485067"><ele>430.0</ele><time>2026-04-18T17:10:38.917Z</time></trkpt><trkpt lat="40.8141917" lon="16.5484983"><ele>429.50000000000006</ele><time>2026-04-18T17:10:39.916Z</time></trkpt><trkpt lat="40.814105" lon="16.5484733"><ele>429.0</ele><time>2026-04-18T17:10:40.916Z</time></trkpt><trkpt lat="40.81402" lon="16.5484283"><ele>428.5</ele><time>2026-04-18T17:10:41.916Z</time></trkpt><trkpt lat="40.813945" lon="16.548365"><ele>428.0</ele><time>2026-04-18T17:10:42.917Z</time></trkpt><trkpt lat="40.8138783" lon="16.548285"><ele>427.50000000000006</ele><time>2026-04-18T17:10:43.916Z</time></trkpt><trkpt lat="40.8138267" lon="16.5482017"><ele>427.0</ele><time>2026-04-18T17:10:44.916Z</time></trkpt><trkpt lat="40.81379" lon="16.5481033"><ele>427.0</ele><time>2026-04-18T17:10:45.916Z</time></trkpt><trkpt lat="40.8137683" lon="16.547995"><ele>427.00000000000006</ele><time>2026-04-18T17:10:46.917Z</time></trkpt><trkpt lat="40.8137483" lon="16.5478667"><ele>427.00000000000006</ele><time>2026-04-18T17:10:47.916Z</time></trkpt><trkpt lat="40.81373" lon="16.547715"><ele>427.0</ele><time>2026-04-18T17:10:48.917Z</time></trkpt><trkpt lat="40.8137083" lon="16.5475433"><ele>427.0</ele><time>2026-04-18T17:10:49.917Z</time></trkpt><trkpt lat="40.81369" lon="16.5473417"><ele>427.5</ele><time>2026-04-18T17:10:50.916Z</time></trkpt><trkpt lat="40.8136683" lon="16.54714"><ele>428.0</ele><time>2026-04-18T17:10:51.916Z</time></trkpt><trkpt lat="40.8136417" lon="16.54695"><ele>428.5</ele><time>2026-04-18T17:10:52.917Z</time></trkpt><trkpt lat="40.813615" lon="16.5467683"><ele>429.0</ele><time>2026-04-18T17:10:53.917Z</time></trkpt><trkpt lat="40.81359" lon="16.54659"><ele>429.0</ele><time>2026-04-18T17:10:54.917Z</time></trkpt><trkpt lat="40.8135567" lon="16.5464083"><ele>429.0</ele><time>2026-04-18T17:10:55.916Z</time></trkpt><trkpt lat="40.813525" lon="16.5462183"><ele>429.0</ele><time>2026-04-18T17:10:56.919Z</time></trkpt><trkpt lat="40.8135" lon="16.5460233"><ele>429.0</ele><time>2026-04-18T17:10:57.916Z</time></trkpt><trkpt lat="40.8134867" lon="16.5458417"><ele>429.0</ele><time>2026-04-18T17:10:58.917Z</time></trkpt><trkpt lat="40.8134867" lon="16.545665"><ele>429.0</ele><time>2026-04-18T17:10:59.916Z</time></trkpt><trkpt lat="40.8134967" lon="16.5454983"><ele>429.0</ele><time>2026-04-18T17:11:00.917Z</time></trkpt><trkpt lat="40.8135083" lon="16.545345"><ele>429.0</ele><time>2026-04-18T17:11:01.916Z</time></trkpt><trkpt lat="40.8135217" lon="16.5452033"><ele>429.5</ele><time>2026-04-18T17:11:02.916Z</time></trkpt><trkpt lat="40.8135317" lon="16.5450717"><ele>430.0</ele><time>2026-04-18T17:11:03.916Z</time></trkpt><trkpt lat="40.8135383" lon="16.5449633"><ele>430.5</ele><time>2026-04-18T17:11:04.92Z</time></trkpt><trkpt lat="40.8135417" lon="16.5448683"><ele>431.0</ele><time>2026-04-18T17:11:05.917Z</time></trkpt><trkpt lat="40.81355" lon="16.5447817"><ele>431.5</ele><time>2026-04-18T17:11:06.916Z</time></trkpt><trkpt lat="40.813565" lon="16.544615"><ele>432.0</ele><time>2026-04-18T17:11:08.916Z</time></trkpt><trkpt lat="40.8135617" lon="16.5445183"><ele>432.1666666666667</ele><time>2026-04-18T17:11:09.917Z</time></trkpt><trkpt lat="40.81356" lon="16.5444167"><ele>432.33333333333337</ele><time>2026-04-18T17:11:10.915Z</time></trkpt><trkpt lat="40.8135633" lon="16.5443083"><ele>432.5</ele><time>2026-04-18T17:11:11.916Z</time></trkpt><trkpt lat="40.8135667" lon="16.5442033"><ele>432.6666666666667</ele><time>2026-04-18T17:11:12.918Z</time></trkpt><trkpt lat="40.8135717" lon="16.5441067"><ele>432.83333333333337</ele><time>2026-04-18T17:11:13.915Z</time></trkpt><trkpt lat="40.813585" lon="16.5439467"><ele>433.0</ele><time>2026-04-18T17:11:15.916Z</time></trkpt><trkpt lat="40.8136033" lon="16.5438167"><ele>433.0</ele><time>2026-04-18T17:11:17.916Z</time></trkpt><trkpt lat="40.8135567" lon="16.543715"><ele>432.99999999999994</ele><time>2026-04-18T17:11:19.917Z</time></trkpt><trkpt lat="40.8134417" lon="16.543675"><ele>432.99999999999994</ele><time>2026-04-18T17:11:21.916Z</time></trkpt><trkpt lat="40.8133717" lon="16.5436683"><ele>433.0</ele><time>2026-04-18T17:11:22.916Z</time></trkpt><trkpt lat="40.8133067" lon="16.5436617"><ele>433.0</ele><time>2026-04-18T17:11:23.917Z</time></trkpt><trkpt lat="40.8131967" lon="16.543645"><ele>427.0</ele><time>2026-04-18T17:11:25.916Z</time></trkpt><trkpt lat="40.81313" lon="16.5437"><ele>427.0</ele><time>2026-04-18T17:11:27.917Z</time></trkpt><trkpt lat="40.8131133" lon="16.5437883"><ele>428.0</ele><time>2026-04-18T17:11:29.916Z</time></trkpt></trkseg></trk></gpx>